# Wetter Temperatur Luftdruck Luftfeuchtigkeit Sichtweite Windgeschwindigkeit Windrichtung Zeit
1 Clouds 15 1017 64 0 0.62 250 08:23 14.07.2020
2 Clouds 16 1014 61 0 0.62 250 07:58 14.07.2020
3 Clouds 16 1014 62 0 0.62 250 07:38 14.07.2020
4 Clouds 16 1014 63 0 0.94 149 07:18 14.07.2020
5 Clouds 14 1014 66 0 0.94 149 06:44 14.07.2020
6 Clouds 11 1016 79 0 1.3 145 06:24 14.07.2020
7 Clouds 12 1015 79 0 1.3 145 05:33 14.07.2020
8 Clouds 13 1016 70 0 0.89 153 04:37 14.07.2020
9 Clouds 13 1016 67 0 1.53 146 03:36 14.07.2020
10 Clouds 14 1019 74 0 1.57 144 02:51 14.07.2020
11 Clouds 14 1016 73 0 1.72 143 02:25 14.07.2020
12 Clouds 14 1017 70 0 1.68 133 01:36 14.07.2020
13 Clouds 15 1017 69 0 2.09 131 00:55 14.07.2020
14 Clouds 15 1017 69 0 2.09 131 00:37 14.07.2020
15 Clouds 15 1017 67 0 2.31 126 00:19 14.07.2020
16 Clouds 16 1019 64 0 2.31 126 23:38 13.07.2020
17 Clouds 16 1016 62 0 2.54 126 23:19 13.07.2020
18 Clouds 19 1018 45 10000 2.6 290 22:43 13.07.2020
19 Clouds 17 1018 46 10000 2.6 290 22:22 13.07.2020
20 Clouds 19 1018 46 10000 2.6 290 21:59 13.07.2020
21 Clouds 21 1018 38 10000 1 0 21:41 13.07.2020
22 Clouds 19 1020 59 0 0.45 346 21:21 13.07.2020
23 Clouds 19 1020 59 0 0.45 346 21:21 13.07.2020
24 Clouds 20 1020 58 0 0.45 326 20:59 13.07.2020
25 Clouds 20 1020 55 0 2.24 84 20:41 13.07.2020
26 Clouds 22 1018 40 0 1.86 41 20:22 13.07.2020
27 Clouds 24 1020 50 0 0.89 339 19:57 13.07.2020
28 Clouds 26 1018 28 10000 4.6 20 19:39 13.07.2020
29 Clouds 24 1018 31 10000 2.1 80 19:21 13.07.2020
30 Clouds 24 1018 29 10000 2.1 0 18:54 13.07.2020
31 Clouds 24 1018 29 10000 2.1 0 18:36 13.07.2020
32 Clouds 24 1020 44 0 2.24 298 18:18 13.07.2020
33 Clouds 24 1018 37 0 2.68 333 17:42 13.07.2020
34 Clouds 24 1018 37 0 1.79 255 17:21 13.07.2020
35 Clouds 24 1020 42 0 2.24 298 16:58 13.07.2020
36 Clouds 26 1018 38 0 3.58 314 16:40 13.07.2020
37 Clouds 24 1018 38 0 2.68 307 16:20 13.07.2020
38 Clouds 25 1020 31 10000 2.1 0 15:57 13.07.2020
39 Clouds 25 1018 39 0 2.68 307 15:38 13.07.2020
40 Clouds 24 1020 31 10000 3.1 320 15:19 13.07.2020
41 Clouds 23 1021 41 0 2.54 5 14:57 13.07.2020
42 Clouds 24 1021 38 0 0.45 163 14:38 13.07.2020
43 Clouds 25 1019 37 0 0.89 280 14:19 13.07.2020
44 Clouds 24 1020 40 0 1.34 49 13:43 13.07.2020
45 Clouds 24 1020 40 0 1.34 49 13:22 13.07.2020
46 Clouds 24 1020 40 0 0.45 195 12:57 13.07.2020
47 Clouds 24 1017 37 0 0.45 81 12:39 13.07.2020
48 Clouds 21 1022 40 10000 3.1 360 12:20 13.07.2020
49 Clouds 21 1022 44 0 0.89 204 11:42 13.07.2020
50 Clouds 21 1021 51 0 0.45 337 11:24 13.07.2020
51 Clouds 21 1021 51 0 0.45 337 11:24 13.07.2020
52 Clouds 21 1021 55 0 0.89 232 10:59 13.07.2020
53 Clouds 20 1022 58 0 1.71 347 10:37 13.07.2020
54 Clouds 20 1022 59 0 1.46 358 10:19 13.07.2020
55 Clouds 19 1019 57 0 0.45 323 09:41 13.07.2020
56 Clouds 17 1023 63 10000 1.5 20 09:23 13.07.2020
57 Clouds 16 1020 62 0 0.89 345 08:51 13.07.2020
58 Clouds 15 1020 65 0 0.92 1 08:32 13.07.2020
59 Clouds 14 1020 70 0 0.65 73 07:34 13.07.2020
60 Clouds 13 1020 70 0 0.89 357 06:55 13.07.2020
61 Clouds 12 1019 69 0 1.21 110 06:37 13.07.2020
62 Clouds 12 1022 77 0 1.41 113 06:19 13.07.2020
63 Clouds 13 1021 75 0 1.39 109 04:34 13.07.2020
64 Clouds 14 1022 48 10000 2.6 360 01:53 13.07.2020
65 Clear 15 1022 45 10000 3.1 360 01:26 13.07.2020
66 Clear 16 1022 45 10000 3.1 360 00:57 13.07.2020
67 Clear 16 1024 71 0 2.79 111 00:25 13.07.2020
68 Clear 17 1023 65 0 0.89 74 23:58 12.07.2020
69 Clear 17 1021 57 0 0.89 255 23:39 12.07.2020
70 Clouds 18 1021 57 0 0.89 255 23:21 12.07.2020
71 Clouds 17 1024 62 0 2.91 106 22:54 12.07.2020
72 Clouds 20 1022 35 10000 4.6 360 22:36 12.07.2020
73 Clouds 18 1024 60 0 2.89 95 22:18 12.07.2020
74 Clouds 21 1022 31 10000 4.6 360 21:42 12.07.2020
75 Clear 19 1023 57 0 2.86 76 21:20 12.07.2020
76 Clear 20 1023 53 0 2.86 76 20:59 12.07.2020
77 Clear 20 1023 50 0 2.86 76 20:40 12.07.2020
78 Clear 23 1023 45 0 2.61 47 20:20 12.07.2020
79 Clear 25 1022 27 10000 5.1 10 19:55 12.07.2020
80 Clear 25 1022 27 10000 5.1 10 19:37 12.07.2020
81 Clear 25 1022 29 10000 6.7 10 19:18 12.07.2020
82 Clear 24 1022 27 10000 5.7 10 18:42 12.07.2020
83 Clear 23 1023 42 0 3.75 33 18:20 12.07.2020
84 Clear 23 1023 44 0 3.75 33 17:58 12.07.2020
85 Clear 23 1024 43 0 3.75 33 17:37 12.07.2020
86 Clear 23 1024 38 0 0.45 150 17:19 12.07.2020
87 Clear 24 1024 38 0 0.89 231 16:45 12.07.2020
88 Clear 23 1024 41 0 4.31 30 16:21 12.07.2020
89 Clear 24 1024 40 0 1.34 196 15:46 12.07.2020
90 Clear 24 1023 32 0 4.02 44 15:27 12.07.2020
91 Clear 25 1023 32 0 4.02 44 14:57 12.07.2020
92 Clear 25 1023 33 0 4.02 349 14:38 12.07.2020
93 Clear 24 1023 33 0 4.02 349 14:19 12.07.2020
94 Clear 24 1023 35 0 2.68 1 13:39 12.07.2020
95 Clear 24 1023 35 0 3.58 356 13:21 12.07.2020
96 Clear 23 1023 37 0 3.13 7 12:55 12.07.2020
97 Clear 23 1023 38 0 2.68 195 12:36 12.07.2020
98 Clear 20 1025 46 0 1.34 243 12:18 12.07.2020
99 Clear 20 1025 46 0 1.34 243 12:18 12.07.2020
100 Clear 21 1024 49 0 0.89 23 11:44 12.07.2020
101 Clear 20 1024 49 0 2.68 58 11:20 12.07.2020
102 Clear 19 1024 54 0 1.79 330 10:43 12.07.2020
103 Clear 19 1024 59 0 0.89 23 10:23 12.07.2020
104 Clear 18 1022 58 0 0.45 342 09:58 12.07.2020
105 Clear 17 1022 61 0 0.89 332 09:40 12.07.2020
106 Clear 16 1025 57 0 0.89 176 09:20 12.07.2020
107 Clear 15 1022 69 0 1.42 30 08:54 12.07.2020
108 Clear 14 1022 71 0 1.42 30 08:36 12.07.2020
109 Clear 13 1022 72 0 1.03 66 08:18 12.07.2020
110 Clear 12 1022 77 0 1.03 66 07:42 12.07.2020
111 Clear 12 1022 77 0 1.03 66 07:42 12.07.2020
112 Clear 12 1022 78 0 1.59 99 07:21 12.07.2020
113 Clear 11 1022 77 0 1.59 99 06:51 12.07.2020
114 Clear 10 1024 79 0 0.45 66 06:21 12.07.2020
115 Clear 11 1021 72 0 1.7 100 05:42 12.07.2020
116 Clear 10 1023 74 0 1.72 102 04:56 12.07.2020
117 Clear 11 1022 79 0 1.78 107 04:26 12.07.2020
118 Clear 11 1022 78 0 1.78 107 03:34 12.07.2020
119 Clear 12 1023 69 0 1.83 103 02:52 12.07.2020
120 Clear 12 1025 72 0 1.94 98 01:44 12.07.2020
121 Clear 13 1022 64 0 1.96 94 00:52 12.07.2020
122 Clear 14 1022 64 0 1.96 97 00:23 12.07.2020
123 Clear 14 1021 63 0 1.96 97 23:58 11.07.2020
124 Clear 14 1021 60 0 1.96 97 23:39 11.07.2020
125 Clear 14 1021 59 0 2.04 97 23:20 11.07.2020
126 Clear 15 1025 66 0 2.04 97 22:56 11.07.2020
127 Clear 17 1025 64 0 0.45 344 22:37 11.07.2020
128 Clear 17 1025 64 0 0.45 344 22:37 11.07.2020
129 Clear 16 1023 49 0 2.04 85 22:18 11.07.2020
130 Clear 17 1023 37 10000 2.6 30 21:42 11.07.2020
131 Clear 18 1023 46 0 0.45 23 21:23 11.07.2020
132 Clear 20 1023 42 0 0.45 23 20:59 11.07.2020
133 Clear 20 1022 37 0 2.24 5 20:40 11.07.2020
134 Clear 20 1022 37 0 2.24 5 20:40 11.07.2020
135 Clear 20 1023 40 0 0.45 23 20:21 11.07.2020
136 Clear 20 1023 39 0 0.89 23 19:58 11.07.2020
137 Clear 21 1023 38 0 0.45 23 19:40 11.07.2020
138 Clear 20 1023 44 0 2.68 290 19:22 11.07.2020
139 Clear 20 1024 44 0 1.79 282 18:56 11.07.2020
140 Clear 22 1022 35 0 3.58 13 18:38 11.07.2020
141 Clear 22 1022 36 0 2.68 60 18:19 11.07.2020
142 Clear 22 1022 37 0 3.58 69 17:55 11.07.2020
143 Clear 22 1022 37 0 2.68 65 17:37 11.07.2020
144 Clear 22 1022 38 0 2.24 20 17:18 11.07.2020
145 Clear 22 1022 39 0 4.47 19 16:42 11.07.2020
146 Clear 22 1022 39 0 2.24 301 16:23 11.07.2020
147 Clear 22 1022 42 0 3.58 21 15:58 11.07.2020
148 Clear 22 1022 42 0 3.58 21 15:39 11.07.2020
149 Clear 21 1023 51 0 1.34 202 15:20 11.07.2020
150 Clear 21 1023 50 0 2.24 248 14:57 11.07.2020
151 Clear 21 1023 51 0 1.79 297 14:37 11.07.2020
152 Clouds 21 1022 46 0 0.89 23 14:19 11.07.2020
153 Clouds 21 1022 47 0 2.24 59 13:42 11.07.2020
154 Rain 22 1022 47 0 2.24 59 13:22 11.07.2020
155 Rain 21 1021 44 0 1.79 315 12:56 11.07.2020
156 Rain 21 1021 44 0 1.79 315 12:56 11.07.2020
157 Rain 20 1022 56 0 0.45 23 12:37 11.07.2020
158 Rain 20 1023 63 0 1.34 342 12:19 11.07.2020
159 Rain 19 1021 64 0 2.24 62 11:41 11.07.2020
160 Rain 20 1021 64 0 2.24 62 11:21 11.07.2020
161 Rain 18 1021 66 0 2.68 15 10:57 11.07.2020
162 Rain 18 1022 79 0 0.45 23 10:39 11.07.2020
163 Rain 18 1021 69 0 3.13 326 10:21 11.07.2020
164 Rain 16 1018 85 0 2.39 351 09:43 11.07.2020
165 Rain 16 1021 75 0 1.79 12 09:20 11.07.2020
166 Rain 15 1021 87 0 0.89 23 08:49 11.07.2020
167 Rain 15 1019 81 0 0.45 351 08:31 11.07.2020
168 Rain 15 1018 82 0 1.5 330 07:59 11.07.2020
169 Rain 15 1018 83 0 1.34 317 07:40 11.07.2020
170 Rain 15 1020 89 0 1.55 312 07:19 11.07.2020
171 Rain 15 1020 87 0 1.55 312 06:51 11.07.2020
172 Rain 15 1017 87 0 0.75 213 06:20 11.07.2020
173 Rain 15 1016 87 0 1.07 224 05:20 11.07.2020
174 Rain 16 1016 87 0 1.07 224 04:55 11.07.2020
175 Rain 16 1016 83 0 0.14 126 04:31 11.07.2020
176 Rain 16 1016 78 0 1.09 26 02:59 11.07.2020
177 Clouds 17 1018 79 0 1.34 29 02:37 11.07.2020
178 Rain 16 1020 80 0 1.12 70 01:32 11.07.2020
179 Clouds 16 1020 80 0 1.05 45 00:59 11.07.2020
180 Clouds 16 1019 79 0 1.05 45 00:40 11.07.2020
181 Clouds 17 1019 78 0 1.83 43 00:21 11.07.2020
182 Clouds 18 1019 81 0 1.83 43 23:57 10.07.2020
183 Clouds 18 1018 80 0 1.83 43 23:39 10.07.2020
184 Clouds 19 1018 80 0 1.39 26 23:18 10.07.2020
185 Clouds 21 1017 56 10000 3.6 350 22:43 10.07.2020
186 Clouds 19 1017 64 0 1.74 0 22:20 10.07.2020
187 Clouds 18 1017 62 0 1.74 0 21:56 10.07.2020
188 Clouds 21 1016 54 0 0.89 180 21:36 10.07.2020
189 Clouds 21 1017 62 0 1.12 331 21:18 10.07.2020
190 Clouds 21 1016 64 0 0.45 23 20:41 10.07.2020
191 Clouds 21 1016 64 0 1.34 23 20:23 10.07.2020
192 Clouds 21 1016 64 0 1.79 23 19:58 10.07.2020
193 Clouds 21 1016 63 0 1.34 23 19:40 10.07.2020
194 Clouds 21 1014 56 0 4.92 25 19:21 10.07.2020
195 Clouds 23 1015 47 10000 6.2 310 18:42 10.07.2020
196 Rain 23 1013 52 0 3.58 321 18:22 10.07.2020
197 Rain 24 1014 44 10000 6.2 300 17:59 10.07.2020
198 Rain 26 1014 47 10000 4.6 310 17:40 10.07.2020
199 Rain 25 1015 48 0 5.2 332 17:22 10.07.2020
200 Rain 27 1015 42 0 5.2 332 16:44 10.07.2020
201 Rain 28 1015 40 0 0.89 203 16:21 10.07.2020
202 Rain 27 1015 39 0 0.45 180 15:57 10.07.2020
203 Rain 28 1015 40 0 1.34 203 15:39 10.07.2020
204 Clouds 27 1015 42 0 1.34 180 15:18 10.07.2020
205 Clouds 27 1015 45 0 1.34 180 14:41 10.07.2020
206 Clouds 27 1015 47 0 0.89 203 14:22 10.07.2020
207 Clouds 27 1011 37 0 3.58 203 13:58 10.07.2020
208 Clouds 28 1011 36 0 2.24 256 13:40 10.07.2020
209 Clouds 27 1015 46 0 1.79 203 13:22 10.07.2020
210 Clouds 27 1015 49 0 1.34 203 12:58 10.07.2020
211 Clouds 27 1015 50 0 1.79 203 12:40 10.07.2020
212 Clouds 27 1015 44 0 4.02 157 12:21 10.07.2020
213 Clouds 26 1014 52 0 1.79 203 11:43 10.07.2020
214 Clouds 26 1015 47 0 3.58 90 11:24 10.07.2020
215 Clouds 26 1013 49 0 2.68 263 10:59 10.07.2020
216 Clouds 26 1013 49 0 2.68 263 10:59 10.07.2020
217 Clouds 25 1013 52 0 3.58 191 10:41 10.07.2020
218 Clouds 25 1015 50 0 3.58 135 10:21 10.07.2020
219 Clouds 25 1014 50 0 2.68 135 09:55 10.07.2020
220 Clouds 24 1012 53 0 1.79 254 09:36 10.07.2020
221 Clear 22 1013 53 10000 2.1 180 09:18 10.07.2020
222 Clear 21 1016 68 0 4.8 215 08:54 10.07.2020
223 Clear 20 1016 72 0 4.8 215 08:36 10.07.2020
224 Clear 19 1016 79 0 3.48 207 08:18 10.07.2020
225 Clear 17 1016 78 0 3.48 207 07:41 10.07.2020
226 Clear 17 1013 54 0 1.34 112 07:20 10.07.2020
227 Clear 19 1013 55 0 0.45 90 06:45 10.07.2020
228 Clear 19 1009 58 0 3.08 187 05:54 10.07.2020
229 Clear 19 1009 57 0 2.67 180 04:32 10.07.2020
230 Clear 19 1016 76 0 2.23 177 03:31 10.07.2020
231 Clear 19 1013 56 0 1.34 180 02:49 10.07.2020
232 Clear 19 1013 61 0 1.34 157 01:48 10.07.2020
233 Clear 20 1013 61 0 0.45 360 00:47 10.07.2020
234 Clear 20 1013 61 0 0.45 337 00:19 10.07.2020
235 Clear 18 1017 70 0 1.9 150 23:46 09.07.2020
236 Clear 19 1017 69 0 2.11 154 23:21 09.07.2020
237 Clear 19 1017 69 0 2.11 154 22:58 09.07.2020
238 Clear 20 1017 68 0 2.11 154 22:40 09.07.2020
239 Clear 24 1015 49 0 2.27 155 22:21 09.07.2020
240 Clear 22 1012 43 0 0.89 170 21:56 09.07.2020
241 Clear 25 1012 43 0 0.89 170 21:38 09.07.2020
242 Clear 25 1012 43 0 0.89 170 21:38 09.07.2020
243 Clear 22 1017 61 0 2.44 172 21:19 09.07.2020
244 Clear 24 1017 58 0 1.88 192 20:45 09.07.2020
245 Clear 25 1017 54 0 2.12 219 20:25 09.07.2020
246 Clear 27 1017 44 0 2.12 219 19:58 09.07.2020
247 Clear 29 1016 42 0 1.34 296 19:40 09.07.2020
248 Clouds 29 1016 44 0 0.89 52 19:21 09.07.2020
249 Clouds 28 1013 35 0 2.24 262 18:43 09.07.2020
250 Clouds 30 1013 35 0 2.24 262 18:22 09.07.2020
251 Clouds 30 1013 33 0 2.68 260 17:56 09.07.2020
252 Clouds 30 1017 37 0 1.79 28 17:38 09.07.2020
253 Clouds 30 1013 33 0 2.68 194 17:19 09.07.2020
254 Clouds 30 1014 32 0 3.13 155 16:56 09.07.2020
255 Clouds 29 1014 32 0 3.13 167 16:37 09.07.2020
256 Clouds 30 1014 31 0 4.02 252 16:19 09.07.2020
257 Clouds 30 1014 33 0 3.58 222 15:55 09.07.2020
258 Clouds 30 1014 33 0 3.13 225 15:36 09.07.2020
259 Clouds 28 1018 43 0 1.34 327 15:18 09.07.2020
260 Clouds 29 1015 36 0 3.13 155 14:57 09.07.2020
261 Clouds 29 1015 35 0 2.68 218 14:39 09.07.2020
262 Clouds 29 1015 35 0 3.13 225 14:19 09.07.2020
263 Clouds 28 1015 37 0 3.58 232 13:55 09.07.2020
264 Clouds 28 1015 36 0 3.58 253 13:36 09.07.2020
265 Clouds 28 1019 42 0 0.89 146 13:18 09.07.2020
266 Clouds 28 1017 39 0 2.68 135 12:40 09.07.2020
267 Clouds 25 1019 50 0 1.34 138 12:21 09.07.2020
268 Clouds 25 1019 51 0 1.34 150 11:56 09.07.2020
269 Clouds 24 1019 52 0 1.34 182 11:37 09.07.2020
270 Clouds 24 1019 53 0 0.89 136 11:18 09.07.2020
271 Clouds 25 1015 50 0 2.17 260 10:55 09.07.2020
272 Clouds 25 1015 51 0 2.17 260 10:37 09.07.2020
273 Clouds 24 1015 52 0 1.93 252 10:18 09.07.2020
274 Clouds 21 1015 59 0 1.93 252 09:41 09.07.2020
275 Clouds 20 1015 65 0 1.23 262 09:22 09.07.2020
276 Clouds 19 1015 66 0 1.13 249 08:49 09.07.2020
277 Clouds 18 1015 68 0 0.67 253 08:26 09.07.2020
278 Clouds 17 1015 71 0 0.67 253 07:50 09.07.2020
279 Clouds 16 1015 73 0 1.02 177 07:30 09.07.2020
280 Clouds 15 1015 75 0 1.02 177 06:58 09.07.2020
281 Clouds 15 1015 72 0 0.95 172 06:20 09.07.2020
282 Clouds 15 1015 73 0 0.95 172 05:50 09.07.2020
283 Clouds 15 1016 78 0 1.29 161 04:29 09.07.2020
284 Clear 16 1020 81 0 1.42 163 02:45 09.07.2020
285 Clouds 14 1020 80 0 1.65 161 01:55 09.07.2020
286 Clouds 15 1020 79 0 1.26 151 00:59 09.07.2020
287 Clouds 15 1020 78 0 1.26 151 00:38 09.07.2020
288 Clouds 16 1020 77 0 1.2 145 00:19 09.07.2020
289 Clouds 16 1021 76 0 1.2 145 23:43 08.07.2020
290 Clouds 17 1021 76 0 1.43 146 23:24 08.07.2020
291 Clouds 18 1018 53 10000 2.6 280 22:55 08.07.2020
292 Clouds 18 1017 49 10000 2.1 270 22:36 08.07.2020
293 Clouds 18 1020 72 0 1.5 145 22:18 08.07.2020
294 Clouds 20 1017 51 0 0.89 203 21:55 08.07.2020
295 Clouds 20 1017 51 0 0.89 203 21:36 08.07.2020
296 Clouds 22 1018 57 0 1.07 138 21:18 08.07.2020
297 Clouds 23 1017 47 0 1.34 229 20:41 08.07.2020
298 Clouds 23 1018 50 0 1.77 356 20:23 08.07.2020
299 Clouds 24 1018 47 0 0.45 203 19:55 08.07.2020
300 Clouds 23 1020 55 0 1.34 312 19:37 08.07.2020
301 Clouds 25 1018 45 0 0.45 203 19:18 08.07.2020
302 Clouds 25 1019 40 0 1.79 90 18:41 08.07.2020
303 Clouds 27 1018 44 0 0.45 225 18:21 08.07.2020
304 Clouds 26 1018 42 0 1.79 203 17:57 08.07.2020
305 Clouds 25 1018 41 0 0.89 203 17:39 08.07.2020
306 Clouds 26 1018 41 0 0.89 203 17:20 08.07.2020
307 Clouds 26 1018 41 0 0.89 180 16:58 08.07.2020
308 Clouds 26 1017 40 0 2.68 262 16:38 08.07.2020
309 Clouds 27 1017 37 0 3.13 236 16:19 08.07.2020
310 Clouds 27 1017 37 0 3.13 236 15:58 08.07.2020
311 Clouds 26 1017 38 0 2.24 193 15:38 08.07.2020
312 Clouds 25 1017 38 0 2.24 193 15:19 08.07.2020
313 Clouds 25 1017 39 0 1.79 191 14:44 08.07.2020
314 Clouds 25 1017 38 0 1.79 119 14:25 08.07.2020
315 Clouds 25 1017 39 0 2.68 232 13:58 08.07.2020
316 Clouds 24 1017 38 0 1.34 228 13:40 08.07.2020
317 Clouds 24 1020 37 0 1.79 292 13:18 08.07.2020
318 Clouds 23 1015 44 0 0.89 242 12:41 08.07.2020
319 Clouds 21 1018 41 10000 2.1 150 12:20 08.07.2020
320 Clouds 21 1019 53 0 2.56 264 11:56 08.07.2020
321 Clouds 22 1019 45 0 0.45 113 11:38 08.07.2020
322 Clouds 22 1015 55 0 1.79 269 11:20 08.07.2020
323 Clouds 22 1016 52 0 2.29 252 10:43 08.07.2020
324 Clouds 21 1016 54 0 1.95 250 10:24 08.07.2020
325 Clouds 19 1016 58 0 1.95 250 09:46 08.07.2020
326 Clouds 16 1018 63 10000 2.6 150 09:26 08.07.2020
327 Clouds 16 1016 62 0 1.7 249 08:58 08.07.2020
328 Clouds 14 1016 67 0 1.7 249 08:39 08.07.2020
329 Clouds 14 1016 67 0 1.28 194 08:20 08.07.2020
330 Clouds 13 1016 71 0 1.28 194 07:44 08.07.2020
331 Clear 13 1016 72 0 0.75 189 07:22 08.07.2020
332 Clear 13 1016 74 0 0.75 189 06:52 08.07.2020
333 Clear 12 1018 80 0 0.75 189 06:31 08.07.2020
334 Clear 11 1018 79 0 0.45 146 05:49 08.07.2020
335 Clear 12 1018 78 0 0.89 139 04:58 08.07.2020
336 Clear 12 1015 80 0 1.16 156 04:20 08.07.2020
337 Clear 13 1019 71 0 1.34 137 02:20 08.07.2020
338 Clear 11 1019 72 0 0.45 187 01:39 08.07.2020
339 Clear 11 1019 72 0 0.45 187 01:39 08.07.2020
340 Clear 12 1020 79 0 1.19 124 00:59 08.07.2020
341 Clear 12 1020 77 0 1.28 118 00:22 08.07.2020
342 Clear 13 1020 75 0 1.28 118 23:44 07.07.2020
343 Clear 13 1020 74 0 0.45 338 23:24 07.07.2020
344 Clear 14 1020 74 0 1.23 112 22:59 07.07.2020
345 Clear 16 1019 60 0 1.23 112 22:41 07.07.2020
346 Clear 16 1019 59 0 1.53 112 22:21 07.07.2020
347 Clear 15 1018 55 10000 2.1 330 21:59 07.07.2020
348 Clear 17 1020 68 0 1.53 112 21:39 07.07.2020
349 Clear 20 1018 54 0 0.79 33 21:21 07.07.2020
350 Clear 19 1018 50 0 0.79 33 20:57 07.07.2020
351 Clear 18 1019 63 0 0.79 33 20:38 07.07.2020
352 Clear 20 1018 43 0 1.11 359 20:20 07.07.2020
353 Clear 20 1018 43 0 1.11 359 20:20 07.07.2020
354 Clear 20 1019 51 0 0.89 319 19:40 07.07.2020
355 Clear 21 1019 49 0 0.89 314 19:21 07.07.2020
356 Clear 21 1019 46 0 0.45 306 18:56 07.07.2020
357 Clear 21 1019 43 0 0.89 269 18:38 07.07.2020
358 Clear 21 1019 43 0 0.89 269 18:38 07.07.2020
359 Clear 21 1019 44 0 1.34 306 18:38 07.07.2020
360 Clear 21 1019 45 0 0.89 312 18:20 07.07.2020
361 Clear 21 1019 45 0 0.89 312 18:20 07.07.2020
362 Clear 21 1020 48 0 1.79 309 17:58 07.07.2020
363 Clear 21 1020 48 0 1.79 295 17:38 07.07.2020
364 Clear 21 1020 49 0 1.79 315 17:20 07.07.2020
365 Clear 23 1019 34 0 1.79 305 16:43 07.07.2020
366 Clear 23 1019 35 0 1.79 95 16:24 07.07.2020
367 Clear 22 1019 37 0 1.34 355 15:58 07.07.2020
368 Clear 22 1019 38 0 1.34 242 15:39 07.07.2020
369 Clear 22 1019 39 0 2.24 325 15:20 07.07.2020
370 Clear 22 1020 40 0 2.24 342 14:47 07.07.2020
371 Clear 21 1020 39 0 2.68 311 14:27 07.07.2020
372 Clear 21 1020 58 0 2.24 342 13:59 07.07.2020
373 Clear 21 1020 42 0 1.34 335 13:38 07.07.2020
374 Clear 21 1017 48 0 2.24 248 13:18 07.07.2020
375 Clear 20 1017 52 0 1.34 219 12:41 07.07.2020
376 Clear 20 1017 50 0 2.79 330 12:22 07.07.2020
377 Clear 19 1018 55 0 1.34 248 11:56 07.07.2020
378 Clear 19 1018 59 0 1.34 249 11:38 07.07.2020
379 Clear 19 1018 57 0 1.79 241 11:20 07.07.2020
380 Clear 18 1018 62 0 1.34 255 10:55 07.07.2020
381 Clear 18 1018 63 0 1.34 264 10:37 07.07.2020
382 Clear 18 1019 57 0 1.36 340 10:18 07.07.2020
383 Clear 16 1019 63 0 1.36 340 09:40 07.07.2020
384 Clear 14 1019 65 0 0.72 5 09:20 07.07.2020
385 Clear 12 1021 92 0 1.03 11 08:42 07.07.2020
386 Clear 11 1021 93 0 0.81 52 08:23 07.07.2020
387 Clear 12 1020 72 0 0.81 52 07:47 07.07.2020
388 Clear 11 1020 75 0 0.98 94 07:24 07.07.2020
389 Clear 10 1020 77 0 0.98 94 06:49 07.07.2020
390 Clear 9 1019 85 0 0.98 94 06:31 07.07.2020
391 Clear 9 1019 85 0 1.15 108 05:54 07.07.2020
392 Clear 9 1022 86 0 1.14 108 05:23 07.07.2020
393 Clear 9 1022 85 0 1.14 108 04:42 07.07.2020
394 Clear 10 1019 82 0 0.94 101 03:41 07.07.2020
395 Clear 10 1022 78 0 1.05 113 02:28 07.07.2020
396 Clear 11 1017 78 0 1.05 123 01:25 07.07.2020
397 Clear 11 1016 76 0 1.05 123 00:54 07.07.2020
398 Clear 9 1016 75 0 1.05 123 00:36 07.07.2020
399 Clear 12 1016 75 0 0.75 109 00:18 07.07.2020
400 Clear 12 1021 69 0 0.75 109 23:41 06.07.2020
401 Clear 12 1021 67 0 0.7 54 23:22 06.07.2020
402 Clear 13 1021 67 0 0.7 54 22:55 06.07.2020
403 Clear 12 1023 78 0 0.7 54 22:37 06.07.2020
404 Clear 15 1021 65 0 1.04 339 22:18 06.07.2020
405 Clear 13 1022 73 0 1.79 339 21:55 06.07.2020
406 Clear 17 1021 51 0 0.89 345 21:36 06.07.2020
407 Clear 17 1021 50 0 1.04 299 21:18 06.07.2020
408 Clear 18 1020 48 0 1.04 299 20:40 06.07.2020
409 Clear 19 1021 59 0 0.45 293 20:20 06.07.2020
410 Clear 17 1021 58 0 0.45 303 19:58 06.07.2020
411 Clear 17 1021 58 0 0.45 303 19:58 06.07.2020
412 Clear 17 1020 41 0 3.58 311 19:39 06.07.2020
413 Clear 19 1020 44 0 0.45 23 19:21 06.07.2020
414 Clear 17 1021 60 0 1.34 0 18:57 06.07.2020
415 Clear 17 1019 42 0 3.58 288 18:39 06.07.2020
416 Clear 19 1020 47 0 0.45 23 18:21 06.07.2020
417 Clear 20 1019 42 0 4.02 343 17:44 06.07.2020
418 Clouds 20 1019 47 0 0.45 23 17:24 06.07.2020
419 Clouds 20 1018 41 0 3.13 307 16:59 06.07.2020
420 Clouds 21 1019 44 0 5.57 328 16:41 06.07.2020
421 Clouds 20 1019 47 0 5.94 326 16:21 06.07.2020
422 Clouds 20 1019 53 0 0.45 23 15:43 06.07.2020
423 Clouds 20 1019 53 0 0.45 23 15:25 06.07.2020
424 Clouds 20 1018 56 0 0.45 23 14:57 06.07.2020
425 Clouds 21 1017 46 0 2.68 344 14:38 06.07.2020
426 Clouds 20 1017 56 0 2.64 264 14:20 06.07.2020
427 Clouds 19 1018 71 0 2.64 264 13:57 06.07.2020
428 Clouds 20 1018 72 0 2.64 264 13:38 06.07.2020
429 Clouds 19 1015 81 0 1.89 260 13:19 06.07.2020
430 Clouds 18 1015 86 0 0.45 140 12:43 06.07.2020
431 Clouds 17 1018 89 0 0.38 315 12:19 06.07.2020
432 Clouds 16 1018 93 0 0.38 315 11:58 06.07.2020
433 Clouds 16 1018 92 0 0.38 315 11:39 06.07.2020
434 Clouds 16 1016 83 0 1.34 67 11:20 06.07.2020
435 Clouds 15 1018 92 0 1.38 52 10:56 06.07.2020
436 Rain 15 1017 93 0 1.38 52 10:38 06.07.2020
437 Rain 15 1018 92 0 2.2 57 10:18 06.07.2020
438 Rain 15 1017 91 0 0.89 45 09:42 06.07.2020
439 Rain 16 1014 93 0 2.78 29 09:22 06.07.2020
440 Rain 16 1013 94 0 2.41 28 08:58 06.07.2020
441 Rain 16 1015 89 0 0.89 325 08:38 06.07.2020
442 Rain 17 1014 90 0 3.71 355 08:20 06.07.2020
443 Rain 17 1014 87 0 0.89 30 07:47 06.07.2020
444 Rain 17 1014 86 0 2.68 317 07:28 06.07.2020
445 Rain 19 1017 85 0 0.89 22 06:45 06.07.2020
446 Rain 18 1017 85 0 1.79 90 06:27 06.07.2020
447 Rain 19 1017 86 0 0.89 138 05:44 06.07.2020
448 Rain 18 1017 86 0 1.79 168 05:25 06.07.2020
449 Rain 18 1018 84 0 3.32 209 03:52 06.07.2020
450 Clouds 21 1015 68 10000 2.6 220 02:25 06.07.2020
451 Clouds 21 1015 60 10000 4.1 200 01:45 06.07.2020
452 Clouds 21 1016 72 10000 3.1 210 00:44 06.07.2020
453 Clear 20 1016 68 10000 2.1 220 00:22 06.07.2020
454 Clear 19 1019 82 0 2.29 197 23:54 05.07.2020
455 Clear 19 1019 83 0 2.29 197 23:36 05.07.2020
456 Clear 19 1019 83 0 2.47 201 23:18 05.07.2020
457 Clouds 21 1016 60 10000 2.6 280 22:41 05.07.2020
458 Clear 21 1015 57 10000 3.6 200 22:20 05.07.2020
459 Clear 21 1015 57 10000 3.6 200 21:58 05.07.2020
460 Clear 22 1015 54 10000 4.1 210 21:40 05.07.2020
461 Clear 23 1015 57 0 0.89 203 21:19 05.07.2020
462 Clear 22 1019 74 0 3.34 205 20:58 05.07.2020
463 Clear 22 1019 72 0 0.45 88 20:40 05.07.2020
464 Clouds 23 1019 68 0 4.06 218 20:21 05.07.2020
465 Clouds 26 1015 45 10000 6.2 220 19:57 05.07.2020
466 Clouds 28 1015 48 10000 6.7 200 19:38 05.07.2020
467 Clouds 26 1018 60 0 0.89 258 19:19 05.07.2020
468 Clouds 28 1016 50 0 2.24 146 18:42 05.07.2020
469 Clouds 27 1016 50 0 2.24 146 18:23 05.07.2020
470 Clouds 26 1016 52 0 2.24 267 17:58 05.07.2020
471 Clouds 26 1016 53 0 3.58 289 17:39 05.07.2020
472 Clouds 26 1016 53 0 4.47 208 17:19 05.07.2020
473 Clouds 25 1016 53 0 4.02 217 16:44 05.07.2020
474 Clouds 25 1017 55 0 4.47 190 16:25 05.07.2020
475 Clouds 25 1017 55 0 4.47 229 15:58 05.07.2020
476 Clouds 25 1020 71 0 0.45 315 15:38 05.07.2020
477 Clouds 25 1017 56 0 4.47 212 15:19 05.07.2020
478 Clouds 25 1017 56 0 4.02 226 14:42 05.07.2020
479 Clouds 24 1017 57 0 3.58 235 14:23 05.07.2020
480 Clouds 24 1017 58 0 4.47 191 13:58 05.07.2020
481 Clouds 24 1018 59 0 3.13 183 13:39 05.07.2020
482 Clouds 24 1018 59 0 3.13 183 13:19 05.07.2020
483 Clouds 23 1018 65 0 4.02 226 12:40 05.07.2020
484 Clouds 21 1018 69 0 3.13 203 12:20 05.07.2020
485 Clouds 22 1019 68 0 3.58 225 11:55 05.07.2020
486 Clouds 21 1019 71 0 4.02 231 11:36 05.07.2020
487 Clouds 21 1017 69 0 3.13 166 11:18 05.07.2020
488 Clouds 21 1017 72 0 1.79 93 10:42 05.07.2020
489 Clouds 20 1017 70 0 2.68 184 10:21 05.07.2020
490 Clouds 21 1017 70 0 2.24 175 09:59 05.07.2020
491 Clouds 20 1017 67 0 3.58 253 09:41 05.07.2020
492 Clouds 20 1018 60 10000 5.1 190 09:20 05.07.2020
493 Clouds 19 1018 60 10000 5.1 190 08:55 05.07.2020
494 Clouds 18 1020 70 0 2.24 203 08:37 05.07.2020
495 Clouds 17 1021 82 0 3.52 206 07:56 05.07.2020
496 Clouds 19 1019 64 0 2.68 129 07:30 05.07.2020
497 Clouds 17 1021 86 0 2.97 189 06:58 05.07.2020
498 Clouds 16 1021 86 0 3.13 186 06:29 05.07.2020
499 Clouds 18 1021 83 0 3.01 185 03:57 05.07.2020
500 Clouds 16 1022 82 0 2.82 184 02:59 05.07.2020
501 Clouds 16 1022 82 0 2.82 184 02:37 05.07.2020
502 Clouds 15 1022 82 0 3.22 186 01:59 05.07.2020
503 Clouds 15 1022 83 0 2.8 179 01:28 05.07.2020
504 Clouds 15 1022 82 0 2.8 179 00:52 05.07.2020
505 Clouds 15 1022 81 0 2.8 179 00:31 05.07.2020
506 Clouds 15 1022 81 0 2.86 172 23:57 04.07.2020
507 Clouds 16 1022 80 0 2.86 172 23:38 04.07.2020
508 Clouds 16 1022 78 0 2.67 174 23:20 04.07.2020
509 Clouds 18 1019 46 10000 3.1 210 22:42 04.07.2020
510 Clouds 18 1019 46 10000 3.1 210 22:24 04.07.2020
511 Clouds 18 1019 46 10000 3.6 210 21:58 04.07.2020
512 Clouds 21 1018 44 10000 3.1 200 21:40 04.07.2020
513 Clouds 21 1019 53 0 1.79 183 21:22 04.07.2020
514 Clouds 20 1022 64 0 3.03 190 20:43 04.07.2020
515 Clouds 22 1020 51 0 0.45 203 20:22 04.07.2020
516 Clouds 21 1021 60 0 3.43 204 20:00 04.07.2020
517 Clouds 22 1021 55 0 3.43 204 19:41 04.07.2020
518 Clouds 22 1021 53 0 0.89 311 19:21 04.07.2020
519 Clouds 22 1020 47 0 0.89 203 19:21 04.07.2020
520 Clouds 23 1021 51 0 0.45 301 18:55 04.07.2020
521 Clouds 23 1021 48 0 0.45 148 18:36 04.07.2020
522 Clear 25 1019 42 0 2.24 200 18:18 04.07.2020
523 Clear 25 1019 40 0 3.13 207 17:42 04.07.2020
524 Clear 23 1021 53 0 1.34 165 17:22 04.07.2020
525 Clear 24 1019 42 0 3.13 257 16:56 04.07.2020
526 Clear 24 1019 43 0 2.68 157 16:37 04.07.2020
527 Clear 24 1019 43 0 2.68 157 16:37 04.07.2020
528 Clear 24 1019 43 0 2.68 157 16:37 04.07.2020
529 Clear 24 1019 42 0 2.68 205 16:18 04.07.2020
530 Clear 24 1019 42 0 3.58 257 15:45 04.07.2020
531 Clear 24 1019 42 0 3.58 257 15:26 04.07.2020
532 Clear 24 1019 40 0 2.68 172 14:59 04.07.2020
533 Clear 24 1019 40 0 2.68 172 14:59 04.07.2020
534 Clear 24 1020 40 0 2.24 172 14:37 04.07.2020
535 Clouds 24 1020 41 0 3.13 162 14:19 04.07.2020
536 Clouds 23 1020 41 0 3.58 259 13:57 04.07.2020
537 Clouds 23 1020 42 0 2.24 205 13:39 04.07.2020
538 Clouds 23 1020 41 0 2.24 137 13:18 04.07.2020
539 Clouds 23 1018 53 0 0.45 176 12:42 04.07.2020
540 Clouds 19 1022 61 0 0.45 62 12:21 04.07.2020
541 Clouds 20 1022 63 0 0.45 167 11:56 04.07.2020
542 Clouds 20 1022 68 0 2.33 246 11:37 04.07.2020
543 Clouds 21 1022 65 0 0.45 169 11:19 04.07.2020
544 Clouds 20 1021 56 0 1.34 204 10:41 04.07.2020
545 Clouds 20 1018 63 0 1.34 247 10:22 04.07.2020
546 Clouds 20 1018 67 0 0.89 241 09:59 04.07.2020
547 Clouds 19 1019 64 0 2.02 255 09:37 04.07.2020
548 Clouds 16 1019 67 0 1.9 245 09:19 04.07.2020
549 Clouds 15 1019 68 0 0.45 239 08:47 04.07.2020
550 Clouds 14 1019 71 0 1.44 231 08:28 04.07.2020
551 Clouds 14 1019 73 0 1.44 231 07:49 04.07.2020
552 Clouds 14 1019 75 0 1.44 231 07:31 04.07.2020
553 Clouds 13 1018 76 0 0.45 76 06:56 04.07.2020
554 Clouds 12 1018 86 0 1.27 161 06:23 04.07.2020
555 Clouds 12 1018 85 0 0.45 90 05:36 04.07.2020
556 Clouds 12 1018 84 0 1.29 165 04:50 04.07.2020
557 Clouds 12 1020 79 0 0.45 27 03:19 04.07.2020
558 Clouds 13 1020 76 0 1.32 136 02:27 04.07.2020
559 Clear 13 1018 80 0 0.45 67 01:35 04.07.2020
560 Clear 14 1017 79 0 0.45 90 00:45 04.07.2020
561 Clear 15 1020 67 0 1.05 110 00:26 04.07.2020
562 Clear 15 1020 66 0 1.05 110 23:41 03.07.2020
563 Clear 15 1020 66 0 1.13 110 23:19 03.07.2020
564 Clear 16 1020 65 0 1.13 110 22:59 03.07.2020
565 Clear 15 1022 82 0 1.13 110 22:39 03.07.2020
566 Clear 14 1022 82 0 1.13 110 22:39 03.07.2020
567 Clear 16 1021 81 0 1.08 88 22:21 03.07.2020
568 Clear 17 1021 80 0 1.08 88 21:56 03.07.2020
569 Clear 19 1019 46 10000 1 320 21:37 03.07.2020
570 Clear 19 1020 64 0 1.61 34 21:18 03.07.2020
571 Clear 20 1019 55 0 1.61 34 20:42 03.07.2020
572 Clouds 21 1016 47 0 0.89 313 20:24 03.07.2020
573 Clouds 21 1019 52 0 2.15 6 19:42 03.07.2020
574 Clouds 21 1019 51 0 2.65 351 19:22 03.07.2020
575 Clouds 21 1019 50 0 2.65 351 18:59 03.07.2020
576 Clouds 22 1019 51 0 2.65 351 18:41 03.07.2020
577 Clouds 22 1019 49 0 2.6 348 18:22 03.07.2020
578 Clouds 22 1016 43 0 1.34 7 17:46 03.07.2020
579 Clouds 22 1016 45 0 1.96 350 17:23 03.07.2020
580 Clouds 22 1019 56 0 0.45 158 16:59 03.07.2020
581 Clouds 22 1019 52 0 1.96 350 16:39 03.07.2020
582 Clouds 22 1019 51 0 2.49 335 16:20 03.07.2020
583 Clouds 23 1019 45 0 1.34 291 15:42 03.07.2020
584 Clouds 22 1017 43 0 1.34 180 15:23 03.07.2020
585 Clouds 22 1020 41 0 2.25 327 14:56 03.07.2020
586 Clouds 22 1020 43 0 2.41 329 14:37 03.07.2020
587 Clouds 21 1019 46 0 0.89 281 14:19 03.07.2020
588 Clouds 21 1019 47 0 1.34 122 13:43 03.07.2020
589 Clouds 21 1019 51 0 1.34 67 13:24 03.07.2020
590 Clouds 20 1017 58 0 2.08 331 12:45 03.07.2020
591 Clear 18 1020 61 0 2.2 330 12:24 03.07.2020
592 Clear 19 1017 65 0 2.2 330 11:58 03.07.2020
593 Clear 18 1020 64 0 0.45 45 11:40 03.07.2020
594 Rain 18 1017 69 0 0.45 221 11:21 03.07.2020
595 Rain 18 1017 70 0 2.07 316 10:55 03.07.2020
596 Rain 19 1017 69 0 0.45 223 10:37 03.07.2020
597 Rain 19 1016 67 0 0.45 221 10:18 03.07.2020
598 Rain 19 1016 70 0 1.46 296 09:54 03.07.2020
599 Rain 19 1017 63 0 1.34 22 09:36 03.07.2020
600 Clear 16 1019 63 10000 1.5 0 09:18 03.07.2020
601 Clouds 16 1019 56 10000 1.62 281 08:39 03.07.2020
602 Clouds 14 1020 80 0 0.81 244 08:18 03.07.2020
603 Clouds 14 1016 83 0 0.81 244 07:47 03.07.2020
604 Clouds 15 1016 83 0 0.55 197 07:26 03.07.2020
605 Clouds 15 1015 84 0 0.55 197 06:49 03.07.2020
606 Clouds 14 1018 72 10000 1.5 0 05:59 03.07.2020
607 Clouds 14 1018 63 10000 2.1 270 04:48 03.07.2020
608 Clouds 15 1019 80 0 0.45 218 03:28 03.07.2020
609 Clouds 15 1019 82 0 0.93 228 02:47 03.07.2020
610 Clouds 17 1017 63 10000 2.1 250 02:25 03.07.2020
611 Clouds 16 1017 59 10000 1.5 190 01:28 03.07.2020
612 Clouds 18 1017 59 10000 1 0 00:49 03.07.2020
613 Clouds 20 1017 56 10000 1.5 0 00:28 03.07.2020
614 Clouds 17 1016 56 10000 3.1 300 23:47 02.07.2020
615 Clouds 16 1018 87 0 0.75 214 23:20 02.07.2020
616 Clouds 16 1018 87 0 0.75 214 22:58 02.07.2020
617 Clouds 16 1017 86 0 0.75 214 22:40 02.07.2020
618 Clouds 16 1016 69 0 1.03 216 22:20 02.07.2020
619 Clouds 18 1015 69 0 1.03 216 21:56 02.07.2020
620 Clouds 17 1017 85 0 1.03 216 21:38 02.07.2020
621 Clear 20 1015 69 0 1.08 278 21:18 02.07.2020
622 Clear 20 1015 69 0 1.08 278 20:57 02.07.2020
623 Clear 21 1015 71 0 1.08 278 20:39 02.07.2020
624 Clouds 21 1015 70 0 1.88 303 20:18 02.07.2020
625 Clouds 21 1015 65 0 1.88 303 19:42 02.07.2020
626 Clouds 22 1012 53 0 2.95 296 19:23 02.07.2020
627 Clouds 22 1012 53 0 2.95 296 19:23 02.07.2020
628 Clouds 21 1014 62 0 2.95 296 18:58 02.07.2020
629 Clouds 22 1014 62 0 2.95 296 18:40 02.07.2020
630 Clouds 22 1014 63 0 4.21 283 18:21 02.07.2020
631 Clouds 22 1014 61 0 0.45 180 17:54 02.07.2020
632 Clouds 22 1011 54 0 4.21 283 17:36 02.07.2020
633 Rain 22 1014 60 0 0.89 203 17:18 02.07.2020
634 Rain 22 1014 65 0 0.89 203 16:41 02.07.2020
635 Rain 22 1011 64 0 2.24 173 16:20 02.07.2020
636 Rain 22 1011 65 0 0.89 125 15:57 02.07.2020
637 Rain 21 1011 65 0 2.24 203 15:38 02.07.2020
638 Rain 21 1011 70 0 2.68 181 15:19 02.07.2020
639 Rain 21 1012 72 0 2.24 213 14:45 02.07.2020
640 Rain 21 1011 71 0 0.89 161 14:23 02.07.2020
641 Rain 21 1011 71 0 2.24 298 13:57 02.07.2020
642 Rain 21 1011 72 0 1.34 225 13:38 02.07.2020
643 Rain 21 1011 72 0 1.79 217 13:19 02.07.2020
644 Rain 21 1011 78 0 4.04 228 12:56 02.07.2020
645 Rain 21 1011 78 0 0.89 148 12:38 02.07.2020
646 Rain 19 1014 79 0 0.89 203 12:19 02.07.2020
647 Rain 19 1011 84 0 1.79 163 11:41 02.07.2020
648 Rain 19 1011 87 0 4.38 219 11:23 02.07.2020
649 Rain 20 1011 84 0 4.38 219 10:45 02.07.2020
650 Rain 19 1011 86 0 0.45 174 10:27 02.07.2020
651 Rain 20 1011 89 0 4.87 219 09:56 02.07.2020
652 Rain 19 1011 89 0 4.56 219 09:37 02.07.2020
653 Clouds 19 1011 90 0 4.03 207 09:19 02.07.2020
654 Clouds 19 1010 90 0 4.03 207 08:43 02.07.2020
655 Clouds 19 1014 86 0 3.42 196 08:24 02.07.2020
656 Rain 19 1013 85 0 0.45 203 07:56 02.07.2020
657 Rain 19 1013 86 0 3.42 196 07:37 02.07.2020
658 Clouds 18 1012 88 0 1.79 62 07:18 02.07.2020
659 Clouds 18 1011 82 0 2.68 135 06:40 02.07.2020
660 Clouds 17 1015 96 0 2.64 177 06:20 02.07.2020
661 Clouds 16 1014 96 0 2.64 177 05:44 02.07.2020
662 Clouds 17 1014 95 0 2.31 189 03:55 02.07.2020
663 Rain 17 1015 95 0 2.47 195 03:31 02.07.2020
664 Rain 18 1015 92 0 1.49 183 00:54 02.07.2020
665 Rain 20 1013 86 0 1.6 182 00:25 02.07.2020
666 Rain 20 1013 86 0 1.6 182 23:48 01.07.2020
667 Rain 19 1012 86 0 1.6 182 23:30 01.07.2020
668 Rain 20 1012 84 0 1.75 169 22:57 01.07.2020
669 Rain 21 1010 69 0 0.89 247 22:38 01.07.2020
670 Rain 23 1012 73 0 1.82 174 22:19 01.07.2020
671 Rain 23 1012 73 0 1.82 174 22:19 01.07.2020
672 Rain 22 1013 77 0 1.82 174 21:59 01.07.2020
673 Rain 24 1013 73 0 1.82 174 21:40 01.07.2020
674 Rain 25 1007 56 0 2.01 230 21:22 01.07.2020
675 Rain 25 1010 57 0 0.45 203 20:59 01.07.2020
676 Rain 25 1009 55 0 2.24 225 20:41 01.07.2020
677 Rain 25 1010 53 0 0.45 203 20:23 01.07.2020
678 Rain 26 1012 53 0 3.13 215 19:56 01.07.2020
679 Rain 27 1012 53 0 2.24 303 19:38 01.07.2020
680 Clear 27 1009 48 0 0.89 39 19:19 01.07.2020
681 Clear 28 1008 50 0 2.24 222 18:42 01.07.2020
682 Clear 28 1010 51 0 0.45 203 18:21 01.07.2020
683 Clear 29 1008 50 0 3.13 217 17:59 01.07.2020
684 Clear 29 1008 50 0 2.68 241 17:40 01.07.2020
685 Clear 29 1008 48 0 4.02 265 17:19 01.07.2020
686 Clear 29 1008 51 0 1.79 271 16:48 01.07.2020
687 Clear 28 1009 51 0 2.24 232 16:29 01.07.2020
688 Clear 28 1011 50 0 0.89 203 15:58 01.07.2020
689 Clear 28 1011 51 0 0.45 203 15:39 01.07.2020
690 Clear 28 1009 50 0 2.24 229 15:21 01.07.2020
691 Clear 28 1009 50 0 2.68 233 14:45 01.07.2020
692 Clouds 28 1009 47 0 2.24 208 14:22 01.07.2020
693 Clear 28 1009 48 0 3.13 195 13:59 01.07.2020
694 Clear 28 1009 48 0 2.24 194 13:39 01.07.2020
695 Clear 28 1009 45 0 3.13 202 13:20 01.07.2020
696 Clear 27 1007 51 0 0.45 261 12:58 01.07.2020
697 Clear 27 1007 52 0 0.45 268 12:39 01.07.2020
698 Clear 25 1013 61 0 0.45 150 12:21 01.07.2020
699 Clear 24 1013 62 0 1.34 155 11:55 01.07.2020
700 Clear 26 1012 52 0 0.45 203 11:37 01.07.2020
701 Clear 24 1013 63 0 0.45 148 11:18 01.07.2020
702 Clear 25 1008 58 0 1.34 247 10:42 01.07.2020
703 Clear 24 1008 60 0 0.45 244 10:23 01.07.2020
704 Clear 24 1008 62 0 2.39 246 09:59 01.07.2020
705 Clear 24 1008 62 0 2.39 246 09:59 01.07.2020
706 Clear 23 1009 60 0 0.89 141 09:38 01.07.2020
707 Clear 20 1014 80 0 1.78 239 09:19 01.07.2020
708 Clear 19 1009 72 0 1.63 247 08:56 01.07.2020
709 Clear 19 1009 75 0 1.63 247 08:38 01.07.2020
710 Clear 18 1009 75 0 0.87 216 08:18 01.07.2020
711 Clear 17 1009 78 0 0.87 216 07:40 01.07.2020
712 Clear 17 1009 79 0 1.33 162 07:21 01.07.2020
713 Clear 16 1009 80 0 1.33 162 06:50 01.07.2020
714 Clear 15 1009 80 0 1.46 161 06:28 01.07.2020
715 Clear 15 1014 93 0 1.48 156 05:28 01.07.2020
716 Clear 14 1014 91 0 1.38 162 03:55 01.07.2020
717 Clear 14 1014 91 0 1.38 162 03:36 01.07.2020
718 Clear 15 1009 85 0 0.89 135 03:18 01.07.2020
719 Clear 16 1008 82 0 0.89 112 01:53 01.07.2020
720 Clear 15 1015 86 0 1.61 155 00:48 01.07.2020
721 Clear 17 1013 73 0 1.79 157 00:26 01.07.2020
722 Clear 18 1013 70 0 1.79 157 23:57 30.06.2020
723 Clear 16 1015 83 0 1.79 157 23:39 30.06.2020
724 Clear 16 1015 82 0 1.96 159 23:19 30.06.2020
725 Clear 17 1015 80 0 1.96 159 22:41 30.06.2020
726 Clear 20 1013 64 0 2.03 163 22:19 30.06.2020
727 Clear 22 1012 59 0 0.45 229 21:42 30.06.2020
728 Clear 22 1011 53 0 1.79 180 21:19 30.06.2020
729 Clear 22 1011 52 0 2.24 229 20:59 30.06.2020
730 Clear 22 1011 52 0 2.24 273 20:40 30.06.2020
731 Clear 23 1013 51 0 0.89 203 20:20 30.06.2020
732 Clear 24 1012 49 0 1.34 252 19:43 30.06.2020
733 Clear 24 1013 47 0 1.34 203 19:20 30.06.2020
734 Clear 24 1013 48 0 0.89 203 18:55 30.06.2020
735 Clear 23 1012 46 0 2.68 203 18:36 30.06.2020
736 Clear 25 1012 46 0 3.13 218 18:18 30.06.2020
737 Clear 25 1013 49 0 0.89 203 17:39 30.06.2020
738 Clear 24 1014 51 0 0.89 203 17:20 30.06.2020
739 Clear 24 1014 50 0 1.34 203 16:57 30.06.2020
740 Clear 24 1014 50 0 0.89 203 16:38 30.06.2020
741 Clear 24 1014 51 0 1.34 203 16:19 30.06.2020
742 Clear 24 1014 51 0 1.34 248 15:54 30.06.2020
743 Clear 23 1014 51 0 1.79 203 15:36 30.06.2020
744 Clear 24 1013 49 0 3.58 223 15:18 30.06.2020
745 Clear 23 1014 52 0 0.89 203 14:42 30.06.2020
746 Clouds 22 1011 54 0 4.19 226 14:21 30.06.2020
747 Clouds 22 1011 55 0 0.45 236 13:54 30.06.2020
748 Clouds 22 1011 52 0 4.19 226 13:36 30.06.2020
749 Clouds 21 1011 58 0 4.13 224 13:18 30.06.2020
750 Clouds 21 1012 64 0 1.34 240 12:54 30.06.2020
751 Clouds 20 1012 53 0 0.45 173 12:36 30.06.2020
752 Clouds 19 1016 62 0 1.79 179 12:18 30.06.2020
753 Clouds 20 1015 58 0 2.24 133 11:56 30.06.2020
754 Clouds 19 1012 64 0 3.95 226 11:37 30.06.2020
755 Clouds 19 1013 55 0 1.34 258 11:18 30.06.2020
756 Clouds 24 1017 57 0 0.89 203 16:46 28.06.2020
757 Clouds 24 1017 55 0 0.45 180 16:28 28.06.2020
758 Clouds 25 1015 54 0 2.68 196 15:59 28.06.2020
759 Clouds 25 1015 54 0 3.13 285 15:39 28.06.2020
760 Clear 25 1015 53 0 3.58 235 15:20 28.06.2020
761 Clear 25 1018 63 0 1.34 327 14:57 28.06.2020
762 Clear 24 1017 57 0 0.89 180 14:38 28.06.2020
763 Clouds 24 1016 54 0 4.02 232 14:20 28.06.2020
764 Clouds 23 1017 62 0 2.24 203 13:40 28.06.2020
765 Clouds 22 1017 67 0 1.34 203 13:21 28.06.2020
766 Clouds 23 1017 66 0 1.79 203 12:58 28.06.2020
767 Clouds 23 1017 70 0 1.34 203 12:38 28.06.2020
768 Rain 24 1016 64 0 2.68 212 12:19 28.06.2020
769 Rain 24 1016 66 0 1.79 260 11:58 28.06.2020
770 Rain 23 1016 64 0 2.68 156 11:40 28.06.2020
771 Clouds 22 1016 71 0 3.13 225 11:20 28.06.2020
772 Clouds 21 1016 74 0 2.68 211 10:58 28.06.2020
773 Clouds 21 1016 73 0 3.13 225 10:39 28.06.2020
774 Clouds 21 1016 74 0 2.68 165 10:21 28.06.2020
775 Clouds 21 1016 74 0 2.68 165 10:21 28.06.2020
776 Clouds 19 1017 84 0 1.79 203 09:41 28.06.2020
777 Rain 18 1014 95 0 4.09 204 09:23 28.06.2020
778 Rain 19 1014 87 0 0.89 249 08:55 28.06.2020
779 Rain 18 1014 88 0 0.89 111 08:36 28.06.2020
780 Rain 18 1013 95 0 0.89 226 08:18 28.06.2020
781 Clouds 19 1017 86 0 0.89 203 07:33 28.06.2020
782 Clouds 19 1012 95 0 2.8 190 06:56 28.06.2020
783 Clouds 18 1016 87 0 0.45 203 06:32 28.06.2020
784 Rain 19 1012 90 0 2.69 191 05:45 28.06.2020
785 Clouds 19 1014 89 0 2.24 233 04:27 28.06.2020
786 Clouds 17 1018 88 0 2 177 02:57 28.06.2020
787 Clear 17 1018 88 0 2.07 164 02:20 28.06.2020
788 Clear 17 1018 87 0 1.94 158 01:30 28.06.2020
789 Clouds 17 1018 87 0 1.82 157 00:56 28.06.2020
790 Clouds 19 1014 74 0 1.34 136 00:30 28.06.2020
791 Clouds 20 1014 73 0 1.34 172 23:58 27.06.2020
792 Clouds 18 1018 84 0 1.95 151 23:39 27.06.2020
793 Clouds 18 1018 84 0 2.13 153 23:21 27.06.2020
794 Clouds 19 1017 82 0 2.13 153 22:42 27.06.2020
795 Clear 20 1015 64 0 2.28 157 22:23 27.06.2020
796 Clear 20 1017 79 0 2.28 157 21:59 27.06.2020
797 Clear 21 1017 76 0 2.28 157 21:40 27.06.2020
798 Clear 24 1015 61 0 0.45 203 21:20 27.06.2020
799 Clear 24 1015 58 0 0.45 203 20:55 27.06.2020
800 Clear 25 1013 51 0 2.24 180 20:37 27.06.2020
801 Clouds 26 1015 56 0 0.45 203 20:18 27.06.2020
802 Clouds 26 1015 52 0 0.89 203 19:38 27.06.2020
803 Clear 27 1015 51 0 0.89 203 19:19 27.06.2020
804 Clear 27 1015 50 0 0.45 225 18:57 27.06.2020
805 Clear 27 1015 49 0 0.89 180 18:38 27.06.2020
806 Clear 27 1015 49 0 0.89 180 18:38 27.06.2020
807 Clear 27 1013 49 0 3.58 239 18:19 27.06.2020
808 Clear 27 1013 47 0 4.02 223 17:41 27.06.2020
809 Clear 27 1013 47 0 3.13 162 17:21 27.06.2020
810 Clear 27 1015 47 0 1.79 203 16:59 27.06.2020
811 Clear 27 1015 49 0 0.89 180 16:39 27.06.2020
812 Clear 27 1015 49 0 0.89 180 16:39 27.06.2020
813 Clear 27 1015 49 0 1.34 203 16:20 27.06.2020
814 Clear 26 1011 49 0 0.45 155 15:45 27.06.2020
815 Clear 26 1011 63 0 1.34 253 15:24 27.06.2020
816 Clear 26 1011 63 0 1.34 253 15:24 27.06.2020
817 Clear 25 1012 53 0 1.79 207 14:59 27.06.2020
818 Clear 26 1012 51 0 1.34 167 14:40 27.06.2020
819 Clouds 25 1011 59 0 4.57 225 14:21 27.06.2020
820 Clouds 25 1015 54 0 0.89 203 13:55 27.06.2020
821 Clouds 26 1013 51 0 4.02 233 13:37 27.06.2020
822 Rain 26 1014 58 0 1.79 205 13:19 27.06.2020
823 Rain 25 1015 59 0 4.69 228 12:41 27.06.2020
824 Rain 25 1015 61 0 0.45 203 12:22 27.06.2020
825 Rain 24 1015 64 0 0.45 203 11:59 27.06.2020
826 Rain 24 1016 62 0 0.45 180 11:40 27.06.2020
827 Rain 24 1014 61 0 3.58 235 11:22 27.06.2020
828 Rain 24 1012 62 0 1.79 136 10:55 27.06.2020
829 Rain 22 1012 63 0 1.79 151 10:37 27.06.2020
830 Clouds 23 1012 61 0 0.45 204 10:18 27.06.2020
831 Clouds 23 1012 58 0 1.79 179 09:40 27.06.2020
832 Clear 21 1017 75 0 0.89 133 09:21 27.06.2020
833 Clear 20 1017 87 0 1.34 142 08:46 27.06.2020
834 Clouds 19 1017 94 0 0.89 111 08:23 27.06.2020
835 Clouds 17 1017 95 0 2.88 184 07:55 27.06.2020
836 Clouds 17 1011 78 0 2.68 208 07:37 27.06.2020
837 Rain 17 1011 81 0 3.15 179 07:18 27.06.2020
838 Rain 17 1011 80 0 3.15 179 06:35 27.06.2020
839 Clouds 16 1010 81 0 3.54 185 05:46 27.06.2020
840 Rain 16 1010 77 0 2.1 172 04:21 27.06.2020
841 Rain 16 1013 88 0 2.1 172 03:51 27.06.2020
842 Clouds 16 1014 85 0 0.45 180 02:48 27.06.2020
843 Clouds 16 1013 87 0 1.75 172 02:28 27.06.2020
844 Clouds 17 1012 87 0 1.75 172 01:41 27.06.2020
845 Clouds 17 1012 84 0 1.65 164 00:54 27.06.2020
846 Clouds 17 1012 80 0 0.45 132 00:27 27.06.2020
847 Clouds 19 1013 81 0 0.45 67 23:41 26.06.2020
848 Clouds 19 1013 69 0 2.1 156 23:22 26.06.2020
849 Clouds 20 1014 70 0 2.1 156 22:56 26.06.2020
850 Clouds 20 1013 80 0 0.89 136 22:37 26.06.2020
851 Clouds 20 1014 69 0 2.08 156 22:19 26.06.2020
852 Clouds 19 1014 72 0 2.08 156 21:57 26.06.2020
853 Clouds 21 1014 71 0 2.08 156 21:37 26.06.2020
854 Rain 22 1014 71 0 1.72 168 21:19 26.06.2020
855 Rain 22 1014 71 0 1.72 168 21:19 26.06.2020
856 Rain 23 1014 73 0 1.72 168 20:43 26.06.2020
857 Clouds 23 1014 70 0 0.91 165 20:20 26.06.2020
858 Clouds 23 1014 66 0 0.45 203 19:44 26.06.2020
859 Clouds 23 1014 66 0 0.9 224 19:23 26.06.2020
860 Clouds 23 1014 56 0 0.9 224 18:57 26.06.2020
861 Clouds 23 1014 60 0 0.9 224 18:37 26.06.2020
862 Rain 23 1014 59 0 0.38 3 18:18 26.06.2020
863 Rain 22 1014 56 0 3.58 157 17:43 26.06.2020
864 Rain 23 1014 73 0 2.56 223 17:24 26.06.2020
865 Rain 24 1011 60 0 0.45 175 16:49 26.06.2020
866 Rain 24 1011 61 0 1.79 200 16:26 26.06.2020
867 Rain 24 1012 62 0 4.47 171 15:55 26.06.2020
868 Rain 25 1011 59 0 5.81 230 15:37 26.06.2020
869 Rain 25 1015 64 0 2.68 203 15:19 26.06.2020
870 Rain 26 1011 57 0 2.24 209 14:56 26.06.2020
871 Rain 25 1014 79 0 3.64 214 14:38 26.06.2020
872 Rain 24 1014 83 0 3.23 241 14:19 26.06.2020
873 Rain 25 1012 68 0 0.89 183 13:44 26.06.2020
874 Rain 24 1014 83 0 1.34 157 13:22 26.06.2020
875 Rain 24 1017 82 0 2.6 238 12:55 26.06.2020
876 Rain 22 1014 69 10000 2.1 180 12:37 26.06.2020
877 Clouds 24 1014 73 10000 2.1 200 12:18 26.06.2020
878 Clouds 23 1014 60 0 1.34 251 11:54 26.06.2020
879 Clouds 22 1014 60 0 1.79 244 11:36 26.06.2020
880 Clouds 22 1014 61 0 1.79 232 11:18 26.06.2020
881 Clouds 20 1014 86 0 2.24 67 10:40 26.06.2020
882 Rain 19 1012 88 0 0.45 116 10:19 26.06.2020
883 Rain 20 1012 76 0 0.89 227 09:56 26.06.2020
884 Rain 21 1011 73 0 1.79 196 09:38 26.06.2020
885 Rain 21 1011 79 0 1.38 260 09:18 26.06.2020
886 Clouds 21 1011 82 0 1.36 265 08:45 26.06.2020
887 Clouds 20 1011 84 0 0.8 237 08:27 26.06.2020
888 Clouds 19 1011 86 0 0.8 237 07:48 26.06.2020
889 Clouds 19 1011 86 0 1.04 146 07:23 26.06.2020
890 Clouds 19 1011 86 0 1.24 149 06:49 26.06.2020
891 Clouds 18 1011 86 0 1.49 157 06:30 26.06.2020
892 Clouds 18 1011 85 0 1.49 157 05:52 26.06.2020
893 Clear 17 1010 84 0 0.45 40 05:21 26.06.2020
894 Clouds 17 1015 83 0 1.44 158 02:32 26.06.2020
895 Clear 17 1015 80 0 1.84 143 01:35 26.06.2020
896 Clear 19 1015 68 0 2.06 139 00:52 26.06.2020
897 Clear 17 1017 78 0 2.06 139 00:31 26.06.2020
898 Clear 18 1018 76 0 2.17 137 23:48 25.06.2020
899 Clear 20 1016 71 0 2.28 126 23:23 25.06.2020
900 Clear 19 1018 71 0 2.28 126 22:59 25.06.2020
901 Clear 20 1018 70 0 2.28 126 22:39 25.06.2020
902 Clear 21 1016 65 0 1.79 115 22:20 25.06.2020
903 Clear 23 1016 62 0 1.79 115 21:58 25.06.2020
904 Clear 24 1015 50 10000 3.1 20 21:40 25.06.2020
905 Clear 24 1015 58 0 1.35 66 21:21 25.06.2020
906 Clear 24 1015 57 0 1.35 66 20:59 25.06.2020
907 Clear 23 1017 60 0 1.35 66 20:40 25.06.2020
908 Clear 25 1015 53 0 1.29 10 20:22 25.06.2020
909 Clear 27 1014 37 10000 2.6 50 19:56 25.06.2020
910 Clear 28 1014 37 10000 2.6 50 19:37 25.06.2020
911 Clear 27 1017 45 0 0.89 355 19:18 25.06.2020
912 Clear 27 1017 42 0 1.34 312 18:40 25.06.2020
913 Clear 27 1017 41 0 0.89 305 18:21 25.06.2020
914 Clear 27 1015 34 10000 2.6 60 17:55 25.06.2020
915 Clear 27 1015 34 10000 2.6 60 17:37 25.06.2020
916 Clear 27 1015 32 10000 2.6 50 17:18 25.06.2020
917 Clear 27 1015 35 10000 2.1 0 16:40 25.06.2020
918 Clear 27 1016 32 10000 1.5 0 16:20 25.06.2020
919 Clear 26 1016 32 10000 2.6 70 15:45 25.06.2020
920 Clear 27 1016 32 10000 2.6 70 15:27 25.06.2020
921 Clear 27 1018 48 0 0.45 82 14:58 25.06.2020
922 Clear 27 1018 51 0 0.89 246 14:40 25.06.2020
923 Clear 27 1018 50 0 0.89 296 14:22 25.06.2020
924 Clear 27 1013 47 0 0.89 247 13:56 25.06.2020
925 Clear 27 1013 50 0 1.34 263 13:37 25.06.2020
926 Clear 27 1013 52 0 1.79 274 13:19 25.06.2020
927 Clear 26 1013 53 0 0.89 242 12:44 25.06.2020
928 Clear 24 1019 45 0 0.89 126 12:20 25.06.2020
929 Clear 25 1013 56 0 0.45 234 11:44 25.06.2020
930 Clear 23 1019 45 0 1.47 337 11:25 25.06.2020
931 Clear 24 1014 48 0 1.47 337 10:59 25.06.2020
932 Clear 24 1015 50 0 1.47 337 10:40 25.06.2020
933 Clear 24 1015 52 0 0.88 347 10:22 25.06.2020
934 Clear 22 1015 58 0 0.88 347 09:41 25.06.2020
935 Clear 19 1018 56 10000 2.1 360 09:23 25.06.2020
936 Clear 19 1015 61 0 0.59 24 08:47 25.06.2020
937 Clear 17 1015 63 0 0.66 110 08:20 25.06.2020
938 Clear 16 1015 66 0 0.66 110 07:46 25.06.2020
939 Clear 17 1015 69 0 1.36 125 07:28 25.06.2020
940 Clear 15 1015 69 0 1.36 125 06:54 25.06.2020
941 Clear 15 1015 71 0 1.75 126 06:27 25.06.2020
942 Clear 14 1017 77 0 1.75 126 05:53 25.06.2020
943 Clear 15 1017 74 0 2.01 116 04:56 25.06.2020
944 Clear 16 1018 78 0 1.96 121 03:36 25.06.2020
945 Clear 17 1019 60 0 2 138 02:44 25.06.2020
946 Clear 16 1018 76 0 0.45 112 02:19 25.06.2020
947 Clear 17 1017 74 0 2.12 134 01:34 25.06.2020
948 Clear 17 1021 79 0 2.63 114 00:47 25.06.2020
949 Clear 19 1019 55 0 2.88 121 00:22 25.06.2020
950 Clear 18 1019 54 0 2.88 121 23:58 24.06.2020
951 Clear 19 1021 72 0 2.88 121 23:37 24.06.2020
952 Clear 19 1017 68 0 0.45 67 23:19 24.06.2020
953 Clear 22 1018 43 10000 4.1 360 22:41 24.06.2020
954 Clear 21 1017 60 0 0.89 67 22:21 24.06.2020
955 Clear 24 1018 38 10000 4.6 360 21:57 24.06.2020
956 Clear 24 1018 38 10000 4.6 360 21:37 24.06.2020
957 Clear 23 1018 41 0 0.89 292 21:19 24.06.2020
958 Clear 22 1020 62 0 2.7 104 20:58 24.06.2020
959 Clear 23 1020 62 0 2.7 104 20:39 24.06.2020
960 Clear 25 1018 43 0 2.74 69 20:21 24.06.2020
961 Clear 26 1020 52 0 2.74 69 19:58 24.06.2020
962 Clear 28 1018 32 10000 5.7 10 19:38 24.06.2020
963 Clear 27 1018 39 0 3.31 41 19:20 24.06.2020
964 Clear 27 1017 38 0 2.68 349 18:58 24.06.2020
965 Clear 28 1017 37 0 3.13 333 18:39 24.06.2020
966 Clear 28 1017 37 0 3.13 333 18:39 24.06.2020
967 Clear 27 1017 37 0 2.68 38 18:20 24.06.2020
968 Clear 27 1017 38 0 3.58 323 17:56 24.06.2020
969 Clear 27 1017 38 0 3.58 10 17:37 24.06.2020
970 Clear 28 1017 38 0 4.02 349 17:18 24.06.2020
971 Clear 27 1018 35 10000 5.1 10 16:56 24.06.2020
972 Clear 28 1018 35 10000 5.1 10 16:55 24.06.2020
973 Clear 27 1018 35 10000 5.1 10 16:37 24.06.2020
974 Clear 28 1019 40 0 0.45 90 16:19 24.06.2020
975 Clear 29 1019 40 0 3.89 31 15:55 24.06.2020
976 Clear 28 1019 43 0 0.45 90 15:37 24.06.2020
977 Clear 28 1019 43 0 0.45 90 15:37 24.06.2020
978 Clear 29 1019 39 0 3.62 36 15:19 24.06.2020
979 Clear 28 1019 45 0 0.45 90 14:42 24.06.2020
980 Clear 28 1018 44 0 1.34 58 14:23 24.06.2020
981 Clear 27 1019 43 0 0.89 29 13:43 24.06.2020
982 Clear 27 1016 50 0 2.44 4 13:22 24.06.2020
983 Clear 27 1016 52 0 0.89 360 12:55 24.06.2020
984 Clear 27 1016 52 0 0.89 360 12:55 24.06.2020
985 Clear 26 1016 53 0 0.89 360 12:36 24.06.2020
986 Clear 24 1022 40 0 1.34 205 12:18 24.06.2020
987 Clear 24 1021 56 0 0.45 90 11:54 24.06.2020
988 Clear 24 1021 59 0 2.01 351 11:36 24.06.2020
989 Clear 24 1021 59 0 2.01 351 11:36 24.06.2020
990 Clear 24 1021 59 0 0.45 90 11:18 24.06.2020
991 Clear 23 1018 55 0 0.89 252 10:41 24.06.2020
992 Clear 22 1018 58 0 1.33 355 10:18 24.06.2020
993 Clear 21 1021 61 0 1.33 355 09:42 24.06.2020
994 Clear 20 1020 70 0 0.89 258 09:21 24.06.2020
995 Clear 18 1018 71 0 0.95 16 08:43 24.06.2020
996 Clear 17 1018 72 0 0.45 233 08:21 24.06.2020
997 Clear 17 1018 73 0 0.58 71 07:51 24.06.2020
998 Clear 17 1018 73 0 0.58 71 07:31 24.06.2020
999 Clear 16 1018 69 0 1.25 118 06:51 24.06.2020
1000 Clear 13 1022 76 0 1.71 117 06:26 24.06.2020
1001 Clear 14 1020 85 0 0.45 195 05:58 24.06.2020
1002 Clear 14 1019 83 0 0.45 247 05:20 24.06.2020
1003 Clear 15 1019 83 0 1.34 207 04:35 24.06.2020
1004 Clear 16 1020 80 0 1.95 115 03:35 24.06.2020
1005 Clear 15 1023 68 0 0.45 67 02:51 24.06.2020
1006 Clear 16 1023 68 0 2.25 113 01:45 24.06.2020
1007 Clear 16 1023 74 0 2.33 115 00:48 24.06.2020
1008 Clear 17 1023 73 0 2.64 110 00:29 24.06.2020
1009 Clear 18 1023 74 0 0.45 61 23:46 23.06.2020
1010 Clear 19 1021 74 0 0.45 28 23:20 23.06.2020
1011 Clear 19 1024 70 0 2.75 100 22:57 23.06.2020
1012 Clear 21 1021 53 10000 3.6 360 22:38 23.06.2020
1013 Clear 22 1021 54 0 3.22 91 22:18 23.06.2020
1014 Clear 23 1021 47 10000 4.6 10 21:42 23.06.2020
1015 Clear 24 1018 50 0 0.45 357 21:20 23.06.2020
1016 Clear 23 1021 57 0 3.17 72 20:56 23.06.2020
1017 Clear 23 1023 57 0 3.17 72 20:38 23.06.2020
1018 Clear 25 1018 47 0 1.79 357 20:19 23.06.2020
1019 Clear 26 1021 55 0 0.45 90 19:57 23.06.2020
1020 Clear 26 1021 54 0 0.45 90 19:38 23.06.2020
1021 Clear 26 1021 54 0 0.89 90 19:20 23.06.2020
1022 Clear 27 1021 44 10000 6.2 10 18:38 23.06.2020
1023 Clear 25 1021 44 10000 5.7 20 18:18 23.06.2020
1024 Clear 26 1023 59 0 0.45 319 17:41 23.06.2020
1025 Clear 25 1023 58 0 1.79 289 17:22 23.06.2020
1026 Clear 25 1023 57 0 1.79 300 16:57 23.06.2020
1027 Clear 26 1023 57 0 1.34 281 16:38 23.06.2020
1028 Clear 25 1022 44 10000 5.1 10 16:20 23.06.2020
1029 Clear 25 1022 44 10000 5.1 10 16:20 23.06.2020
1030 Clear 26 1023 57 0 2.24 320 15:57 23.06.2020
1031 Clear 25 1024 60 0 1.34 311 15:38 23.06.2020
1032 Clear 25 1023 62 0 1.34 296 15:18 23.06.2020
1033 Clear 26 1023 55 0 0.89 135 14:42 23.06.2020
1034 Clear 26 1021 54 0 2.68 335 14:19 23.06.2020
1035 Clear 26 1022 54 0 2.68 360 13:57 23.06.2020
1036 Clear 26 1022 54 0 2.24 33 13:39 23.06.2020
1037 Clear 25 1019 61 0 1.79 242 13:20 23.06.2020
1038 Clear 24 1019 68 0 3.59 357 12:44 23.06.2020
1039 Clear 23 1024 51 0 1.34 57 12:23 23.06.2020
1040 Clear 23 1023 67 0 2.75 350 11:58 23.06.2020
1041 Clear 23 1023 69 0 0.45 135 11:40 23.06.2020
1042 Clear 23 1019 67 0 1.79 284 11:19 23.06.2020
1043 Clear 22 1020 66 0 1.79 236 10:57 23.06.2020
1044 Clear 22 1021 63 0 0.45 296 10:39 23.06.2020
1045 Clear 21 1021 62 0 1.83 354 10:21 23.06.2020
1046 Clear 20 1021 67 0 1.7 346 09:42 23.06.2020
1047 Clear 19 1021 70 0 1.58 353 09:21 23.06.2020
1048 Clear 17 1021 74 0 1.58 353 08:59 23.06.2020
1049 Clear 16 1021 74 0 1.58 353 08:41 23.06.2020
1050 Clear 16 1021 75 0 0.96 8 08:21 23.06.2020
1051 Clear 15 1021 79 0 0.96 8 07:41 23.06.2020
1052 Clear 14 1021 80 0 0.73 77 07:22 23.06.2020
1053 Clear 13 1021 80 0 0.73 77 06:51 23.06.2020
1054 Clear 12 1020 91 0 0.73 77 06:31 23.06.2020
1055 Clear 12 1020 89 0 1.06 99 05:47 23.06.2020
1056 Clear 13 1022 85 0 1.01 103 04:39 23.06.2020
1057 Clear 14 1023 80 0 0.45 75 03:19 23.06.2020
1058 Clear 15 1025 75 0 1.38 101 02:46 23.06.2020
1059 Clear 15 1023 79 0 1.52 102 02:26 23.06.2020
1060 Clear 13 1025 72 0 1.52 102 01:44 23.06.2020
1061 Clear 14 1025 72 0 1.61 100 01:20 23.06.2020
1062 Clear 15 1025 78 0 1.64 93 00:25 23.06.2020
1063 Clear 14 1025 80 0 1.64 93 23:59 22.06.2020
1064 Clear 15 1025 80 0 1.64 93 23:39 22.06.2020
1065 Clear 15 1025 80 0 1.71 91 23:19 22.06.2020
1066 Clear 15 1025 78 0 0.89 0 22:58 22.06.2020
1067 Clear 16 1025 79 0 1.71 91 22:40 22.06.2020
1068 Clear 16 1025 79 0 1.71 91 22:40 22.06.2020
1069 Clear 16 1025 77 0 1.84 78 22:20 22.06.2020
1070 Clear 17 1023 56 10000 2.6 340 21:58 22.06.2020
1071 Clear 19 1023 49 10000 3.6 10 21:40 22.06.2020
1072 Clear 19 1025 71 0 1.97 52 21:21 22.06.2020
1073 Clear 19 1025 68 0 1.97 52 20:55 22.06.2020
1074 Clear 20 1023 41 10000 5.1 30 20:36 22.06.2020
1075 Clear 21 1023 44 10000 4.1 30 20:18 22.06.2020
1076 Clear 22 1025 60 0 1.79 288 19:43 22.06.2020
1077 Clear 22 1025 59 0 2.24 336 19:19 22.06.2020
1078 Clear 22 1025 58 0 2.68 335 18:56 22.06.2020
1079 Clear 22 1025 58 0 3.13 287 18:36 22.06.2020
1080 Clear 22 1023 47 10000 3.1 50 18:18 22.06.2020
1081 Clear 22 1025 58 0 1.79 292 17:55 22.06.2020
1082 Clear 22 1025 58 0 1.79 291 17:37 22.06.2020
1083 Clear 22 1025 57 0 3.13 279 17:18 22.06.2020
1084 Clear 22 1025 60 0 1.34 272 16:42 22.06.2020
1085 Clear 23 1024 44 10000 1 0 16:18 22.06.2020
1086 Clear 23 1024 41 10000 2.1 0 15:57 22.06.2020
1087 Clear 22 1026 55 0 2.24 254 15:39 22.06.2020
1088 Clear 24 1024 47 0 1.79 311 15:21 22.06.2020
1089 Clear 23 1024 49 0 0.89 22 14:39 22.06.2020
1090 Clouds 23 1024 49 0 0.89 22 14:20 22.06.2020
1091 Clouds 23 1024 48 0 2.24 12 13:57 22.06.2020
1092 Clouds 23 1024 47 0 0.89 193 13:38 22.06.2020
1093 Clouds 23 1024 48 0 0.89 296 13:20 22.06.2020
1094 Clouds 22 1024 51 0 0.89 68 12:43 22.06.2020
1095 Clouds 22 1024 51 0 1.34 340 12:23 22.06.2020
1096 Clouds 21 1025 64 0 2.52 324 11:58 22.06.2020
1097 Clouds 20 1025 66 0 2.52 324 11:37 22.06.2020
1098 Clouds 20 1025 66 0 2.52 324 11:37 22.06.2020
1099 Rain 19 1026 76 0 1.92 313 11:18 22.06.2020
1100 Rain 19 1026 76 0 1.92 313 11:18 22.06.2020
1101 Rain 20 1025 62 0 0.89 355 10:55 22.06.2020
1102 Rain 20 1022 71 0 1.34 221 10:36 22.06.2020
1103 Rain 19 1025 68 0 1.35 277 10:18 22.06.2020
1104 Rain 20 1022 69 0 1.35 277 09:55 22.06.2020
1105 Rain 20 1022 72 0 1.35 277 09:37 22.06.2020
1106 Clouds 16 1026 81 0 0.59 255 09:18 22.06.2020
1107 Clouds 18 1022 81 0 0.59 255 08:40 22.06.2020
1108 Clouds 17 1022 86 0 0.13 242 08:21 22.06.2020
1109 Clouds 17 1022 87 0 0.13 242 07:53 22.06.2020
1110 Clouds 17 1022 87 0 0.13 242 07:34 22.06.2020
1111 Clouds 16 1027 85 0 0.45 67 06:56 22.06.2020
1112 Clouds 16 1024 87 0 0.65 199 06:37 22.06.2020
1113 Clouds 16 1024 84 0 0.45 255 06:19 22.06.2020
1114 Clouds 16 1024 81 0 1.24 164 05:41 22.06.2020
1115 Clouds 16 1026 82 0 0.97 196 02:59 22.06.2020
1116 Clouds 16 1026 82 0 0.97 196 02:59 22.06.2020
1117 Clouds 16 1025 80 0 0.45 90 01:38 22.06.2020
1118 Clouds 16 1025 79 0 0.45 112 00:43 22.06.2020
1119 Clouds 17 1022 74 0 0.89 143 00:22 22.06.2020
1120 Clouds 15 1025 82 0 0.72 174 23:55 21.06.2020
1121 Clouds 15 1024 82 0 0.72 174 23:36 21.06.2020
1122 Clouds 15 1024 82 0 1.01 160 23:18 21.06.2020
1123 Clouds 15 1024 83 0 1.01 160 22:55 21.06.2020
1124 Clouds 16 1024 81 0 1.01 160 22:36 21.06.2020
1125 Clouds 19 1022 66 0 1.22 155 22:18 21.06.2020
1126 Clouds 19 1022 65 0 1.22 155 21:54 21.06.2020
1127 Clouds 19 1022 65 0 1.22 155 21:54 21.06.2020
1128 Rain 18 1024 62 0 0.45 90 21:36 21.06.2020
1129 Rain 21 1022 61 0 0.29 7 21:18 21.06.2020
1130 Rain 21 1021 60 0 0.29 7 20:40 21.06.2020
1131 Clouds 22 1021 49 0 0.91 302 20:20 21.06.2020
1132 Clouds 23 1021 48 0 0.91 302 19:59 21.06.2020
1133 Clouds 23 1021 49 0 0.45 180 19:40 21.06.2020
1134 Clouds 23 1021 47 0 0.45 180 19:20 21.06.2020
1135 Clouds 24 1021 46 0 0.89 180 18:56 21.06.2020
1136 Clouds 24 1022 58 0 0.89 348 18:38 21.06.2020
1137 Clouds 24 1020 47 0 0.89 3 18:19 21.06.2020
1138 Clouds 24 1020 45 0 0.89 191 17:41 21.06.2020
1139 Clouds 25 1020 45 0 0.89 191 17:21 21.06.2020
1140 Clouds 24 1022 44 0 1.86 295 16:57 21.06.2020
1141 Clouds 24 1023 46 0 1.79 292 16:39 21.06.2020
1142 Clouds 24 1023 44 0 2.24 292 16:21 21.06.2020
1143 Clouds 24 1021 45 0 0.89 359 15:41 21.06.2020
1144 Clouds 24 1021 45 0 0.89 359 15:23 21.06.2020
1145 Clouds 24 1021 47 0 1.34 302 14:59 21.06.2020
1146 Clouds 23 1022 46 0 0.45 180 14:38 21.06.2020
1147 Clouds 23 1022 47 0 2.28 296 14:19 21.06.2020
1148 Clouds 23 1022 49 0 2.28 296 13:56 21.06.2020
1149 Clouds 23 1022 49 0 2.28 296 13:56 21.06.2020
1150 Clouds 23 1022 48 0 2.28 296 13:38 21.06.2020
1151 Clouds 22 1021 47 0 0.45 45 13:18 21.06.2020
1152 Clouds 22 1018 59 0 1.79 245 12:44 21.06.2020
1153 Clouds 20 1021 56 10000 1.5 0 12:25 21.06.2020
1154 Clouds 20 1023 62 0 2.13 289 11:55 21.06.2020
1155 Clouds 21 1023 64 0 2.13 289 11:36 21.06.2020
1156 Clear 21 1021 56 0 1.34 319 11:18 21.06.2020
1157 Clear 21 1019 67 0 0.89 256 10:55 21.06.2020
1158 Clear 20 1019 65 0 1.79 236 10:36 21.06.2020
1159 Clear 20 1020 63 0 0.89 289 10:18 21.06.2020
1160 Clear 19 1020 71 0 1.63 269 09:41 21.06.2020
1161 Clear 16 1023 79 0 1.13 246 09:19 21.06.2020
1162 Clear 15 1020 78 0 1.13 246 08:56 21.06.2020
1163 Clear 15 1020 79 0 1.13 246 08:37 21.06.2020
1164 Clear 14 1019 80 0 1.11 238 08:19 21.06.2020
1165 Clear 15 1019 83 0 1.11 238 07:41 21.06.2020
1166 Clear 13 1019 84 0 1.09 186 07:22 21.06.2020
1167 Clear 13 1019 86 0 1.09 186 06:49 21.06.2020
1168 Clear 13 1021 88 0 1.4 153 06:18 21.06.2020
1169 Clear 13 1023 87 0 1.4 153 05:54 21.06.2020
1170 Clear 12 1022 91 0 1.2 147 03:40 21.06.2020
1171 Clear 13 1022 91 0 1.56 152 03:18 21.06.2020
1172 Clouds 13 1023 91 0 1.44 157 02:20 21.06.2020
1173 Clouds 13 1023 91 0 1.44 157 01:34 21.06.2020
1174 Clouds 15 1022 82 0 1.3 137 00:57 21.06.2020
1175 Clouds 15 1023 91 0 1.3 137 00:38 21.06.2020
1176 Rain 15 1022 74 0 1.28 125 00:19 21.06.2020
1177 Rain 15 1022 75 0 1.28 125 23:45 20.06.2020
1178 Clouds 16 1022 75 0 1.3 111 23:22 20.06.2020
1179 Clouds 16 1022 75 0 1.3 111 22:56 20.06.2020
1180 Clouds 16 1022 76 0 1.3 111 22:38 20.06.2020
1181 Rain 17 1022 77 0 1.45 76 22:19 20.06.2020
1182 Rain 17 1022 78 0 1.45 76 21:56 20.06.2020
1183 Rain 17 1021 78 0 1.45 76 21:38 20.06.2020
1184 Rain 18 1021 77 0 1.32 21 21:20 20.06.2020
1185 Rain 18 1021 75 0 1.32 21 20:57 20.06.2020
1186 Rain 19 1021 74 0 1.32 21 20:39 20.06.2020
1187 Rain 19 1018 59 0 1.85 350 20:20 20.06.2020
1188 Rain 20 1018 56 0 1.85 350 19:44 20.06.2020
1189 Rain 21 1018 56 0 2.37 336 19:25 20.06.2020
1190 Rain 21 1018 55 0 2.37 336 18:59 20.06.2020
1191 Rain 20 1018 54 0 2.37 336 18:40 20.06.2020
1192 Clouds 21 1018 53 0 1.64 324 18:20 20.06.2020
1193 Clouds 21 1018 51 0 0.45 257 17:57 20.06.2020
1194 Clouds 20 1023 64 0 0.45 157 17:39 20.06.2020
1195 Clouds 20 1023 64 0 0.45 157 17:20 20.06.2020
1196 Clouds 21 1018 56 0 1.7 308 16:42 20.06.2020
1197 Clouds 21 1018 58 0 0.45 54 16:42 20.06.2020
1198 Clouds 21 1019 57 0 0.45 71 16:19 20.06.2020
1199 Clouds 21 1019 58 0 0.89 53 15:57 20.06.2020
1200 Clouds 21 1019 55 0 0.45 41 15:39 20.06.2020
1201 Clouds 22 1019 55 0 0.45 41 15:18 20.06.2020
1202 Clouds 20 1021 58 0 1.34 180 14:42 20.06.2020
1203 Rain 19 1021 63 0 1.84 312 14:21 20.06.2020
1204 Rain 20 1022 62 0 1.84 312 13:42 20.06.2020
1205 Rain 20 1024 55 0 1.34 337 13:23 20.06.2020
1206 Rain 20 1021 59 0 1.79 300 12:57 20.06.2020
1207 Rain 20 1024 58 0 0.89 67 12:38 20.06.2020
1208 Rain 20 1024 58 0 0.89 67 12:38 20.06.2020
1209 Clouds 18 1022 73 0 2 304 12:19 20.06.2020
1210 Clouds 18 1021 64 10000 1 0 12:19 20.06.2020
1211 Clouds 18 1022 78 0 2 304 11:55 20.06.2020
1212 Clouds 19 1019 70 0 2.24 240 11:36 20.06.2020
1213 Clouds 18 1022 68 0 0.89 280 11:18 20.06.2020
1214 Clouds 19 1019 73 0 0.45 246 10:44 20.06.2020
1215 Clouds 18 1020 70 0 0.45 340 10:21 20.06.2020
1216 Clouds 18 1020 74 0 1.71 285 09:55 20.06.2020
1217 Clouds 17 1020 77 0 1.71 285 09:36 20.06.2020
1218 Clouds 14 1022 89 0 0.73 297 09:18 20.06.2020
1219 Clouds 15 1022 81 0 0.73 297 08:45 20.06.2020
1220 Clouds 14 1019 94 0 0.49 256 08:27 20.06.2020
1221 Clouds 14 1019 83 0 0.49 256 07:51 20.06.2020
1222 Clear 13 1019 88 0 0.75 184 07:27 20.06.2020
1223 Clear 13 1019 83 0 0.75 184 06:55 20.06.2020
1224 Clear 11 1022 94 0 0.87 179 06:23 20.06.2020
1225 Clear 11 1022 94 0 0.87 179 06:23 20.06.2020
1226 Clear 11 1022 94 0 0.87 179 05:52 20.06.2020
1227 Clear 11 1022 94 0 0.79 142 04:58 20.06.2020
1228 Clear 11 1022 94 0 0.97 146 02:50 20.06.2020
1229 Clouds 13 1021 83 0 1.24 165 01:48 20.06.2020
1230 Clouds 13 1021 86 0 1.27 162 00:57 20.06.2020
1231 Clouds 14 1021 85 0 1.25 141 00:21 20.06.2020
1232 Clouds 14 1021 83 0 1.25 141 23:58 19.06.2020
1233 Clouds 14 1021 83 0 1.25 141 23:38 19.06.2020
1234 Clouds 14 1020 80 0 1.28 132 23:18 19.06.2020
1235 Clouds 15 1020 80 0 1.28 132 22:41 19.06.2020
1236 Clouds 15 1018 82 0 0.81 151 22:23 19.06.2020
1237 Clouds 16 1018 79 0 0.81 151 21:59 19.06.2020
1238 Clouds 16 1018 75 0 1.04 137 21:38 19.06.2020
1239 Rain 17 1018 73 0 0.22 214 21:18 19.06.2020
1240 Clouds 17 1018 70 0 0.45 207 20:59 19.06.2020
1241 Clouds 17 1017 69 0 0.34 113 20:40 19.06.2020
1242 Rain 18 1017 68 0 0.68 330 20:21 19.06.2020
1243 Rain 18 1017 68 0 0.68 330 20:21 19.06.2020
1244 Rain 18 1017 67 0 0.45 250 19:58 19.06.2020
1245 Rain 19 1017 65 0 0.45 296 19:40 19.06.2020
1246 Rain 19 1017 61 0 1.69 314 19:21 19.06.2020
1247 Rain 20 1019 55 0 1.69 314 18:57 19.06.2020
1248 Rain 20 1020 49 0 1.34 270 18:38 19.06.2020
1249 Rain 20 1019 50 0 1.97 309 18:20 19.06.2020
1250 Rain 19 1019 60 0 1.97 309 17:42 19.06.2020
1251 Rain 19 1016 50 0 1.71 303 17:23 19.06.2020
1252 Rain 19 1016 50 0 1.71 303 16:57 19.06.2020
1253 Rain 17 1018 62 0 0.45 180 16:38 19.06.2020
1254 Rain 18 1016 55 0 1.52 293 16:20 19.06.2020
1255 Rain 17 1016 65 0 0.45 193 15:44 19.06.2020
1256 Rain 17 1016 62 0 1.34 175 15:25 19.06.2020
1257 Rain 19 1016 58 0 1.05 294 14:57 19.06.2020
1258 Rain 19 1015 65 0 1.05 294 14:39 19.06.2020
1259 Rain 19 1015 68 0 0.45 259 14:20 19.06.2020
1260 Rain 20 1016 62 0 1.1 288 13:57 19.06.2020
1261 Rain 20 1016 62 0 1.1 288 13:57 19.06.2020
1262 Rain 19 1016 63 0 1.1 288 13:39 19.06.2020
1263 Rain 18 1016 73 0 1.06 258 13:19 19.06.2020
1264 Rain 18 1016 74 0 0.45 238 12:43 19.06.2020
1265 Rain 16 1018 71 0 1.18 244 12:20 19.06.2020
1266 Rain 16 1018 74 0 0.45 180 11:41 19.06.2020
1267 Rain 17 1018 77 0 1.75 232 11:19 19.06.2020
1268 Rain 17 1016 72 0 0.45 229 10:59 19.06.2020
1269 Rain 16 1016 72 0 0.89 202 10:41 19.06.2020
1270 Rain 16 1016 75 0 0.89 186 10:21 19.06.2020
1271 Rain 16 1016 77 0 2.33 226 09:54 19.06.2020
1272 Rain 15 1016 77 0 1.34 186 09:36 19.06.2020
1273 Rain 15 1016 77 0 0.45 161 09:18 19.06.2020
1274 Rain 14 1018 82 0 2.09 231 08:41 19.06.2020
1275 Clouds 13 1014 94 0 1.42 209 08:23 19.06.2020
1276 Clouds 13 1015 85 0 1.42 209 07:41 19.06.2020
1277 Clouds 12 1015 85 0 1.4 188 07:22 19.06.2020
1278 Clouds 13 1015 85 0 1.4 188 06:52 19.06.2020
1279 Clouds 12 1016 82 0 1.58 175 06:22 19.06.2020
1280 Clouds 12 1016 88 0 1.51 177 05:32 19.06.2020
1281 Clouds 13 1016 81 0 1.52 175 03:50 19.06.2020
1282 Clouds 13 1016 84 0 0.89 21 02:24 19.06.2020
1283 Clouds 14 1016 77 0 1.92 166 00:46 19.06.2020
1284 Clouds 14 1016 70 0 1.94 163 00:22 19.06.2020
1285 Clouds 14 1016 69 0 1.94 163 23:58 18.06.2020
1286 Clouds 15 1016 71 0 0.45 180 23:39 18.06.2020
1287 Rain 14 1016 71 0 1.92 158 23:21 18.06.2020
1288 Rain 13 1016 86 0 1.92 158 22:41 18.06.2020
1289 Rain 13 1016 86 0 1.92 158 22:41 18.06.2020
1290 Rain 16 1015 68 0 1.89 175 22:21 18.06.2020
1291 Rain 15 1016 85 0 1.89 175 21:58 18.06.2020
1292 Rain 15 1016 85 0 1.89 175 21:58 18.06.2020
1293 Rain 15 1016 84 0 1.89 175 21:38 18.06.2020
1294 Rain 18 1015 62 0 1.35 171 21:19 18.06.2020
1295 Rain 19 1014 53 0 1.35 171 20:44 18.06.2020
1296 Rain 20 1011 49 0 1.14 222 20:22 18.06.2020
1297 Rain 19 1014 60 0 0.45 180 19:58 18.06.2020
1298 Rain 19 1014 61 0 0.45 180 19:40 18.06.2020
1299 Clouds 19 1013 60 0 0.45 180 19:20 18.06.2020
1300 Clouds 19 1010 62 0 1.11 248 18:56 18.06.2020
1301 Clouds 19 1010 63 0 0.45 248 18:36 18.06.2020
1302 Clouds 20 1010 58 0 1.2 265 18:18 18.06.2020
1303 Clouds 20 1014 49 0 0.45 180 17:43 18.06.2020
1304 Clouds 21 1014 48 0 0.45 180 17:24 18.06.2020
1305 Clouds 21 1011 53 0 0.89 182 16:55 18.06.2020
1306 Clouds 20 1011 55 0 1.34 201 16:37 18.06.2020
1307 Clouds 20 1014 59 0 0.45 180 16:18 18.06.2020
1308 Clouds 20 1013 52 0 1.34 217 15:40 18.06.2020
1309 Clouds 21 1013 52 0 2.24 183 15:21 18.06.2020
1310 Clouds 21 1013 52 0 2.24 183 15:21 18.06.2020
1311 Clouds 21 1014 50 0 1.34 319 14:58 18.06.2020
1312 Clouds 21 1014 50 0 1.34 319 14:58 18.06.2020
1313 Clouds 21 1014 53 0 1.34 215 14:40 18.06.2020
1314 Clouds 21 1014 55 0 1.34 205 14:21 18.06.2020
1315 Clouds 20 1014 55 0 1.79 222 13:56 18.06.2020
1316 Clouds 20 1014 58 0 1.79 239 13:38 18.06.2020
1317 Clouds 20 1014 57 0 1.79 209 13:18 18.06.2020
1318 Clouds 19 1017 57 0 2.24 247 12:55 18.06.2020
1319 Clouds 19 1012 66 0 3.93 230 12:36 18.06.2020
1320 Clouds 17 1014 59 0 2.24 263 12:18 18.06.2020
1321 Clouds 18 1015 67 0 2.24 295 11:44 18.06.2020
1322 Clouds 18 1015 67 0 2.24 295 11:21 18.06.2020
1323 Clouds 18 1014 71 0 1.79 236 10:41 18.06.2020
1324 Clear 18 1012 76 0 0.45 221 10:20 18.06.2020
1325 Clear 17 1012 81 0 4 223 09:58 18.06.2020
1326 Clear 18 1012 72 0 4 223 09:40 18.06.2020
1327 Clear 14 1014 77 0 0.45 203 09:21 18.06.2020
1328 Clear 14 1012 83 0 0.89 115 08:41 18.06.2020
1329 Clear 12 1011 96 0 2.47 210 08:22 18.06.2020
1330 Clear 13 1012 88 0 2.47 210 07:58 18.06.2020
1331 Clear 12 1012 88 0 2.47 210 07:40 18.06.2020
1332 Clear 12 1012 89 0 2.06 184 07:21 18.06.2020
1333 Clear 11 1012 90 0 2.19 177 06:28 18.06.2020
1334 Clear 11 1012 90 0 2.21 176 04:27 18.06.2020
1335 Clear 12 1012 89 0 2.24 174 03:26 18.06.2020
1336 Clouds 12 1012 91 0 1.77 167 01:40 18.06.2020
1337 Clouds 12 1012 91 0 1.77 169 01:18 18.06.2020
1338 Clouds 12 1012 90 0 1.77 169 00:49 18.06.2020
1339 Clouds 12 1012 90 0 1.65 165 00:24 18.06.2020
1340 Clouds 13 1014 90 0 1.65 165 23:47 17.06.2020
1341 Clouds 13 1012 88 0 1.59 156 23:23 17.06.2020
1342 Clouds 13 1014 90 0 1.59 156 22:59 17.06.2020
1343 Clouds 13 1013 90 0 1.59 156 22:40 17.06.2020
1344 Clouds 14 1013 90 0 1.53 146 22:21 17.06.2020
1345 Clouds 14 1013 89 0 1.53 146 21:58 17.06.2020
1346 Clouds 14 1013 88 0 1.53 146 21:39 17.06.2020
1347 Clouds 14 1013 88 0 1.13 151 21:20 17.06.2020
1348 Clouds 15 1013 89 0 1.13 151 20:55 17.06.2020
1349 Clouds 14 1013 89 0 1.13 151 20:37 17.06.2020
1350 Clouds 15 1013 88 0 0.45 203 20:18 17.06.2020
1351 Clouds 15 1013 88 0 0.51 118 19:42 17.06.2020
1352 Rain 16 1013 83 0 1.79 215 19:19 17.06.2020
1353 Rain 16 1013 83 0 1.79 215 18:56 17.06.2020
1354 Rain 14 1013 84 0 2.24 232 18:37 17.06.2020
1355 Clouds 16 1012 77 10000 1.5 190 18:19 17.06.2020
1356 Rain 14 1013 93 0 0.89 21 17:40 17.06.2020
1357 Rain 15 1012 82 10000 2.1 220 17:21 17.06.2020
1358 Rain 14 1012 88 0 0.45 203 16:56 17.06.2020
1359 Rain 14 1012 89 0 1.34 203 16:37 17.06.2020
1360 Rain 14 1010 94 0 2.68 168 16:19 17.06.2020
1361 Rain 14 1010 94 0 1.34 198 15:40 17.06.2020
1362 Rain 14 1010 93 0 3.13 171 15:21 17.06.2020
1363 Rain 14 1010 93 0 3.13 200 14:58 17.06.2020
1364 Rain 14 1009 93 0 2.68 229 14:40 17.06.2020
1365 Rain 14 1009 93 0 3.13 179 14:19 17.06.2020
1366 Rain 14 1009 93 0 0.45 184 13:58 17.06.2020
1367 Rain 14 1009 93 0 1.79 108 13:40 17.06.2020
1368 Rain 14 1009 93 0 3.13 197 13:21 17.06.2020
1369 Rain 14 1009 94 0 1.79 239 12:55 17.06.2020
1370 Rain 15 1009 94 0 1.79 208 12:36 17.06.2020
1371 Rain 14 1009 93 0 0.45 142 12:18 17.06.2020
1372 Rain 15 1009 91 0 0.45 221 11:44 17.06.2020
1373 Rain 15 1009 90 0 0.89 196 11:24 17.06.2020
1374 Rain 15 1009 89 0 1.95 246 10:39 17.06.2020
1375 Rain 16 1009 87 0 1.78 243 10:20 17.06.2020
1376 Rain 15 1009 84 0 1.78 243 10:00 17.06.2020
1377 Rain 15 1009 83 0 1.78 243 09:41 17.06.2020
1378 Clouds 15 1012 90 0 1.41 235 09:21 17.06.2020
1379 Clouds 15 1012 88 0 1.41 235 08:57 17.06.2020
1380 Clouds 15 1012 89 0 1.41 235 08:39 17.06.2020
1381 Clouds 15 1012 89 0 1.3 219 08:19 17.06.2020
1382 Clouds 14 1009 96 0 1.3 219 07:43 17.06.2020
1383 Clouds 14 1009 96 0 1.81 206 07:21 17.06.2020
1384 Clouds 13 1009 96 0 1.81 206 06:56 17.06.2020
1385 Clouds 13 1009 96 0 1.81 206 06:38 17.06.2020
1386 Clouds 13 1013 90 0 0.45 247 06:20 17.06.2020
1387 Clouds 13 1012 89 0 0.97 131 05:31 17.06.2020
1388 Clouds 13 1012 90 0 1.06 124 03:30 17.06.2020
1389 Clouds 14 1013 87 0 1.11 129 01:55 17.06.2020
1390 Clouds 14 1014 87 0 1.27 132 00:48 17.06.2020
1391 Clouds 15 1013 85 0 1.43 124 00:25 17.06.2020
1392 Clouds 15 1014 84 0 1.43 124 23:57 16.06.2020
1393 Clouds 15 1014 84 0 1.43 124 23:57 16.06.2020
1394 Clouds 15 1014 82 0 1.43 124 23:39 16.06.2020
1395 Clouds 16 1015 93 0 1.42 110 23:20 16.06.2020
1396 Clouds 16 1015 93 0 1.42 110 22:57 16.06.2020
1397 Clouds 16 1015 93 0 1.42 110 22:38 16.06.2020
1398 Clouds 17 1014 77 0 0.97 93 22:19 16.06.2020
1399 Clouds 16 1014 74 0 0.97 93 21:57 16.06.2020
1400 Clouds 15 1015 92 0 0.97 93 21:39 16.06.2020
1401 Rain 19 1014 76 0 1.28 36 21:20 16.06.2020
1402 Rain 18 1013 72 0 1.28 36 20:43 16.06.2020
1403 Rain 18 1013 73 0 1.42 25 20:22 16.06.2020
1404 Rain 19 1011 66 0 1.42 25 19:58 16.06.2020
1405 Rain 18 1014 74 0 0.45 270 19:40 16.06.2020
1406 Rain 19 1011 65 0 1.7 23 19:22 16.06.2020
1407 Rain 19 1014 65 0 0.45 270 18:58 16.06.2020
1408 Rain 20 1014 55 0 1.7 23 18:39 16.06.2020
1409 Rain 20 1014 53 0 1.8 24 18:20 16.06.2020
1410 Rain 20 1014 64 0 3.13 323 17:56 16.06.2020
1411 Rain 20 1014 64 0 3.13 323 17:37 16.06.2020
1412 Rain 22 1014 59 0 1.79 74 17:19 16.06.2020
1413 Rain 21 1014 60 0 0.89 203 16:56 16.06.2020
1414 Rain 20 1015 64 0 0.89 203 16:38 16.06.2020
1415 Rain 21 1014 58 0 1.34 65 16:19 16.06.2020
1416 Rain 21 1014 58 0 1.34 65 15:56 16.06.2020
1417 Rain 20 1015 68 0 1.95 22 15:38 16.06.2020
1418 Rain 20 1015 70 0 1.97 26 15:20 16.06.2020
1419 Rain 19 1015 68 0 0.45 203 14:43 16.06.2020
1420 Rain 19 1012 84 0 1.53 30 14:25 16.06.2020
1421 Rain 19 1015 61 0 1.79 25 13:58 16.06.2020
1422 Rain 19 1016 71 0 1.45 33 13:40 16.06.2020
1423 Rain 18 1017 86 0 1.27 37 13:22 16.06.2020
1424 Rain 20 1017 79 0 0.45 100 12:42 16.06.2020
1425 Rain 20 1016 65 0 1.79 1 12:22 16.06.2020
1426 Rain 19 1017 72 0 0.66 55 11:57 16.06.2020
1427 Rain 19 1016 67 0 1.34 19 11:39 16.06.2020
1428 Rain 19 1016 69 0 1.34 331 11:20 16.06.2020
1429 Rain 19 1016 69 0 1.34 331 10:57 16.06.2020
1430 Rain 19 1017 70 0 0.89 165 10:38 16.06.2020
1431 Rain 19 1017 70 0 0.89 165 10:18 16.06.2020
1432 Rain 18 1015 75 0 1.29 249 09:43 16.06.2020
1433 Clouds 16 1015 80 0 1.44 263 09:22 16.06.2020
1434 Clouds 15 1015 83 0 1.44 263 08:53 16.06.2020
1435 Clouds 14 1015 83 0 1.44 263 08:32 16.06.2020
1436 Clouds 14 1015 86 0 1.19 244 07:52 16.06.2020
1437 Clouds 14 1015 85 0 0.87 197 07:29 16.06.2020
1438 Clouds 14 1015 85 0 0.87 197 06:57 16.06.2020
1439 Clouds 13 1017 89 0 0.87 197 06:34 16.06.2020
1440 Clouds 13 1018 88 0 0.85 155 05:52 16.06.2020
1441 Clouds 13 1017 87 0 0.45 108 04:55 16.06.2020
1442 Clouds 13 1017 85 0 0.45 130 03:56 16.06.2020
1443 Clouds 14 1018 80 0 1.27 170 02:46 16.06.2020
1444 Clouds 14 1018 78 0 1.3 144 01:34 16.06.2020
1445 Clouds 15 1019 75 0 1.3 144 00:57 16.06.2020
1446 Clouds 15 1018 78 0 1.14 137 00:25 16.06.2020
1447 Clouds 15 1018 79 0 1.14 137 23:57 15.06.2020
1448 Clouds 16 1018 80 0 1.14 137 23:38 15.06.2020
1449 Clouds 16 1019 80 0 1.23 148 23:20 15.06.2020
1450 Clouds 15 1019 84 0 1.23 148 22:42 15.06.2020
1451 Clouds 17 1019 80 0 1.12 140 22:22 15.06.2020
1452 Clouds 17 1019 79 0 1.12 140 21:58 15.06.2020
1453 Clouds 18 1019 82 0 1.12 140 21:38 15.06.2020
1454 Rain 18 1018 76 0 0.14 132 21:20 15.06.2020
1455 Rain 18 1018 76 0 0.14 132 21:20 15.06.2020
1456 Rain 19 1018 76 0 0.14 132 20:59 15.06.2020
1457 Rain 19 1018 72 0 0.14 132 20:39 15.06.2020
1458 Clouds 20 1016 60 0 0.73 310 20:20 15.06.2020
1459 Clouds 19 1018 68 0 0.73 310 19:59 15.06.2020
1460 Clouds 19 1018 68 0 0.73 310 19:59 15.06.2020
1461 Clouds 19 1018 68 0 0.73 310 19:40 15.06.2020
1462 Clouds 19 1015 71 0 0.45 244 19:21 15.06.2020
1463 Clouds 20 1018 66 0 1.19 310 18:57 15.06.2020
1464 Clouds 20 1015 71 0 1.19 310 18:39 15.06.2020
1465 Clouds 20 1015 69 0 1.47 309 18:19 15.06.2020
1466 Clouds 20 1015 65 0 1.47 309 17:57 15.06.2020
1467 Clouds 20 1015 64 0 1.47 309 17:39 15.06.2020
1468 Rain 20 1015 64 0 1.74 311 17:19 15.06.2020
1469 Rain 20 1015 68 0 1.74 311 16:42 15.06.2020
1470 Rain 20 1016 58 0 1.15 341 16:19 15.06.2020
1471 Rain 20 1016 55 0 1.15 341 15:58 15.06.2020
1472 Rain 20 1018 59 0 1.15 341 15:40 15.06.2020
1473 Rain 19 1019 63 0 1.79 279 15:20 15.06.2020
1474 Rain 19 1019 63 0 1.34 281 14:57 15.06.2020
1475 Rain 21 1018 54 0 0.45 28 14:39 15.06.2020
1476 Clouds 21 1018 54 0 0.45 333 14:18 15.06.2020
1477 Clouds 21 1019 58 0 2.06 326 13:56 15.06.2020
1478 Clouds 20 1019 59 0 2.06 326 13:37 15.06.2020
1479 Clouds 20 1019 59 0 2.06 326 13:37 15.06.2020
1480 Clouds 20 1019 65 0 1.79 310 13:18 15.06.2020
1481 Clouds 19 1019 62 0 0.45 203 12:41 15.06.2020
1482 Rain 18 1019 69 0 0.89 279 12:22 15.06.2020
1483 Rain 19 1019 64 0 0.89 316 11:47 15.06.2020
1484 Rain 17 1019 71 0 0.89 308 11:27 15.06.2020
1485 Rain 18 1019 69 0 0.89 326 10:59 15.06.2020
1486 Rain 18 1016 79 0 0.45 234 10:41 15.06.2020
1487 Rain 18 1016 79 0 0.45 234 10:41 15.06.2020
1488 Clouds 18 1016 82 0 2.65 239 10:21 15.06.2020
1489 Clouds 16 1016 93 0 2.65 239 09:43 15.06.2020
1490 Clouds 16 1017 80 0 2.41 232 09:23 15.06.2020
1491 Clouds 15 1017 86 0 2.29 231 08:47 15.06.2020
1492 Clouds 15 1017 89 0 1.88 226 08:27 15.06.2020
1493 Clouds 13 1017 91 0 1.88 226 07:57 15.06.2020
1494 Clouds 13 1016 92 0 1.88 226 07:39 15.06.2020
1495 Clouds 13 1016 92 0 1.34 195 07:19 15.06.2020
1496 Clouds 12 1016 93 0 1.35 185 06:29 15.06.2020
1497 Clouds 12 1016 93 0 1.35 185 05:51 15.06.2020
1498 Clouds 12 1016 93 0 1.43 184 05:30 15.06.2020
1499 Clouds 12 1016 93 0 1.46 190 04:23 15.06.2020
1500 Clouds 13 1016 92 0 1.46 190 03:49 15.06.2020
1501 Clouds 13 1016 92 0 1.21 195 03:27 15.06.2020
1502 Clouds 13 1016 91 0 1.37 210 02:33 15.06.2020
1503 Clouds 13 1016 91 0 1.29 197 01:51 15.06.2020
1504 Clouds 13 1016 91 0 1.29 197 01:29 15.06.2020
1505 Clouds 14 1016 90 0 0.92 175 00:56 15.06.2020
1506 Clouds 13 1016 90 0 0.92 175 00:38 15.06.2020
1507 Clouds 14 1016 90 0 0.61 159 00:18 15.06.2020
1508 Rain 14 1016 89 0 0.61 159 23:42 14.06.2020
1509 Rain 14 1016 89 0 0.57 143 23:24 14.06.2020
1510 Rain 14 1016 89 0 0.57 143 23:24 14.06.2020
1511 Clouds 14 1016 89 0 0.45 55 22:58 14.06.2020
1512 Clouds 14 1016 89 0 0.57 143 22:39 14.06.2020
1513 Clouds 15 1016 89 0 0.45 107 22:19 14.06.2020
1514 Clouds 15 1016 89 0 1 118 21:57 14.06.2020
1515 Clouds 15 1015 89 0 1 118 21:38 14.06.2020
1516 Rain 16 1015 88 0 1.17 91 21:19 14.06.2020
1517 Rain 16 1015 88 0 0.69 187 20:58 14.06.2020
1518 Rain 16 1015 88 0 0.69 187 20:38 14.06.2020
1519 Clouds 17 1015 88 0 0.76 154 20:19 14.06.2020
1520 Clouds 17 1015 89 0 0.76 154 19:58 14.06.2020
1521 Clouds 17 1015 90 0 0.76 154 19:38 14.06.2020
1522 Clouds 16 1015 91 0 1.15 115 19:19 14.06.2020
1523 Rain 14 1014 95 0 1.15 115 18:57 14.06.2020
1524 Rain 15 1015 92 0 1.15 115 18:38 14.06.2020
1525 Rain 15 1015 91 0 1.14 76 18:20 14.06.2020
1526 Rain 15 1014 94 0 1.14 76 17:57 14.06.2020
1527 Rain 15 1014 94 0 1.14 76 17:38 14.06.2020
1528 Rain 15 1015 94 0 1.11 2 17:19 14.06.2020
1529 Rain 17 1015 80 0 1.11 2 16:41 14.06.2020
1530 Clouds 18 1015 75 0 1.41 329 16:21 14.06.2020
1531 Clouds 18 1015 70 0 1.41 329 15:59 14.06.2020
1532 Clouds 18 1015 70 0 1.41 329 15:59 14.06.2020
1533 Clouds 18 1015 70 0 1.41 329 15:40 14.06.2020
1534 Rain 18 1015 70 0 1.77 310 15:18 14.06.2020
1535 Rain 18 1015 73 0 1.77 310 14:58 14.06.2020
1536 Rain 17 1017 77 0 0.45 203 14:40 14.06.2020
1537 Clouds 16 1017 74 0 2.24 228 14:21 14.06.2020
1538 Clouds 18 1017 75 0 2.68 222 13:56 14.06.2020
1539 Clouds 17 1017 76 0 2.68 200 13:38 14.06.2020
1540 Clouds 17 1017 77 0 2.24 228 13:19 14.06.2020
1541 Clouds 17 1017 77 0 2.24 214 12:55 14.06.2020
1542 Clouds 17 1017 76 0 2.24 200 12:37 14.06.2020
1543 Clouds 17 1017 68 10000 2.1 150 12:18 14.06.2020
1544 Clouds 17 1016 68 10000 3.1 180 11:56 14.06.2020
1545 Rain 17 1017 79 0 3.13 191 11:37 14.06.2020
1546 Rain 16 1017 78 0 2.68 231 11:18 14.06.2020
1547 Rain 15 1017 97 0 0.89 126 10:41 14.06.2020
1548 Rain 14 1017 97 0 2.75 205 10:19 14.06.2020
1549 Rain 14 1017 97 0 2.75 205 09:45 14.06.2020
1550 Rain 14 1017 98 0 2.44 207 09:25 14.06.2020
1551 Rain 15 1016 88 0 2.44 207 08:54 14.06.2020
1552 Rain 15 1016 88 0 2.44 207 08:36 14.06.2020
1553 Clouds 14 1016 88 0 2.44 208 08:18 14.06.2020
1554 Clouds 14 1016 89 0 2.44 208 07:44 14.06.2020
1555 Clouds 14 1016 90 0 2.18 202 07:26 14.06.2020
1556 Clouds 14 1015 88 0 2.28 196 06:26 14.06.2020
1557 Clouds 14 1015 87 0 0.45 203 05:40 14.06.2020
1558 Rain 14 1015 87 0 0.89 203 04:53 14.06.2020
1559 Rain 14 1013 84 0 3.05 204 04:28 14.06.2020
1560 Clouds 14 1013 86 0 2.81 196 02:56 14.06.2020
1561 Rain 14 1013 88 0 3.34 210 02:27 14.06.2020
1562 Rain 14 1013 92 0 3.34 210 01:41 14.06.2020
1563 Rain 14 1013 93 0 3.99 197 00:56 14.06.2020
1564 Rain 14 1013 93 0 3.99 197 00:37 14.06.2020
1565 Rain 14 1013 93 0 3.4 199 00:18 14.06.2020
1566 Clouds 14 1012 92 0 3.4 199 23:42 13.06.2020
1567 Clouds 14 1012 92 0 3 208 23:23 13.06.2020
1568 Clouds 14 1012 91 0 3 208 22:56 13.06.2020
1569 Clouds 14 1012 91 0 3 208 22:37 13.06.2020
1570 Clouds 14 1012 90 0 1.3 235 22:18 13.06.2020
1571 Rain 14 1012 90 0 1.3 235 21:55 13.06.2020
1572 Rain 14 1012 90 0 1.3 235 21:36 13.06.2020
1573 Rain 14 1012 90 0 1.37 341 21:18 13.06.2020
1574 Rain 14 1011 89 0 0.45 136 20:42 13.06.2020
1575 Rain 14 1011 89 0 0.45 136 20:42 13.06.2020
1576 Rain 15 1011 88 0 0.89 78 20:19 13.06.2020
1577 Rain 15 1010 86 0 1.79 192 19:54 13.06.2020
1578 Rain 16 1010 86 0 1.79 192 19:36 13.06.2020
1579 Rain 16 1009 86 0 0.89 219 19:18 13.06.2020
1580 Rain 17 1009 81 0 3.13 211 18:41 13.06.2020
1581 Rain 18 1008 79 0 3.8 332 18:21 13.06.2020
1582 Rain 21 1011 71 0 0.89 23 18:00 13.06.2020
1583 Rain 21 1011 68 0 0.45 23 17:41 13.06.2020
1584 Rain 21 1010 67 0 0.45 23 17:23 13.06.2020
1585 Rain 21 1010 66 0 0.45 23 16:58 13.06.2020
1586 Rain 21 1010 66 0 0.89 23 16:39 13.06.2020
1587 Rain 21 1010 67 0 1.34 23 16:19 13.06.2020
1588 Rain 21 1010 66 0 3.13 337 15:54 13.06.2020
1589 Rain 22 1010 66 0 3.13 337 15:36 13.06.2020
1590 Rain 22 1010 67 0 0.45 338 15:18 13.06.2020
1591 Rain 22 1011 71 0 3.49 347 14:43 13.06.2020
1592 Rain 21 1011 77 0 3.35 337 14:21 13.06.2020
1593 Rain 21 1009 69 0 3.35 337 13:56 13.06.2020
1594 Rain 20 1009 70 0 3.35 337 13:37 13.06.2020
1595 Clouds 20 1008 78 0 1.98 354 13:18 13.06.2020
1596 Clouds 19 1009 69 0 1.98 354 12:42 13.06.2020
1597 Clouds 18 1012 79 0 0.87 354 12:24 13.06.2020
1598 Clouds 18 1012 81 0 0.87 354 11:40 13.06.2020
1599 Rain 18 1012 82 0 0.67 305 11:19 13.06.2020
1600 Rain 18 1008 82 0 0.67 305 10:58 13.06.2020
1601 Rain 17 1008 81 0 0.67 305 10:40 13.06.2020
1602 Clouds 17 1012 85 0 0.98 291 10:22 13.06.2020
1603 Clouds 17 1010 80 0 0.98 291 09:55 13.06.2020
1604 Clouds 17 1009 81 0 0.98 291 09:36 13.06.2020
1605 Clouds 16 1010 82 0 0.8 309 09:18 13.06.2020
1606 Clouds 16 1010 87 0 1.14 311 08:44 13.06.2020
1607 Clouds 15 1009 88 0 0.49 301 08:26 13.06.2020
1608 Clouds 15 1009 91 0 0.49 301 07:44 13.06.2020
1609 Clouds 15 1009 91 0 0.5 106 07:25 13.06.2020
1610 Clouds 14 1009 90 0 0.5 106 06:44 13.06.2020
1611 Clouds 13 1008 90 0 0.92 105 06:25 13.06.2020
1612 Clouds 14 1008 87 0 0.92 105 05:30 13.06.2020
1613 Clouds 14 1008 87 0 0.92 105 05:29 13.06.2020
1614 Clouds 15 1008 86 0 0.59 87 04:38 13.06.2020
1615 Clouds 15 1010 87 0 0.86 67 03:43 13.06.2020
1616 Clouds 15 1010 85 0 1.45 55 02:52 13.06.2020
1617 Rain 16 1011 90 0 2.34 76 01:50 13.06.2020
1618 Rain 17 1010 80 0 1.63 14 01:24 13.06.2020
1619 Rain 17 1010 81 0 1.63 14 00:56 13.06.2020
1620 Rain 18 1009 82 0 1.63 14 00:37 13.06.2020
1621 Clear 18 1009 83 0 1.57 5 00:19 13.06.2020
1622 Clear 18 1008 84 0 0.45 338 23:39 12.06.2020
1623 Clear 19 1005 79 0 0.52 161 23:18 12.06.2020
1624 Clear 18 1004 79 0 0.52 161 22:55 12.06.2020
1625 Clear 19 1004 79 0 2.24 155 22:36 12.06.2020
1626 Clear 19 1004 78 0 2.68 172 22:18 12.06.2020
1627 Clear 21 1002 71 0 2.24 196 21:42 12.06.2020
1628 Clear 22 1002 68 0 2.24 192 21:23 12.06.2020
1629 Clear 22 1005 68 0 0.93 84 20:57 12.06.2020
1630 Clear 23 1004 68 0 0.93 84 20:38 12.06.2020
1631 Clear 23 1003 63 0 1.34 218 20:20 12.06.2020
1632 Clear 25 1004 63 0 0.76 19 19:44 12.06.2020
1633 Clear 25 1004 59 0 1.16 354 19:22 12.06.2020
1634 Clear 25 1004 59 0 1.16 354 19:22 12.06.2020
1635 Clear 25 1006 48 0 1.16 354 18:59 12.06.2020
1636 Clear 26 1003 47 10000 3.1 310 18:37 12.06.2020
1637 Clear 25 1003 47 10000 3.1 310 18:18 12.06.2020
1638 Clear 25 1003 44 10000 2.1 310 17:44 12.06.2020
1639 Clear 25 1003 44 10000 2.1 310 17:26 12.06.2020
1640 Clear 26 1003 42 10000 1 0 16:58 12.06.2020
1641 Clear 26 1006 37 0 1.79 167 16:40 12.06.2020
1642 Clear 26 1002 51 0 0.45 34 16:19 12.06.2020
1643 Clear 26 1000 58 0 0.45 236 15:43 12.06.2020
1644 Clear 26 1000 56 0 2.04 298 15:19 12.06.2020
1645 Clear 26 1000 59 0 1.79 212 14:43 12.06.2020
1646 Clouds 25 1000 61 0 2.05 299 14:23 12.06.2020
1647 Clouds 24 1000 64 0 2.14 297 13:58 12.06.2020
1648 Clouds 24 1001 67 0 0.45 249 13:40 12.06.2020
1649 Clouds 24 1001 66 0 2 299 13:19 12.06.2020
1650 Clouds 23 1001 70 0 2.24 251 12:40 12.06.2020
1651 Clouds 22 1001 73 0 2.24 229 12:19 12.06.2020
1652 Clouds 21 1002 74 0 0.45 226 11:56 12.06.2020
1653 Clouds 21 1002 73 0 0.45 243 11:37 12.06.2020
1654 Clouds 20 1002 76 0 0.89 242 11:19 12.06.2020
1655 Clouds 19 1003 69 0 0.89 316 10:43 12.06.2020
1656 Clouds 19 1003 75 0 1.06 279 10:23 12.06.2020
1657 Clouds 17 1004 81 0 0.45 167 09:45 12.06.2020
1658 Clouds 16 1004 82 0 0.45 196 09:21 12.06.2020
1659 Clouds 15 1003 85 0 0.58 284 08:44 12.06.2020
1660 Clouds 15 1003 87 0 0.89 321 08:25 12.06.2020
1661 Clouds 14 1004 91 0 0.23 138 07:44 12.06.2020
1662 Clouds 14 1004 91 0 1.16 106 07:25 12.06.2020
1663 Clouds 12 1004 91 0 1.16 106 06:55 12.06.2020
1664 Clouds 11 1004 95 0 1.59 101 06:30 12.06.2020
1665 Clouds 12 1003 94 0 1.59 101 05:53 12.06.2020
1666 Clouds 12 1004 88 0 1.8 104 05:30 12.06.2020
1667 Clouds 12 1007 89 0 1.8 104 04:59 12.06.2020
1668 Clouds 11 1008 93 0 1.69 122 03:24 12.06.2020
1669 Clouds 12 1008 83 0 0.89 0 01:56 12.06.2020
1670 Clouds 12 1009 85 0 1.95 121 01:27 12.06.2020
1671 Clouds 12 1009 85 0 1.95 121 00:47 12.06.2020
1672 Clouds 14 1009 85 0 0.45 0 00:26 12.06.2020
1673 Clouds 14 1009 85 0 2.07 130 23:59 11.06.2020
1674 Clouds 14 1009 85 0 2.07 130 23:59 11.06.2020
1675 Clouds 13 1010 88 0 2.07 130 23:41 11.06.2020
1676 Clouds 15 1008 85 0 1.84 121 23:22 11.06.2020
1677 Clouds 13 1009 88 0 1.84 121 22:59 11.06.2020
1678 Clouds 13 1009 87 0 1.84 121 22:39 11.06.2020
1679 Clouds 15 1008 83 0 1.3 117 22:20 11.06.2020
1680 Clouds 15 1008 83 0 1.3 117 22:20 11.06.2020
1681 Clouds 15 1008 82 0 1.3 117 21:56 11.06.2020
1682 Clouds 17 1007 73 0 0.45 32 21:38 11.06.2020
1683 Rain 18 1005 70 0 0.45 338 21:20 11.06.2020
1684 Rain 18 1007 74 0 1.07 44 20:45 11.06.2020
1685 Rain 19 1005 64 0 2.24 338 20:22 11.06.2020
1686 Rain 19 1007 66 0 1.97 8 19:58 11.06.2020
1687 Rain 19 1007 66 0 1.97 8 19:40 11.06.2020
1688 Rain 20 1007 63 0 0.89 0 19:22 11.06.2020
1689 Rain 20 1007 63 0 0.89 0 18:42 11.06.2020
1690 Rain 20 1007 64 0 2.34 3 18:24 11.06.2020
1691 Rain 19 1007 64 0 0.45 0 17:57 11.06.2020
1692 Rain 19 1007 65 0 0.45 0 17:38 11.06.2020
1693 Rain 20 1008 65 0 2.07 7 17:20 11.06.2020
1694 Rain 19 1004 73 0 2.07 7 16:58 11.06.2020
1695 Rain 19 1005 72 0 2.07 7 16:40 11.06.2020
1696 Rain 19 1008 68 0 2.15 14 16:21 11.06.2020
1697 Rain 19 1008 72 0 2.15 14 15:55 11.06.2020
1698 Rain 19 1009 74 0 2.15 14 15:37 11.06.2020
1699 Rain 18 1008 71 0 0.45 0 15:18 11.06.2020
1700 Rain 18 1008 73 0 2.38 12 14:42 11.06.2020
1701 Rain 18 1005 77 0 2.52 351 14:21 11.06.2020
1702 Rain 18 1005 74 0 2.52 351 13:56 11.06.2020
1703 Rain 18 1006 71 0 2.52 351 13:37 11.06.2020
1704 Rain 18 1010 64 0 0.89 22 13:19 11.06.2020
1705 Rain 18 1006 74 0 1.95 346 12:55 11.06.2020
1706 Rain 17 1010 63 0 1.34 292 12:37 11.06.2020
1707 Clouds 16 1009 86 0 1.46 360 12:19 11.06.2020
1708 Clouds 16 1009 83 0 1.46 360 11:57 11.06.2020
1709 Clouds 15 1009 81 0 1.46 360 11:38 11.06.2020
1710 Rain 15 1009 80 0 0.45 127 11:19 11.06.2020
1711 Rain 15 1009 82 0 1.29 359 10:54 11.06.2020
1712 Clouds 15 1010 83 0 0.45 319 10:36 11.06.2020
1713 Clouds 15 1010 86 0 0.89 53 10:18 11.06.2020
1714 Clouds 14 1008 90 0 1.12 352 09:40 11.06.2020
1715 Clouds 14 1008 92 0 0.64 340 09:22 11.06.2020
1716 Clouds 14 1008 96 0 0.75 326 08:44 11.06.2020
1717 Clouds 13 1008 96 0 0.39 290 08:20 11.06.2020
1718 Clouds 12 1007 96 0 0.39 290 07:42 11.06.2020
1719 Clouds 12 1007 96 0 0.38 159 07:24 11.06.2020
1720 Rain 13 1008 96 0 0.38 159 06:52 11.06.2020
1721 Clouds 11 1010 97 0 0.68 150 06:28 11.06.2020
1722 Rain 12 1010 100 10000 1.5 260 05:36 11.06.2020
1723 Clouds 11 1010 96 0 0.74 195 03:50 11.06.2020
1724 Clouds 12 1011 96 0 0.49 194 03:23 11.06.2020
1725 Clouds 12 1011 95 0 0.8 191 02:32 11.06.2020
1726 Clouds 12 1011 94 0 0.56 155 01:50 11.06.2020
1727 Clouds 12 1011 93 0 0.83 122 01:24 11.06.2020
1728 Clouds 12 1012 89 0 0.83 122 00:50 11.06.2020
1729 Clouds 13 1012 89 0 0.89 115 00:27 11.06.2020
1730 Clouds 13 1012 88 0 0.89 115 23:47 10.06.2020
1731 Clouds 13 1012 93 0 0.62 99 23:27 10.06.2020
1732 Clouds 13 1012 92 0 0.62 99 22:57 10.06.2020
1733 Clouds 13 1012 89 0 0.62 99 22:38 10.06.2020
1734 Rain 14 1010 84 0 1.02 55 22:19 10.06.2020
1735 Rain 14 1010 82 0 1.02 55 21:58 10.06.2020
1736 Rain 14 1012 91 0 1.02 55 21:39 10.06.2020
1737 Rain 15 1010 78 0 0.45 331 21:18 10.06.2020
1738 Rain 15 1012 88 0 0.4 6 20:57 10.06.2020
1739 Rain 15 1012 87 0 0.4 6 20:39 10.06.2020
1740 Rain 16 1010 74 0 2.24 338 20:21 10.06.2020
1741 Rain 15 1012 85 0 0.73 16 19:41 10.06.2020
1742 Rain 16 1012 72 0 2.24 355 19:20 10.06.2020
1743 Rain 17 1012 72 0 2.24 355 18:59 10.06.2020
1744 Rain 17 1012 73 0 2.24 22 18:41 10.06.2020
1745 Rain 16 1012 85 0 2.11 7 18:20 10.06.2020
1746 Rain 17 1012 73 0 2.24 11 17:56 10.06.2020
1747 Rain 16 1013 71 0 2.68 22 17:37 10.06.2020
1748 Rain 16 1012 75 0 2.68 44 17:19 10.06.2020
1749 Rain 16 1012 74 0 2.68 328 16:57 10.06.2020
1750 Rain 17 1012 74 0 2.24 92 16:39 10.06.2020
1751 Rain 16 1009 90 0 2.18 354 16:20 10.06.2020
1752 Rain 15 1010 92 0 2.18 354 15:55 10.06.2020
1753 Rain 15 1010 92 0 2.18 354 15:36 10.06.2020
1754 Rain 15 1010 93 0 2.45 351 15:18 10.06.2020
1755 Rain 15 1010 93 0 2.45 351 15:18 10.06.2020
1756 Rain 15 1011 81 0 0.89 348 14:40 10.06.2020
1757 Rain 14 1010 93 0 2.8 347 14:21 10.06.2020
1758 Rain 14 1011 86 0 1.34 318 13:43 10.06.2020
1759 Rain 14 1011 86 0 1.34 36 13:22 10.06.2020
1760 Rain 14 1010 91 0 2.72 350 12:58 10.06.2020
1761 Rain 14 1010 92 0 2.72 350 12:39 10.06.2020
1762 Rain 15 1012 84 0 2.81 350 12:18 10.06.2020
1763 Rain 14 1011 94 0 2.81 350 11:44 10.06.2020
1764 Rain 14 1011 94 0 2.35 349 11:20 10.06.2020
1765 Rain 13 1011 95 0 2.35 349 10:58 10.06.2020
1766 Rain 13 1011 95 0 2.35 349 10:40 10.06.2020
1767 Rain 13 1011 95 0 2.35 349 10:40 10.06.2020
1768 Rain 13 1011 96 0 0.45 244 10:21 10.06.2020
1769 Rain 13 1011 96 0 0.89 223 09:44 10.06.2020
1770 Clouds 12 1013 96 0 1.89 349 09:26 10.06.2020
1771 Clouds 13 1012 94 0 0.45 357 08:59 10.06.2020
1772 Clouds 13 1012 94 0 1.42 352 08:41 10.06.2020
1773 Rain 12 1013 96 0 1.79 9 08:22 10.06.2020
1774 Rain 12 1012 95 0 1.79 9 07:42 10.06.2020
1775 Rain 12 1012 95 0 1.85 2 07:23 10.06.2020
1776 Rain 12 1012 95 0 1.85 2 06:52 10.06.2020
1777 Rain 12 1012 95 0 1.85 2 06:33 10.06.2020
1778 Clouds 12 1013 96 0 1.63 357 05:59 10.06.2020
1779 Clouds 12 1013 96 0 1.26 3 05:31 10.06.2020
1780 Clouds 12 1013 96 0 1.26 3 04:48 10.06.2020
1781 Clouds 12 1013 96 0 1.17 11 04:28 10.06.2020
1782 Clouds 12 1012 94 0 1.05 18 02:24 10.06.2020
1783 Clouds 12 1013 94 0 1.05 18 01:42 10.06.2020
1784 Clouds 12 1015 97 0 1.24 8 00:55 10.06.2020
1785 Clouds 12 1015 97 0 1.24 8 00:36 10.06.2020
1786 Clouds 12 1014 94 0 1.23 9 00:18 10.06.2020
1787 Clouds 12 1015 97 0 0.45 356 23:41 09.06.2020
1788 Clouds 12 1014 95 0 1.16 25 23:23 09.06.2020
1789 Clouds 12 1014 95 0 1.16 25 22:57 09.06.2020
1790 Clouds 12 1014 95 0 1.16 25 22:39 09.06.2020
1791 Clouds 13 1013 93 0 1.46 24 22:20 09.06.2020
1792 Rain 13 1013 92 0 1.46 24 21:57 09.06.2020
1793 Rain 13 1013 92 0 1.46 24 21:39 09.06.2020
1794 Rain 13 1013 91 0 2.07 9 21:21 09.06.2020
1795 Rain 13 1012 89 0 1.73 10 20:58 09.06.2020
1796 Rain 13 1012 89 0 1.73 10 20:39 09.06.2020
1797 Clouds 14 1012 87 0 2.07 9 20:21 09.06.2020
1798 Clouds 14 1012 86 0 2.07 9 19:59 09.06.2020
1799 Clouds 14 1012 86 0 0.45 306 19:39 09.06.2020
1800 Clouds 14 1012 85 0 2.05 20 19:20 09.06.2020
1801 Clouds 14 1013 81 0 1.79 22 18:59 09.06.2020
1802 Clouds 14 1014 85 0 2.24 32 18:41 09.06.2020
1803 Clouds 14 1012 85 0 0.45 344 18:23 09.06.2020
1804 Clouds 14 1012 86 0 2.05 35 17:56 09.06.2020
1805 Clouds 14 1012 87 0 2.05 35 17:38 09.06.2020
1806 Rain 14 1012 87 0 0.89 2 17:20 09.06.2020
1807 Rain 14 1012 87 0 0.89 309 16:43 09.06.2020
1808 Rain 14 1012 87 0 0.45 348 16:25 09.06.2020
1809 Rain 14 1012 88 0 0.89 7 15:59 09.06.2020
1810 Rain 14 1012 88 0 1.79 329 15:39 09.06.2020
1811 Rain 14 1012 89 0 0.89 338 15:21 09.06.2020
1812 Rain 14 1012 88 0 0.45 319 14:57 09.06.2020
1813 Rain 14 1012 87 0 1.34 352 14:37 09.06.2020
1814 Rain 13 1014 90 0 1.79 0 14:18 09.06.2020
1815 Rain 13 1014 87 0 1.34 0 13:43 09.06.2020
1816 Rain 14 1015 79 0 2.68 338 13:21 09.06.2020
1817 Rain 14 1015 77 0 3.13 38 12:59 09.06.2020
1818 Rain 14 1015 76 0 3.13 356 12:41 09.06.2020
1819 Rain 12 1014 86 0 0.89 297 12:19 09.06.2020
1820 Rain 12 1014 87 0 1.79 19 11:56 09.06.2020
1821 Rain 12 1014 87 0 1.79 19 11:56 09.06.2020
1822 Rain 12 1014 87 0 1.34 308 11:37 09.06.2020
1823 Rain 12 1013 93 0 1.56 6 11:19 09.06.2020
1824 Rain 12 1014 93 0 1.56 6 10:45 09.06.2020
1825 Rain 12 1014 93 0 1.46 9 10:27 09.06.2020
1826 Rain 12 1012 90 0 1.46 9 09:59 09.06.2020
1827 Rain 13 1012 90 0 1.46 9 09:39 09.06.2020
1828 Rain 13 1012 90 0 1.29 359 09:19 09.06.2020
1829 Rain 12 1012 91 0 1.64 2 08:40 09.06.2020
1830 Clouds 12 1012 91 0 1.63 357 08:21 09.06.2020
1831 Rain 12 1012 91 0 1.63 357 07:44 09.06.2020
1832 Rain 12 1011 91 0 1.34 360 07:23 09.06.2020
1833 Rain 12 1011 90 0 1.34 360 06:56 09.06.2020
1834 Clouds 11 1012 87 0 0.86 54 06:37 09.06.2020
1835 Clouds 11 1012 86 0 0.86 54 05:53 09.06.2020
1836 Clouds 11 1013 88 0 1.03 77 04:35 09.06.2020
1837 Clouds 11 1013 81 0 1.39 89 02:50 09.06.2020
1838 Clouds 12 1013 78 0 1.27 93 01:39 09.06.2020
1839 Clouds 10 1013 95 0 1.67 101 01:19 09.06.2020
1840 Clouds 10 1013 95 0 1.67 101 00:44 09.06.2020
1841 Clouds 13 1014 79 0 1.79 82 00:20 09.06.2020
1842 Clouds 13 1013 78 0 0.45 321 23:54 08.06.2020
1843 Clouds 13 1013 78 0 0.45 321 23:36 08.06.2020
1844 Clouds 13 1013 72 0 1.75 93 23:18 08.06.2020
1845 Clouds 11 1013 94 0 1.75 93 22:39 08.06.2020
1846 Clouds 12 1013 72 0 1.95 82 22:20 08.06.2020
1847 Clouds 12 1013 71 0 1.95 82 21:57 08.06.2020
1848 Clouds 14 1012 69 0 1.95 82 21:38 08.06.2020
1849 Rain 15 1012 66 0 2.27 45 21:20 08.06.2020
1850 Rain 14 1012 65 0 2.27 45 20:55 08.06.2020
1851 Rain 15 1012 63 0 2.27 45 20:37 08.06.2020
1852 Rain 17 1010 56 0 2.21 27 20:19 08.06.2020
1853 Rain 16 1011 65 0 1.34 352 19:44 08.06.2020
1854 Rain 16 1011 63 0 0.45 0 19:22 08.06.2020
1855 Rain 17 1012 60 0 2.24 37 18:58 08.06.2020
1856 Rain 17 1012 60 0 2.24 37 18:58 08.06.2020
1857 Rain 17 1009 61 0 2.85 17 18:39 08.06.2020
1858 Rain 17 1009 63 0 3.31 15 18:18 08.06.2020
1859 Rain 17 1009 63 0 3.31 15 17:54 08.06.2020
1860 Rain 17 1009 64 0 3.31 15 17:36 08.06.2020
1861 Rain 17 1010 68 0 3.11 12 17:18 08.06.2020
1862 Rain 17 1010 72 0 3.11 12 16:42 08.06.2020
1863 Rain 17 1010 72 0 3.15 8 16:23 08.06.2020
1864 Rain 17 1010 72 0 3.15 8 15:45 08.06.2020
1865 Rain 17 1010 71 0 2.97 3 15:23 08.06.2020
1866 Rain 15 1010 81 0 2.97 3 14:59 08.06.2020
1867 Rain 15 1011 83 0 2.97 3 14:41 08.06.2020
1868 Rain 15 1011 84 0 2.63 340 14:21 08.06.2020
1869 Rain 17 1011 74 0 1.34 348 13:44 08.06.2020
1870 Rain 17 1010 68 0 2.15 341 13:26 08.06.2020
1871 Rain 17 1010 62 0 1.34 339 12:58 08.06.2020
1872 Rain 16 1009 75 0 2.15 341 12:40 08.06.2020
1873 Rain 16 1009 74 0 1.56 354 12:19 08.06.2020
1874 Rain 15 1010 73 0 1.56 354 11:42 08.06.2020
1875 Rain 15 1009 74 0 1.67 356 11:24 08.06.2020
1876 Rain 15 1011 69 0 0.45 333 10:59 08.06.2020
1877 Rain 15 1009 79 0 1.79 242 10:40 08.06.2020
1878 Clouds 15 1011 75 0 1.63 337 10:21 08.06.2020
1879 Clouds 14 1011 77 0 1.63 337 09:59 08.06.2020
1880 Clouds 13 1011 81 0 1.63 337 09:41 08.06.2020
1881 Clouds 12 1012 86 0 1.03 317 09:23 08.06.2020
1882 Clouds 12 1011 89 0 1.03 317 08:49 08.06.2020
1883 Clouds 12 1011 89 0 1.03 317 08:49 08.06.2020
1884 Clouds 11 1011 89 0 0.57 293 08:23 08.06.2020
1885 Clouds 11 1011 90 0 0.57 293 07:48 08.06.2020
1886 Clouds 10 1011 91 0 0.33 109 07:28 08.06.2020
1887 Clouds 11 1011 90 0 0.33 109 06:58 08.06.2020
1888 Clouds 11 1011 90 0 0.33 109 06:36 08.06.2020
1889 Clouds 10 1012 87 0 0.87 146 05:54 08.06.2020
1890 Clouds 10 1013 89 0 0.5 139 04:36 08.06.2020
1891 Clouds 11 1010 85 0 0.4 162 03:22 08.06.2020
1892 Clear 10 1012 87 0 1.21 130 02:26 08.06.2020
1893 Clear 10 1012 86 0 1.21 130 01:42 08.06.2020
1894 Clear 10 1013 90 0 1.36 132 00:45 08.06.2020
1895 Clear 11 1012 82 0 1.49 135 00:23 08.06.2020
1896 Clear 10 1012 89 0 1.49 135 23:38 07.06.2020
1897 Clear 12 1012 81 0 0.45 315 23:18 07.06.2020
1898 Clear 11 1012 88 0 2.1 138 22:57 07.06.2020
1899 Clear 11 1012 88 0 2.1 138 22:37 07.06.2020
1900 Clear 12 1011 78 0 2.22 141 22:18 07.06.2020
1901 Clear 13 1011 77 0 2.22 141 21:57 07.06.2020
1902 Clouds 14 1011 78 0 1.91 136 21:36 07.06.2020
1903 Clouds 15 1009 68 0 1.36 166 21:18 07.06.2020
1904 Clouds 15 1011 79 0 1.36 166 20:39 07.06.2020
1905 Clouds 16 1009 62 0 0.96 224 20:21 07.06.2020
1906 Clouds 16 1009 60 0 0.96 224 19:57 07.06.2020
1907 Clouds 16 1009 60 0 0.96 224 19:39 07.06.2020
1908 Clouds 16 1009 56 0 0.45 190 19:20 07.06.2020
1909 Clouds 16 1010 61 0 1.07 254 18:59 07.06.2020
1910 Clouds 16 1011 61 0 0.89 112 18:38 07.06.2020
1911 Clouds 16 1011 67 0 1.34 112 18:20 07.06.2020
1912 Clouds 16 1008 69 0 1.59 279 17:57 07.06.2020
1913 Clouds 16 1008 70 0 1.59 279 17:38 07.06.2020
1914 Clouds 16 1008 57 0 1.9 278 17:20 07.06.2020
1915 Clouds 15 1008 74 0 0.45 72 16:43 07.06.2020
1916 Clouds 16 1008 66 0 1.54 277 16:22 07.06.2020
1917 Clouds 15 1008 71 0 1.54 277 15:44 07.06.2020
1918 Rain 16 1008 70 0 0.89 335 15:22 07.06.2020
1919 Rain 17 1008 55 0 0.45 202 14:41 07.06.2020
1920 Clouds 16 1010 61 0 2.04 269 14:23 07.06.2020
1921 Clouds 16 1010 61 0 2.04 269 14:23 07.06.2020
1922 Clouds 16 1010 61 0 2.04 269 14:23 07.06.2020
1923 Clouds 16 1010 63 0 2.33 292 14:23 07.06.2020
1924 Clouds 15 1007 80 0 2.33 292 13:56 07.06.2020
1925 Clouds 15 1008 67 0 2.33 292 13:37 07.06.2020
1926 Clouds 15 1008 67 0 2.33 292 13:37 07.06.2020
1927 Clouds 15 1008 67 0 2.33 292 13:37 07.06.2020
1928 Clouds 15 1007 80 0 1.57 265 13:19 07.06.2020
1929 Clouds 15 1008 70 0 0.45 190 12:43 07.06.2020
1930 Clouds 13 1010 85 0 1.46 200 12:24 07.06.2020
1931 Clouds 13 1009 78 0 1.46 200 11:55 07.06.2020
1932 Clouds 13 1009 78 0 1.46 200 11:55 07.06.2020
1933 Clouds 13 1009 80 0 1.46 200 11:37 07.06.2020
1934 Clouds 13 1009 82 0 1.12 225 11:19 07.06.2020
1935 Clouds 13 1009 82 0 1.12 225 11:19 07.06.2020
1936 Clouds 12 1009 84 0 1.12 225 10:54 07.06.2020
1937 Clouds 13 1009 86 0 1.12 225 10:36 07.06.2020
1938 Clouds 13 1007 82 0 1.69 266 10:18 07.06.2020
1939 Clouds 12 1007 89 0 1.69 266 09:41 07.06.2020
1940 Clouds 11 1008 91 0 0.92 238 09:22 07.06.2020
1941 Clouds 11 1008 92 0 0.92 238 08:59 07.06.2020
1942 Clouds 12 1006 92 0 0.92 238 08:41 07.06.2020
1943 Clouds 11 1006 92 0 1.47 131 08:22 07.06.2020
1944 Clouds 11 1006 92 0 1.47 131 07:41 07.06.2020
1945 Rain 11 1005 93 0 1.17 89 06:56 07.06.2020
1946 Rain 11 1006 93 0 1.24 342 06:22 07.06.2020
1947 Rain 11 1006 93 0 1.11 283 04:49 07.06.2020
1948 Rain 11 1006 93 0 1.66 268 04:18 07.06.2020
1949 Rain 12 1005 91 0 1.48 188 02:26 07.06.2020
1950 Rain 11 1005 90 0 1.34 194 01:40 07.06.2020
1951 Rain 12 1005 90 0 1.79 201 01:22 07.06.2020
1952 Rain 12 1005 91 0 2.41 203 00:40 07.06.2020
1953 Rain 12 1005 90 0 2.69 197 00:18 07.06.2020
1954 Rain 12 1005 89 0 2.69 197 23:55 06.06.2020
1955 Rain 12 1005 88 0 2.69 197 23:36 06.06.2020
1956 Rain 13 1005 87 0 0.89 175 23:18 06.06.2020
1957 Rain 12 1005 86 0 3.26 200 22:55 06.06.2020
1958 Rain 13 1004 86 0 3.26 200 22:36 06.06.2020
1959 Rain 13 1004 86 0 3.73 201 22:18 06.06.2020
1960 Rain 13 1004 88 0 3.73 201 21:42 06.06.2020
1961 Rain 13 1004 88 0 0.45 169 21:20 06.06.2020
1962 Rain 13 1004 90 0 3.36 192 20:41 06.06.2020
1963 Rain 12 1003 95 0 3.54 202 20:21 06.06.2020
1964 Rain 13 1003 95 0 3.54 202 19:59 06.06.2020
1965 Rain 13 1003 94 0 3.54 202 19:41 06.06.2020
1966 Rain 13 1003 94 0 3.86 220 19:23 06.06.2020
1967 Rain 13 1003 94 0 3.86 220 18:59 06.06.2020
1968 Rain 14 1004 86 0 3.86 220 18:41 06.06.2020
1969 Rain 14 1003 86 0 4.15 231 18:22 06.06.2020
1970 Rain 14 1004 86 0 0.45 184 17:44 06.06.2020
1971 Rain 14 1004 88 0 0.45 192 17:21 06.06.2020
1972 Rain 13 1004 90 0 1.34 130 16:58 06.06.2020
1973 Rain 13 1004 89 0 0.45 148 16:39 06.06.2020
1974 Rain 13 1004 89 0 1.34 152 16:21 06.06.2020
1975 Rain 14 1005 85 0 1.79 184 15:55 06.06.2020
1976 Rain 14 1004 85 0 2.24 175 15:36 06.06.2020
1977 Rain 14 1004 84 0 2.24 29 15:18 06.06.2020
1978 Rain 15 1004 80 0 0.45 215 14:39 06.06.2020
1979 Rain 15 1004 81 0 5.4 227 14:20 06.06.2020
1980 Rain 14 1006 81 0 1.34 203 13:55 06.06.2020
1981 Rain 15 1004 76 0 1.34 155 13:37 06.06.2020
1982 Rain 15 1006 77 0 3.13 128 13:18 06.06.2020
1983 Rain 14 1006 85 0 1.79 203 12:42 06.06.2020
1984 Rain 14 1006 86 0 2.68 203 12:23 06.06.2020
1985 Rain 13 1005 87 0 1.79 203 11:58 06.06.2020
1986 Rain 13 1003 89 0 1.79 189 11:38 06.06.2020
1987 Rain 14 1003 89 0 1.79 191 11:20 06.06.2020
1988 Rain 14 1003 90 0 2.24 211 10:57 06.06.2020
1989 Rain 14 1003 91 0 1.34 171 10:39 06.06.2020
1990 Rain 14 1003 90 0 2.24 198 10:20 06.06.2020
1991 Rain 13 1003 90 0 2.24 212 09:46 06.06.2020
1992 Rain 13 1003 88 0 1.34 219 09:27 06.06.2020
1993 Rain 14 1002 85 0 4.02 137 08:58 06.06.2020
1994 Rain 14 1002 83 0 3.13 207 08:40 06.06.2020
1995 Rain 14 1004 82 0 1.34 203 08:19 06.06.2020
1996 Rain 14 1004 82 0 2.68 203 07:45 06.06.2020
1997 Rain 14 1002 82 0 2.24 173 07:22 06.06.2020
1998 Rain 14 1002 84 0 1.79 226 06:47 06.06.2020
1999 Rain 14 1001 83 0 2.68 113 06:29 06.06.2020
2000 Rain 14 1001 87 0 4.47 142 05:54 06.06.2020
2001 Rain 13 1001 91 0 2.68 204 05:28 06.06.2020
2002 Rain 14 1002 87 0 3.13 215 04:44 06.06.2020
2003 Rain 13 1004 93 0 3.58 42 02:52 06.06.2020
2004 Rain 13 1001 90 0 4.58 216 01:57 06.06.2020
2005 Rain 14 1001 88 0 5.5 220 01:19 06.06.2020
2006 Rain 14 1002 84 0 0.45 179 00:46 06.06.2020
2007 Rain 14 1003 81 0 2.24 203 00:27 06.06.2020
2008 Rain 14 1002 81 0 2.24 180 23:58 05.06.2020
2009 Rain 14 1002 82 0 1.34 184 23:39 05.06.2020
2010 Rain 14 1002 82 0 1.34 184 23:39 05.06.2020
2011 Rain 13 1004 85 0 2.68 203 23:18 05.06.2020
2012 Rain 13 1004 84 0 2.68 203 22:55 05.06.2020
2013 Rain 13 1004 85 0 2.68 203 22:37 05.06.2020
2014 Rain 13 1004 86 0 2.68 203 22:18 05.06.2020
2015 Rain 13 1002 83 0 0.89 140 21:42 05.06.2020
2016 Rain 13 1001 83 0 3.13 175 21:22 05.06.2020
2017 Rain 13 1003 84 0 1.79 203 20:58 05.06.2020
2018 Rain 14 1001 75 0 1.34 196 20:39 05.06.2020
2019 Clouds 14 1001 74 0 3.58 186 20:21 05.06.2020
2020 Clouds 14 1001 71 0 1.34 200 19:43 05.06.2020
2021 Clouds 14 1001 71 0 5.36 194 19:23 05.06.2020
2022 Clouds 14 1000 71 0 4.02 204 18:57 05.06.2020
2023 Clouds 14 1001 70 0 4.02 197 18:39 05.06.2020
2024 Clouds 13 1002 74 0 2.24 203 18:20 05.06.2020
2025 Clouds 13 1002 76 0 1.34 203 17:58 05.06.2020
2026 Clouds 13 1002 77 0 2.68 203 17:39 05.06.2020
2027 Clouds 12 1002 87 0 2.24 134 17:19 05.06.2020
2028 Clouds 13 1002 88 0 1.79 136 16:39 05.06.2020
2029 Rain 14 1000 69 0 1.79 177 16:21 05.06.2020
2030 Rain 14 1000 69 0 4.02 196 15:57 05.06.2020
2031 Rain 14 1000 68 0 3.13 187 15:37 05.06.2020
2032 Clouds 13 1000 72 0 1.34 157 15:19 05.06.2020
2033 Clouds 14 1000 76 0 2.24 215 14:55 05.06.2020
2034 Clouds 13 1000 79 0 2.24 175 14:37 05.06.2020
2035 Clouds 12 1000 82 0 2.24 88 14:19 05.06.2020
2036 Rain 12 1000 80 0 2.24 230 13:42 05.06.2020
2037 Rain 12 1000 81 0 1.34 132 13:24 05.06.2020
2038 Clouds 12 1000 82 0 4.02 187 12:55 05.06.2020
2039 Clouds 12 1000 81 0 2.24 195 12:36 05.06.2020
2040 Rain 12 1000 83 0 1.34 201 12:18 05.06.2020
2041 Rain 12 1000 87 0 1.79 137 11:42 05.06.2020
2042 Rain 12 1000 89 0 3.13 183 11:22 05.06.2020
2043 Rain 12 1000 93 0 1.34 148 10:56 05.06.2020
2044 Rain 11 1000 93 0 1.79 163 10:38 05.06.2020
2045 Rain 12 999 93 0 2.68 198 10:19 05.06.2020
2046 Rain 12 999 94 0 2.24 186 09:55 05.06.2020
2047 Rain 11 999 94 0 2.24 218 09:37 05.06.2020
2048 Rain 12 999 94 0 0.45 209 09:18 05.06.2020
2049 Rain 11 999 94 0 0.89 130 08:56 05.06.2020
2050 Rain 12 999 94 0 0.89 220 08:38 05.06.2020
2051 Rain 11 999 94 0 4.25 226 08:18 05.06.2020
2052 Rain 11 999 93 0 4.25 226 07:43 05.06.2020
2053 Rain 11 999 93 0 3.15 193 07:23 05.06.2020
2054 Rain 11 997 96 0 3.15 193 06:36 05.06.2020
2055 Rain 11 998 93 0 1.59 177 05:22 05.06.2020
2056 Rain 11 998 93 0 1.37 171 04:27 05.06.2020
2057 Rain 11 998 93 0 1.37 171 03:29 05.06.2020
2058 Rain 11 998 93 0 0.39 130 02:26 05.06.2020
2059 Rain 12 998 93 0 0.39 130 01:57 05.06.2020
2060 Rain 12 998 92 0 0.64 51 01:30 05.06.2020
2061 Rain 12 998 92 0 0.64 51 00:43 05.06.2020
2062 Rain 12 999 91 0 1.22 345 00:21 05.06.2020
2063 Rain 12 997 90 0 1.22 345 23:47 04.06.2020
2064 Rain 13 997 89 0 0.89 289 23:29 04.06.2020
2065 Rain 12 998 90 0 0.45 225 22:57 04.06.2020
2066 Rain 12 998 90 0 0.45 225 22:57 04.06.2020
2067 Rain 12 998 91 0 0.45 225 22:38 04.06.2020
2068 Rain 13 996 88 0 2.48 216 22:20 04.06.2020
2069 Rain 12 996 87 0 2.48 216 21:58 04.06.2020
2070 Rain 13 995 87 0 2.48 216 21:38 04.06.2020
2071 Rain 13 995 87 0 3.63 209 21:20 04.06.2020
2072 Rain 14 995 87 0 2.8 208 20:56 04.06.2020
2073 Rain 14 995 86 0 2.8 208 20:38 04.06.2020
2074 Rain 14 995 84 0 3.98 211 20:19 04.06.2020
2075 Rain 15 998 80 0 0.45 225 19:43 04.06.2020
2076 Rain 16 997 73 0 4.62 222 19:21 04.06.2020
2077 Rain 16 997 70 0 4.62 222 18:58 04.06.2020
2078 Rain 16 997 68 0 0.45 225 18:38 04.06.2020
2079 Rain 16 997 68 0 0.45 225 18:38 04.06.2020
2080 Rain 17 995 62 0 4.35 218 18:20 04.06.2020
2081 Rain 18 995 61 0 4.35 218 18:20 04.06.2020
2082 Rain 18 994 56 0 4.35 218 17:44 04.06.2020
2083 Rain 18 994 55 0 0.45 234 17:23 04.06.2020
2084 Rain 18 997 55 0 2.24 203 16:59 04.06.2020
2085 Rain 19 994 60 0 2.24 186 16:40 04.06.2020
2086 Rain 19 994 60 0 4.02 180 16:20 04.06.2020
2087 Rain 19 994 65 0 1.79 193 15:45 04.06.2020
2088 Rain 17 997 70 0 0.89 180 15:27 04.06.2020
2089 Rain 17 997 73 0 0.45 203 14:55 04.06.2020
2090 Rain 17 997 73 0 1.34 203 14:37 04.06.2020
2091 Rain 17 996 74 0 3.58 231 14:18 04.06.2020
2092 Rain 17 997 77 0 3.13 252 13:41 04.06.2020
2093 Rain 17 997 77 0 3.13 252 13:21 04.06.2020
2094 Rain 17 997 79 0 2.68 210 12:59 04.06.2020
2095 Rain 17 999 78 0 3.13 225 12:41 04.06.2020
2096 Rain 16 998 82 0 1.34 203 12:23 04.06.2020
2097 Rain 15 998 84 0 0.89 203 11:56 04.06.2020
2098 Rain 15 998 83 0 1.34 203 11:38 04.06.2020
2099 Rain 15 998 83 0 1.79 203 11:20 04.06.2020
2100 Rain 14 998 84 0 0.89 203 10:56 04.06.2020
2101 Rain 15 998 86 0 0.89 203 10:37 04.06.2020
2102 Rain 15 996 87 0 2.94 186 10:18 04.06.2020
2103 Rain 14 996 89 0 0.89 241 09:42 04.06.2020
2104 Rain 14 996 90 0 0.45 152 09:23 04.06.2020
2105 Rain 15 996 89 0 1.79 194 08:46 04.06.2020
2106 Rain 15 995 88 0 2.24 165 08:26 04.06.2020
2107 Rain 15 995 88 0 2.6 181 07:48 04.06.2020
2108 Rain 15 995 90 0 0.45 160 07:28 04.06.2020
2109 Rain 15 996 90 0 2.56 175 06:44 04.06.2020
2110 Rain 15 996 90 0 2.56 175 06:44 04.06.2020
2111 Rain 14 996 90 0 2.26 177 06:25 04.06.2020
2112 Rain 14 996 90 0 2.26 177 05:39 04.06.2020
2113 Rain 15 996 90 0 1.85 170 05:20 04.06.2020
2114 Rain 15 998 80 0 2.65 180 03:28 04.06.2020
2115 Rain 16 998 75 0 2.84 169 01:57 04.06.2020
2116 Rain 16 1001 78 0 2.68 228 01:20 04.06.2020
2117 Rain 16 999 75 0 1.34 219 00:50 04.06.2020
2118 Rain 15 999 80 0 3.63 178 23:56 03.06.2020
2119 Rain 15 999 81 0 3.63 178 23:36 03.06.2020
2120 Rain 15 999 82 0 2.73 169 23:18 03.06.2020
2121 Rain 15 999 82 0 2.73 169 22:40 03.06.2020
2122 Rain 16 999 83 0 2.28 163 22:19 03.06.2020
2123 Rain 17 999 82 0 2.28 163 21:58 03.06.2020
2124 Rain 16 999 81 0 2.28 163 21:40 03.06.2020
2125 Rain 17 999 81 0 3.03 187 21:21 03.06.2020
2126 Rain 17 999 81 0 3.03 187 21:21 03.06.2020
2127 Rain 18 1000 77 0 3.03 187 20:58 03.06.2020
2128 Rain 17 1000 74 0 3.03 187 20:39 03.06.2020
2129 Rain 19 1000 71 0 2.31 192 20:20 03.06.2020
2130 Rain 20 1001 59 0 2.24 179 19:57 03.06.2020
2131 Rain 21 1000 52 0 2.31 192 19:38 03.06.2020
2132 Rain 22 999 53 0 2.2 192 19:19 03.06.2020
2133 Rain 23 999 46 0 1.34 272 18:56 03.06.2020
2134 Rain 23 1002 43 0 0.45 68 18:38 03.06.2020
2135 Rain 24 1002 49 0 2.69 198 18:18 03.06.2020
2136 Rain 24 999 45 0 2.69 198 17:42 03.06.2020
2137 Rain 23 1000 45 0 2.49 203 17:22 03.06.2020
2138 Rain 23 1003 41 10000 2.1 70 16:56 03.06.2020
2139 Rain 21 1005 48 0 1.79 140 16:38 03.06.2020
2140 Rain 21 1005 48 0 0.89 123 16:19 03.06.2020
2141 Rain 21 1005 49 0 1.34 114 16:19 03.06.2020
2142 Rain 23 1003 39 10000 2.6 60 15:41 03.06.2020
2143 Rain 24 1004 38 10000 1.5 70 15:21 03.06.2020
2144 Rain 25 1003 42 0 2.68 79 14:59 03.06.2020
2145 Rain 25 1003 43 0 2.68 72 14:40 03.06.2020
2146 Rain 24 1002 57 0 2.63 241 14:21 03.06.2020
2147 Rain 24 1003 47 0 2.63 241 13:40 03.06.2020
2148 Rain 22 1007 46 0 1.34 121 13:20 03.06.2020
2149 Rain 23 1005 49 0 0.45 102 12:54 03.06.2020
2150 Rain 23 1005 49 0 0.45 102 12:36 03.06.2020
2151 Rain 22 1006 41 10000 2.1 230 12:18 03.06.2020
2152 Rain 21 1005 53 0 0.89 100 11:41 03.06.2020
2153 Rain 21 1006 54 0 0.89 92 11:23 03.06.2020
2154 Rain 20 1006 55 0 0.45 89 10:43 03.06.2020
2155 Rain 19 1006 55 0 0.45 106 10:24 03.06.2020
2156 Rain 18 1006 58 0 0.89 120 09:55 03.06.2020
2157 Rain 20 1006 58 0 0.89 120 09:36 03.06.2020
2158 Rain 16 1008 52 10000 2.1 180 09:18 03.06.2020
2159 Rain 17 1008 60 0 1.4 244 08:45 03.06.2020
2160 Clouds 13 1007 65 0 0.45 272 08:21 03.06.2020
2161 Clouds 15 1006 63 0 1.02 174 07:45 03.06.2020
2162 Rain 14 1006 65 0 1.5 155 07:24 03.06.2020
2163 Rain 13 1008 75 0 0.45 94 06:55 03.06.2020
2164 Rain 13 1006 85 0 1.42 149 06:34 03.06.2020
2165 Rain 13 1006 85 0 1.42 149 05:49 03.06.2020
2166 Clouds 13 1008 75 0 1.33 149 05:23 03.06.2020
2167 Clouds 14 1007 60 0 1.23 144 04:18 03.06.2020
2168 Clouds 14 1008 61 0 1.23 144 03:40 03.06.2020
2169 Clouds 15 1009 58 0 1.81 145 02:25 03.06.2020
2170 Clouds 14 1013 75 0 1.81 145 01:34 03.06.2020
2171 Clouds 14 1009 54 0 0.45 134 00:38 03.06.2020
2172 Clear 15 1014 73 0 2.5 139 00:19 03.06.2020
2173 Clear 15 1014 71 0 2.5 139 23:43 02.06.2020
2174 Clear 15 1014 71 0 2.59 132 23:24 02.06.2020
2175 Clear 16 1012 46 10000 3.6 270 22:40 02.06.2020
2176 Clear 16 1012 46 10000 3.6 270 22:40 02.06.2020
2177 Rain 17 1014 67 0 2.33 125 22:19 02.06.2020
2178 Rain 21 1011 43 10000 3.1 280 21:57 02.06.2020
2179 Rain 24 1011 38 10000 1 360 21:39 02.06.2020
2180 Clear 21 1012 50 0 1.41 116 21:21 02.06.2020
2181 Clear 20 1009 47 0 0.45 89 21:21 02.06.2020
2182 Clear 21 1012 50 0 1.41 116 21:21 02.06.2020
2183 Clear 20 1009 44 0 1.93 113 20:59 02.06.2020
2184 Clear 21 1009 44 0 1.93 113 20:41 02.06.2020
2185 Rain 22 1010 41 0 0.98 61 20:22 02.06.2020
2186 Rain 25 1012 28 10000 1 0 19:46 02.06.2020
2187 Rain 27 1012 28 10000 2.1 30 19:26 02.06.2020
2188 Rain 27 1012 28 10000 2.1 30 18:59 02.06.2020
2189 Rain 28 1013 26 10000 1.5 0 18:41 02.06.2020
2190 Rain 26 1013 30 10000 2.1 70 18:21 02.06.2020
2191 Rain 25 1013 30 10000 2.1 70 17:59 02.06.2020
2192 Rain 24 1013 30 10000 1.5 0 17:41 02.06.2020
2193 Rain 25 1014 28 10000 2.6 40 17:21 02.06.2020
2194 Rain 25 1014 28 10000 2.6 40 16:56 02.06.2020
2195 Rain 24 1014 30 10000 1.5 0 16:38 02.06.2020
2196 Rain 24 1014 30 10000 1.5 0 16:20 02.06.2020
2197 Rain 24 1012 41 0 0.45 155 15:44 02.06.2020
2198 Rain 24 1013 42 0 0.89 284 15:24 02.06.2020
2199 Rain 23 1013 43 0 0.89 257 14:50 02.06.2020
2200 Rain 24 1013 43 0 0.89 257 14:31 02.06.2020
2201 Rain 24 1013 47 0 0.89 275 13:58 02.06.2020
2202 Rain 24 1013 47 0 0.89 275 13:39 02.06.2020
2203 Clouds 24 1013 49 0 0.89 283 13:19 02.06.2020
2204 Clouds 24 1013 50 0 1.34 288 12:58 02.06.2020
2205 Clouds 22 1017 41 0 2.35 344 12:40 02.06.2020
2206 Clouds 22 1014 52 0 0.89 281 12:20 02.06.2020
2207 Clouds 21 1014 54 0 0.89 177 11:56 02.06.2020
2208 Clouds 21 1017 49 0 1.89 344 11:38 02.06.2020
2209 Clouds 21 1017 49 0 1.89 344 11:38 02.06.2020
2210 Clouds 21 1017 49 0 1.57 336 11:20 02.06.2020
2211 Clouds 21 1017 50 0 1.57 336 11:20 02.06.2020
2212 Clouds 20 1017 52 0 1.57 336 10:47 02.06.2020
2213 Clouds 21 1015 47 0 1.35 330 10:28 02.06.2020
2214 Clouds 21 1015 47 0 1.35 330 10:28 02.06.2020
2215 Clouds 19 1015 50 0 1.35 330 09:58 02.06.2020
2216 Clouds 18 1015 51 0 1.35 330 09:38 02.06.2020
2217 Clouds 14 1018 55 10000 2.6 40 09:20 02.06.2020
2218 Clouds 15 1018 67 0 1.02 336 08:48 02.06.2020
2219 Clouds 15 1015 62 0 0.19 317 08:21 02.06.2020
2220 Clouds 14 1015 66 0 0.19 317 07:52 02.06.2020
2221 Clouds 13 1015 66 0 0.82 117 07:26 02.06.2020
2222 Clouds 13 1015 63 0 0.82 117 06:45 02.06.2020
2223 Clear 12 1013 60 0 0.45 134 06:18 02.06.2020
2224 Clear 12 1013 59 0 0.45 134 05:21 02.06.2020
2225 Clear 12 1014 56 0 1.74 130 03:25 02.06.2020
2226 Clear 13 1014 54 0 0.45 111 02:30 02.06.2020
2227 Clear 12 1019 67 0 2.14 113 01:25 02.06.2020
2228 Clear 14 1019 64 0 2.52 116 00:26 02.06.2020
2229 Clear 14 1017 52 10000 3.1 350 23:58 01.06.2020
2230 Clear 15 1017 45 10000 4.1 360 23:37 01.06.2020
2231 Clear 16 1017 45 10000 4.1 360 23:18 01.06.2020
2232 Clear 16 1017 45 10000 4.1 360 22:54 01.06.2020
2233 Clear 17 1017 43 10000 3.6 10 22:36 01.06.2020
2234 Clear 17 1016 40 10000 4.1 360 22:18 01.06.2020
2235 Clear 23 1016 38 10000 4.6 360 21:41 01.06.2020
2236 Clear 20 1014 37 0 0.45 111 21:20 01.06.2020
2237 Clear 20 1018 48 0 3.12 78 20:58 01.06.2020
2238 Clear 23 1016 31 10000 5.1 10 20:40 01.06.2020
2239 Clear 23 1016 30 10000 5.1 10 20:19 01.06.2020
2240 Clear 23 1016 30 10000 5.1 10 19:57 01.06.2020
2241 Clear 27 1016 30 10000 5.1 10 19:39 01.06.2020
2242 Clear 27 1016 32 10000 4.1 20 19:19 01.06.2020
2243 Clear 24 1016 30 10000 5.1 360 18:56 01.06.2020
2244 Clear 24 1016 30 10000 5.1 360 18:56 01.06.2020
2245 Clear 27 1016 30 10000 5.1 360 18:38 01.06.2020
2246 Clear 23 1014 43 0 0.89 277 18:18 01.06.2020
2247 Clear 22 1014 43 0 0.89 277 17:41 01.06.2020
2248 Clear 22 1015 44 0 1.34 87 17:20 01.06.2020
2249 Clear 22 1014 45 0 1.34 292 16:56 01.06.2020
2250 Clear 22 1014 45 0 1.34 292 16:37 01.06.2020
2251 Clear 23 1015 47 0 1.34 300 16:18 01.06.2020
2252 Clear 23 1015 49 0 1.34 330 15:44 01.06.2020
2253 Clear 23 1015 50 0 0.89 269 15:21 01.06.2020
2254 Clear 23 1015 50 0 0.89 269 14:59 01.06.2020
2255 Clear 22 1015 50 0 0.89 294 14:41 01.06.2020
2256 Clear 23 1018 38 0 0.45 180 14:21 01.06.2020
2257 Clear 22 1017 40 0 0.89 108 13:58 01.06.2020
2258 Clear 22 1018 42 0 2.1 81 13:39 01.06.2020
2259 Clear 22 1018 43 0 1.34 336 13:20 01.06.2020
2260 Clear 21 1019 48 0 0.98 98 12:57 01.06.2020
2261 Clear 20 1019 49 0 0.98 98 12:39 01.06.2020
2262 Clear 19 1016 57 0 0.89 280 12:20 01.06.2020
2263 Clear 19 1019 49 0 0.45 45 11:41 01.06.2020
2264 Clear 18 1019 52 0 0.77 25 11:23 01.06.2020
2265 Clear 18 1019 51 0 0.77 25 10:59 01.06.2020
2266 Clear 19 1017 47 0 0.77 25 10:39 01.06.2020
2267 Clear 18 1017 50 0 1.03 17 10:20 01.06.2020
2268 Clear 17 1017 51 0 1.03 17 09:57 01.06.2020
2269 Clear 17 1017 52 0 1.03 17 09:39 01.06.2020
2270 Clear 13 1015 59 0 0.89 219 09:20 01.06.2020
2271 Clear 13 1018 63 0 1.31 17 08:50 01.06.2020
2272 Clear 13 1016 63 0 1.21 53 08:25 01.06.2020
2273 Clear 12 1016 64 0 1.21 53 07:45 01.06.2020
2274 Clear 12 1016 62 0 1.6 84 07:27 01.06.2020
2275 Clear 12 1015 60 0 1.6 84 06:58 01.06.2020
2276 Clear 12 1015 58 0 0.89 59 06:33 01.06.2020
2277 Clear 10 1018 71 0 0.45 239 05:53 01.06.2020
2278 Clear 10 1018 67 0 1.79 116 04:31 01.06.2020
2279 Clear 11 1018 64 0 0.89 259 03:48 01.06.2020
2280 Clear 12 1018 64 0 0.89 259 03:24 01.06.2020
2281 Clear 11 1019 67 0 0.45 323 02:29 01.06.2020
2282 Clouds 10 1018 63 0 2.4 103 01:34 01.06.2020
2283 Clouds 11 1018 58 10000 2.36 105 00:58 01.06.2020
2284 Clouds 12 1018 44 10000 2.1 80 00:40 01.06.2020
2285 Clouds 12 1018 71 0 2.54 105 00:21 01.06.2020
2286 Clouds 12 1018 71 0 2.54 105 00:21 01.06.2020
2287 Clouds 11 1019 62 0 2.54 105 23:57 31.05.2020
2288 Clouds 12 1019 63 0 2.54 105 23:38 31.05.2020
2289 Clouds 11 1019 65 0 2.89 105 23:20 31.05.2020
2290 Clouds 11 1019 62 0 2.89 105 22:54 31.05.2020
2291 Clouds 13 1019 63 0 2.89 105 22:36 31.05.2020
2292 Clear 12 1019 59 0 3.38 100 22:18 31.05.2020
2293 Clear 20 1017 34 10000 3.1 120 21:42 31.05.2020
2294 Clouds 15 1019 53 0 1.79 208 21:23 31.05.2020
2295 Clouds 16 1019 50 0 0.89 214 20:58 31.05.2020
2296 Clouds 16 1019 48 0 0.45 188 20:40 31.05.2020
2297 Clouds 17 1019 47 0 0.45 134 20:21 31.05.2020
2298 Clouds 21 1017 38 0 0.45 100 19:56 31.05.2020
2299 Clouds 22 1016 33 10000 3.6 110 19:37 31.05.2020
2300 Clouds 21 1014 14 0 5.81 32 19:19 31.05.2020
2301 Clouds 22 1016 39 0 0.45 145 18:44 31.05.2020
2302 Clouds 21 1016 35 0 3.58 59 18:25 31.05.2020
2303 Clouds 20 1018 43 0 0.45 221 17:54 31.05.2020
2304 Clouds 18 1018 42 0 0.89 219 17:36 31.05.2020
2305 Clouds 19 1018 43 0 0.89 220 17:18 31.05.2020
2306 Clouds 20 1018 41 0 0.89 76 16:40 31.05.2020
2307 Clouds 20 1018 40 0 0.45 247 16:21 31.05.2020
2308 Clouds 20 1017 39 0 4.92 316 15:40 31.05.2020
2309 Clouds 19 1017 40 0 4.92 340 15:22 31.05.2020
2310 Clouds 20 1017 44 0 0.45 23 14:58 31.05.2020
2311 Clouds 21 1017 39 0 4.92 342 14:40 31.05.2020
2312 Clouds 21 1017 41 0 4.02 346 14:19 31.05.2020
2313 Clouds 20 1017 41 0 4.92 19 13:54 31.05.2020
2314 Clouds 20 1017 40 0 4.02 330 13:36 31.05.2020
2315 Clouds 19 1018 45 0 0.89 235 13:18 31.05.2020
2316 Clouds 19 1018 42 0 2.24 23 12:41 31.05.2020
2317 Clouds 18 1018 46 0 0.89 150 12:23 31.05.2020
2318 Clouds 17 1018 45 0 1.34 144 11:54 31.05.2020
2319 Clouds 17 1018 47 0 1.34 196 11:36 31.05.2020
2320 Clouds 17 1018 49 0 3.58 8 11:18 31.05.2020
2321 Clouds 16 1018 53 0 2.24 312 10:42 31.05.2020
2322 Clear 16 1018 58 0 0.89 23 10:23 31.05.2020
2323 Clear 15 1016 55 0 0.89 335 09:58 31.05.2020
2324 Clear 15 1016 56 0 2.18 10 09:40 31.05.2020
2325 Clear 13 1019 47 10000 5.1 20 09:20 31.05.2020
2326 Clear 11 1016 65 0 1.79 13 08:42 31.05.2020
2327 Clear 12 1016 67 0 0.45 58 08:24 31.05.2020
2328 Clear 10 1016 70 0 1.06 38 07:49 31.05.2020
2329 Clouds 10 1016 71 0 1.08 104 07:22 31.05.2020
2330 Clouds 9 1016 72 0 1.08 104 06:57 31.05.2020
2331 Clouds 9 1016 72 0 1.08 104 06:35 31.05.2020
2332 Clouds 8 1016 72 0 1.39 100 05:51 31.05.2020
2333 Clouds 8 1014 62 0 0.45 143 05:32 31.05.2020
2334 Clear 9 1014 61 0 0.45 117 04:18 31.05.2020
2335 Clear 9 1014 61 0 1.77 108 03:44 31.05.2020
2336 Clear 9 1015 60 0 1.89 110 02:49 31.05.2020
2337 Clouds 9 1019 70 0 2.09 102 01:46 31.05.2020
2338 Clouds 11 1015 56 0 2.28 95 00:46 31.05.2020
2339 Clouds 11 1014 55 0 0.45 131 00:28 31.05.2020
2340 Clouds 11 1019 71 0 2.3 89 23:42 30.05.2020
2341 Clouds 12 1019 53 0 2.51 92 23:24 30.05.2020
2342 Clouds 11 1019 68 0 2.51 92 22:57 30.05.2020
2343 Clouds 11 1019 67 0 2.51 92 22:39 30.05.2020
2344 Clouds 11 1019 65 0 2.64 87 22:21 30.05.2020
2345 Clouds 12 1019 65 0 2.64 87 21:55 30.05.2020
2346 Clouds 15 1018 34 10000 4.6 20 21:36 30.05.2020
2347 Clear 15 1018 49 0 2.63 74 21:18 30.05.2020
2348 Clear 15 1018 48 0 2.8 58 20:54 30.05.2020
2349 Clear 14 1015 38 0 0.89 278 20:36 30.05.2020
2350 Clouds 16 1017 47 0 0.45 0 20:18 30.05.2020
2351 Clouds 17 1018 44 0 0.45 0 19:41 30.05.2020
2352 Clouds 18 1018 44 0 0.89 23 19:21 30.05.2020
2353 Clouds 17 1017 39 0 3.58 69 18:44 30.05.2020
2354 Clouds 18 1018 43 0 0.45 23 18:21 30.05.2020
2355 Clouds 19 1018 40 0 1.79 23 17:46 30.05.2020
2356 Clouds 19 1018 44 0 1.79 0 17:26 30.05.2020
2357 Clouds 19 1018 43 0 1.79 0 16:59 30.05.2020
2358 Clouds 19 1018 43 0 0.45 23 16:59 30.05.2020
2359 Clouds 19 1018 36 0 3.13 72 16:41 30.05.2020
2360 Clouds 19 1015 39 0 0.89 288 16:21 30.05.2020
2361 Clouds 20 1016 33 0 0.45 311 15:48 30.05.2020
2362 Clouds 19 1015 43 0 0.89 136 15:28 30.05.2020
2363 Clouds 20 1018 42 0 0.89 23 14:48 30.05.2020
2364 Clouds 19 1018 38 0 0.89 23 14:30 30.05.2020
2365 Clouds 19 1019 38 0 1.79 23 13:58 30.05.2020
2366 Clouds 19 1019 36 0 0.89 0 13:40 30.05.2020
2367 Clouds 18 1019 37 0 1.34 23 13:18 30.05.2020
2368 Clouds 19 1016 41 0 0.89 126 12:39 30.05.2020
2369 Clear 17 1016 53 0 0.89 308 12:20 30.05.2020
2370 Clear 17 1019 45 0 1.34 23 11:42 30.05.2020
2371 Clear 17 1019 45 0 4.47 22 11:23 30.05.2020
2372 Clear 16 1016 59 0 1.34 208 10:58 30.05.2020
2373 Clear 16 1020 52 0 3.51 46 10:38 30.05.2020
2374 Clouds 15 1020 58 0 0.45 23 10:20 30.05.2020
2375 Clouds 15 1018 60 0 2.68 338 09:45 30.05.2020
2376 Clear 13 1017 62 0 1.34 251 09:27 30.05.2020
2377 Clear 13 1016 62 0 1.34 278 08:46 30.05.2020
2378 Clouds 12 1020 67 0 1.34 62 08:27 30.05.2020
2379 Clouds 11 1018 74 0 1.6 51 07:44 30.05.2020
2380 Clear 10 1018 74 0 1.59 83 07:20 30.05.2020
2381 Clear 11 1018 70 0 0.45 340 06:33 30.05.2020
2382 Clear 9 1015 65 0 0.45 132 05:52 30.05.2020
2383 Clear 8 1015 65 0 0.45 132 05:30 30.05.2020
2384 Clear 8 1015 62 0 1.91 90 03:39 30.05.2020
2385 Clear 11 1016 57 0 2.01 84 02:30 30.05.2020
2386 Clear 11 1017 54 0 0.45 61 01:45 30.05.2020
2387 Clear 11 1021 67 0 0.45 32 00:38 30.05.2020
2388 Clear 12 1021 67 0 0.89 140 00:18 30.05.2020
2389 Clear 12 1021 66 0 2.32 84 23:55 29.05.2020
2390 Clear 12 1021 64 0 2.32 84 23:36 29.05.2020
2391 Clear 12 1021 62 0 0.45 124 23:18 29.05.2020
2392 Clear 12 1021 62 0 2.35 86 22:40 29.05.2020
2393 Clear 13 1017 47 0 1.34 342 22:19 29.05.2020
2394 Clear 12 1017 45 0 0.89 285 21:58 29.05.2020
2395 Clear 13 1017 45 0 0.89 285 21:37 29.05.2020
2396 Clear 16 1020 47 0 3 51 21:18 29.05.2020
2397 Clear 16 1017 39 0 1.79 305 20:45 29.05.2020
2398 Clear 18 1020 45 0 0.89 23 20:20 29.05.2020
2399 Clear 18 1020 45 0 1.34 0 19:59 29.05.2020
2400 Clear 18 1020 44 0 1.34 0 19:40 29.05.2020
2401 Clouds 19 1018 35 0 0.89 7 19:22 29.05.2020
2402 Clouds 19 1020 42 0 1.79 23 18:47 29.05.2020
2403 Clear 19 1020 44 0 1.79 23 18:20 29.05.2020
2404 Clear 19 1020 43 0 1.79 23 17:57 29.05.2020
2405 Clear 19 1020 42 0 2.24 0 17:38 29.05.2020
2406 Clear 19 1018 43 0 6.03 48 17:19 29.05.2020
2407 Clear 19 1018 38 0 1.34 52 16:45 29.05.2020
2408 Clear 19 1021 41 0 2.24 23 16:27 29.05.2020
2409 Clear 19 1021 41 0 1.79 23 15:57 29.05.2020
2410 Clear 19 1021 42 0 1.34 45 15:38 29.05.2020
2411 Clear 19 1021 39 0 0.89 45 15:20 29.05.2020
2412 Clear 19 1018 46 0 2.24 288 14:51 29.05.2020
2413 Clear 18 1019 47 0 1.34 284 14:24 29.05.2020
2414 Clear 18 1019 48 0 1.34 0 13:58 29.05.2020
2415 Clear 19 1019 48 0 1.34 0 13:40 29.05.2020
2416 Clear 17 1019 49 0 1.34 311 13:21 29.05.2020
2417 Clear 18 1023 43 0 1.34 45 12:44 29.05.2020
2418 Clear 17 1019 52 0 1.34 175 12:25 29.05.2020
2419 Clear 17 1023 39 0 4.02 5 11:58 29.05.2020
2420 Clear 16 1023 45 0 0.45 203 11:40 29.05.2020
2421 Clear 16 1024 41 0 3.58 295 11:22 29.05.2020
2422 Clear 16 1024 46 0 0.45 90 10:42 29.05.2020
2423 Clear 15 1020 54 0 1.34 306 10:21 29.05.2020
2424 Clear 15 1024 49 0 0.89 90 09:56 29.05.2020
2425 Clear 15 1024 52 0 0.45 315 09:37 29.05.2020
2426 Clear 11 1021 56 0 1.34 281 09:18 29.05.2020
2427 Clear 11 1021 57 0 0.89 303 08:44 29.05.2020
2428 Clear 10 1021 58 0 0.89 123 08:22 29.05.2020
2429 Clear 9 1021 58 0 0.45 288 07:46 29.05.2020
2430 Clear 10 1021 60 0 0.45 314 07:28 29.05.2020
2431 Clear 9 1024 61 0 1.95 81 06:55 29.05.2020
2432 Clear 10 1022 58 0 1.95 81 06:37 29.05.2020
2433 Clear 7 1021 59 0 2.24 104 06:18 29.05.2020
2434 Clear 8 1021 59 0 0.45 173 05:24 29.05.2020
2435 Clouds 10 1025 63 0 0.45 225 01:48 29.05.2020
2436 Clouds 12 1025 71 0 2.85 93 01:26 29.05.2020
2437 Clouds 11 1026 64 0 0.45 96 00:50 29.05.2020
2438 Clear 11 1026 64 0 2.85 95 00:23 29.05.2020
2439 Clear 13 1026 42 10000 5.1 360 23:41 28.05.2020
2440 Clear 14 1026 42 10000 5.1 360 23:20 28.05.2020
2441 Clear 14 1026 42 10000 4.6 10 22:59 28.05.2020
2442 Clear 18 1026 39 10000 4.1 10 22:40 28.05.2020
2443 Clear 18 1026 39 10000 4.1 10 22:40 28.05.2020
2444 Clear 16 1026 62 0 3.48 92 22:20 28.05.2020
2445 Clear 18 1025 39 10000 4.1 360 21:55 28.05.2020
2446 Clear 19 1025 47 0 1.79 79 21:37 28.05.2020
2447 Clear 18 1025 47 0 2.24 55 21:18 28.05.2020
2448 Clear 18 1026 61 0 3.12 71 20:55 28.05.2020
2449 Clear 19 1024 33 0 3.13 360 20:36 28.05.2020
2450 Clear 19 1024 51 0 0.89 45 20:18 28.05.2020
2451 Clear 20 1024 40 0 4.47 6 19:43 28.05.2020
2452 Clear 20 1024 40 0 4.47 6 19:20 28.05.2020
2453 Clear 22 1024 40 0 4.47 6 18:57 28.05.2020
2454 Clear 23 1025 28 10000 7.7 20 18:39 28.05.2020
2455 Clear 23 1025 28 10000 7.7 20 18:39 28.05.2020
2456 Rain 21 1025 35 0 3.58 22 18:20 28.05.2020
2457 Rain 21 1025 36 0 3.13 360 17:40 28.05.2020
2458 Rain 19 1025 36 0 3.58 22 17:22 28.05.2020
2459 Rain 19 1026 67 0 1.79 285 16:56 28.05.2020
2460 Rain 18 1026 54 0 1.79 45 16:36 28.05.2020
2461 Rain 18 1026 57 0 2.68 45 16:18 28.05.2020
2462 Rain 21 1026 43 10000 6.2 30 15:41 28.05.2020
2463 Rain 20 1027 53 0 2.68 321 15:23 28.05.2020
2464 Rain 20 1027 54 0 0.89 300 14:43 28.05.2020
2465 Rain 21 1026 47 0 3.58 322 14:25 28.05.2020
2466 Rain 21 1027 47 0 4.02 313 13:58 28.05.2020
2467 Rain 21 1027 48 0 4.47 359 13:39 28.05.2020
2468 Rain 21 1027 48 0 4.47 13 13:20 28.05.2020
2469 Rain 20 1023 50 0 0.45 284 12:42 28.05.2020
2470 Rain 19 1023 52 0 0.89 211 12:19 28.05.2020
2471 Rain 18 1024 55 0 3.82 353 11:42 28.05.2020
2472 Clouds 18 1024 56 0 0.45 218 11:24 28.05.2020
2473 Clouds 18 1028 58 0 3.57 349 10:57 28.05.2020
2474 Clouds 18 1026 54 0 0.45 307 10:39 28.05.2020
2475 Clouds 17 1028 59 0 0.45 45 10:18 28.05.2020
2476 Clouds 17 1026 60 0 2.72 339 09:39 28.05.2020
2477 Clouds 15 1028 67 0 0.89 45 09:20 28.05.2020
2478 Clouds 15 1026 62 0 1.92 332 08:49 28.05.2020
2479 Clouds 14 1026 64 0 0.98 324 08:26 28.05.2020
2480 Clouds 13 1026 68 0 0.98 324 07:45 28.05.2020
2481 Clouds 12 1026 69 0 0.3 142 07:26 28.05.2020
2482 Clouds 11 1026 72 0 0.3 142 06:59 28.05.2020
2483 Clouds 10 1025 65 0 0.3 142 06:37 28.05.2020
2484 Clouds 10 1024 64 0 0.45 134 06:19 28.05.2020
2485 Clouds 10 1024 63 0 0.98 145 05:36 28.05.2020
2486 Clouds 11 1024 61 0 1.03 150 04:32 28.05.2020
2487 Clouds 11 1028 60 0 0.89 67 03:46 28.05.2020
2488 Clouds 12 1028 58 0 1.36 135 02:45 28.05.2020
2489 Clouds 12 1025 53 0 1.47 129 01:54 28.05.2020
2490 Clouds 11 1030 73 0 1.85 129 00:56 28.05.2020
2491 Clouds 11 1029 54 10000 4.6 270 00:38 28.05.2020
2492 Clear 13 1029 66 0 2.1 124 00:18 28.05.2020
2493 Clear 14 1030 64 0 0.89 140 23:40 27.05.2020
2494 Clear 12 1031 72 0 2.1 114 23:21 27.05.2020
2495 Clear 14 1030 64 0 0.89 140 23:21 27.05.2020
2496 Clear 13 1030 55 10000 1.5 310 22:59 27.05.2020
2497 Clear 13 1030 51 10000 2.1 330 22:40 27.05.2020
2498 Clear 14 1025 49 0 1.89 96 22:22 27.05.2020
2499 Clear 14 1025 49 0 1.89 96 22:22 27.05.2020
2500 Clear 15 1029 48 10000 2.6 340 21:55 27.05.2020
2501 Clouds 16 1029 42 10000 3.6 360 21:37 27.05.2020
2502 Clouds 17 1024 46 0 2.16 55 21:18 27.05.2020
2503 Clouds 18 1024 41 0 2.16 55 20:54 27.05.2020
2504 Clouds 18 1024 41 0 2.16 55 20:36 27.05.2020
2505 Clouds 20 1029 45 0 0.45 45 20:18 27.05.2020
2506 Clouds 20 1029 31 10000 4.1 10 19:41 27.05.2020
2507 Clouds 21 1029 41 0 3.95 15 19:20 27.05.2020
2508 Clouds 22 1029 31 10000 4.6 350 18:43 27.05.2020
2509 Clouds 22 1029 41 0 0.45 23 18:20 27.05.2020
2510 Clouds 21 1025 38 0 0.89 265 17:58 27.05.2020
2511 Clouds 22 1025 38 0 0.89 265 17:39 27.05.2020
2512 Clouds 21 1029 28 0 2.68 22 17:20 27.05.2020
2513 Clouds 21 1026 39 0 0.45 269 16:56 27.05.2020
2514 Clouds 21 1026 39 0 0.45 269 16:38 27.05.2020
2515 Clouds 21 1026 41 0 0.89 298 16:18 27.05.2020
2516 Clouds 21 1026 42 0 0.89 284 15:47 27.05.2020
2517 Clouds 21 1026 44 0 0.89 252 15:22 27.05.2020
2518 Clouds 20 1026 45 0 0.89 308 14:46 27.05.2020
2519 Clear 20 1027 46 0 0.89 274 14:22 27.05.2020
2520 Clear 20 1030 44 0 0.89 23 13:58 27.05.2020
2521 Clear 20 1030 39 0 0.89 45 13:39 27.05.2020
2522 Clear 20 1031 40 0 1.34 23 13:21 27.05.2020
2523 Clear 20 1031 40 0 1.34 23 13:21 27.05.2020
2524 Clear 19 1031 42 0 0.89 23 12:42 27.05.2020
2525 Clear 17 1027 52 0 0.89 344 12:23 27.05.2020
2526 Clear 18 1027 56 0 1.79 254 11:56 27.05.2020
2527 Clear 17 1031 46 0 0.89 23 11:37 27.05.2020
2528 Clear 16 1027 58 0 1.34 262 11:18 27.05.2020
2529 Clear 16 1031 46 0 0.89 23 10:43 27.05.2020
2530 Clear 16 1031 52 0 2.06 16 10:24 27.05.2020
2531 Clear 16 1029 60 0 2.06 16 09:57 27.05.2020
2532 Clear 16 1029 60 0 2.06 16 09:57 27.05.2020
2533 Clear 15 1029 62 0 0.45 357 09:39 27.05.2020
2534 Clear 12 1026 62 0 0.89 211 09:20 27.05.2020
2535 Clear 12 1030 70 0 0.45 338 08:42 27.05.2020
2536 Clear 12 1030 70 0 0.45 338 08:42 27.05.2020
2537 Clear 12 1030 70 0 1.34 341 08:24 27.05.2020
2538 Clear 11 1030 73 0 0.45 353 07:53 27.05.2020
2539 Clear 11 1030 73 0 1.13 50 07:35 27.05.2020
2540 Clear 10 1029 74 0 1.39 96 06:56 27.05.2020
2541 Clear 9 1032 82 0 1.66 106 06:31 27.05.2020
2542 Clear 9 1031 78 0 1.66 106 05:55 27.05.2020
2543 Clear 9 1026 64 0 0.45 151 05:35 27.05.2020
2544 Clear 10 1032 79 0 2.03 111 04:19 27.05.2020
2545 Clear 9 1032 75 0 2.29 114 02:30 27.05.2020
2546 Clear 10 1032 71 0 2.26 112 01:51 27.05.2020
2547 Clear 10 1033 70 0 2.41 108 01:23 27.05.2020
2548 Clear 12 1033 64 0 1.34 22 00:45 27.05.2020
2549 Clear 12 1033 64 0 1.34 22 00:19 27.05.2020
2550 Clear 13 1033 64 0 1.34 67 23:44 26.05.2020
2551 Clear 13 1033 64 0 1.34 67 23:25 26.05.2020
2552 Clear 12 1033 72 0 0.45 63 22:59 26.05.2020
2553 Clear 13 1033 71 0 2.79 99 22:39 26.05.2020
2554 Clear 14 1033 69 0 2.67 89 22:21 26.05.2020
2555 Clear 14 1032 67 0 2.67 89 21:58 26.05.2020
2556 Clear 16 1031 52 0 1.34 94 21:40 26.05.2020
2557 Clear 17 1029 50 0 2.68 55 21:21 26.05.2020
2558 Clear 18 1029 48 0 0.45 21 20:55 26.05.2020
2559 Clear 18 1031 46 0 2.68 29 20:37 26.05.2020
2560 Clouds 19 1029 46 0 0.45 317 20:18 26.05.2020
2561 Clouds 18 1032 55 0 0.45 280 19:39 26.05.2020
2562 Clouds 19 1031 47 0 4.47 29 19:20 26.05.2020
2563 Clouds 20 1031 46 0 4.02 3 18:43 26.05.2020
2564 Clouds 20 1031 46 0 5.81 327 18:24 26.05.2020
2565 Clouds 20 1027 45 0 0.89 300 17:59 26.05.2020
2566 Clouds 20 1027 45 0 0.89 300 17:38 26.05.2020
2567 Clouds 19 1027 44 0 0.89 274 17:20 26.05.2020
2568 Clouds 20 1027 45 0 0.89 318 16:47 26.05.2020
2569 Clouds 19 1027 46 0 0.89 329 16:22 26.05.2020
2570 Clouds 20 1027 46 0 0.89 266 15:58 26.05.2020
2571 Clouds 20 1027 46 0 0.89 266 15:39 26.05.2020
2572 Clouds 19 1027 46 0 1.34 268 15:19 26.05.2020
2573 Clouds 20 1027 48 0 0.89 317 14:44 26.05.2020
2574 Clouds 20 1028 56 0 1.34 175 14:25 26.05.2020
2575 Clouds 19 1027 51 0 0.89 251 13:58 26.05.2020
2576 Clouds 19 1027 51 0 0.89 251 13:40 26.05.2020
2577 Clouds 19 1027 52 0 0.89 279 13:21 26.05.2020
2578 Clouds 19 1029 57 0 1.34 226 12:44 26.05.2020
2579 Clouds 18 1027 54 0 0.89 272 12:22 26.05.2020
2580 Clouds 17 1027 61 0 0.89 329 11:59 26.05.2020
2581 Clouds 17 1027 61 0 0.89 329 11:40 26.05.2020
2582 Clouds 16 1027 64 0 1.34 321 11:19 26.05.2020
2583 Clouds 17 1027 64 0 1.34 321 11:19 26.05.2020
2584 Clouds 17 1030 61 0 0.89 21 10:47 26.05.2020
2585 Clouds 15 1031 68 0 2.64 2 10:19 26.05.2020
2586 Clouds 15 1031 72 0 2.64 2 09:57 26.05.2020
2587 Clouds 14 1031 75 0 1.34 337 09:37 26.05.2020
2588 Clear 13 1031 76 0 1.34 331 09:18 26.05.2020
2589 Clear 12 1031 80 0 2.03 6 08:40 26.05.2020
2590 Clear 12 1030 83 0 1.24 36 08:21 26.05.2020
2591 Clear 12 1030 83 0 1.24 36 08:21 26.05.2020
2592 Clear 10 1031 87 0 1.24 36 07:42 26.05.2020
2593 Clear 9 1031 88 0 1.3 86 07:23 26.05.2020
2594 Clear 8 1030 88 0 1.3 86 06:52 26.05.2020
2595 Clear 8 1030 88 0 1.3 86 06:52 26.05.2020
2596 Clear 8 1030 86 0 1.47 98 06:28 26.05.2020
2597 Clear 8 1030 83 0 1.47 98 05:42 26.05.2020
2598 Clear 9 1030 81 0 1.5 97 05:18 26.05.2020
2599 Clear 10 1030 81 0 1.5 97 04:47 26.05.2020
2600 Clear 10 1030 80 0 1.55 101 04:28 26.05.2020
2601 Clear 10 1030 78 0 1.55 101 03:45 26.05.2020
2602 Clear 10 1030 77 0 1.55 101 03:45 26.05.2020
2603 Clear 11 1030 75 0 0.45 55 02:35 26.05.2020
2604 Clear 12 1030 72 0 0.45 69 01:47 26.05.2020
2605 Clear 12 1030 69 0 0.89 61 00:43 26.05.2020
2606 Clear 12 1030 68 0 0.45 79 00:23 26.05.2020
2607 Clear 12 1030 67 0 0.89 61 23:59 25.05.2020
2608 Clear 13 1030 66 0 0.89 82 23:39 25.05.2020
2609 Clear 13 1030 66 0 0.45 47 23:20 25.05.2020
2610 Clear 12 1032 80 0 2.08 94 22:56 25.05.2020
2611 Clear 13 1033 68 0 2.08 94 22:38 25.05.2020
2612 Clear 15 1030 60 0 2 81 22:19 25.05.2020
2613 -273 0 0 0 0 0 21:59 25.05.2020
2614 Clear 15 1032 64 0 1.79 345 21:38 25.05.2020
2615 Clear 16 1030 57 0 2.19 41 21:20 25.05.2020
2616 Clear 17 1030 54 0 2.19 41 20:59 25.05.2020
2617 Clear 17 1030 52 0 2.19 41 20:41 25.05.2020
2618 Clouds 18 1029 52 0 2.53 13 20:20 25.05.2020
2619 Clouds 18 1029 48 0 2.68 319 19:58 25.05.2020
2620 Clouds 19 1029 48 0 2.68 7 19:38 25.05.2020
2621 Clouds 19 1029 49 0 2.24 34 19:18 25.05.2020
2622 Clouds 19 1029 49 0 2.24 34 19:18 25.05.2020
2623 Clouds 19 1029 49 0 3.58 357 18:43 25.05.2020
2624 Clouds 19 1029 49 0 2.68 26 18:22 25.05.2020
2625 Clouds 20 1029 45 0 2.68 333 17:57 25.05.2020
2626 Clouds 20 1029 45 0 4.02 7 17:38 25.05.2020
2627 Clouds 20 1029 44 0 2.68 302 17:20 25.05.2020
2628 Clouds 20 1032 44 0 3.13 247 16:56 25.05.2020
2629 Clouds 19 1032 48 0 4.47 18 16:37 25.05.2020
2630 Clouds 19 1032 46 0 4.92 335 16:19 25.05.2020
2631 Clouds 19 1032 49 0 3.13 39 15:42 25.05.2020
2632 Clouds 19 1032 51 0 3.58 34 15:19 25.05.2020
2633 Clouds 20 1030 48 0 1.34 17 14:56 25.05.2020
2634 Clouds 20 1030 47 0 3.13 304 14:38 25.05.2020
2635 Clouds 19 1034 52 0 2.68 22 14:18 25.05.2020
2636 Clouds 19 1030 53 0 0.45 339 13:39 25.05.2020
2637 Clouds 18 1034 53 0 2.68 270 13:20 25.05.2020
2638 Clouds 18 1033 57 0 4.02 353 12:57 25.05.2020
2639 Clouds 18 1032 58 0 2.24 322 12:38 25.05.2020
2640 Clouds 18 1033 58 0 3.13 44 12:20 25.05.2020
2641 Clouds 17 1030 67 0 3.61 351 11:39 25.05.2020
2642 Clear 17 1035 63 0 2.68 360 11:20 25.05.2020
2643 Clear 16 1033 68 0 2.24 337 10:56 25.05.2020
2644 Clear 16 1031 65 0 3.39 349 10:37 25.05.2020
2645 Clear 15 1031 66 0 0.89 290 10:19 25.05.2020
2646 Clear 15 1031 66 0 0.89 290 10:19 25.05.2020
2647 Clear 14 1031 70 0 2.64 349 09:54 25.05.2020
2648 Clear 14 1031 71 0 2.59 350 09:36 25.05.2020
2649 Clear 13 1031 73 0 1.9 357 09:18 25.05.2020
2650 Clear 12 1031 77 0 1.9 357 08:39 25.05.2020
2651 Clouds 11 1031 76 0 1.27 19 08:20 25.05.2020
2652 Clouds 10 1031 80 0 1.27 19 07:50 25.05.2020
2653 Clouds 9 1031 81 0 1.27 19 07:32 25.05.2020
2654 Clouds 8 1031 83 0 0.9 62 06:57 25.05.2020
2655 Clouds 8 1031 83 0 0.9 62 06:37 25.05.2020
2656 Clouds 9 1030 80 0 0.79 100 05:25 25.05.2020
2657 Clouds 9 1030 77 0 0.45 65 03:28 25.05.2020
2658 Clouds 10 1030 76 0 0.45 77 02:51 25.05.2020
2659 Clouds 10 1030 76 0 0.45 66 02:32 25.05.2020
2660 Clouds 10 1030 75 0 1.34 57 01:42 25.05.2020
2661 Clouds 11 1031 73 0 1.09 86 00:47 25.05.2020
2662 Clouds 11 1031 73 0 1.26 95 00:26 25.05.2020
2663 Clouds 12 1031 71 0 1.26 95 23:58 24.05.2020
2664 Clouds 12 1029 75 0 0.89 45 23:39 24.05.2020
2665 Clouds 12 1029 75 0 0.89 45 23:39 24.05.2020
2666 Clouds 13 1031 69 0 1.45 94 23:20 24.05.2020
2667 Clouds 12 1028 69 0 0.89 45 22:56 24.05.2020
2668 Clouds 12 1028 69 0 0.89 45 22:37 24.05.2020
2669 Clouds 13 1031 63 0 1.39 79 22:18 24.05.2020
2670 Clouds 13 1030 60 0 1.39 79 21:55 24.05.2020
2671 Clouds 12 1029 55 0 2.68 45 21:36 24.05.2020
2672 Clouds 15 1030 57 0 0.89 316 21:18 24.05.2020
2673 Clouds 14 1031 70 0 1.5 45 20:43 24.05.2020
2674 Clouds 17 1029 50 0 1.34 326 20:21 24.05.2020
2675 Clouds 17 1029 44 0 0.89 321 19:56 24.05.2020
2676 Clouds 16 1031 46 0 1.79 1 19:38 24.05.2020
2677 -273 0 0 0 0 0 19:18 24.05.2020
2678 Clouds 16 1031 45 0 1.79 305 18:42 24.05.2020
2679 Clouds 19 1031 45 0 1.34 323 18:23 24.05.2020
2680 Clouds 19 1031 45 0 1.34 323 18:23 24.05.2020
2681 Clouds 19 1029 43 0 1.34 352 17:59 24.05.2020
2682 Clouds 18 1026 52 0 1.34 269 17:40 24.05.2020
2683 Clouds 19 1029 45 0 0.45 7 17:21 24.05.2020
2684 Clouds 19 1029 47 0 3.24 328 16:56 24.05.2020
2685 Clouds 18 1031 53 0 1.34 302 16:38 24.05.2020
2686 Clouds 18 1031 50 0 1.34 229 16:19 24.05.2020
2687 Clouds 19 1029 48 0 2.25 301 15:56 24.05.2020
2688 Clouds 18 1029 49 0 0.45 212 15:38 24.05.2020
2689 Rain 18 1029 50 0 2.09 281 15:18 24.05.2020
2690 Rain 17 1029 49 0 2.09 281 14:44 24.05.2020
2691 Rain 17 1029 48 0 2.6 280 14:24 24.05.2020
2692 Rain 17 1029 48 0 2.76 275 14:24 24.05.2020
2693 Rain 17 1027 74 0 0.89 59 13:58 24.05.2020
2694 Rain 17 1027 74 0 0.89 59 13:39 24.05.2020
2695 Rain 17 1030 47 0 0.45 178 13:21 24.05.2020
2696 Rain 17 1030 56 0 2.92 267 12:59 24.05.2020
2697 Rain 16 1030 56 0 0.89 152 12:40 24.05.2020
2698 Rain 16 1030 56 0 0.45 214 12:22 24.05.2020
2699 Rain 15 1030 59 0 0.45 213 11:59 24.05.2020
2700 Rain 16 1030 61 0 0.89 184 11:41 24.05.2020
2701 Clouds 15 1030 63 0 2.61 238 11:22 24.05.2020
2702 Clouds 14 1031 69 0 2.61 238 10:56 24.05.2020
2703 Clouds 14 1031 69 0 2.61 238 10:56 24.05.2020
2704 Clouds 14 1031 69 0 2.61 238 10:37 24.05.2020
2705 Rain 13 1031 67 0 0.89 236 10:19 24.05.2020
2706 Rain 13 1030 73 0 2.4 228 09:41 24.05.2020
2707 Clouds 11 1030 75 0 1.79 165 09:18 24.05.2020
2708 Clouds 11 1030 82 0 2.23 224 08:57 24.05.2020
2709 Clouds 11 1030 84 0 2.23 224 08:39 24.05.2020
2710 Clouds 10 1030 86 0 1.85 201 08:20 24.05.2020
2711 Clouds 10 1030 91 0 1.85 201 07:49 24.05.2020
2712 Clouds 10 1030 93 0 1.78 178 07:25 24.05.2020
2713 Clouds 9 1030 93 0 1.78 178 06:57 24.05.2020
2714 Clouds 8 1030 92 0 1.78 178 06:36 24.05.2020
2715 Clouds 9 1030 91 0 2.19 185 05:20 24.05.2020
2716 Clouds 9 1030 88 0 2.22 185 03:42 24.05.2020
2717 Clouds 9 1030 88 0 2.33 178 02:47 24.05.2020
2718 Rain 8 1030 90 0 2.04 176 01:54 24.05.2020
2719 Clouds 8 1030 89 0 2.12 177 00:42 24.05.2020
2720 Clouds 8 1030 89 0 1.95 171 00:23 24.05.2020
2721 Clouds 9 1030 90 0 1.95 171 23:54 23.05.2020
2722 Clouds 9 1029 90 0 1.95 171 23:36 23.05.2020
2723 Clouds 9 1029 90 0 2.14 166 23:18 23.05.2020
2724 Clouds 9 1029 90 0 2.14 166 22:54 23.05.2020
2725 Clouds 9 1029 89 0 2.14 166 22:36 23.05.2020
2726 Clouds 10 1029 88 0 2.22 178 22:18 23.05.2020
2727 Clouds 10 1028 87 0 2.22 178 21:42 23.05.2020
2728 Clouds 11 1028 86 0 2.57 192 21:21 23.05.2020
2729 Clouds 11 1028 85 0 2.59 179 20:59 23.05.2020
2730 Clouds 11 1028 86 0 2.59 179 20:39 23.05.2020
2731 Clouds 11 1028 88 0 1.94 205 20:19 23.05.2020
2732 Clouds 11 1028 89 0 1.94 205 19:58 23.05.2020
2733 Clouds 11 1029 90 0 1.94 205 19:40 23.05.2020
2734 Clouds 11 1029 91 0 1.24 223 19:19 23.05.2020
2735 Clouds 11 1028 92 0 1.24 223 18:41 23.05.2020
2736 Clouds 11 1028 92 0 1.42 173 18:22 23.05.2020
2737 Clouds 11 1028 92 0 1.42 173 17:58 23.05.2020
2738 Clouds 11 1028 92 0 1.42 173 17:58 23.05.2020
2739 Clouds 10 1028 92 0 1.42 173 17:40 23.05.2020
2740 Rain 10 1027 93 0 1.54 143 17:20 23.05.2020
2741 Rain 10 1027 93 0 1.54 143 16:59 23.05.2020
2742 Rain 10 1027 93 0 1.54 143 16:41 23.05.2020
2743 Rain 10 1026 93 0 1.54 350 16:20 23.05.2020
2744 Rain 10 1026 93 0 1.54 350 15:57 23.05.2020
2745 Rain 11 1025 93 0 1.54 350 15:39 23.05.2020
2746 Rain 11 1025 93 0 0.45 320 15:20 23.05.2020
2747 Rain 11 1025 93 0 0.89 344 14:42 23.05.2020
2748 Rain 11 1025 93 0 0.89 346 14:24 23.05.2020
2749 Rain 10 1021 90 0 2.24 337 13:56 23.05.2020
2750 Rain 11 1021 90 0 4.92 22 13:37 23.05.2020
2751 Rain 11 1021 90 0 4.92 22 13:18 23.05.2020
2752 Rain 12 1021 88 0 4.02 45 12:41 23.05.2020
2753 Rain 12 1023 92 0 4.02 304 12:20 23.05.2020
2754 Rain 13 1021 92 0 0.89 357 11:57 23.05.2020
2755 Rain 14 1021 92 0 2.24 11 11:39 23.05.2020
2756 Rain 14 1020 91 0 1.79 15 11:19 23.05.2020
2757 Rain 16 1020 89 0 0.89 315 10:55 23.05.2020
2758 Rain 17 1019 89 0 0.45 327 10:37 23.05.2020
2759 Rain 18 1019 86 0 2.68 346 10:18 23.05.2020
2760 Rain 18 1018 89 0 1.34 312 09:43 23.05.2020
2761 Rain 18 1018 89 0 3.92 212 09:24 23.05.2020
2762 Rain 18 1019 91 0 3.66 204 08:58 23.05.2020
2763 Rain 18 1019 92 0 3.66 204 08:38 23.05.2020
2764 Rain 18 1019 92 0 2.76 203 08:19 23.05.2020
2765 Rain 18 1020 91 0 2.76 203 07:44 23.05.2020
2766 Rain 17 1020 90 0 2.01 186 07:23 23.05.2020
2767 Rain 17 1019 92 0 2.01 186 06:43 23.05.2020
2768 Clouds 15 1018 73 0 2.09 170 05:59 23.05.2020
2769 Clouds 17 1021 68 10000 1 0 04:25 23.05.2020
2770 Clouds 17 1024 87 0 2.52 162 03:26 23.05.2020
2771 Clouds 17 1024 87 0 2.52 162 03:26 23.05.2020
2772 Clouds 17 1024 85 0 2.52 162 02:40 23.05.2020
2773 Clouds 17 1021 73 10000 1.5 0 01:50 23.05.2020
2774 Rain 18 1021 68 10000 2.1 220 01:18 23.05.2020
2775 Rain 18 1021 64 10000 1 0 00:42 23.05.2020
2776 Rain 18 1024 80 0 0.92 166 00:21 23.05.2020
2777 Rain 18 1024 79 0 0.92 166 23:45 22.05.2020
2778 Rain 18 1024 77 0 1.88 183 23:22 22.05.2020
2779 Rain 18 1024 76 0 1.88 183 22:59 22.05.2020
2780 Rain 19 1024 74 0 1.88 183 22:41 22.05.2020
2781 Rain 19 1020 70 0 2.19 161 22:21 22.05.2020
2782 Rain 20 1020 70 0 2.19 161 21:54 22.05.2020
2783 Rain 20 1020 70 0 2.19 161 21:54 22.05.2020
2784 Rain 21 1020 70 0 1.91 156 21:36 22.05.2020
2785 Rain 22 1020 56 0 1.79 157 21:18 22.05.2020
2786 Rain 22 1020 70 0 2.22 179 20:42 22.05.2020
2787 Rain 23 1021 58 0 0.45 224 20:20 22.05.2020
2788 Rain 25 1020 44 10000 3.6 220 19:45 22.05.2020
2789 Rain 23 1018 49 0 0.45 225 19:26 22.05.2020
2790 Rain 24 1018 48 0 0.89 194 18:58 22.05.2020
2791 Rain 24 1018 47 0 0.89 201 18:39 22.05.2020
2792 Clouds 25 1018 46 0 1.79 178 18:19 22.05.2020
2793 Clouds 25 1018 43 0 1.34 209 17:41 22.05.2020
2794 Clouds 26 1018 43 0 0.45 183 17:20 22.05.2020
2795 Clouds 26 1018 42 0 3.81 220 16:58 22.05.2020
2796 Clouds 26 1018 40 0 0.45 236 16:39 22.05.2020
2797 Clouds 26 1018 38 0 2.24 182 16:20 22.05.2020
2798 Clouds 25 1019 46 0 0.89 103 15:57 22.05.2020
2799 Clouds 25 1019 46 0 0.89 103 15:38 22.05.2020
2800 Clouds 25 1019 47 0 0.89 84 15:18 22.05.2020
2801 Clouds 25 1020 48 0 0.89 107 14:41 22.05.2020
2802 Clouds 26 1020 49 0 0.89 102 14:23 22.05.2020
2803 Clouds 25 1020 51 0 0.89 72 13:45 22.05.2020
2804 Clouds 25 1019 35 0 3.13 166 13:20 22.05.2020
2805 Clouds 25 1019 50 0 3.06 233 12:44 22.05.2020
2806 Clouds 22 1020 54 0 0.45 256 12:25 22.05.2020
2807 Clouds 22 1020 54 0 0.45 256 12:25 22.05.2020
2808 Clouds 23 1019 57 0 2.68 245 11:58 22.05.2020
2809 Clouds 22 1019 57 0 2.68 245 11:40 22.05.2020
2810 Clouds 21 1019 58 0 1.72 244 11:19 22.05.2020
2811 Clouds 21 1019 58 0 1.72 244 10:41 22.05.2020
2812 Clouds 20 1019 56 0 1.46 251 10:22 22.05.2020
2813 Clouds 20 1019 59 0 1.46 251 09:59 22.05.2020
2814 Clouds 19 1019 63 0 1.46 251 09:40 22.05.2020
2815 Clouds 18 1021 64 0 0.45 22 09:19 22.05.2020
2816 Clouds 16 1019 69 0 1.03 183 08:43 22.05.2020
2817 Clouds 16 1019 69 0 1.03 183 08:21 22.05.2020
2818 Clouds 15 1019 73 0 1.03 183 07:56 22.05.2020
2819 Clouds 14 1019 75 0 1.43 150 07:27 22.05.2020
2820 Clouds 14 1018 75 0 1.43 150 06:57 22.05.2020
2821 Clouds 13 1018 73 0 1.43 150 06:36 22.05.2020
2822 Clouds 14 1018 68 0 0.9 162 05:39 22.05.2020
2823 Clouds 14 1018 69 0 1.5 150 04:51 22.05.2020
2824 Clouds 14 1018 68 0 0.45 96 04:28 22.05.2020
2825 Clouds 14 1019 67 0 1.3 135 03:47 22.05.2020
2826 Clouds 15 1019 67 0 1.82 133 02:59 22.05.2020
2827 Clouds 14 1018 69 0 0.89 117 01:56 22.05.2020
2828 Clear 14 1018 69 0 0.45 111 01:28 22.05.2020
2829 Clear 15 1020 71 0 2.08 141 00:49 22.05.2020
2830 Clear 15 1019 66 0 0.89 111 00:28 22.05.2020
2831 Clear 16 1019 64 0 2.06 137 23:45 21.05.2020
2832 Clear 16 1019 64 0 0.45 126 23:25 21.05.2020
2833 Clear 17 1020 63 0 2.03 131 22:58 21.05.2020
2834 Clear 17 1020 61 0 2.03 131 22:40 21.05.2020
2835 Clear 17 1019 63 0 1.68 122 22:22 21.05.2020
2836 Clear 18 1023 71 0 1.68 122 21:59 21.05.2020
2837 Clear 21 1020 52 0 1.68 122 21:41 21.05.2020
2838 Clear 20 1020 49 0 0.71 89 21:22 21.05.2020
2839 Clear 19 1022 66 0 0.71 89 20:45 21.05.2020
2840 Rain 21 1022 63 0 0.45 326 20:22 21.05.2020
2841 Rain 24 1020 36 10000 2.6 30 19:55 21.05.2020
2842 Rain 26 1020 34 10000 2.6 40 19:36 21.05.2020
2843 Rain 26 1020 34 10000 2.6 40 19:18 21.05.2020
2844 Rain 26 1019 34 10000 3.6 20 18:40 21.05.2020
2845 Rain 25 1019 34 10000 3.6 20 18:20 21.05.2020
2846 Rain 27 1020 34 10000 2.6 360 17:58 21.05.2020
2847 Rain 27 1020 32 10000 3.6 30 17:40 21.05.2020
2848 Rain 23 1016 46 0 0.89 130 17:22 21.05.2020
2849 Rain 24 1016 47 0 0.45 170 16:47 21.05.2020
2850 Rain 23 1017 48 0 0.45 243 16:25 21.05.2020
2851 Rain 23 1019 43 0 2.24 50 15:55 21.05.2020
2852 Rain 24 1017 49 0 0.89 217 15:37 21.05.2020
2853 Clear 23 1017 48 0 0.45 209 15:18 21.05.2020
2854 Clear 23 1017 50 0 0.45 328 14:39 21.05.2020
2855 Clear 23 1017 51 0 0.89 274 14:18 21.05.2020
2856 Clear 23 1018 53 0 1.34 304 13:41 21.05.2020
2857 Clear 23 1020 47 0 2.24 32 13:22 21.05.2020
2858 Clear 22 1018 57 0 0.45 166 12:58 21.05.2020
2859 Clear 22 1018 57 0 0.45 166 12:37 21.05.2020
2860 Clear 22 1018 60 0 0.89 266 12:19 21.05.2020
2861 Clear 21 1018 61 0 0.89 281 11:42 21.05.2020
2862 Clear 21 1019 53 0 1.84 329 11:23 21.05.2020
2863 Clear 20 1019 54 0 0.45 338 10:59 21.05.2020
2864 Clear 20 1019 56 0 0.45 350 10:39 21.05.2020
2865 Clear 19 1019 58 0 1.49 326 10:20 21.05.2020
2866 Clear 19 1019 64 0 1.49 326 09:55 21.05.2020
2867 Clear 18 1019 66 0 1.62 316 09:37 21.05.2020
2868 Clear 17 1019 73 0 1.21 311 09:18 21.05.2020
2869 Clear 16 1019 77 0 1.21 311 08:45 21.05.2020
2870 Clear 16 1019 75 0 1.21 311 08:45 21.05.2020
2871 Clear 15 1019 78 0 0.33 332 08:26 21.05.2020
2872 Clear 14 1019 78 0 0.33 332 07:47 21.05.2020
2873 Clear 12 1018 79 0 0.93 125 07:27 21.05.2020
2874 Clear 13 1018 77 0 0.93 125 06:52 21.05.2020
2875 Clear 12 1018 77 0 1.09 138 06:22 21.05.2020
2876 Clear 12 1018 75 0 1.09 138 05:37 21.05.2020
2877 Clear 13 1017 64 0 1.58 124 03:22 21.05.2020
2878 Clear 13 1017 64 0 1.58 124 03:22 21.05.2020
2879 Clear 13 1019 78 0 1.58 124 02:49 21.05.2020
2880 Clear 13 1017 64 0 1.58 124 02:30 21.05.2020
2881 Clouds 14 1016 61 0 1.71 112 01:47 21.05.2020
2882 Clouds 14 1019 74 0 1.87 104 01:21 21.05.2020
2883 Clouds 15 1019 72 0 0.45 143 00:53 21.05.2020
2884 Clouds 15 1019 73 0 1.98 102 00:24 21.05.2020
2885 Clouds 16 1019 69 0 1.98 102 23:47 20.05.2020
2886 Clouds 16 1019 67 0 2.14 106 23:21 20.05.2020
2887 Clouds 16 1019 63 0 2.14 106 22:59 20.05.2020
2888 Clouds 17 1019 61 0 2.14 106 22:41 20.05.2020
2889 Clouds 16 1017 53 0 0.45 134 22:23 20.05.2020
2890 Clouds 18 1016 52 0 0.45 146 21:42 20.05.2020
2891 Clear 20 1018 54 0 0.89 52 21:23 20.05.2020
2892 Clear 19 1016 50 0 2.32 58 20:59 20.05.2020
2893 Clear 20 1016 44 0 2.32 58 20:41 20.05.2020
2894 Clouds 21 1016 41 0 0.45 276 20:22 20.05.2020
2895 Clouds 23 1018 41 10000 4.6 10 19:42 20.05.2020
2896 Clouds 22 1018 45 0 4.02 19 19:23 20.05.2020
2897 Clouds 23 1018 43 0 4.02 342 18:58 20.05.2020
2898 Clouds 23 1018 43 0 4.47 323 18:38 20.05.2020
2899 Clouds 22 1016 43 0 0.89 305 18:20 20.05.2020
2900 Clouds 24 1018 45 0 3.13 12 17:39 20.05.2020
2901 Clouds 22 1016 44 0 4.64 8 17:21 20.05.2020
2902 Clouds 22 1018 46 0 3.58 25 16:55 20.05.2020
2903 Clouds 22 1016 44 0 0.45 279 16:36 20.05.2020
2904 Clouds 23 1016 44 0 0.89 264 16:18 20.05.2020
2905 Clouds 23 1016 44 0 1.34 279 15:42 20.05.2020
2906 Clouds 23 1016 45 0 0.89 288 15:23 20.05.2020
2907 Clouds 23 1016 53 0 4.59 3 14:43 20.05.2020
2908 Clear 22 1016 51 0 0.89 226 14:21 20.05.2020
2909 Clear 23 1016 54 0 4.75 1 13:54 20.05.2020
2910 Clear 22 1017 48 0 0.89 314 13:36 20.05.2020
2911 Clear 23 1021 54 0 0.89 302 13:18 20.05.2020
2912 Clear 22 1017 50 0 1.34 279 12:41 20.05.2020
2913 Clear 19 1017 53 0 1.34 283 12:20 20.05.2020
2914 Clear 20 1016 64 0 0.45 244 11:37 20.05.2020
2915 Clear 19 1017 58 0 0.89 291 11:19 20.05.2020
2916 Clear 19 1018 61 0 3.02 10 10:44 20.05.2020
2917 Clear 19 1018 62 0 2.47 15 10:22 20.05.2020
2918 Clear 19 1018 61 0 0.45 346 09:57 20.05.2020
2919 Clear 18 1017 62 0 0.45 330 09:38 20.05.2020
2920 Clear 17 1020 52 10000 4.6 10 09:19 20.05.2020
2921 Clear 16 1017 71 0 2.21 13 08:41 20.05.2020
2922 Clear 15 1017 72 0 1.81 21 08:19 20.05.2020
2923 Clear 14 1017 73 0 1.81 21 07:49 20.05.2020
2924 Clear 13 1017 74 0 1.33 61 07:23 20.05.2020
2925 Clear 13 1017 73 0 1.33 61 06:49 20.05.2020
2926 Clear 12 1018 74 0 1.52 92 05:59 20.05.2020
2927 Clear 14 1017 68 0 1.51 87 04:38 20.05.2020
2928 Clear 14 1017 65 0 1.56 90 03:58 20.05.2020
2929 Clear 14 1018 63 0 1.61 86 03:27 20.05.2020
2930 Clear 14 1020 62 10000 1.5 310 01:41 20.05.2020
2931 Clear 14 1020 62 10000 1.5 310 01:23 20.05.2020
2932 Clear 17 1020 48 10000 1.5 310 00:40 20.05.2020
2933 Clear 17 1020 48 10000 1.5 310 00:20 20.05.2020
2934 Clear 18 1020 45 10000 3.1 350 23:36 19.05.2020
2935 Clear 18 1020 45 10000 3.1 350 23:18 19.05.2020
2936 Clear 18 1019 48 10000 3.1 350 22:54 19.05.2020
2937 Clear 19 1019 42 10000 3.1 10 22:36 19.05.2020
2938 Clear 18 1019 42 10000 3.1 10 22:18 19.05.2020
2939 Clear 18 1019 37 10000 3.1 30 21:55 19.05.2020
2940 Clear 22 1019 35 10000 3.1 10 21:36 19.05.2020
2941 Clear 18 1020 68 0 2.3 61 21:18 19.05.2020
2942 Clear 19 1019 38 10000 4.6 360 20:54 19.05.2020
2943 Clear 20 1018 33 10000 5.1 20 20:36 19.05.2020
2944 Clear 20 1018 33 10000 5.1 20 20:36 19.05.2020
2945 Clouds 20 1018 33 10000 5.1 20 20:18 19.05.2020
2946 Clouds 20 1018 36 10000 4.6 20 19:38 19.05.2020
2947 Clouds 20 1018 36 10000 4.6 20 19:19 19.05.2020
2948 Clouds 21 1018 34 10000 6.7 10 18:44 19.05.2020
2949 Rain 23 1018 32 0 4.47 327 18:23 19.05.2020
2950 Rain 22 1018 36 0 4.47 13 17:57 19.05.2020
2951 Rain 23 1018 36 0 4.47 13 17:39 19.05.2020
2952 Rain 23 1018 41 0 4.02 19 17:20 19.05.2020
2953 Rain 24 1018 41 0 4.02 19 16:42 19.05.2020
2954 Rain 24 1018 41 0 4.47 349 16:23 19.05.2020
2955 Rain 23 1015 45 0 1.34 306 15:58 19.05.2020
2956 Rain 23 1015 45 0 1.34 306 15:39 19.05.2020
2957 Rain 24 1018 44 0 4.02 331 15:20 19.05.2020
2958 Rain 22 1015 49 0 1.34 50 14:55 19.05.2020
2959 Rain 23 1015 49 0 1.34 50 14:36 19.05.2020
2960 Rain 22 1016 50 0 1.34 213 14:18 19.05.2020
2961 Rain 23 1019 43 0 3.58 19 13:55 19.05.2020
2962 Rain 22 1017 52 0 0.89 286 13:37 19.05.2020
2963 Rain 22 1017 53 0 0.89 277 13:18 19.05.2020
2964 Rain 21 1020 44 0 3.13 6 12:55 19.05.2020
2965 Rain 21 1017 54 0 0.89 249 12:36 19.05.2020
2966 Clear 20 1017 55 0 0.89 296 12:18 19.05.2020
2967 Clear 20 1017 57 0 1.34 291 11:41 19.05.2020
2968 Clear 20 1017 58 0 0.89 283 11:22 19.05.2020
2969 Clear 20 1019 57 0 3.18 359 10:56 19.05.2020
2970 Clear 19 1019 58 0 0.45 357 10:38 19.05.2020
2971 Clear 19 1019 57 0 1.79 331 10:18 19.05.2020
2972 Clear 17 1019 64 0 2.66 3 09:43 19.05.2020
2973 Clear 16 1019 65 0 2.35 6 09:25 19.05.2020
2974 Clear 16 1019 68 0 2.35 6 08:47 19.05.2020
2975 Clear 15 1019 70 0 1.81 6 08:25 19.05.2020
2976 Clear 13 1019 71 0 1.81 6 07:49 19.05.2020
2977 Clear 13 1019 74 0 1.01 63 07:28 19.05.2020
2978 Clear 12 1019 75 0 1.01 63 06:55 19.05.2020
2979 Clear 12 1019 74 0 1.13 83 06:31 19.05.2020
2980 Clear 11 1019 72 0 1.13 83 05:53 19.05.2020
2981 Clear 12 1019 71 0 1.13 83 05:35 19.05.2020
2982 Clear 12 1020 81 0 1.25 89 04:50 19.05.2020
2983 Clear 13 1020 66 0 1.19 91 02:50 19.05.2020
2984 Clear 14 1023 67 0 0.89 332 00:59 19.05.2020
2985 Clear 14 1022 68 0 1.45 87 00:36 19.05.2020
2986 Clear 14 1021 65 0 1.59 84 00:18 19.05.2020
2987 Clear 15 1021 62 0 1.59 84 23:40 18.05.2020
2988 Clear 13 1021 62 0 1.88 83 23:20 18.05.2020
2989 Clear 14 1022 55 10000 2.1 10 22:56 18.05.2020
2990 Clear 14 1022 55 10000 2.1 10 22:56 18.05.2020
2991 Clear 14 1022 55 10000 2.1 10 22:38 18.05.2020
2992 Clear 14 1023 65 0 1.34 327 22:19 18.05.2020
2993 Clear 16 1021 43 10000 3.6 20 21:42 18.05.2020
2994 Clear 17 1021 47 0 0.89 28 21:22 18.05.2020
2995 Clear 17 1023 55 0 2.34 52 20:57 18.05.2020
2996 Clear 18 1022 53 0 2.34 52 20:38 18.05.2020
2997 Clear 18 1017 46 0 2.57 18 20:20 18.05.2020
2998 Clear 19 1021 35 10000 4.6 30 19:56 18.05.2020
2999 Clear 20 1022 51 0 2.24 277 19:38 18.05.2020
3000 Clear 20 1022 52 0 2.68 315 19:18 18.05.2020
3001 Clear 21 1022 51 0 3.13 289 18:44 18.05.2020
3002 Clear 21 1021 35 0 2.68 76 18:22 18.05.2020
3003 Clear 22 1018 44 0 2.92 358 17:39 18.05.2020
3004 Clear 22 1018 45 0 0.45 275 17:18 18.05.2020
3005 Clear 22 1018 46 0 0.89 269 16:56 18.05.2020
3006 Clear 22 1018 46 0 0.89 269 16:38 18.05.2020
3007 Clear 21 1018 48 0 0.89 132 16:18 18.05.2020
3008 Clear 21 1018 49 0 0.89 98 15:56 18.05.2020
3009 Clear 21 1018 49 0 0.89 98 15:37 18.05.2020
3010 Clear 21 1019 50 0 0.89 114 15:19 18.05.2020
3011 Clear 21 1019 50 0 0.89 281 14:43 18.05.2020
3012 Clear 21 1018 52 0 1.34 194 14:25 18.05.2020
3013 Clear 21 1019 53 0 0.45 99 13:58 18.05.2020
3014 Clear 20 1019 53 0 0.45 99 13:39 18.05.2020
3015 Clear 20 1019 54 0 0.45 267 13:20 18.05.2020
3016 Clear 19 1021 50 0 1.34 257 12:57 18.05.2020
3017 Clear 19 1021 52 0 1.79 260 12:39 18.05.2020
3018 Clear 18 1020 58 0 0.89 284 12:19 18.05.2020
3019 Clear 18 1021 58 0 0.89 234 11:47 18.05.2020
3020 Clear 18 1022 47 0 1.84 315 11:27 18.05.2020
3021 Clear 18 1023 53 0 1.84 315 10:59 18.05.2020
3022 Clear 17 1023 51 0 1.84 315 10:40 18.05.2020
3023 Clear 16 1023 51 0 1.74 314 10:22 18.05.2020
3024 Clear 15 1023 61 0 1.74 314 09:44 18.05.2020
3025 Clear 14 1023 64 0 1.13 313 09:25 18.05.2020
3026 Clear 12 1022 72 0 1.13 313 08:46 18.05.2020
3027 Clear 12 1022 72 0 0.45 325 08:27 18.05.2020
3028 Clear 11 1022 74 0 0.45 325 07:58 18.05.2020
3029 Clear 10 1022 76 0 0.45 325 07:38 18.05.2020
3030 Clear 9 1022 77 0 0.56 109 07:18 18.05.2020
3031 Clear 8 1022 78 0 0.56 109 06:43 18.05.2020
3032 Clear 8 1021 76 0 0.76 119 05:49 18.05.2020
3033 Clear 9 1021 76 0 0.97 113 05:26 18.05.2020
3034 Clear 10 1021 74 0 1.11 110 03:37 18.05.2020
3035 Clear 9 1023 80 0 1.34 109 02:30 18.05.2020
3036 Clear 10 1024 75 0 1.32 98 01:32 18.05.2020
3037 Clear 11 1023 69 0 0.45 141 00:27 18.05.2020
3038 Clear 11 1023 67 0 1.5 93 23:58 17.05.2020
3039 Clear 12 1023 66 0 1.5 93 23:40 17.05.2020
3040 Clear 11 1018 60 0 0.45 111 23:20 17.05.2020
3041 Clear 12 1023 61 0 1.47 104 22:58 17.05.2020
3042 Clear 11 1023 70 0 1.47 104 22:39 17.05.2020
3043 Clear 11 1023 69 0 1.7 96 22:21 17.05.2020
3044 Clear 12 1023 68 0 1.7 96 21:59 17.05.2020
3045 Clear 16 1022 44 0 1.7 96 21:40 17.05.2020
3046 Clear 15 1019 65 0 1.64 46 21:19 17.05.2020
3047 Clear 15 1016 51 0 1.64 46 20:55 17.05.2020
3048 Clear 16 1016 51 0 1.64 46 20:36 17.05.2020
3049 Clear 17 1017 42 0 2.39 10 20:18 17.05.2020
3050 Clear 18 1021 32 10000 4.1 30 19:42 17.05.2020
3051 Clear 18 1021 37 0 2.68 351 19:23 17.05.2020
3052 Clear 18 1022 52 0 3.13 331 18:56 17.05.2020
3053 Clear 18 1021 39 0 2.24 28 18:37 17.05.2020
3054 Clear 20 1021 38 0 2.68 27 18:19 17.05.2020
3055 Clear 19 1017 44 0 0.45 306 17:40 17.05.2020
3056 Clear 19 1021 42 0 3.13 342 17:22 17.05.2020
3057 Clear 19 1017 46 0 0.89 281 16:57 17.05.2020
3058 Clear 19 1017 46 0 0.89 281 16:38 17.05.2020
3059 Clear 19 1017 46 0 0.89 281 16:38 17.05.2020
3060 Clear 19 1017 49 0 0.89 312 16:19 17.05.2020
3061 Clear 19 1017 49 0 0.89 312 16:19 17.05.2020
3062 Clear 19 1017 49 0 0.89 312 16:19 17.05.2020
3063 Clear 18 1017 49 0 0.89 272 15:46 17.05.2020
3064 Clear 18 1022 44 0 2.68 360 15:24 17.05.2020
3065 Clear 18 1017 51 0 1.34 246 14:58 17.05.2020
3066 Clear 19 1019 53 0 1.79 226 14:39 17.05.2020
3067 Clear 18 1018 54 0 0.89 120 14:20 17.05.2020
3068 Clear 18 1019 57 0 1.79 229 13:42 17.05.2020
3069 Clear 18 1019 58 0 1.79 250 13:21 17.05.2020
3070 Clear 18 1019 58 0 1.79 250 13:21 17.05.2020
3071 Clear 8 1018 79 0 0.84 81 05:25 17.05.2020
3072 Clear 9 1018 79 0 1.12 92 03:53 17.05.2020
3073 Clear 9 1018 75 0 1.07 87 02:27 17.05.2020
3074 Clear 9 1018 91 0 1.07 87 01:55 17.05.2020
3075 Clear 10 1020 75 0 0.89 135 00:53 17.05.2020
3076 Clear 10 1015 92 0 1.3 101 00:31 17.05.2020
3077 Clear 9 1015 92 0 1.3 101 23:57 16.05.2020
3078 Clear 10 1015 92 0 1.3 101 23:39 16.05.2020
3079 Clear 10 1020 71 0 1.37 106 23:19 16.05.2020
3080 Clear 10 1015 92 0 1.37 106 22:55 16.05.2020
3081 Clear 10 1015 92 0 1.37 106 22:36 16.05.2020
3082 Clear 10 1017 84 0 1.45 103 22:18 16.05.2020
3083 Clear 11 1019 51 10000 2.6 320 21:42 16.05.2020
3084 Clear 15 1016 77 0 1.15 67 21:24 16.05.2020
3085 Clear 16 1019 50 0 0.89 29 20:57 16.05.2020
3086 Clear 17 1019 48 0 0.45 270 20:39 16.05.2020
3087 Clear 17 1017 45 0 0.81 25 20:20 16.05.2020
3088 Clear 17 1017 45 0 0.81 25 20:20 16.05.2020
3089 Clear 16 1019 62 0 0.45 308 19:56 16.05.2020
3090 Clear 17 1019 45 0 2.24 355 19:37 16.05.2020
3091 Clear 17 1019 45 0 1.79 34 19:19 16.05.2020
3092 Clear 17 1019 46 0 2.68 5 18:41 16.05.2020
3093 Clear 19 1019 45 0 2.24 82 18:22 16.05.2020
3094 Clear 19 1019 44 0 2.68 62 17:55 16.05.2020
3095 Clear 19 1019 44 0 2.24 50 17:36 16.05.2020
3096 Clear 18 1019 58 0 1.79 271 17:18 16.05.2020
3097 Clear 19 1020 45 0 1.34 305 16:39 16.05.2020
3098 Clear 19 1020 44 0 2.24 346 16:20 16.05.2020
3099 Clear 19 1020 46 0 1.79 32 15:56 16.05.2020
3100 Clear 19 1020 48 0 1.79 292 15:38 16.05.2020
3101 Clear 19 1020 48 0 1.79 292 15:38 16.05.2020
3102 Clear 19 1020 46 0 2.24 30 15:19 16.05.2020
3103 Clear 19 1020 49 0 0.45 276 14:43 16.05.2020
3104 Clear 18 1021 46 0 2.68 344 14:20 16.05.2020
3105 Clear 18 1021 50 0 1.34 247 13:57 16.05.2020
3106 Clear 19 1019 43 0 1.79 302 13:38 16.05.2020
3107 Clear 19 1019 43 0 1.79 302 13:38 16.05.2020
3108 Clear 18 1019 44 0 0.89 357 13:20 16.05.2020
3109 Clear 18 1019 46 0 0.45 313 12:44 16.05.2020
3110 Clear 16 1022 62 0 0.45 315 12:21 16.05.2020
3111 Clear 16 1022 57 0 0.89 63 11:56 16.05.2020
3112 Clear 15 1020 58 0 0.89 346 11:38 16.05.2020
3113 Clear 15 1020 59 0 1.34 347 11:20 16.05.2020
3114 Clear 13 1020 65 0 0.45 350 10:55 16.05.2020
3115 Clear 13 1020 67 0 0.45 338 10:36 16.05.2020
3116 Clear 10 1021 82 0 0.89 23 10:18 16.05.2020
3117 Clear 10 1021 82 0 0.89 23 09:44 16.05.2020
3118 Clear 10 1021 75 0 0.94 354 09:25 16.05.2020
3119 Clear 9 1021 84 0 0.94 354 08:43 16.05.2020
3120 Clear 8 1021 85 0 0.27 69 08:21 16.05.2020
3121 Clear 7 1020 89 0 0.27 69 07:46 16.05.2020
3122 Clear 7 1020 89 0 1.3 126 07:27 16.05.2020
3123 Clear 7 1020 87 0 1.3 126 06:59 16.05.2020
3124 Clear 6 1020 86 0 1.3 126 06:41 16.05.2020
3125 Clear 5 1020 83 0 1.4 106 06:18 16.05.2020
3126 Clear 6 1019 82 0 1.4 106 05:38 16.05.2020
3127 Clear 6 1021 91 0 1.5 118 03:58 16.05.2020
3128 Clear 6 1021 88 0 1.48 116 02:59 16.05.2020
3129 Clear 6 1021 86 0 0.45 168 02:22 16.05.2020
3130 Clear 6 1021 85 0 1.61 120 01:54 16.05.2020
3131 Clear 7 1021 83 0 1.61 120 01:33 16.05.2020
3132 Clear 7 1021 82 0 1.98 120 00:54 16.05.2020
3133 Clear 7 1021 83 0 2.12 114 00:23 16.05.2020
3134 Clear 9 1020 65 0 2.12 114 23:56 15.05.2020
3135 Clear 9 1019 64 0 2.12 114 23:37 15.05.2020
3136 Clear 9 1019 64 0 2.24 108 23:18 15.05.2020
3137 Clear 9 1019 65 0 2.24 108 22:40 15.05.2020
3138 Clear 9 1019 66 0 2.37 107 22:20 15.05.2020
3139 Clear 11 1019 67 0 2.37 107 21:55 15.05.2020
3140 Clear 11 1019 67 0 2.37 107 21:55 15.05.2020
3141 Clear 9 1020 70 0 2.37 107 21:36 15.05.2020
3142 Clear 11 1017 82 0 2.17 86 21:18 15.05.2020
3143 Clear 10 1017 79 0 2.03 78 20:54 15.05.2020
3144 Clear 12 1019 68 0 2.03 78 20:36 15.05.2020
3145 Clouds 12 1017 74 0 1.72 43 20:18 15.05.2020
3146 Clouds 12 1019 63 0 1.72 43 19:42 15.05.2020
3147 Rain 13 1019 59 0 2.04 18 19:23 15.05.2020
3148 Rain 13 1019 62 0 2.04 18 18:48 15.05.2020
3149 Clouds 15 1019 56 0 2.11 27 18:28 15.05.2020
3150 Rain 14 1018 64 0 2.25 16 17:59 15.05.2020
3151 Clouds 14 1018 65 0 2.11 27 17:37 15.05.2020
3152 Clouds 14 1019 57 0 0.89 82 17:18 15.05.2020
3153 Clouds 14 1019 57 0 1.34 53 16:55 15.05.2020
3154 Clouds 14 1019 60 0 2.24 70 16:37 15.05.2020
3155 Rain 14 1018 62 0 0.45 23 16:18 15.05.2020
3156 Rain 15 1019 66 0 1.34 56 15:40 15.05.2020
3157 Clouds 13 1018 70 0 2.65 14 15:20 15.05.2020
3158 Clouds 14 1019 69 0 2.24 56 14:57 15.05.2020
3159 Clouds 13 1018 69 0 2.24 110 14:38 15.05.2020
3160 Clouds 12 1016 66 0 2.67 24 14:20 15.05.2020
3161 Clouds 12 1015 76 0 1.79 242 13:42 15.05.2020
3162 Clouds 12 1015 76 0 1.79 242 13:22 15.05.2020
3163 Clouds 13 1015 66 0 1.34 348 12:56 15.05.2020
3164 Clouds 13 1015 64 0 2.79 20 12:37 15.05.2020
3165 Clouds 11 1011 92 0 0.89 286 12:18 15.05.2020
3166 Clouds 11 1017 72 0 2.68 49 11:56 15.05.2020
3167 Clouds 11 1014 83 0 0.45 231 11:37 15.05.2020
3168 Clouds 10 1014 83 0 0.89 245 11:18 15.05.2020
3169 Clouds 10 1013 84 0 1.34 244 10:54 15.05.2020
3170 Clouds 10 1014 76 0 2.93 14 10:36 15.05.2020
3171 Clouds 9 1014 77 0 2.92 18 10:18 15.05.2020
3172 Clouds 9 1013 79 0 2.92 18 09:39 15.05.2020
3173 Clouds 9 1013 79 0 3.85 13 09:19 15.05.2020
3174 Clouds 9 1012 79 0 3.85 13 08:58 15.05.2020
3175 Clouds 9 1012 79 0 3.85 13 08:37 15.05.2020
3176 Clouds 9 1012 80 0 3.88 10 08:19 15.05.2020
3177 Clouds 9 1011 79 0 1.79 7 07:44 15.05.2020
3178 Clouds 9 1011 79 0 1.79 343 07:25 15.05.2020
3179 Clouds 9 1011 78 0 0.45 329 06:56 15.05.2020
3180 Clouds 9 1010 76 0 0.89 345 05:53 15.05.2020
3181 Clouds 9 1009 75 0 0.45 333 04:29 15.05.2020
3182 Clouds 10 1010 74 0 2.14 37 03:48 15.05.2020
3183 Clouds 10 1010 77 0 0.45 23 02:40 15.05.2020
3184 Clouds 10 1010 72 0 2.73 41 01:31 15.05.2020
3185 Clouds 10 1011 77 0 1.34 23 00:57 15.05.2020
3186 Clouds 10 1007 92 0 0.89 268 00:38 15.05.2020
3187 Clouds 10 1010 75 0 2.52 53 00:20 15.05.2020
3188 Clouds 10 1011 77 0 0.89 23 23:40 14.05.2020
3189 Clouds 10 1011 77 0 0.89 23 23:40 14.05.2020
3190 Clouds 10 1011 77 0 0.89 23 23:18 14.05.2020
3191 Clouds 11 1011 76 0 2.5 61 22:41 14.05.2020
3192 Clouds 11 1011 76 0 2.98 58 22:21 14.05.2020
3193 Clouds 11 1011 75 0 2.98 58 21:58 14.05.2020
3194 Clouds 11 1011 74 0 2.98 58 21:40 14.05.2020
3195 Clouds 11 1011 74 0 2.96 47 21:19 14.05.2020
3196 Clouds 11 1011 71 0 3.1 55 20:56 14.05.2020
3197 Clouds 11 1011 70 0 3.1 55 20:38 14.05.2020
3198 Clouds 11 1011 70 0 3.27 51 20:19 14.05.2020
3199 Clouds 11 1011 67 0 3.27 51 19:55 14.05.2020
3200 Clouds 11 1011 67 0 3.27 51 19:37 14.05.2020
3201 Clouds 12 1011 67 0 3.52 48 19:19 14.05.2020
3202 Clouds 12 1011 66 0 0.45 46 18:54 14.05.2020
3203 Clouds 11 1010 74 0 0.45 96 18:36 14.05.2020
3204 Clouds 11 1011 73 0 1.34 47 18:18 14.05.2020
3205 Clouds 11 1011 73 0 0.89 125 17:55 14.05.2020
3206 Clouds 11 1011 73 0 1.34 82 17:36 14.05.2020
3207 Clouds 11 1011 74 0 1.34 115 17:18 14.05.2020
3208 Clouds 12 1010 75 0 1.34 49 16:39 14.05.2020
3209 Clouds 12 1011 69 0 3.35 33 16:20 14.05.2020
3210 Clouds 12 1011 70 0 3.35 33 15:57 14.05.2020
3211 Clouds 11 1011 71 0 3.35 33 15:39 14.05.2020
3212 Clouds 11 1012 70 0 0.45 37 15:19 14.05.2020
3213 Clouds 11 1012 71 0 0.45 334 14:56 14.05.2020
3214 Clouds 11 1012 73 0 3.59 12 14:38 14.05.2020
3215 Clouds 11 1012 75 0 2.91 16 14:19 14.05.2020
3216 Clouds 11 1012 75 0 2.91 16 14:19 14.05.2020
3217 Clouds 11 1012 75 0 0.45 30 13:55 14.05.2020
3218 Clouds 11 1012 77 0 0.45 7 13:37 14.05.2020
3219 Clouds 11 1012 80 0 0.89 2 13:18 14.05.2020
3220 Clouds 10 1012 85 0 0.45 7 12:57 14.05.2020
3221 Clouds 10 1012 85 0 2.68 7 12:37 14.05.2020
3222 Rain 9 1013 93 0 1.79 23 12:18 14.05.2020
3223 Rain 9 1013 94 0 1.79 23 11:55 14.05.2020
3224 Rain 9 1013 94 0 1.34 23 11:37 14.05.2020
3225 Clouds 9 1013 94 0 0.89 23 11:19 14.05.2020
3226 Clouds 8 1012 94 0 2.06 19 10:42 14.05.2020
3227 Rain 8 1012 95 0 0.45 26 10:23 14.05.2020
3228 Rain 8 1012 96 0 0.89 32 09:56 14.05.2020
3229 Rain 8 1012 96 0 0.45 357 09:36 14.05.2020
3230 Clouds 8 1012 96 0 0.89 311 09:18 14.05.2020
3231 Clouds 8 1012 96 0 2.08 23 08:37 14.05.2020
3232 Rain 8 1012 96 0 0.45 311 08:19 14.05.2020
3233 Rain 7 1012 96 0 2.21 20 07:45 14.05.2020
3234 Clouds 7 1011 96 0 1.71 34 07:22 14.05.2020
3235 Clouds 7 1011 96 0 0.45 21 06:44 14.05.2020
3236 Rain 7 1011 96 0 1.93 49 06:25 14.05.2020
3237 Rain 7 1011 96 0 1.93 49 05:42 14.05.2020
3238 Rain 7 1011 96 0 1.93 49 05:42 14.05.2020
3239 Rain 8 1010 96 0 1.72 26 04:56 14.05.2020
3240 Rain 8 1010 96 0 1.74 9 03:44 14.05.2020
3241 Rain 8 1010 96 0 0.45 345 03:20 14.05.2020
3242 Rain 8 1009 96 0 1.54 348 02:39 14.05.2020
3243 Rain 8 1009 96 0 1.78 342 01:52 14.05.2020
3244 Rain 8 1009 95 0 2.17 328 00:58 14.05.2020
3245 Rain 8 1009 95 0 1.16 317 00:29 14.05.2020
3246 Rain 8 1008 95 0 1.16 317 23:57 13.05.2020
3247 Rain 8 1008 95 0 1.16 317 23:38 13.05.2020
3248 Rain 8 1008 95 0 1.08 333 23:18 13.05.2020
3249 Rain 8 1008 95 0 0.45 331 22:42 13.05.2020
3250 Rain 8 1008 95 0 0.62 312 22:23 13.05.2020
3251 Rain 9 1007 94 0 0.62 312 21:59 13.05.2020
3252 Rain 9 1007 94 0 0.62 312 21:40 13.05.2020
3253 Rain 9 1007 94 0 1.51 257 21:19 13.05.2020
3254 Rain 9 1006 94 0 1.35 338 20:58 13.05.2020
3255 Rain 9 1006 94 0 1.35 338 20:39 13.05.2020
3256 Rain 9 1005 94 0 1.26 305 20:21 13.05.2020
3257 Rain 9 1006 94 0 1.26 305 19:43 13.05.2020
3258 Rain 9 1005 93 0 1.69 34 19:24 13.05.2020
3259 Rain 9 1006 93 0 1.69 34 18:55 13.05.2020
3260 Rain 9 1006 93 0 1.69 34 18:36 13.05.2020
3261 Rain 9 1006 93 0 1.71 349 18:18 13.05.2020
3262 Rain 9 1007 92 0 1.71 349 17:38 13.05.2020
3263 Rain 9 1007 92 0 2.74 23 17:19 13.05.2020
3264 Rain 9 1007 91 0 2.74 23 16:54 13.05.2020
3265 Rain 9 1007 91 0 2.74 23 16:36 13.05.2020
3266 Rain 9 1007 90 0 1.93 358 16:18 13.05.2020
3267 Rain 9 1006 89 0 1.93 358 15:42 13.05.2020
3268 Rain 9 1007 89 0 0.45 340 15:19 13.05.2020
3269 Rain 9 1007 89 0 1.61 352 14:56 13.05.2020
3270 Rain 9 1007 90 0 1.61 352 14:38 13.05.2020
3271 Rain 9 1007 90 0 2.53 333 14:19 13.05.2020
3272 Rain 9 1008 88 0 1.79 345 13:55 13.05.2020
3273 Rain 9 1008 88 0 0.89 327 13:37 13.05.2020
3274 Rain 9 1008 87 0 1.83 13 13:19 13.05.2020
3275 Rain 9 1009 82 0 1.83 13 12:42 13.05.2020
3276 Clouds 10 1009 80 0 2.28 335 12:21 13.05.2020
3277 Clouds 10 1009 76 0 2.28 335 11:57 13.05.2020
3278 Clouds 10 1009 78 0 0.45 350 11:38 13.05.2020
3279 Clouds 10 1009 79 0 0.45 340 11:20 13.05.2020
3280 Clouds 10 1008 77 0 2.73 349 10:59 13.05.2020
3281 Clouds 10 1008 75 0 2.73 349 10:39 13.05.2020
3282 Clouds 9 1008 77 0 0.45 328 10:20 13.05.2020
3283 Clouds 9 1008 79 0 2.29 330 09:57 13.05.2020
3284 Clouds 8 1008 78 0 0.45 340 09:38 13.05.2020
3285 Clouds 8 1009 80 0 1.45 352 09:20 13.05.2020
3286 Clouds 9 1010 78 0 1.45 352 08:40 13.05.2020
3287 Clouds 9 1010 80 0 1.12 326 08:21 13.05.2020
3288 Clouds 8 1010 82 0 1.12 326 07:59 13.05.2020
3289 Clouds 8 1010 82 0 1.12 326 07:59 13.05.2020
3290 Clouds 8 1010 83 0 1.12 326 07:36 13.05.2020
3291 Clouds 7 1010 83 0 0.39 354 06:58 13.05.2020
3292 Clouds 7 1010 82 0 0.39 354 06:40 13.05.2020
3293 Clouds 7 1011 81 0 0.55 126 05:50 13.05.2020
3294 Clouds 7 1010 80 0 0.97 112 04:22 13.05.2020
3295 Clouds 7 1012 80 0 1.07 131 02:58 13.05.2020
3296 Clouds 8 1011 76 0 0.94 128 02:20 13.05.2020
3297 Clouds 7 1011 83 0 1.33 124 01:21 13.05.2020
3298 Clouds 7 1011 82 0 1.33 124 00:39 13.05.2020
3299 Clouds 7 1012 81 0 1.46 115 00:18 13.05.2020
3300 Clouds 7 1012 81 0 1.46 115 23:39 12.05.2020
3301 Clouds 8 1012 81 0 1.34 120 23:21 12.05.2020
3302 Clouds 8 1012 81 0 1.34 120 22:57 12.05.2020
3303 Clouds 8 1012 80 0 1.34 120 22:38 12.05.2020
3304 Clouds 8 1009 92 0 1.28 112 22:19 12.05.2020
3305 Clouds 10 1009 92 0 1.28 112 21:54 12.05.2020
3306 Clouds 10 1013 72 0 1.28 112 21:36 12.05.2020
3307 Clouds 10 1012 59 0 0.71 117 21:18 12.05.2020
3308 Clouds 10 1012 57 0 1.01 110 20:56 12.05.2020
3309 Clouds 10 1011 66 0 1.01 110 20:37 12.05.2020
3310 Clouds 11 1012 54 0 1.12 35 20:19 12.05.2020
3311 Clouds 11 1012 51 0 1.12 35 19:54 12.05.2020
3312 Clouds 12 1012 50 0 0.45 327 19:36 12.05.2020
3313 Clouds 12 1012 49 0 2.21 8 19:18 12.05.2020
3314 Clouds 12 1012 48 0 3.13 295 18:41 12.05.2020
3315 Clouds 13 1012 49 0 2.68 36 18:23 12.05.2020
3316 Clouds 14 1012 49 0 4.47 348 17:54 12.05.2020
3317 Clouds 13 1013 56 0 2.73 1 17:36 12.05.2020
3318 Clouds 14 1012 47 0 2.68 313 17:18 12.05.2020
3319 Clouds 14 1013 46 0 2.68 341 16:42 12.05.2020
3320 Clouds 14 1013 44 0 3.13 334 16:21 12.05.2020
3321 Clouds 13 1014 58 0 2.72 3 15:55 12.05.2020
3322 Clouds 13 1014 58 0 2.72 3 15:55 12.05.2020
3323 Clouds 13 1014 56 0 0.45 23 15:36 12.05.2020
3324 Clouds 13 1016 53 0 3.13 46 15:18 12.05.2020
3325 Clouds 12 1016 53 0 2.68 32 14:55 12.05.2020
3326 Clouds 12 1015 57 0 1.79 23 14:36 12.05.2020
3327 Clouds 12 1015 59 0 1.34 23 14:18 12.05.2020
3328 Clouds 11 1015 59 0 1.34 23 13:54 12.05.2020
3329 Clouds 11 1015 58 0 2.68 23 13:36 12.05.2020
3330 Clouds 11 1013 41 0 1.79 315 13:18 12.05.2020
3331 Clouds 11 1014 56 0 0.45 355 12:55 12.05.2020
3332 Clouds 11 1014 64 0 2.55 37 12:37 12.05.2020
3333 Rain 9 1016 63 0 1.34 23 12:18 12.05.2020
3334 Clouds 9 1018 56 0 3.58 129 11:56 12.05.2020
3335 Rain 9 1015 62 0 1.79 117 11:37 12.05.2020
3336 Clouds 8 1015 65 0 0.89 38 11:19 12.05.2020
3337 Clouds 8 1016 63 0 1.34 125 10:54 12.05.2020
3338 Clouds 8 1016 67 0 1.34 103 10:36 12.05.2020
3339 Clouds 7 1016 68 0 1.34 130 10:18 12.05.2020
3340 Rain 7 1016 60 0 0.45 57 09:55 12.05.2020
3341 Rain 7 1016 61 0 1.34 30 09:37 12.05.2020
3342 Clear 5 1018 70 10000 4.6 20 09:18 12.05.2020
3343 Clear 4 1012 94 0 0.89 283 08:39 12.05.2020
3344 Clouds 3 1012 94 0 0.89 284 08:20 12.05.2020
3345 Clouds 3 1011 95 0 1.34 289 07:44 12.05.2020
3346 Rain 2 1015 94 0 0.89 101 07:26 12.05.2020
3347 Clouds 2 1015 94 0 2.63 74 06:56 12.05.2020
3348 Clouds 2 1014 94 0 2.63 74 06:37 12.05.2020
3349 Clouds 2 1014 93 0 2.46 76 06:18 12.05.2020
3350 Clouds 2 1014 93 0 2.46 76 05:44 12.05.2020
3351 Clouds 2 1013 95 0 2.41 75 03:49 12.05.2020
3352 Clouds 3 1013 95 0 0.89 45 02:58 12.05.2020
3353 Clouds 3 1014 95 0 2.82 60 02:26 12.05.2020
3354 Clouds 4 1014 95 0 3.73 62 01:33 12.05.2020
3355 Clouds 5 1014 95 0 4.17 37 00:57 12.05.2020
3356 Clouds 4 1013 95 0 3.89 29 00:23 12.05.2020
3357 Rain 4 1013 95 0 3.89 29 23:56 11.05.2020
3358 Rain 4 1013 95 0 3.89 29 23:37 11.05.2020
3359 Rain 4 1012 95 0 4.22 31 23:19 11.05.2020
3360 Rain 4 1012 95 0 0.45 330 22:55 11.05.2020
3361 Rain 4 1012 95 0 0.45 343 22:37 11.05.2020
3362 Rain 4 1011 95 0 0.45 44 22:19 11.05.2020
3363 Rain 4 1011 95 0 0.45 17 21:54 11.05.2020
3364 Rain 4 1010 95 0 0.45 357 21:36 11.05.2020
3365 Rain 4 1010 95 0 0.89 336 21:18 11.05.2020
3366 Rain 4 1009 95 0 0.89 13 20:42 11.05.2020
3367 Rain 4 1009 95 0 1.34 357 20:21 11.05.2020
3368 Rain 4 1008 94 0 1.34 335 19:59 11.05.2020
3369 Rain 4 1008 94 0 1.79 357 19:41 11.05.2020
3370 Rain 4 1008 94 0 1.79 331 19:22 11.05.2020
3371 Rain 4 1007 94 0 2.68 76 18:57 11.05.2020
3372 Rain 4 1007 94 0 1.34 2 18:38 11.05.2020
3373 Rain 4 1006 94 0 1.79 330 18:19 11.05.2020
3374 Rain 4 1006 94 0 2.24 321 17:57 11.05.2020
3375 Rain 4 1005 94 0 1.79 311 17:39 11.05.2020
3376 Rain 4 1005 94 0 1.34 335 17:20 11.05.2020
3377 Rain 4 1005 94 0 3.13 7 16:56 11.05.2020
3378 Rain 5 1004 94 0 1.79 28 16:37 11.05.2020
3379 Rain 5 1004 94 0 2.24 339 16:19 11.05.2020
3380 Rain 5 1003 94 0 1.79 2 15:42 11.05.2020
3381 Rain 5 1003 94 0 0.89 314 15:20 11.05.2020
3382 Rain 5 1002 94 0 1.34 336 14:59 11.05.2020
3383 Rain 5 1002 94 0 0.45 357 14:41 11.05.2020
3384 Rain 5 1002 93 0 1.79 357 14:22 11.05.2020
3385 Rain 5 1001 93 0 1.79 306 13:55 11.05.2020
3386 Rain 5 1001 93 0 1.79 306 13:55 11.05.2020
3387 Rain 5 1001 93 0 1.79 7 13:37 11.05.2020
3388 Rain 7 1001 93 0 0.45 348 13:18 11.05.2020
3389 Rain 8 1000 93 0 0.45 331 12:55 11.05.2020
3390 Rain 9 999 93 0 3.13 331 12:37 11.05.2020
3391 Rain 10 1000 90 0 2.24 315 12:19 11.05.2020
3392 Rain 10 997 93 0 3.13 352 11:41 11.05.2020
3393 Rain 11 999 98 0 4.47 101 11:22 11.05.2020
3394 Rain 11 996 93 0 2.24 17 10:58 11.05.2020
3395 Rain 12 996 93 0 1.34 331 10:40 11.05.2020
3396 Rain 12 995 93 0 2.68 36 10:21 11.05.2020
3397 Rain 13 995 93 0 4.02 308 09:58 11.05.2020
3398 Rain 14 995 93 0 2.24 357 09:39 11.05.2020
3399 Rain 14 995 93 0 3.13 357 09:19 11.05.2020
3400 Rain 14 995 94 0 2.36 8 08:55 11.05.2020
3401 Rain 14 995 94 0 1.79 350 08:37 11.05.2020
3402 Rain 14 995 94 0 2.35 14 08:18 11.05.2020
3403 Rain 14 995 93 0 2.35 14 07:42 11.05.2020
3404 Rain 14 995 93 0 1.7 12 07:23 11.05.2020
3405 Rain 15 995 91 0 0.45 319 06:41 11.05.2020
3406 Clouds 15 997 91 0 1.79 15 05:58 11.05.2020
3407 Clouds 15 997 89 0 1.79 12 05:25 11.05.2020
3408 Clouds 15 998 86 0 0.89 47 04:31 11.05.2020
3409 Clouds 16 1000 80 0 0.11 254 02:59 11.05.2020
3410 Clouds 16 998 73 0 1.31 48 02:29 11.05.2020
3411 Clouds 16 999 72 0 1.31 48 01:40 11.05.2020
3412 Rain 18 1002 78 0 1.19 98 00:53 11.05.2020
3413 Rain 18 1003 78 0 1.5 94 00:20 11.05.2020
3414 Rain 17 1002 84 0 0.45 218 23:44 10.05.2020
3415 Clouds 16 1004 79 0 1.79 333 23:26 10.05.2020
3416 Clouds 16 1004 80 0 1.32 99 22:57 10.05.2020
3417 Clouds 16 1004 80 0 0.45 338 22:38 10.05.2020
3418 Clouds 17 1003 66 0 1.83 102 22:20 10.05.2020
3419 Clouds 18 1002 59 0 1.83 102 21:44 10.05.2020
3420 Clouds 19 1003 65 0 2 69 21:20 10.05.2020
3421 Clouds 19 1003 65 0 1.74 91 20:56 10.05.2020
3422 Clouds 19 1000 66 0 0.89 89 20:38 10.05.2020
3423 Clouds 21 1003 62 0 0.95 75 20:19 10.05.2020
3424 Clouds 22 1003 62 0 0.95 75 19:41 10.05.2020
3425 Clouds 23 1003 59 0 0.5 295 19:23 10.05.2020
3426 Clouds 24 1005 60 0 1.34 311 18:57 10.05.2020
3427 Clouds 24 1002 47 0 1.79 278 18:38 10.05.2020
3428 Rain 24 1002 45 0 1.34 305 18:19 10.05.2020
3429 Rain 25 1002 46 0 1.79 190 17:59 10.05.2020
3430 Rain 23 1003 47 0 0.45 239 17:41 10.05.2020
3431 Rain 23 1002 54 0 0.45 269 17:22 10.05.2020
3432 Rain 23 1003 56 0 0.45 107 16:59 10.05.2020
3433 Rain 23 1005 49 0 2.05 239 16:41 10.05.2020
3434 Rain 23 1003 56 0 2.49 244 16:19 10.05.2020
3435 Rain 23 1004 47 0 4.02 262 15:55 10.05.2020
3436 Rain 23 1003 55 0 0.45 261 15:36 10.05.2020
3437 Clouds 22 1003 61 0 2.29 245 15:18 10.05.2020
3438 Clouds 22 1004 47 0 2.24 281 14:55 10.05.2020
3439 Clouds 23 1006 48 0 2.44 262 14:37 10.05.2020
3440 Clouds 21 1004 65 0 0.45 99 14:18 10.05.2020
3441 Clouds 21 1005 66 0 0.45 247 13:55 10.05.2020
3442 Clouds 21 1005 66 0 0.45 247 13:36 10.05.2020
3443 Clouds 22 1005 46 0 2.68 157 13:18 10.05.2020
3444 Clouds 21 1007 57 0 0.89 180 12:41 10.05.2020
3445 Clouds 21 1007 58 0 0.89 180 12:21 10.05.2020
3446 Clouds 21 1007 62 0 0.45 158 11:58 10.05.2020
3447 Clouds 20 1004 62 0 4.56 222 11:40 10.05.2020
3448 Clouds 20 1004 62 0 4.56 222 11:40 10.05.2020
3449 Clouds 20 1007 63 0 3.93 211 11:21 10.05.2020
3450 Clouds 20 1004 66 0 0.45 234 10:54 10.05.2020
3451 Clouds 20 1004 66 0 0.45 234 10:54 10.05.2020
3452 Clouds 20 1004 66 0 0.45 223 10:36 10.05.2020
3453 Clouds 19 1008 63 0 3.1 200 10:18 10.05.2020
3454 Clouds 18 1005 62 0 0.89 175 09:41 10.05.2020
3455 Clouds 16 1005 95 0 2.44 239 09:23 10.05.2020
3456 Clouds 16 1005 83 0 2.44 239 08:57 10.05.2020
3457 Clouds 16 1005 83 0 2.44 239 08:39 10.05.2020
3458 Clouds 16 1005 84 0 1.39 205 08:20 10.05.2020
3459 Rain 15 1005 86 0 0.45 84 07:40 10.05.2020
3460 Rain 15 1005 86 0 1.98 187 07:19 10.05.2020
3461 Clouds 15 1005 85 0 1.98 187 06:50 10.05.2020
3462 Rain 15 1005 86 0 1.88 173 06:24 10.05.2020
3463 Rain 15 1005 86 0 1.88 173 05:45 10.05.2020
3464 Rain 15 1005 85 0 2.11 165 04:45 10.05.2020
3465 Clouds 15 1005 84 0 2.1 172 04:25 10.05.2020
3466 Rain 15 1005 81 0 2.1 172 03:47 10.05.2020
3467 Clouds 15 1008 77 0 1.81 170 02:59 10.05.2020
3468 Clouds 15 1008 76 0 1.99 161 02:25 10.05.2020
3469 Clouds 14 1010 89 0 1.91 149 01:59 10.05.2020
3470 Clouds 15 1010 87 0 1.91 149 01:39 10.05.2020
3471 Clouds 15 1010 83 0 1.92 157 01:18 10.05.2020
3472 Clouds 15 1009 75 0 1.92 157 00:52 10.05.2020
3473 Clouds 15 1010 73 0 1.89 144 00:22 10.05.2020
3474 Clouds 15 1011 72 0 1.89 144 23:40 09.05.2020
3475 Clouds 15 1011 71 0 1.84 177 23:22 09.05.2020
3476 Clouds 15 1010 70 0 1.84 177 22:59 09.05.2020
3477 Clouds 16 1009 63 10000 3.1 360 22:41 09.05.2020
3478 Clouds 18 1009 63 10000 3.1 360 22:22 09.05.2020
3479 Clouds 20 1009 59 10000 2.6 20 21:57 09.05.2020
3480 Clouds 19 1008 57 0 2.24 22 21:39 09.05.2020
3481 Clouds 19 1006 58 0 1.33 159 21:20 09.05.2020
3482 Clouds 20 1006 57 0 1.15 124 20:57 09.05.2020
3483 Clouds 20 1006 56 0 1.15 124 20:38 09.05.2020
3484 Clouds 21 1006 54 0 0.85 30 20:19 09.05.2020
3485 Clouds 23 1006 52 0 0.85 30 19:55 09.05.2020
3486 Clouds 23 1006 50 0 0.45 315 19:37 09.05.2020
3487 Clear 24 1006 48 0 2.24 30 19:18 09.05.2020
3488 Clear 23 1009 50 0 0.45 45 18:42 09.05.2020
3489 Clear 23 1009 50 0 0.45 45 18:42 09.05.2020
3490 Clear 24 1009 48 0 1.34 45 18:21 09.05.2020
3491 Clear 24 1006 41 0 0.45 222 17:45 09.05.2020
3492 Clear 24 1008 35 0 1.79 177 17:23 09.05.2020
3493 Clear 24 1009 35 0 2.68 225 16:57 09.05.2020
3494 Clear 24 1007 40 0 0.45 67 16:38 09.05.2020
3495 Clear 25 1009 37 0 2.24 223 16:18 09.05.2020
3496 Clear 25 1009 36 0 2.24 246 15:43 09.05.2020
3497 Clear 24 1009 48 0 0.89 133 15:22 09.05.2020
3498 Clear 23 1010 35 0 3.13 214 14:56 09.05.2020
3499 Clear 23 1009 54 0 1.34 187 14:37 09.05.2020
3500 Clouds 23 1009 56 0 0.45 270 14:18 09.05.2020
3501 Clouds 23 1009 59 0 0.89 98 13:56 09.05.2020
3502 Clouds 23 1009 59 0 0.89 98 13:38 09.05.2020
3503 Clouds 22 1009 60 0 0.89 291 13:18 09.05.2020
3504 Clouds 22 1010 61 0 0.89 205 12:41 09.05.2020
3505 Clouds 21 1010 62 0 0.45 138 12:22 09.05.2020
3506 Clouds 20 1013 42 0 1.34 203 11:45 09.05.2020
3507 Clouds 20 1011 61 0 0.45 131 11:20 09.05.2020
3508 Clouds 20 1013 46 0 1.34 180 10:56 09.05.2020
3509 Clouds 20 1013 47 0 0.89 203 10:38 09.05.2020
3510 Clouds 20 1013 48 0 1.34 203 10:20 09.05.2020
3511 Clouds 19 1013 45 0 3.58 224 09:55 09.05.2020
3512 Clouds 17 1014 52 0 1.34 203 09:37 09.05.2020
3513 Clouds 17 1014 52 0 0.45 203 09:18 09.05.2020
3514 Clouds 17 1014 54 0 0.45 203 08:48 09.05.2020
3515 Clouds 15 1011 74 0 1.92 219 08:30 09.05.2020
3516 Clouds 15 1011 73 0 1.38 186 07:48 09.05.2020
3517 Clouds 15 1011 73 0 1.38 186 07:30 09.05.2020
3518 Clouds 14 1011 74 0 1.43 168 06:47 09.05.2020
3519 Clouds 14 1011 74 0 1.35 147 06:22 09.05.2020
3520 Clouds 14 1011 74 0 1.35 147 05:45 09.05.2020
3521 Clouds 15 1011 74 0 1.6 175 03:44 09.05.2020
3522 Clouds 15 1012 71 0 1.73 180 03:22 09.05.2020
3523 Clouds 15 1011 68 0 1.94 139 02:30 09.05.2020
3524 Clouds 15 1010 68 0 1.7 140 01:52 09.05.2020
3525 Rain 15 1011 68 0 0.45 111 01:23 09.05.2020
3526 Rain 16 1011 67 0 0.89 119 00:50 09.05.2020
3527 Rain 16 1011 67 0 0.89 119 00:31 09.05.2020
3528 Rain 16 1016 71 0 2.08 149 23:49 08.05.2020
3529 Rain 16 1016 71 0 2.08 149 23:29 08.05.2020
3530 Rain 16 1014 59 10000 4.1 270 22:59 08.05.2020
3531 Rain 17 1014 55 10000 2.6 270 22:40 08.05.2020
3532 Rain 17 1014 62 0 1.99 135 22:19 08.05.2020
3533 Rain 18 1014 49 10000 2.1 330 21:59 08.05.2020
3534 Rain 20 1014 46 10000 2.1 10 21:40 08.05.2020
3535 Clouds 20 1014 59 0 1.21 159 21:19 08.05.2020
3536 Clouds 20 1011 54 0 0.89 89 20:58 08.05.2020
3537 Clouds 20 1011 54 0 0.89 89 20:40 08.05.2020
3538 Clouds 22 1014 56 0 0.99 190 20:21 08.05.2020
3539 Clouds 23 1014 53 0 0.99 190 19:45 08.05.2020
3540 Clouds 23 1014 50 0 0.6 200 19:24 08.05.2020
3541 Clouds 23 1016 54 0 0.45 299 18:58 08.05.2020
3542 Clouds 23 1016 34 0 2.24 157 18:40 08.05.2020
3543 Clouds 23 1011 44 0 0.45 128 18:22 08.05.2020
3544 Clouds 24 1012 47 0 0.89 98 17:42 08.05.2020
3545 Clouds 25 1012 49 0 0.89 226 17:19 08.05.2020
3546 Clouds 25 1013 49 0 0.45 280 16:48 08.05.2020
3547 Clouds 25 1013 51 0 0.45 121 16:27 08.05.2020
3548 Clouds 24 1013 51 0 0.45 121 15:59 08.05.2020
3549 Clouds 24 1013 51 0 0.45 132 15:41 08.05.2020
3550 Clouds 24 1013 53 0 1.69 248 15:19 08.05.2020
3551 Clouds 23 1013 55 0 1.69 248 14:55 08.05.2020
3552 Clouds 23 1013 55 0 1.87 263 14:37 08.05.2020
3553 Clouds 23 1014 55 0 0.45 335 14:18 08.05.2020
3554 Clouds 23 1014 53 0 0.45 122 13:41 08.05.2020
3555 Clouds 23 1018 36 0 2.24 112 13:20 08.05.2020
3556 Clouds 22 1015 55 0 0.89 97 12:56 08.05.2020
3557 Clouds 20 1014 56 0 0.89 122 12:38 08.05.2020
3558 Clouds 20 1014 56 0 0.89 122 12:20 08.05.2020
3559 Clouds 19 1015 61 0 0.45 267 11:44 08.05.2020
3560 Clouds 20 1018 50 0 1.79 180 11:23 08.05.2020
3561 Clouds 20 1016 47 0 0.45 200 10:59 08.05.2020
3562 Clouds 19 1016 49 0 2.11 268 10:40 08.05.2020
3563 Clouds 19 1016 52 0 1.78 264 10:19 08.05.2020
3564 Clouds 18 1017 53 0 1.78 264 09:56 08.05.2020
3565 Clouds 18 1019 55 0 0.89 180 09:38 08.05.2020
3566 Clouds 15 1016 70 0 1.04 272 09:18 08.05.2020
3567 Clouds 13 1017 62 0 1.04 272 08:42 08.05.2020
3568 Clouds 13 1017 63 0 0.23 190 08:22 08.05.2020
3569 Clouds 11 1017 65 0 0.23 190 07:43 08.05.2020
3570 Clouds 11 1017 65 0 0.99 136 07:25 08.05.2020
3571 Clouds 10 1017 65 0 0.99 136 06:51 08.05.2020
3572 Clouds 10 1017 62 0 0.99 167 06:24 08.05.2020
3573 Clouds 10 1017 59 0 0.99 167 05:52 08.05.2020
3574 Clouds 11 1017 60 0 1.26 144 04:41 08.05.2020
3575 Clouds 11 1016 62 0 0.45 111 02:35 08.05.2020
3576 Clouds 11 1016 59 0 1.52 148 01:56 08.05.2020
3577 Clouds 11 1017 59 0 0.45 134 01:28 08.05.2020
3578 Clouds 11 1017 57 0 1.95 147 00:58 08.05.2020
3579 Clouds 11 1017 57 0 1.95 147 00:39 08.05.2020
3580 Clouds 12 1017 55 0 1.64 149 00:21 08.05.2020
3581 Clouds 12 1017 57 0 0.45 89 23:42 07.05.2020
3582 Clouds 12 1017 57 0 0.45 105 23:23 07.05.2020
3583 Clouds 12 1017 57 0 0.45 105 23:23 07.05.2020
3584 Clouds 12 1016 56 0 0.45 111 22:57 07.05.2020
3585 Clouds 12 1016 56 0 0.45 111 22:57 07.05.2020
3586 Clouds 12 1016 56 0 0.45 111 22:39 07.05.2020
3587 Clouds 12 1016 55 0 1.99 130 22:20 07.05.2020
3588 Clouds 14 1017 55 0 0.89 111 21:56 07.05.2020
3589 Clouds 15 1017 55 0 0.89 111 21:37 07.05.2020
3590 Clouds 15 1018 69 0 0.93 113 21:19 07.05.2020
3591 Clouds 15 1017 54 0 0.45 89 20:55 07.05.2020
3592 Clouds 15 1017 54 0 0.45 89 20:36 07.05.2020
3593 Clear 16 1017 56 0 0.7 47 20:18 07.05.2020
3594 Clear 17 1017 47 0 0.7 47 19:43 07.05.2020
3595 Clouds 19 1017 40 0 1.03 33 19:21 07.05.2020
3596 Clouds 22 1019 19 10000 1 0 18:46 07.05.2020
3597 Clouds 21 1020 17 10000 0.5 110 18:28 07.05.2020
3598 Clouds 20 1020 18 10000 1.5 60 17:58 07.05.2020
3599 Clouds 20 1020 12 10000 1.5 0 17:37 07.05.2020
3600 Clouds 21 1020 12 10000 1.5 0 17:19 07.05.2020
3601 Clouds 20 1017 50 0 0.45 201 16:42 07.05.2020
3602 Clouds 21 1021 15 10000 2.1 80 16:19 07.05.2020
3603 Clouds 20 1018 51 0 1.58 355 15:57 07.05.2020
3604 Clouds 20 1018 51 0 1.58 355 15:37 07.05.2020
3605 Clouds 20 1022 39 0 2.2 329 15:18 07.05.2020
3606 Clouds 20 1022 39 0 0.45 90 14:55 07.05.2020
3607 Clouds 20 1022 39 0 0.45 90 14:37 07.05.2020
3608 Clear 19 1023 40 0 2.13 331 14:18 07.05.2020
3609 Clear 19 1023 44 0 2.13 331 13:41 07.05.2020
3610 Clear 19 1023 44 0 2.1 322 13:22 07.05.2020
3611 Clear 18 1021 46 0 2.24 232 12:43 07.05.2020
3612 Clear 17 1023 47 0 0.45 90 12:20 07.05.2020
3613 Clear 17 1023 47 0 1.91 313 12:20 07.05.2020
3614 Clear 16 1023 50 0 0.89 45 11:54 07.05.2020
3615 Clear 16 1026 51 0 1.91 313 11:36 07.05.2020
3616 Clear 14 1026 52 0 1.79 305 11:18 07.05.2020
3617 Clear 14 1021 50 0 1.79 305 10:40 07.05.2020
3618 Clear 13 1021 51 0 0.7 320 10:20 07.05.2020
3619 Clear 12 1022 59 0 0.7 320 09:41 07.05.2020
3620 Clear 9 1024 46 10000 1 0 09:20 07.05.2020
3621 Clear 9 1022 61 0 0.31 277 08:56 07.05.2020
3622 Clear 8 1022 63 0 0.31 277 08:38 07.05.2020
3623 Clear 7 1022 66 0 0.52 166 08:19 07.05.2020
3624 Clear 7 1022 69 0 0.52 166 07:44 07.05.2020
3625 Clear 6 1022 75 0 1.34 130 07:25 07.05.2020
3626 Clear 5 1022 73 0 1.34 130 06:48 07.05.2020
3627 Clear 5 1024 83 0 1.46 121 06:24 07.05.2020
3628 Clear 5 1019 62 0 0.45 114 05:32 07.05.2020
3629 Clear 5 1021 81 0 1.42 119 03:55 07.05.2020
3630 Clear 6 1021 81 0 1.53 115 03:25 07.05.2020
3631 Clear 6 1019 64 0 1.53 115 02:53 07.05.2020
3632 Clear 7 1019 62 0 1.62 118 01:45 07.05.2020
3633 Clear 7 1024 73 0 1.92 123 01:24 07.05.2020
3634 Clear 7 1019 62 0 0.45 118 00:47 07.05.2020
3635 Clear 8 1018 61 0 0.45 126 00:28 07.05.2020
3636 Clear 8 1024 65 0 0.89 148 23:57 06.05.2020
3637 Clear 9 1022 61 0 2.28 124 23:38 06.05.2020
3638 Clear 9 1022 58 0 2.51 127 23:19 06.05.2020
3639 Clear 9 1022 57 0 2.51 127 22:54 06.05.2020
3640 Clear 8 1019 62 0 2.51 127 22:36 06.05.2020
3641 Clear 9 1022 56 0 2.27 116 22:18 06.05.2020
3642 Clear 9 1019 61 0 2.27 116 21:42 06.05.2020
3643 Clear 11 1020 67 0 2.03 84 21:22 06.05.2020
3644 Clear 12 1022 45 0 2.09 85 20:56 06.05.2020
3645 Clear 12 1018 57 0 2.09 85 20:37 06.05.2020
3646 Clear 14 1020 37 0 0.45 7 20:19 06.05.2020
3647 Clear 15 1019 44 0 2.12 30 19:56 06.05.2020
3648 Clear 15 1021 41 0 2.12 30 19:37 06.05.2020
3649 Clear 16 1021 42 0 0.45 45 19:18 06.05.2020
3650 Clear 17 1021 42 0 3.03 7 18:55 06.05.2020
3651 Clear 16 1021 43 0 0.45 45 18:36 06.05.2020
3652 Clear 17 1021 41 0 0.45 45 18:18 06.05.2020
3653 Clear 17 1021 40 0 0.89 68 17:54 06.05.2020
3654 Clear 17 1021 40 0 0.45 68 17:36 06.05.2020
3655 Clear 17 1021 40 0 0.89 68 17:18 06.05.2020
3656 Clear 17 1021 42 0 0.45 68 16:56 06.05.2020
3657 Clear 17 1021 42 0 0.45 68 16:38 06.05.2020
3658 Clouds 17 1021 47 0 0.89 68 16:19 06.05.2020
3659 Clouds 16 1021 48 0 0.45 90 15:45 06.05.2020
3660 Clouds 16 1021 49 0 0.45 113 15:22 06.05.2020
3661 Clouds 16 1021 50 0 2.22 333 14:56 06.05.2020
3662 Clouds 15 1021 50 0 2.22 333 14:38 06.05.2020
3663 Clouds 15 1021 54 0 0.45 45 14:19 06.05.2020
3664 Clouds 16 1018 46 0 1.91 325 13:57 06.05.2020
3665 Clouds 16 1018 50 0 1.91 325 13:37 06.05.2020
3666 Clouds 14 1021 64 0 1.74 339 13:19 06.05.2020
3667 Clouds 15 1019 54 0 1.79 234 12:42 06.05.2020
3668 Clouds 14 1022 62 0 1.79 132 12:24 06.05.2020
3669 Clouds 12 1021 78 0 0.45 23 11:42 06.05.2020
3670 Clouds 13 1017 63 0 1.19 11 11:23 06.05.2020
3671 Clouds 12 1020 60 0 1.19 11 10:58 06.05.2020
3672 Clouds 11 1020 65 0 1.19 11 10:39 06.05.2020
3673 Clouds 10 1020 68 0 1.01 60 10:20 06.05.2020
3674 Clouds 11 1020 69 0 1.01 60 09:59 06.05.2020
3675 Clouds 10 1020 70 0 1.01 60 09:38 06.05.2020
3676 Clouds 9 1020 71 0 0.94 64 09:20 06.05.2020
3677 Clouds 9 1019 73 0 0.94 64 08:44 06.05.2020
3678 Clouds 9 1019 73 0 1.07 62 08:20 06.05.2020
3679 Clouds 9 1019 74 0 1.07 62 07:56 06.05.2020
3680 Clouds 8 1019 74 0 1.07 62 07:38 06.05.2020
3681 Clouds 8 1019 73 0 0.98 77 07:19 06.05.2020
3682 Clouds 8 1018 76 0 0.98 77 06:46 06.05.2020
3683 Clouds 8 1018 77 0 1.03 71 06:21 06.05.2020
3684 Clouds 8 1018 77 0 1.03 71 06:21 06.05.2020
3685 Clouds 9 1018 76 0 1.03 71 05:50 06.05.2020
3686 Clouds 9 1018 76 0 0.94 58 05:32 06.05.2020
3687 Clouds 10 1018 86 0 0.77 55 03:55 06.05.2020
3688 Clouds 10 1018 86 0 0.77 55 03:34 06.05.2020
3689 Clouds 10 1017 89 0 0.86 65 02:58 06.05.2020
3690 Clouds 11 1017 89 0 1.17 65 02:28 06.05.2020
3691 Clouds 11 1018 89 0 1.17 65 01:53 06.05.2020
3692 Clouds 10 1019 92 0 0.98 63 01:27 06.05.2020
3693 Rain 10 1019 91 0 0.98 63 00:45 06.05.2020
3694 Clouds 11 1019 91 0 0.86 71 00:23 06.05.2020
3695 Rain 11 1018 91 0 0.86 71 23:42 05.05.2020
3696 Rain 11 1018 91 0 0.78 124 23:20 05.05.2020
3697 Rain 11 1018 90 0 0.45 23 22:57 05.05.2020
3698 Clouds 11 1018 90 0 0.78 124 22:39 05.05.2020
3699 Clouds 11 1018 90 0 0.66 161 22:19 05.05.2020
3700 Clouds 11 1017 90 0 0.66 161 21:55 05.05.2020
3701 Clouds 12 1017 89 0 0.66 161 21:37 05.05.2020
3702 Rain 12 1017 88 0 1.26 97 21:19 05.05.2020
3703 Rain 12 1017 88 0 1.26 97 20:56 05.05.2020
3704 Rain 12 1016 88 0 1.26 97 20:37 05.05.2020
3705 Rain 12 1016 89 0 1.13 342 20:18 05.05.2020
3706 Rain 11 1016 89 0 1.13 342 19:42 05.05.2020
3707 Rain 11 1016 89 0 0.55 7 19:23 05.05.2020
3708 Rain 12 1016 89 0 0.55 7 18:57 05.05.2020
3709 Rain 12 1016 89 0 0.55 7 18:39 05.05.2020
3710 Rain 12 1016 89 0 0.96 44 18:20 05.05.2020
3711 Rain 12 1016 90 0 0.96 44 17:57 05.05.2020
3712 Rain 12 1013 80 0 0.89 77 17:39 05.05.2020
3713 Rain 12 1016 91 0 0.93 351 17:21 05.05.2020
3714 Rain 12 1016 91 0 0.93 351 16:55 05.05.2020
3715 Rain 13 1016 92 0 0.93 351 16:36 05.05.2020
3716 Rain 12 1016 92 0 0.54 14 16:18 05.05.2020
3717 Rain 12 1016 93 0 0.54 14 15:41 05.05.2020
3718 Rain 12 1015 84 0 0.85 7 15:22 05.05.2020
3719 Rain 12 1015 84 0 0.85 7 15:22 05.05.2020
3720 Rain 12 1015 85 0 0.85 7 14:57 05.05.2020
3721 Rain 12 1014 87 0 0.85 7 14:38 05.05.2020
3722 Clouds 12 1014 88 0 0.89 346 14:20 05.05.2020
3723 Rain 11 1015 90 0 1.63 19 13:58 05.05.2020
3724 Rain 11 1014 91 0 1.63 19 13:39 05.05.2020
3725 Rain 10 1014 91 0 2.33 356 13:20 05.05.2020
3726 Rain 10 1015 91 0 2.33 356 12:58 05.05.2020
3727 Rain 10 1015 91 0 0.89 7 12:38 05.05.2020
3728 Rain 10 1015 91 0 1.67 23 12:19 05.05.2020
3729 Rain 10 1014 90 0 1.67 23 11:42 05.05.2020
3730 Rain 10 1014 89 0 1.43 345 11:21 05.05.2020
3731 Rain 11 1014 87 0 1.43 345 10:59 05.05.2020
3732 Clouds 10 1014 87 0 1.43 345 10:39 05.05.2020
3733 Clouds 10 1014 87 0 1.81 349 10:19 05.05.2020
3734 Clouds 10 1014 85 0 0.45 345 09:58 05.05.2020
3735 Clouds 10 1014 84 0 1.81 349 09:40 05.05.2020
3736 Rain 10 1014 84 0 0.45 327 09:22 05.05.2020
3737 Rain 10 1013 84 0 0.89 319 08:41 05.05.2020
3738 Rain 10 1014 84 0 0.92 355 08:20 05.05.2020
3739 Rain 10 1014 84 0 0.92 355 07:57 05.05.2020
3740 Rain 10 1014 84 0 0.92 355 07:38 05.05.2020
3741 Clouds 10 1014 85 0 0.58 310 07:18 05.05.2020
3742 Clouds 10 1013 86 0 0.58 310 06:45 05.05.2020
3743 Clouds 10 1013 86 0 0.7 26 06:21 05.05.2020
3744 Clouds 10 1013 86 0 0.7 26 05:36 05.05.2020
3745 Clouds 10 1013 86 0 1.06 32 03:35 05.05.2020
3746 Clouds 11 1015 80 0 0.97 47 01:42 05.05.2020
3747 Clouds 13 1015 81 0 1.03 58 00:52 05.05.2020
3748 Clouds 13 1014 79 0 0.45 11 00:21 05.05.2020
3749 Clouds 12 1016 85 0 1.04 64 23:45 04.05.2020
3750 Clouds 12 1016 85 0 1.04 64 23:45 04.05.2020
3751 Clouds 12 1016 84 0 0.45 325 23:21 04.05.2020
3752 Clouds 12 1016 83 0 1.79 321 22:56 04.05.2020
3753 Clouds 13 1016 63 10000 4.6 20 22:38 04.05.2020
3754 Clouds 13 1016 82 0 0.89 329 22:19 04.05.2020
3755 Clouds 13 1015 59 10000 5.1 30 21:54 04.05.2020
3756 Clouds 14 1015 64 0 3.13 18 21:34 04.05.2020
3757 Clouds 17 1014 61 0 1.34 90 20:56 04.05.2020
3758 Clouds 16 1015 72 0 1.63 56 20:38 04.05.2020
3759 Clouds 16 1015 73 0 1.63 56 20:38 04.05.2020
3760 Clouds 16 1015 73 0 1.63 56 20:38 04.05.2020
3761 Clouds 16 1015 72 0 1.63 56 20:38 04.05.2020
3762 Clouds 16 1015 72 0 1.63 56 20:38 04.05.2020
3763 Clouds 16 1015 64 0 0.89 23 20:18 04.05.2020
3764 Clouds 19 1014 49 10000 4.1 340 19:42 04.05.2020
3765 Rain 18 1014 55 0 3.13 61 19:21 04.05.2020
3766 Rain 19 1015 58 0 2.51 13 18:57 04.05.2020
3767 Rain 19 1014 42 0 0.45 300 18:38 04.05.2020
3768 Rain 19 1014 42 0 0.45 300 18:38 04.05.2020
3769 Rain 21 1012 48 0 1.79 329 18:18 04.05.2020
3770 Rain 22 1014 42 0 1.79 328 17:55 04.05.2020
3771 Rain 22 1014 42 0 1.79 328 17:55 04.05.2020
3772 Rain 22 1014 42 0 2.68 288 17:37 04.05.2020
3773 Rain 22 1014 40 0 0.89 340 17:18 04.05.2020
3774 Rain 21 1012 60 0 1.34 339 16:43 04.05.2020
3775 Rain 21 1018 45 0 2.41 244 16:22 04.05.2020
3776 Rain 21 1015 46 0 0.89 339 15:55 04.05.2020
3777 Rain 21 1016 53 0 2.68 47 15:37 04.05.2020
3778 Rain 21 1016 50 0 2.24 317 15:37 04.05.2020
3779 Rain 21 1017 55 0 3.13 301 15:18 04.05.2020
3780 Rain 20 1014 62 0 0.89 357 14:43 04.05.2020
3781 Rain 20 1014 62 0 0.89 357 14:43 04.05.2020
3782 Rain 19 1014 61 0 0.45 32 14:19 04.05.2020
3783 Rain 18 1013 69 0 0.89 278 12:49 04.05.2020
3784 Rain 18 1020 64 0 1.79 45 12:28 04.05.2020
3785 Rain 18 1020 64 0 1.79 45 12:27 04.05.2020
3786 Rain 18 1020 64 0 1.79 45 12:26 04.05.2020
3787 Rain 18 1020 64 0 1.79 45 12:26 04.05.2020
3788 Rain 18 1020 64 0 1.79 45 12:26 04.05.2020
3789 Rain 17 1014 74 0 0.45 214 10:36 04.05.2020
3790 Rain 17 1014 74 0 0.45 214 10:36 04.05.2020
3791 Clouds 14 1015 79 0 3.35 218 09:26 04.05.2020
3792 Clouds 14 1015 79 0 3.35 218 09:26 04.05.2020
3793 Rain 14 1015 79 0 2.95 223 09:26 04.05.2020
3794 Clouds 14 1015 79 0 3.35 218 09:26 04.05.2020
3795 Rain 14 1015 79 0 2.95 223 09:26 04.05.2020
3796 Clouds 11 1015 82 0 2.12 209 07:52 04.05.2020
3797 Clouds 11 1015 83 0 2.12 209 07:33 04.05.2020
3798 Clouds 11 1015 83 0 2.12 209 07:33 04.05.2020
3799 Clouds 11 1015 83 0 2.12 209 07:33 04.05.2020
3800 Clouds 11 1015 83 0 2.12 209 07:33 04.05.2020
3801 Clouds 11 1015 83 0 2.12 209 07:33 04.05.2020
3802 Clouds 10 1015 81 0 1.49 170 04:59 04.05.2020
3803 Clouds 11 1016 78 0 1.48 176 03:29 04.05.2020
3804 Clouds 11 1016 77 0 1.64 179 02:32 04.05.2020
3805 Clouds 12 1016 73 0 1.8 188 01:19 04.05.2020
3806 Clouds 13 1016 69 0 1.69 184 23:58 03.05.2020
3807 Clouds 13 1016 68 0 1.69 184 23:40 03.05.2020
3808 Clouds 11 1018 85 0 1.89 177 23:22 03.05.2020
3809 Clouds 12 1018 83 0 1.89 177 22:43 03.05.2020
3810 Clouds 11 1018 84 0 1.89 177 22:43 03.05.2020
3811 Clouds 11 1018 84 0 1.89 177 22:43 03.05.2020
3812 Clouds 12 1016 65 0 2.28 174 22:22 03.05.2020
3813 Clouds 13 1018 76 0 0.45 142 21:42 03.05.2020
3814 Clouds 15 1016 56 0 2.61 184 21:22 03.05.2020
3815 Clouds 15 1018 56 0 1.34 217 20:56 03.05.2020
3816 Clouds 15 1018 55 0 1.79 200 20:38 03.05.2020
3817 Clouds 16 1015 51 0 0.45 161 20:19 03.05.2020
3818 Clouds 16 1015 51 0 0.45 161 20:19 03.05.2020
3819 Clouds 16 1015 45 0 0.45 185 19:47 03.05.2020
3820 Clouds 16 1015 45 0 0.45 185 19:47 03.05.2020
3821 Clouds 16 1015 45 0 0.45 185 19:47 03.05.2020
3822 Clouds 16 1015 45 0 0.45 185 19:47 03.05.2020
3823 Clouds 17 1015 47 0 1.34 155 19:27 03.05.2020
3824 Clouds 17 1015 47 0 1.34 155 19:27 03.05.2020
3825 Clouds 18 1015 39 0 2.4 212 18:40 03.05.2020
3826 Clouds 18 1016 38 0 2.08 226 18:21 03.05.2020
3827 Clouds 18 1014 62 0 2.08 226 17:59 03.05.2020
3828 Clouds 18 1014 62 0 2.08 226 17:40 03.05.2020
3829 Clouds 18 1016 38 0 2.47 246 17:21 03.05.2020
3830 Clouds 17 1016 35 0 2.47 246 16:45 03.05.2020
3831 Clouds 17 1020 40 0 0.89 90 16:20 03.05.2020
3832 Clouds 16 1019 38 0 1.34 320 15:58 03.05.2020
3833 Clouds 16 1015 80 0 0.89 269 15:39 03.05.2020
3834 Clear 17 1015 81 0 0.89 141 15:20 03.05.2020
3835 Clear 16 1016 52 0 1.34 250 14:58 03.05.2020
3836 Clear 16 1016 57 0 0.45 244 14:39 03.05.2020
3837 Clouds 16 1016 56 0 2.45 268 14:20 03.05.2020
3838 Clouds 15 1020 44 0 1.79 90 13:51 03.05.2020
3839 Clouds 15 1020 44 0 1.79 90 13:51 03.05.2020
3840 Clouds 15 1020 44 0 1.79 90 13:51 03.05.2020
3841 Clouds 15 1020 44 0 1.79 90 13:51 03.05.2020
3842 Clouds 15 1020 44 0 1.79 90 13:50 03.05.2020
3843 Clouds 15 1017 53 0 2.1 275 12:59 03.05.2020
3844 Clouds 15 1018 52 0 0.89 300 12:41 03.05.2020
3845 Clouds 13 1015 95 0 0.45 306 12:18 03.05.2020
3846 Clouds 13 1018 62 0 0.45 339 11:55 03.05.2020
3847 Clouds 13 1018 61 0 1.97 281 11:37 03.05.2020
3848 Clouds 12 1018 70 0 1.7 283 11:18 03.05.2020
3849 Clouds 12 1018 75 0 1.7 283 10:46 03.05.2020
3850 Clouds 12 1018 75 0 1.7 283 10:46 03.05.2020
3851 Clouds 12 1018 75 0 1.7 283 10:46 03.05.2020
3852 Clouds 12 1018 75 0 1.7 283 10:46 03.05.2020
3853 Clouds 12 1018 75 0 1.7 283 10:46 03.05.2020
3854 Clouds 10 1018 79 0 0.45 211 09:57 03.05.2020
3855 Clouds 10 1018 79 0 0.45 211 09:57 03.05.2020
3856 Clouds 10 1018 79 0 0.45 211 09:57 03.05.2020
3857 Clouds 10 1018 79 0 0.45 211 09:57 03.05.2020
3858 Clouds 10 1018 79 0 0.45 211 09:57 03.05.2020
3859 Clouds 9 1018 77 0 0.99 264 09:33 03.05.2020
3860 Clouds 9 1018 77 0 0.99 264 09:32 03.05.2020
3861 Clouds 9 1018 77 0 0.99 264 09:32 03.05.2020
3862 Clouds 9 1018 77 0 0.99 264 09:32 03.05.2020
3863 Clear 8 1018 82 0 0.69 262 08:55 03.05.2020
3864 Clear 8 1018 82 0 0.69 262 08:55 03.05.2020
3865 Clear 8 1018 82 0 0.69 262 08:55 03.05.2020
3866 Clear 8 1018 82 0 0.69 262 08:55 03.05.2020
3867 Clear 8 1018 82 0 0.69 262 08:55 03.05.2020
3868 Clear 7 1018 84 0 1.09 144 08:25 03.05.2020
3869 Clear 7 1018 84 0 1.09 144 08:25 03.05.2020
3870 Clear 7 1018 84 0 1.09 144 08:25 03.05.2020
3871 Clear 7 1018 84 0 1.09 144 08:25 03.05.2020
3872 Clear 6 1018 87 0 1.09 144 07:39 03.05.2020
3873 Clear 4 1017 88 0 1.34 84 06:19 03.05.2020
3874 Clear 4 1017 88 0 0.45 55 05:47 03.05.2020
3875 Clear 4 1016 89 0 0.45 83 04:46 03.05.2020
3876 Clear 4 1016 89 0 0.45 88 04:23 03.05.2020
3877 Clear 4 1016 89 0 0.45 55 02:59 03.05.2020
3878 -273 0 0 0 0 0 02:59 03.05.2020
3879 Clouds 5 1016 90 0 0.89 53 02:24 03.05.2020
3880 Clouds 5 1016 90 0 1.53 150 01:44 03.05.2020
3881 Clouds 6 1016 90 0 1.88 143 01:24 03.05.2020
3882 Clouds 5 1016 90 0 1.88 143 00:55 03.05.2020
3883 Clouds 5 1016 91 0 1.88 143 00:37 03.05.2020
3884 Clouds 5 1015 90 0 1.96 142 00:18 03.05.2020
3885 Clouds 6 1015 90 0 0.45 88 23:42 02.05.2020
3886 Clouds 6 1015 90 0 1.77 144 23:24 02.05.2020
3887 Clouds 7 1014 89 0 0.45 83 22:43 02.05.2020
3888 Clouds 7 1014 89 0 1.04 156 22:24 02.05.2020
3889 Clouds 7 1014 89 0 1.04 156 22:24 02.05.2020
3890 Clouds 8 1014 86 0 1.04 156 21:56 02.05.2020
3891 Clouds 8 1014 85 0 1.04 156 21:38 02.05.2020
3892 Clouds 8 1013 94 0 1.17 194 21:19 02.05.2020
3893 Clouds 9 1016 88 0 1.79 139 20:57 02.05.2020
3894 Clouds 11 1013 80 0 1.17 194 20:37 02.05.2020
3895 Clouds 11 1013 80 0 1.43 199 20:19 02.05.2020
3896 Clouds 10 1011 81 0 1.43 199 19:57 02.05.2020
3897 Clouds 10 1011 81 0 1.43 199 19:38 02.05.2020
3898 Rain 10 1011 81 0 1.93 317 19:19 02.05.2020
3899 Rain 10 1011 83 0 1.93 317 18:55 02.05.2020
3900 Rain 9 1011 90 0 1.93 317 18:36 02.05.2020
3901 Rain 9 1011 91 0 1.63 277 18:18 02.05.2020
3902 Rain 9 1012 91 0 1.63 277 17:39 02.05.2020
3903 Rain 9 1011 91 0 0.55 319 17:20 02.05.2020
3904 Rain 9 1011 90 0 0.55 319 16:59 02.05.2020
3905 Rain 9 1012 90 0 0.55 319 16:40 02.05.2020
3906 Rain 9 1010 86 0 0.45 292 16:22 02.05.2020
3907 Rain 10 1011 90 0 2.84 331 15:43 02.05.2020
3908 Rain 10 1011 89 0 4.12 298 15:21 02.05.2020
3909 Rain 10 1013 85 0 1.79 328 14:59 02.05.2020
3910 Rain 10 1011 88 0 0.45 207 14:40 02.05.2020
3911 Rain 10 1010 89 0 4.97 258 14:22 02.05.2020
3912 Rain 10 1010 91 0 4.97 258 13:41 02.05.2020
3913 Rain 10 1011 90 0 0.45 192 13:22 02.05.2020
3914 Rain 10 1011 89 0 1.34 191 12:56 02.05.2020
3915 Rain 10 1010 88 0 0.89 182 12:38 02.05.2020
3916 Rain 10 1011 87 0 0.89 186 12:20 02.05.2020
3917 Rain 9 1010 86 0 0.89 202 11:54 02.05.2020
3918 Rain 9 1010 83 0 0.89 202 11:36 02.05.2020
3919 Rain 10 1011 77 0 0.89 220 11:18 02.05.2020
3920 Rain 10 1011 85 0 0.45 215 10:39 02.05.2020
3921 Rain 9 1011 86 0 0.89 167 10:21 02.05.2020
3922 Rain 9 1011 85 0 4.07 240 09:58 02.05.2020
3923 Rain 9 1010 84 0 4.07 240 09:39 02.05.2020
3924 Rain 9 1010 84 0 4.83 237 09:21 02.05.2020
3925 Clouds 9 1010 87 0 1.34 183 08:51 02.05.2020
3926 Rain 9 1009 88 0 0.45 202 08:31 02.05.2020
3927 Rain 8 1009 96 0 4.57 227 07:49 02.05.2020
3928 Rain 8 1009 95 0 3.63 214 07:30 02.05.2020
3929 Rain 8 1009 95 0 3.63 214 06:54 02.05.2020
3930 Rain 8 1009 93 0 3.19 220 06:28 02.05.2020
3931 Rain 8 1009 92 0 3.59 222 05:27 02.05.2020
3932 Rain 8 1009 91 0 3.84 215 04:27 02.05.2020
3933 Rain 8 1009 90 0 3.84 215 03:38 02.05.2020
3934 Rain 9 1008 88 0 3.33 220 02:40 02.05.2020
3935 Rain 9 1007 87 0 3.43 207 01:56 02.05.2020
3936 Rain 9 1006 85 0 3.85 209 01:20 02.05.2020
3937 Rain 9 1006 83 0 0.45 180 00:42 02.05.2020
3938 Rain 9 1005 83 0 3.22 193 00:21 02.05.2020
3939 Rain 9 1005 85 0 0.45 202 23:55 01.05.2020
3940 Rain 9 1005 86 0 3.22 193 23:37 01.05.2020
3941 Rain 9 1005 86 0 0.45 202 23:18 01.05.2020
3942 Rain 9 1007 92 0 2.54 173 22:38 01.05.2020
3943 Clouds 9 1007 92 0 3.02 170 22:19 01.05.2020
3944 Clouds 9 1007 91 0 3.02 170 21:57 01.05.2020
3945 Clouds 11 1007 83 0 0.89 96 21:39 01.05.2020
3946 Clouds 11 1004 84 0 0.89 202 21:20 01.05.2020
3947 Clouds 11 1004 82 0 1.34 202 20:57 01.05.2020
3948 Clouds 10 1004 82 0 1.34 202 20:39 01.05.2020
3949 Clouds 10 1004 82 0 1.34 202 20:19 01.05.2020
3950 Clouds 10 1004 83 0 1.34 202 19:56 01.05.2020
3951 Clouds 10 1003 84 0 1.34 202 19:38 01.05.2020
3952 Clouds 10 1003 85 0 0.89 202 19:19 01.05.2020
3953 Clouds 10 1004 84 0 1.79 202 18:55 01.05.2020
3954 Rain 9 1003 84 0 0.45 202 18:37 01.05.2020
3955 Rain 9 1003 84 0 0.45 202 18:18 01.05.2020
3956 Rain 9 1004 81 0 1.34 190 17:40 01.05.2020
3957 Rain 10 1004 82 0 0.45 140 17:21 01.05.2020
3958 Rain 10 1004 83 0 2.68 207 16:57 01.05.2020
3959 Rain 10 1006 88 0 3.13 237 16:39 01.05.2020
3960 Rain 11 1004 77 0 1.34 198 16:20 01.05.2020
3961 Rain 10 1003 78 0 1.34 202 15:57 01.05.2020
3962 Rain 10 1003 76 0 3.98 209 15:39 01.05.2020
3963 Rain 11 1004 68 0 1.34 180 15:19 01.05.2020
3964 Rain 11 1004 69 0 1.34 190 15:19 01.05.2020
3965 Rain 11 1004 67 0 2.24 177 14:43 01.05.2020
3966 Rain 11 1004 79 0 6.86 231 14:24 01.05.2020
3967 Rain 11 1005 71 0 1.79 169 13:56 01.05.2020
3968 Rain 12 1005 64 0 3.58 126 13:38 01.05.2020
3969 Rain 12 1005 64 0 3.58 126 13:19 01.05.2020
3970 Rain 12 1005 63 0 3.58 177 12:55 01.05.2020
3971 Rain 13 1005 63 0 2.24 135 12:37 01.05.2020
3972 Rain 12 1005 63 0 2.68 184 12:18 01.05.2020
3973 Rain 12 1005 64 0 3.58 170 11:41 01.05.2020
3974 Rain 12 1006 62 0 4.92 90 11:23 01.05.2020
3975 Rain 11 1004 70 0 2.24 88 10:57 01.05.2020
3976 Rain 11 1004 70 0 1.79 202 10:38 01.05.2020
3977 Rain 11 1007 68 0 4.47 256 10:19 01.05.2020
3978 Rain 11 1004 72 0 1.34 202 09:44 01.05.2020
3979 Clouds 8 1008 74 0 4.92 214 09:19 01.05.2020
3980 Clouds 10 1008 74 0 4.92 214 08:57 01.05.2020
3981 Clouds 10 1008 74 0 4.92 214 08:39 01.05.2020
3982 Clouds 9 1007 90 0 1.34 155 08:21 01.05.2020
3983 Clouds 8 1007 89 0 2.24 137 07:44 01.05.2020
3984 Clouds 10 1006 70 0 1.79 67 07:22 01.05.2020
3985 Clouds 9 1008 74 0 1.79 222 06:42 01.05.2020
3986 Clouds 8 1007 82 0 0.89 161 05:35 01.05.2020
3987 Clouds 9 1007 76 10000 4.1 170 04:39 01.05.2020
3988 Clouds 9 1005 71 0 1.34 202 03:24 01.05.2020
3989 Clouds 9 1005 80 0 1.34 105 02:45 01.05.2020
3990 Clouds 8 1005 78 0 1.79 79 02:19 01.05.2020
3991 Rain 8 1008 83 0 1.34 170 01:28 01.05.2020
3992 Rain 8 1005 81 0 0.45 8 00:59 01.05.2020
3993 Rain 8 1005 81 0 0.45 8 00:37 01.05.2020
3994 Rain 8 1005 82 0 1.34 78 00:18 01.05.2020
3995 Rain 8 1005 81 0 2.24 242 23:55 30.04.2020
3996 Rain 8 1005 81 0 2.24 242 23:37 30.04.2020
3997 Rain 8 1005 81 0 2.24 242 23:37 30.04.2020
3998 Rain 9 1005 80 0 2.24 89 23:18 30.04.2020
3999 Rain 10 1005 68 0 2.24 202 22:41 30.04.2020
4000 Clouds 10 1005 69 0 1.79 202 22:20 30.04.2020
4001 Clouds 10 1005 73 0 1.79 202 21:56 30.04.2020
4002 Clouds 9 1005 76 0 1.34 113 21:38 30.04.2020
4003 Clear 11 1006 75 0 1.79 196 21:19 30.04.2020
4004 Clear 11 1005 74 0 3.13 224 20:54 30.04.2020
4005 Clear 11 1005 77 0 1.34 233 20:36 30.04.2020
4006 Clouds 11 1005 79 0 1.34 209 20:18 30.04.2020
4007 Clouds 11 1005 78 0 2.24 204 19:42 30.04.2020
4008 Clouds 11 1005 77 0 2.24 211 19:24 30.04.2020
4009 Rain 11 1005 79 0 1.79 186 18:56 30.04.2020
4010 Rain 11 1005 80 0 2.24 153 18:37 30.04.2020
4011 Rain 11 1005 79 0 1.79 219 18:19 30.04.2020
4012 Rain 11 1005 74 0 4.02 173 17:56 30.04.2020
4013 Rain 11 1005 74 0 0.89 88 17:38 30.04.2020
4014 Rain 10 1007 92 0 1.79 96 17:19 30.04.2020
4015 Rain 10 1007 92 0 2.68 124 16:54 30.04.2020
4016 Rain 12 1003 66 0 2.24 202 16:36 30.04.2020
4017 Rain 11 1005 75 0 2.24 96 16:18 30.04.2020
4018 Rain 12 1004 71 0 0.89 202 15:44 30.04.2020
4019 Rain 13 1005 64 0 1.34 206 15:23 30.04.2020
4020 Rain 13 1005 70 0 1.34 142 14:43 30.04.2020
4021 Rain 13 1005 63 0 2.24 154 14:22 30.04.2020
4022 -273 0 0 0 0 0 13:59 30.04.2020
4023 Rain 12 1006 77 0 1.34 188 13:41 30.04.2020
4024 Rain 12 1006 83 0 0.89 152 13:23 30.04.2020
4025 Rain 11 1006 83 0 2.24 52 12:59 30.04.2020
4026 Rain 11 1006 81 0 2.24 199 12:41 30.04.2020
4027 Rain 11 1006 81 0 2.68 170 12:19 30.04.2020
4028 Clouds 11 1006 78 0 1.34 202 11:38 30.04.2020
4029 Rain 11 1009 76 0 3.58 287 11:19 30.04.2020
4030 Rain 12 1009 75 0 3.58 243 10:58 30.04.2020
4031 Rain 11 1005 77 0 1.34 202 10:39 30.04.2020
4032 Rain 12 1007 72 0 3.58 112 10:21 30.04.2020
4033 Rain 11 1005 77 0 3.13 202 09:56 30.04.2020
4034 Rain 11 1005 78 0 1.79 202 09:38 30.04.2020
4035 Rain 11 1005 78 0 2.24 202 09:19 30.04.2020
4036 Rain 11 1005 79 0 1.79 202 08:45 30.04.2020
4037 Rain 11 1005 79 0 1.79 202 08:45 30.04.2020
4038 Rain 11 1005 81 0 1.34 202 08:26 30.04.2020
4039 Rain 11 1005 82 0 1.34 202 07:44 30.04.2020
4040 Rain 11 1005 81 0 1.79 202 07:26 30.04.2020
4041 Rain 11 1005 80 0 1.79 202 06:54 30.04.2020
4042 Clouds 11 1004 72 0 0.45 149 06:29 30.04.2020
4043 Clouds 11 1005 78 0 3.25 180 05:46 30.04.2020
4044 Clouds 11 1005 70 0 2.61 160 04:43 30.04.2020
4045 Rain 10 1006 93 0 2.49 160 04:23 30.04.2020
4046 Rain 11 1006 70 0 2.84 181 02:48 30.04.2020
4047 Clouds 11 1006 64 0 0.45 202 02:27 30.04.2020
4048 Clouds 10 1006 60 0 1.34 202 01:37 30.04.2020
4049 Clouds 11 1007 61 0 0.45 202 00:53 30.04.2020
4050 Clouds 11 1007 62 0 0.45 202 00:24 30.04.2020
4051 Clouds 11 1007 64 0 0.45 202 23:58 29.04.2020
4052 Clouds 11 1007 65 0 2.59 181 23:40 29.04.2020
4053 Clouds 11 1007 66 0 0.45 202 23:22 29.04.2020
4054 Clouds 11 1007 66 0 0.45 202 22:58 29.04.2020
4055 Clouds 11 1007 66 0 2.41 165 22:38 29.04.2020
4056 Clouds 11 1007 67 0 0.45 202 22:19 29.04.2020
4057 Clouds 11 1007 66 0 2.63 166 21:38 29.04.2020
4058 Clouds 12 1007 65 0 0.45 202 21:20 29.04.2020
4059 Clouds 12 1007 66 0 0.45 202 20:58 29.04.2020
4060 Clouds 13 1007 65 0 2.56 178 20:39 29.04.2020
4061 Clouds 14 1008 59 0 2.19 203 20:19 29.04.2020
4062 Clouds 14 1007 64 0 0.45 255 19:54 29.04.2020
4063 Clouds 15 1008 55 0 0.89 169 19:36 29.04.2020
4064 Clouds 14 1007 66 0 2.9 220 19:18 29.04.2020
4065 Clouds 14 1008 65 0 1.34 202 18:41 29.04.2020
4066 Clouds 15 1008 63 0 1.79 209 18:20 29.04.2020
4067 Clouds 15 1008 63 0 1.79 244 17:55 29.04.2020
4068 Clouds 16 1008 61 0 2.68 184 17:37 29.04.2020
4069 Clouds 16 1008 54 0 1.34 187 17:18 29.04.2020
4070 Clouds 16 1008 54 0 1.34 196 16:37 29.04.2020
4071 Clouds 16 1008 53 0 3.13 148 16:19 29.04.2020
4072 Clouds 15 1008 54 0 0.45 153 16:19 29.04.2020
4073 Clouds 16 1008 54 0 2.24 146 15:57 29.04.2020
4074 Clouds 16 1008 53 0 3.58 154 15:38 29.04.2020
4075 Clouds 16 1008 56 0 0.89 156 15:20 29.04.2020
4076 Clouds 14 1008 59 0 0.89 202 14:45 29.04.2020
4077 Clouds 14 1008 64 0 0.45 225 14:26 29.04.2020
4078 Clouds 14 1008 67 0 0.89 202 13:58 29.04.2020
4079 Clouds 13 1008 69 0 1.34 202 13:40 29.04.2020
4080 Clouds 14 1009 66 0 0.89 142 13:20 29.04.2020
4081 Clouds 12 1008 74 0 1.34 202 12:57 29.04.2020
4082 Clouds 13 1008 71 0 0.45 214 12:38 29.04.2020
4083 Clouds 12 1008 75 0 1.34 202 12:18 29.04.2020
4084 Clouds 11 1010 81 0 2.68 157 11:39 29.04.2020
4085 Clouds 11 1008 85 0 1.34 225 11:20 29.04.2020
4086 Clouds 9 1008 89 0 1.79 202 10:57 29.04.2020
4087 Clouds 10 1009 85 0 2.68 232 10:37 29.04.2020
4088 Clouds 10 1009 85 0 2.68 232 10:19 29.04.2020
4089 Rain 10 1009 87 0 2.24 172 09:42 29.04.2020
4090 Rain 10 1009 88 0 1.79 199 09:23 29.04.2020
4091 Rain 10 1008 89 0 1.79 192 08:56 29.04.2020
4092 Rain 10 1008 89 0 1.79 155 08:37 29.04.2020
4093 Rain 10 1008 89 0 2.68 209 08:19 29.04.2020
4094 Rain 10 1008 90 0 0.89 186 07:41 29.04.2020
4095 Rain 10 1008 90 0 0.89 186 07:23 29.04.2020
4096 Rain 10 1008 91 0 1.79 221 06:50 29.04.2020
4097 Rain 10 1007 91 0 3.13 136 06:30 29.04.2020
4098 Rain 10 1007 91 0 2.24 109 05:21 29.04.2020
4099 Rain 10 1007 89 0 2.24 167 04:39 29.04.2020
4100 Rain 10 1007 87 0 1.79 191 04:18 29.04.2020
4101 Clouds 11 1006 79 0 0.45 202 02:40 29.04.2020
4102 Rain 11 1006 79 0 3.39 196 01:44 29.04.2020
4103 Rain 11 1006 81 0 3.1 193 01:23 29.04.2020
4104 Rain 11 1006 84 0 3.1 193 00:41 29.04.2020
4105 Clouds 11 1006 83 0 0.45 202 00:19 29.04.2020
4106 Clouds 11 1005 85 0 3.02 189 23:50 28.04.2020
4107 Rain 11 1006 94 0 3.21 196 23:24 28.04.2020
4108 Rain 12 1006 83 0 1.34 169 22:57 28.04.2020
4109 Rain 12 1006 84 0 0.45 148 22:37 28.04.2020
4110 Rain 12 1006 86 0 1.79 189 22:18 28.04.2020
4111 Rain 12 1006 88 0 1.79 219 21:56 28.04.2020
4112 Rain 12 1006 88 0 3.37 190 21:37 28.04.2020
4113 Rain 12 1006 88 0 3.37 190 21:37 28.04.2020
4114 Rain 12 1006 87 0 1.34 181 21:19 28.04.2020
4115 Rain 12 1006 84 0 0.89 195 20:55 28.04.2020
4116 Rain 13 1006 81 0 2.24 233 20:37 28.04.2020
4117 Rain 13 1006 77 0 4.02 193 20:19 28.04.2020
4118 Rain 14 1005 73 0 4.42 222 19:43 28.04.2020
4119 Rain 15 1005 70 0 1.79 232 19:22 28.04.2020
4120 Rain 15 1005 64 0 2.68 173 18:59 28.04.2020
4121 Rain 15 1005 62 0 3.13 199 18:40 28.04.2020
4122 Rain 16 1005 60 0 0.89 187 18:19 28.04.2020
4123 -273 0 0 0 0 0 18:19 28.04.2020
4124 Rain 16 1004 63 0 2.8 213 17:58 28.04.2020
4125 Rain 16 1004 63 0 2.8 213 17:37 28.04.2020
4126 Rain 16 1004 55 0 0.89 227 17:18 28.04.2020
4127 Rain 16 1004 61 0 0.45 202 16:43 28.04.2020
4128 Rain 16 1004 55 0 1.34 183 16:24 28.04.2020
4129 Rain 16 1005 58 0 3.13 164 15:58 28.04.2020
4130 Rain 17 1005 58 0 1.79 157 15:39 28.04.2020
4131 Rain 16 1007 63 0 2.68 204 15:21 28.04.2020
4132 Rain 16 1007 62 0 4.02 211 14:59 28.04.2020
4133 Rain 15 1007 65 0 4.02 187 14:41 28.04.2020
4134 Rain 15 1007 64 0 4.02 229 14:21 28.04.2020
4135 Rain 15 1007 65 0 4.02 249 13:58 28.04.2020
4136 Rain 15 1005 66 0 3.13 151 13:38 28.04.2020
4137 Rain 15 1005 66 0 3.13 151 13:20 28.04.2020
4138 Rain 15 1005 68 0 3.13 163 12:57 28.04.2020
4139 Rain 15 1005 69 0 2.68 190 12:37 28.04.2020
4140 Rain 15 1005 70 0 2.68 189 12:19 28.04.2020
4141 Rain 15 1005 66 0 0.89 148 11:40 28.04.2020
4142 Clouds 15 1008 65 0 3.13 135 11:20 28.04.2020
4143 Clouds 14 1007 67 0 3.58 255 10:55 28.04.2020
4144 Clouds 15 1006 76 0 1.34 99 10:37 28.04.2020
4145 Clouds 14 1004 70 0 1.34 202 10:18 28.04.2020
4146 Clouds 14 1004 71 0 1.79 202 09:42 28.04.2020
4147 Clouds 14 1004 72 0 1.79 202 09:24 28.04.2020
4148 Clouds 13 1004 74 0 1.34 202 08:49 28.04.2020
4149 Clouds 13 1004 75 0 1.34 202 08:30 28.04.2020
4150 Clouds 13 1004 76 0 0.45 202 07:59 28.04.2020
4151 Clouds 13 1004 77 0 0.45 202 07:40 28.04.2020
4152 Clouds 13 1004 78 0 2.36 185 07:18 28.04.2020
4153 Clouds 13 1004 78 0 0.45 202 06:31 28.04.2020
4154 Clouds 14 1004 72 0 0.89 202 05:48 28.04.2020
4155 Clouds 14 1004 72 0 0.45 202 05:30 28.04.2020
4156 Clouds 14 1004 76 0 2.25 178 04:33 28.04.2020
4157 Clouds 14 1005 77 0 2.18 179 02:38 28.04.2020
4158 Clouds 14 1005 81 0 2.6 180 01:37 28.04.2020
4159 Rain 15 1006 80 0 2.28 181 01:18 28.04.2020
4160 Clouds 14 1005 76 0 0.45 202 00:31 28.04.2020
4161 Clouds 15 1005 71 0 1.79 170 23:56 27.04.2020
4162 Clouds 14 1006 60 0 1.34 76 23:38 27.04.2020
4163 Clouds 14 1006 59 0 1.79 106 23:20 27.04.2020
4164 Clouds 15 1007 58 0 1.87 150 22:43 27.04.2020
4165 Clouds 14 1005 60 0 1.94 126 22:23 27.04.2020
4166 Clouds 15 1005 60 0 1.94 126 21:57 27.04.2020
4167 Clouds 15 1005 60 0 1.94 126 21:39 27.04.2020
4168 Clouds 16 1004 49 0 1.92 106 21:19 27.04.2020
4169 Clouds 15 1005 57 0 0.45 92 20:57 27.04.2020
4170 Clouds 15 1005 57 0 0.45 92 20:39 27.04.2020
4171 Clouds 17 1004 59 0 1.66 74 20:21 27.04.2020
4172 Clouds 18 1005 47 0 1.66 74 19:56 27.04.2020
4173 Clouds 19 1005 47 0 1.66 74 19:37 27.04.2020
4174 Clouds 19 1005 47 0 1.66 74 19:37 27.04.2020
4175 Clouds 19 1005 44 0 1.62 45 19:19 27.04.2020
4176 Clouds 21 1008 48 0 1.62 45 18:55 27.04.2020
4177 Clouds 22 1006 35 0 2.24 159 18:37 27.04.2020
4178 Clear 20 1005 45 0 0.89 291 18:18 27.04.2020
4179 Clear 21 1005 46 0 0.45 267 17:41 27.04.2020
4180 Clear 20 1005 46 0 0.45 286 17:19 27.04.2020
4181 Clear 20 1005 47 0 0.89 269 16:54 27.04.2020
4182 Clear 21 1005 47 0 0.89 269 16:36 27.04.2020
4183 Clear 21 1006 48 0 0.89 147 16:18 27.04.2020
4184 Clear 21 1008 30 0 2.68 232 15:55 27.04.2020
4185 Clear 20 1006 48 0 0.89 279 15:36 27.04.2020
4186 Clouds 20 1010 42 0 0.89 185 15:18 27.04.2020
4187 Clouds 20 1007 49 0 1.34 285 14:40 27.04.2020
4188 Clouds 19 1007 55 0 0.45 82 14:19 27.04.2020
4189 Clouds 19 1009 39 0 2.68 195 13:57 27.04.2020
4190 Clouds 19 1007 59 0 0.89 244 13:38 27.04.2020
4191 Clouds 19 1007 62 0 0.45 215 13:18 27.04.2020
4192 Clouds 18 1007 48 0 0.45 180 12:43 27.04.2020
4193 Clouds 16 1008 69 0 0.45 250 12:22 27.04.2020
4194 Clouds 16 1009 72 0 0.89 107 11:57 27.04.2020
4195 Clouds 16 1009 72 0 0.89 107 11:38 27.04.2020
4196 Clouds 16 1009 73 0 0.89 76 11:19 27.04.2020
4197 Clouds 16 1009 75 0 1.34 89 10:54 27.04.2020
4198 Clouds 16 1008 67 0 2.7 240 10:36 27.04.2020
4199 Clouds 16 1008 67 0 2.7 240 10:18 27.04.2020
4200 Clouds 14 1008 64 0 2.7 240 09:42 27.04.2020
4201 Clear 12 1008 74 0 1.9 189 09:18 27.04.2020
4202 Clear 12 1009 76 0 1.9 189 08:53 27.04.2020
4203 Clear 10 1009 83 0 1.9 189 08:33 27.04.2020
4204 Clear 10 1009 83 0 1.9 189 07:54 27.04.2020
4205 Clear 10 1009 83 0 1.9 189 07:36 27.04.2020
4206 Clear 10 1009 83 0 1.9 189 07:18 27.04.2020
4207 Clear 10 1008 85 0 1.9 189 06:37 27.04.2020
4208 Clear 10 1007 82 0 2.22 175 06:18 27.04.2020
4209 Clear 10 1008 82 0 2.22 175 05:48 27.04.2020
4210 Clear 10 1008 81 0 2.22 175 04:40 27.04.2020
4211 Clear 10 1008 80 0 2.22 175 03:49 27.04.2020
4212 Rain 11 1008 82 0 1.86 164 02:40 27.04.2020
4213 Rain 11 1008 92 0 1.49 168 01:23 27.04.2020
4214 Clouds 11 1008 84 0 1.49 168 00:46 27.04.2020
4215 Rain 12 1009 84 0 1.24 158 00:19 27.04.2020
4216 Rain 11 1008 85 0 1.24 158 23:55 26.04.2020
4217 Rain 11 1008 85 0 1.24 158 23:37 26.04.2020
4218 Rain 11 1008 84 0 1.24 158 23:18 26.04.2020
4219 Rain 11 1008 84 0 1.24 158 22:56 26.04.2020
4220 Rain 11 1007 86 0 1.24 158 22:37 26.04.2020
4221 Rain 11 1007 87 0 1.24 158 22:19 26.04.2020
4222 Rain 11 1007 87 0 1.24 158 21:56 26.04.2020
4223 Clouds 12 1007 86 0 1.09 149 21:37 26.04.2020
4224 Rain 12 1008 85 0 1.11 358 21:18 26.04.2020
4225 Rain 13 1008 83 0 1.11 358 20:39 26.04.2020
4226 Rain 13 1008 81 0 1.11 358 20:20 26.04.2020
4227 -273 0 0 0 0 0 19:59 26.04.2020
4228 Clouds 15 1008 74 0 1.34 198 19:38 26.04.2020
4229 Clouds 16 1008 66 0 1.79 158 19:20 26.04.2020
4230 Clouds 17 1006 49 0 1.11 358 18:54 26.04.2020
4231 Clouds 17 1006 46 0 1.11 358 18:36 26.04.2020
4232 Clouds 18 1007 38 0 1.86 333 18:18 26.04.2020
4233 Clouds 18 1009 39 0 0.45 298 17:40 26.04.2020
4234 Clouds 19 1006 42 0 1.86 333 17:22 26.04.2020
4235 Clouds 20 1006 41 0 1.86 333 16:43 26.04.2020
4236 Clouds 20 1006 44 0 1.86 333 16:24 26.04.2020
4237 Clouds 20 1006 39 0 1.86 333 15:59 26.04.2020
4238 Clouds 19 1006 40 0 1.86 333 15:41 26.04.2020
4239 Clouds 20 1009 31 0 0.45 247 15:22 26.04.2020
4240 Clouds 19 1006 42 0 2.24 230 14:58 26.04.2020
4241 Clouds 19 1006 41 0 1.76 324 14:39 26.04.2020
4242 Clouds 18 1006 43 0 1.82 326 14:19 26.04.2020
4243 Clouds 18 1006 43 0 1.82 326 14:19 26.04.2020
4244 Clouds 18 1010 37 0 0.89 105 13:57 26.04.2020
4245 Clouds 17 1007 44 0 1.82 326 13:38 26.04.2020
4246 Clouds 18 1007 45 0 1.82 326 13:19 26.04.2020
4247 Clouds 17 1007 45 0 1.82 326 12:54 26.04.2020
4248 Clouds 17 1007 49 0 1.82 326 12:36 26.04.2020
4249 Clear 16 1007 51 0 1.79 248 12:18 26.04.2020
4250 Clear 16 1008 55 0 1.79 232 11:41 26.04.2020
4251 Clear 15 1008 55 0 2.24 242 11:23 26.04.2020
4252 Clear 15 1008 55 0 2.24 242 11:23 26.04.2020
4253 Clear 15 1008 47 0 0.89 259 10:58 26.04.2020
4254 Clear 14 1008 47 0 1.71 316 10:40 26.04.2020
4255 Clear 15 1008 47 0 1.71 316 10:40 26.04.2020
4256 Clear 14 1008 49 0 1.71 316 10:22 26.04.2020
4257 Clear 13 1007 64 0 1.71 316 09:57 26.04.2020
4258 Clear 11 1008 63 0 1.71 316 09:37 26.04.2020
4259 Clouds 11 1008 65 0 0.49 348 09:18 26.04.2020
4260 Clouds 10 1008 67 0 0.49 348 08:41 26.04.2020
4261 Clouds 10 1008 67 0 0.49 348 08:21 26.04.2020
4262 Clouds 10 1008 67 0 0.49 348 07:48 26.04.2020
4263 Clouds 10 1008 68 0 0.49 348 07:23 26.04.2020
4264 Clouds 10 1007 70 0 0.49 348 06:46 26.04.2020
4265 Clouds 7 1009 61 9000 2.1 90 06:21 26.04.2020
4266 Clouds 7 1009 61 8000 0.5 0 05:49 26.04.2020
4267 Clouds 7 1007 70 0 0.91 123 05:28 26.04.2020
4268 Clouds 7 1006 54 0 0.91 123 04:30 26.04.2020
4269 Clouds 10 1006 63 0 0.91 123 03:35 26.04.2020
4270 Clear 9 1011 50 0 1.22 88 02:37 26.04.2020
4271 Clear 10 1006 58 0 1.38 92 02:19 26.04.2020
4272 Clear 8 1010 65 0 1.38 92 01:36 26.04.2020
4273 Clear 9 1009 61 0 1.38 92 00:41 26.04.2020
4274 Clear 10 1009 43 0 1.34 75 00:21 26.04.2020
4275 Clear 10 1009 58 0 1.34 75 23:55 25.04.2020
4276 Clear 10 1009 58 0 0.89 334 23:36 25.04.2020
4277 Clear 10 1009 58 0 1.79 339 23:18 25.04.2020
4278 Clear 11 1009 50 8000 2.1 340 22:42 25.04.2020
4279 Clear 12 1009 59 0 1.79 325 22:20 25.04.2020
4280 Clear 12 1009 41 7000 2.6 330 21:58 25.04.2020
4281 Clear 13 1009 38 8000 2.1 340 21:39 25.04.2020
4282 Clear 13 1009 57 0 2.24 333 21:19 25.04.2020
4283 Clear 15 1009 55 0 1.79 323 20:43 25.04.2020
4284 Clear 16 1005 42 0 1.76 13 20:23 25.04.2020
4285 Clear 17 1009 50 0 1.76 13 19:59 25.04.2020
4286 Clear 17 1009 49 0 1.76 13 19:39 25.04.2020
4287 Clear 18 1008 46 0 0.45 290 19:21 25.04.2020
4288 Clear 19 1008 44 0 1.79 318 18:56 25.04.2020
4289 Clear 19 1008 43 0 2.24 290 18:37 25.04.2020
4290 Clear 20 1009 30 0 1.79 315 18:18 25.04.2020
4291 Clear 20 1010 30 0 1.79 270 17:55 25.04.2020
4292 Clear 20 1010 30 0 1.79 270 17:37 25.04.2020
4293 Clear 19 1005 37 0 0.45 291 17:18 25.04.2020
4294 Clear 20 1009 38 0 1.34 298 16:46 25.04.2020
4295 Clear 20 1009 37 0 1.34 289 16:27 25.04.2020
4296 Clear 20 1009 37 0 1.79 340 15:58 25.04.2020
4297 Clear 20 1009 38 0 3.58 300 15:39 25.04.2020
4298 Clear 20 1009 36 0 1.34 20 15:19 25.04.2020
4299 Clear 20 1009 36 0 1.34 20 14:57 25.04.2020
4300 Clear 20 1009 36 0 1.34 345 14:38 25.04.2020
4301 Rain 20 1007 46 0 2.87 345 14:19 25.04.2020
4302 Rain 20 1007 49 0 2.87 345 13:43 25.04.2020
4303 Rain 19 1007 46 0 2.87 345 13:19 25.04.2020
4304 Rain 19 1007 48 0 2.87 345 12:58 25.04.2020
4305 Rain 19 1007 55 0 2.87 345 12:39 25.04.2020
4306 Rain 17 1007 61 0 2.24 351 12:20 25.04.2020
4307 Rain 18 1008 58 0 2.24 351 11:56 25.04.2020
4308 Rain 17 1008 55 0 2.24 351 11:38 25.04.2020
4309 Rain 17 1008 57 0 2.24 351 11:20 25.04.2020
4310 Rain 16 1008 62 0 2.24 351 10:43 25.04.2020
4311 Rain 16 1009 54 0 2.24 351 10:23 25.04.2020
4312 Rain 15 1009 59 0 2.24 351 09:48 25.04.2020
4313 Clouds 13 1007 67 0 0.68 14 09:29 25.04.2020
4314 Clouds 13 1009 64 0 0.89 353 08:58 25.04.2020
4315 Clouds 13 1009 64 0 0.89 353 08:39 25.04.2020
4316 Clouds 12 1008 62 0 0.89 353 08:21 25.04.2020
4317 Clouds 12 1008 59 0 0.89 353 07:58 25.04.2020
4318 Clouds 11 1007 67 0 1.09 3 07:39 25.04.2020
4319 Clouds 10 1012 53 0 0.89 353 06:47 25.04.2020
4320 Clouds 10 1011 72 0 0.81 178 06:28 25.04.2020
4321 Clouds 10 1011 65 0 0.81 178 05:40 25.04.2020
4322 Clouds 10 1011 66 0 0.81 178 05:19 25.04.2020
4323 Clouds 10 1008 57 0 0.87 187 02:59 25.04.2020
4324 Clouds 11 1012 66 0 0.75 187 02:21 25.04.2020
4325 Clouds 11 1012 66 0 0.75 187 01:54 25.04.2020
4326 Clouds 11 1012 66 0 0.75 187 01:34 25.04.2020
4327 Clouds 11 1011 48 8000 4.6 280 00:58 25.04.2020
4328 Clouds 11 1013 68 0 0.75 187 00:34 25.04.2020
4329 Clouds 13 1011 42 0 0.6 265 23:55 24.04.2020
4330 Clouds 13 1011 42 0 0.6 265 23:37 24.04.2020
4331 Clouds 14 1009 50 0 0.89 111 23:19 24.04.2020
4332 Clouds 14 1009 47 0 0.6 265 22:40 24.04.2020
4333 Clouds 15 1009 50 0 0.6 265 22:20 24.04.2020
4334 Clouds 14 1009 46 0 0.45 152 21:57 24.04.2020
4335 Clouds 14 1009 46 0 0.45 152 21:39 24.04.2020
4336 Clouds 16 985 49 0 1.09 335 21:20 24.04.2020
4337 Clouds 17 985 48 0 1.09 335 20:56 24.04.2020
4338 Clouds 17 1009 42 0 1.09 335 20:38 24.04.2020
4339 Rain 18 985 46 0 1.09 335 20:18 24.04.2020
4340 Clouds 18 1011 31 10000 4.1 330 19:43 24.04.2020
4341 Clouds 20 985 46 0 1.09 335 19:25 24.04.2020
4342 Clouds 21 985 49 0 1.09 335 18:56 24.04.2020
4343 Clouds 22 1013 24 0 0.45 247 18:38 24.04.2020
4344 Clouds 22 1011 29 10000 2.6 300 18:38 24.04.2020
4345 Clouds 22 986 39 0 2.55 324 18:19 24.04.2020
4346 Clouds 22 1011 31 0 1.34 59 17:42 24.04.2020
4347 Clouds 22 1011 30 0 1.34 285 17:23 24.04.2020
4348 Clouds 22 1011 29 0 2.24 240 16:59 24.04.2020
4349 Clouds 22 1009 33 0 0.89 260 16:40 24.04.2020
4350 Clouds 22 1009 33 0 0.89 260 16:40 24.04.2020
4351 Clouds 22 1009 33 0 0.89 260 16:40 24.04.2020
4352 Clouds 22 1012 30 0 1.34 266 16:22 24.04.2020
4353 Clouds 22 1010 32 0 1.34 152 15:59 24.04.2020
4354 Clouds 22 1010 32 0 1.34 152 15:38 24.04.2020
4355 Clouds 22 1010 34 0 0.89 204 15:18 24.04.2020
4356 Clouds 22 1010 34 0 0.89 204 15:18 24.04.2020
4357 Clouds 21 1011 38 0 1.34 21 14:40 24.04.2020
4358 Clouds 21 1015 25 0 0.89 135 14:20 24.04.2020
4359 Clouds 21 1011 42 0 1.34 314 13:57 24.04.2020
4360 Clouds 21 1011 42 0 1.34 314 13:38 24.04.2020
4361 Clouds 21 1015 26 0 0.45 315 13:19 24.04.2020
4362 Clouds 20 1011 48 0 0.89 71 12:42 24.04.2020
4363 Clouds 17 1011 51 0 0.89 322 12:23 24.04.2020
4364 Clouds 17 1012 51 0 0.89 99 11:58 24.04.2020
4365 Clouds 17 1012 51 0 0.89 99 11:38 24.04.2020
4366 Clouds 18 1013 53 0 0.45 334 11:20 24.04.2020
4367 Clouds 18 1013 53 0 0.45 334 11:20 24.04.2020
4368 Clouds 17 1012 54 0 0.89 166 10:55 24.04.2020
4369 Clouds 18 1013 46 0 0.45 261 10:37 24.04.2020
4370 Clouds 17 1013 48 0 1.93 263 10:19 24.04.2020
4371 Clouds 15 989 66 0 1.93 263 09:45 24.04.2020
4372 Clouds 13 1013 58 0 1.54 203 09:24 24.04.2020
4373 Clouds 11 1013 59 0 1.54 203 08:58 24.04.2020
4374 Clouds 12 1013 58 0 1.54 203 08:39 24.04.2020
4375 Clouds 10 1013 59 0 1.54 203 08:18 24.04.2020
4376 Clouds 10 1013 60 0 1.54 203 07:47 24.04.2020
4377 Clouds 9 1013 63 0 1.54 203 07:27 24.04.2020
4378 Clouds 9 1013 65 0 1.54 203 06:58 24.04.2020
4379 Clouds 9 1013 65 0 1.54 203 06:38 24.04.2020
4380 Clouds 9 1013 64 0 1.68 177 05:49 24.04.2020
4381 Clouds 10 1013 63 0 1.68 177 04:46 24.04.2020
4382 Clear 10 1013 63 0 1.96 169 03:27 24.04.2020
4383 Clear 11 1014 60 0 1.82 172 02:44 24.04.2020
4384 Clear 11 1014 59 0 1.82 172 02:20 24.04.2020
4385 Clear 12 1014 57 0 1.82 172 01:37 24.04.2020
4386 Clear 11 1014 55 0 1.82 172 00:43 24.04.2020
4387 Clear 11 1016 43 0 1.41 135 00:18 24.04.2020
4388 Clear 12 1013 45 0 1.41 135 23:45 23.04.2020
4389 Clear 12 1012 45 0 1.41 135 23:27 23.04.2020
4390 Clear 11 1012 45 0 1.41 135 22:57 23.04.2020
4391 Clear 11 1012 45 0 1.41 135 22:38 23.04.2020
4392 Clear 12 1013 44 0 1.41 135 22:19 23.04.2020
4393 Clear 12 1012 44 0 1.41 135 21:57 23.04.2020
4394 Clear 12 1012 44 0 1.41 135 21:57 23.04.2020
4395 Clear 13 1012 44 0 1.41 135 21:38 23.04.2020
4396 Clear 13 1012 44 0 1.41 135 21:38 23.04.2020
4397 Clear 14 1013 44 0 0.45 93 21:20 23.04.2020
4398 Clear 14 1013 43 0 0.91 51 20:56 23.04.2020
4399 Clear 16 1013 43 0 0.91 51 20:37 23.04.2020
4400 Clear 18 1013 46 0 0.91 51 20:18 23.04.2020
4401 Clear 18 1012 40 0 0.91 51 19:55 23.04.2020
4402 Clear 18 1012 40 0 0.91 51 19:37 23.04.2020
4403 Clear 20 1013 34 0 0.91 51 19:19 23.04.2020
4404 Clear 22 1017 22 0 0.45 67 18:40 23.04.2020
4405 Clear 21 1017 22 0 0.45 67 18:22 23.04.2020
4406 Clear 21 1015 27 0 1.79 323 17:57 23.04.2020
4407 Clear 21 1013 33 0 0.45 269 17:39 23.04.2020
4408 Clear 21 1017 24 0 0.45 202 17:21 23.04.2020
4409 Clear 21 1013 36 0 1.99 344 16:55 23.04.2020
4410 Clear 21 1013 36 0 1.99 344 16:37 23.04.2020
4411 Clear 21 1013 37 0 1.99 344 16:18 23.04.2020
4412 Clear 20 1014 38 0 1.99 344 15:41 23.04.2020
4413 Clear 21 1014 38 0 1.99 344 15:41 23.04.2020
4414 Clear 20 1014 39 0 0.45 89 15:22 23.04.2020
4415 Clear 20 1014 40 0 0.89 291 14:56 23.04.2020
4416 Clear 20 1014 40 0 0.89 291 14:37 23.04.2020
4417 Clear 20 1018 29 0 0.45 225 14:18 23.04.2020
4418 Clear 21 1019 30 0 0.89 225 13:40 23.04.2020
4419 Clear 20 1019 31 0 0.89 180 13:22 23.04.2020
4420 Clear 20 1018 37 0 0.89 226 12:58 23.04.2020
4421 Clear 19 1016 35 0 2.26 342 12:40 23.04.2020
4422 Clear 17 1015 47 0 1.57 332 12:21 23.04.2020
4423 Clear 18 1016 48 0 1.79 262 11:47 23.04.2020
4424 Clear 17 1019 44 0 0.45 25 11:28 23.04.2020
4425 Clear 16 1017 44 0 1.57 332 10:59 23.04.2020
4426 Clear 16 1017 46 0 1.57 332 10:40 23.04.2020
4427 Clear 14 1017 50 0 1.57 332 10:20 23.04.2020
4428 Clear 12 1017 56 0 1.57 332 09:41 23.04.2020
4429 Clear 10 1017 58 0 0.68 90 09:19 23.04.2020
4430 Clear 11 1017 65 0 0.68 90 08:52 23.04.2020
4431 Clear 10 1017 69 0 0.68 90 08:32 23.04.2020
4432 Clear 8 1017 71 0 0.68 90 07:59 23.04.2020
4433 Clear 8 1016 72 0 0.68 90 07:40 23.04.2020
4434 Clear 8 1016 68 0 0.68 90 07:22 23.04.2020
4435 Clear 8 1016 67 0 0.68 90 06:46 23.04.2020
4436 Clear 8 1015 64 0 1.5 93 05:54 23.04.2020
4437 Clear 9 1015 62 0 1.5 93 05:22 23.04.2020
4438 Clear 9 1015 59 0 1.5 93 04:50 23.04.2020
4439 Clear 11 1016 60 0 1.71 91 02:24 23.04.2020
4440 Clear 10 1013 40 0 1.71 91 01:41 23.04.2020
4441 Clear 12 1016 53 0 0.45 166 00:57 23.04.2020
4442 Clear 11 1012 40 0 1.71 91 00:36 23.04.2020
4443 Clear 11 1016 34 0 1.92 102 00:18 23.04.2020
4444 Clear 11 1012 40 0 1.92 102 23:42 22.04.2020
4445 Clear 10 1012 40 0 1.92 102 23:22 22.04.2020
4446 Clear 11 1012 41 0 1.92 102 22:54 22.04.2020
4447 Clear 11 1012 41 0 1.92 102 22:36 22.04.2020
4448 Clear 12 1012 41 0 1.92 102 22:18 22.04.2020
4449 Clear 14 1011 41 0 1.92 102 21:54 22.04.2020
4450 Clear 16 1011 41 0 1.92 102 21:36 22.04.2020
4451 Clear 15 1015 25 0 2.83 60 21:18 22.04.2020
4452 Clear 17 1014 30 10000 5.1 360 20:43 22.04.2020
4453 Clear 17 1011 36 0 2.83 60 20:19 22.04.2020
4454 Clear 19 1013 26 10000 6.7 360 19:57 22.04.2020
4455 Clear 20 1013 24 10000 6.7 10 19:38 22.04.2020
4456 Clear 21 1013 24 10000 6.7 10 19:18 22.04.2020
4457 Clear 20 1014 21 0 2.24 247 19:18 22.04.2020
4458 Clear 22 1013 25 10000 6.7 360 18:58 22.04.2020
4459 Clear 22 1013 25 10000 6.7 360 18:40 22.04.2020
4460 Clear 22 1013 25 10000 6.7 360 18:40 22.04.2020
4461 Clear 20 1010 39 0 0.89 310 18:22 22.04.2020
4462 Clear 20 1010 40 0 0.89 312 17:55 22.04.2020
4463 Clear 20 1010 40 0 0.89 312 17:37 22.04.2020
4464 Clear 21 1013 24 0 1.34 292 17:18 22.04.2020
4465 Clear 21 1010 43 0 1.34 327 16:41 22.04.2020
4466 Clear 21 1013 33 0 1.79 6 16:22 22.04.2020
4467 Clear 20 1010 46 0 0.89 295 15:43 22.04.2020
4468 Clear 19 1010 47 0 0.89 344 15:24 22.04.2020
4469 Clear 20 1014 37 0 2.24 335 14:59 22.04.2020
4470 Clear 20 1010 47 0 0.89 271 14:59 22.04.2020
4471 Clear 19 1010 47 0 0.89 271 14:40 22.04.2020
4472 Clear 19 1014 31 0 1.79 247 14:20 22.04.2020
4473 Clear 20 1014 38 0 3.13 349 13:56 22.04.2020
4474 Clear 18 1011 49 0 0.45 9 13:38 22.04.2020
4475 Clear 18 1010 49 0 0.89 118 13:19 22.04.2020
4476 Clear 19 1012 34 0 2.68 23 12:41 22.04.2020
4477 Clear 16 1011 48 0 0.89 86 12:23 22.04.2020
4478 Clear 17 1013 49 0 0.89 211 11:57 22.04.2020
4479 Clear 17 1012 38 0 1.81 6 11:36 22.04.2020
4480 Clear 16 1012 40 0 1.81 6 11:18 22.04.2020
4481 Clear 15 1012 43 0 0.89 317 10:41 22.04.2020
4482 Clear 15 1012 45 0 1.81 6 10:21 22.04.2020
4483 Clear 12 1012 52 0 1.81 6 09:41 22.04.2020
4484 Clear 9 1011 47 0 0.89 307 09:23 22.04.2020
4485 Clear 9 1012 59 0 1.42 62 08:59 22.04.2020
4486 Clear 9 1012 61 0 1.42 62 08:41 22.04.2020
4487 Clear 9 1012 60 0 1.42 62 08:22 22.04.2020
4488 Clear 8 1011 63 0 1.42 62 07:53 22.04.2020
4489 Clear 8 1011 63 0 1.42 62 07:33 22.04.2020
4490 Clear 8 1011 60 0 1.42 62 06:53 22.04.2020
4491 Clear 7 1009 46 0 0.45 176 06:23 22.04.2020
4492 Clear 8 1013 49 0 1.97 84 05:38 22.04.2020
4493 Clear 9 1012 63 0 0.45 147 04:34 22.04.2020
4494 Clouds 10 1012 41 0 2.35 85 02:59 22.04.2020
4495 Clouds 12 1010 61 0 0.89 50 01:55 22.04.2020
4496 Clouds 12 1010 57 0 0.45 19 01:28 22.04.2020
4497 Clouds 12 1010 55 0 1.79 40 00:59 22.04.2020
4498 Clouds 12 1010 55 0 1.79 40 00:59 22.04.2020
4499 Clouds 12 1010 57 0 1.34 46 00:41 22.04.2020
4500 Clouds 11 1012 47 0 0.89 63 00:20 22.04.2020
4501 Clouds 13 1011 41 9000 4.6 360 23:44 21.04.2020
4502 Clouds 13 1011 41 9000 4.1 360 23:20 21.04.2020
4503 Clouds 14 1011 56 10000 4.1 10 22:55 21.04.2020
4504 Clouds 16 1011 56 10000 4.1 20 22:37 21.04.2020
4505 Clouds 16 1011 56 10000 4.1 20 22:19 21.04.2020
4506 Clouds 17 1010 31 0 1.34 247 21:42 21.04.2020
4507 Clear 14 1007 45 0 1.34 308 21:23 21.04.2020
4508 Clouds 14 1007 46 0 0.89 325 20:58 21.04.2020
4509 Clear 14 1007 46 0 0.89 325 20:40 21.04.2020
4510 Clear 15 1007 45 0 0.45 24 20:21 21.04.2020
4511 Clouds 18 1007 44 0 0.89 280 19:56 21.04.2020
4512 Clouds 18 1007 44 0 0.89 280 19:36 21.04.2020
4513 Clear 19 1007 32 0 0.45 30 19:18 21.04.2020
4514 Clouds 19 1007 44 0 0.89 287 18:54 21.04.2020
4515 Clear 19 1007 44 0 0.89 287 18:36 21.04.2020
4516 Clouds 20 1007 32 0 5.01 63 18:18 21.04.2020
4517 Clouds 20 1006 33 0 0.45 31 17:39 21.04.2020
4518 Clear 20 1006 33 0 5.27 64 17:19 21.04.2020
4519 Clouds 20 1006 33 0 0.45 36 16:54 21.04.2020
4520 Clouds 20 1006 33 0 0.45 38 16:36 21.04.2020
4521 Clouds 20 1006 33 0 0.45 38 16:18 21.04.2020
4522 Clouds 19 1007 48 0 0.45 264 15:54 21.04.2020
4523 Clouds 19 1007 38 0 5.01 63 15:36 21.04.2020
4524 Clouds 19 1007 38 0 4.18 55 15:18 21.04.2020
4525 Clouds 19 1007 37 0 4.18 55 14:43 21.04.2020
4526 Clouds 19 1007 37 0 0.45 323 14:23 21.04.2020
4527 Clouds 18 1007 37 0 1.34 321 13:55 21.04.2020
4528 Clouds 17 1007 48 0 0.89 309 13:37 21.04.2020
4529 Clouds 16 1006 48 0 1.34 283 13:18 21.04.2020
4530 Clouds 16 1007 46 0 4.18 55 12:38 21.04.2020
4531 Clouds 15 1007 47 0 2.93 45 12:19 21.04.2020
4532 Clouds 15 1007 47 0 0.89 31 11:57 21.04.2020
4533 Clouds 15 1007 50 0 0.45 347 11:38 21.04.2020
4534 Clouds 14 1007 51 0 2.93 45 11:19 21.04.2020
4535 Clouds 14 1007 50 0 2.93 45 10:59 21.04.2020
4536 Clouds 13 1007 53 0 0.89 342 10:39 21.04.2020
4537 Clouds 13 1007 55 0 2.93 45 10:21 21.04.2020
4538 Clouds 12 1007 58 0 2.93 45 09:57 21.04.2020
4539 Clouds 11 1007 58 0 2.93 45 09:36 21.04.2020
4540 Clouds 10 1007 61 0 2.66 62 09:18 21.04.2020
4541 Clouds 10 1007 60 0 2.66 62 08:43 21.04.2020
4542 Clouds 9 1006 53 0 0.89 16 08:25 21.04.2020
4543 Clouds 9 1006 53 0 0.89 16 08:25 21.04.2020
4544 Clouds 8 1009 69 0 0.89 221 07:52 21.04.2020
4545 Clouds 8 1006 53 0 0.45 280 07:27 21.04.2020
4546 Clouds 8 1005 53 0 1.34 7 06:51 21.04.2020
4547 Clouds 8 1010 71 0 0.89 135 06:33 21.04.2020
4548 Clouds 9 1009 71 0 2.71 69 05:50 21.04.2020
4549 Clouds 9 1009 69 0 2.71 69 05:20 21.04.2020
4550 Clouds 10 1009 64 0 0.45 112 03:46 21.04.2020
4551 Clouds 11 1010 62 0 2.68 65 02:42 21.04.2020
4552 Clouds 13 1010 57 0 2.68 65 01:31 21.04.2020
4553 Clouds 13 1010 51 0 1.79 315 00:39 21.04.2020
4554 Clouds 11 1009 60 0 1.79 184 00:19 21.04.2020
4555 Clouds 13 1010 63 0 0.89 17 23:43 20.04.2020
4556 Clouds 12 1006 54 0 0.45 285 23:21 20.04.2020
4557 Clouds 12 1010 59 0 1.79 179 22:56 20.04.2020
4558 Clouds 12 1010 58 0 1.34 197 22:36 20.04.2020
4559 Clouds 14 1010 58 0 1.34 182 22:18 20.04.2020
4560 Clouds 15 1010 42 10000 4.6 20 21:54 20.04.2020
4561 Clouds 15 1010 42 9000 4.6 10 21:36 20.04.2020
4562 Clouds 14 1006 51 0 0.89 305 21:18 20.04.2020
4563 Clouds 14 1006 51 0 0.89 276 20:55 20.04.2020
4564 Clouds 14 1006 51 0 0.89 276 20:36 20.04.2020
4565 Clouds 16 1007 41 0 4.01 64 20:18 20.04.2020
4566 Clouds 17 1006 50 0 0.89 325 19:41 20.04.2020
4567 Clouds 19 1006 38 0 0.89 32 19:23 20.04.2020
4568 Clouds 19 1007 41 0 6.71 69 18:59 20.04.2020
4569 Clouds 19 1008 33 0 4.47 315 18:40 20.04.2020
4570 Clouds 19 1006 37 0 0.89 7 18:20 20.04.2020
4571 Clouds 18 1006 50 0 1.34 299 17:55 20.04.2020
4572 Clouds 19 1006 50 0 1.34 299 17:36 20.04.2020
4573 Clouds 19 1008 33 0 4.47 292 17:18 20.04.2020
4574 Clouds 19 1006 52 0 0.89 17 16:43 20.04.2020
4575 Clouds 19 1007 42 0 4.47 32 16:21 20.04.2020
4576 Clouds 19 1007 51 0 2.24 340 15:57 20.04.2020
4577 Clouds 19 1007 51 0 2.24 340 15:39 20.04.2020
4578 Clouds 19 1009 35 0 3.58 225 15:21 20.04.2020
4579 Clouds 19 1009 35 0 2.68 247 14:54 20.04.2020
4580 Clouds 19 1007 52 0 0.89 295 14:36 20.04.2020
4581 Clouds 19 1009 35 0 1.79 247 14:18 20.04.2020
4582 Clouds 18 1007 53 0 0.89 307 13:40 20.04.2020
4583 Clouds 18 1006 54 0 0.89 302 13:22 20.04.2020
4584 Clouds 17 1007 54 0 1.34 317 12:45 20.04.2020
4585 Clouds 16 1010 51 0 4.92 344 12:26 20.04.2020
4586 Clouds 16 1010 52 0 3.58 44 11:59 20.04.2020
4587 Clouds 16 1010 52 0 3.58 44 11:59 20.04.2020
4588 Clouds 16 1007 53 0 2.24 318 11:39 20.04.2020
4589 Clouds 16 1007 54 0 1.34 322 11:20 20.04.2020
4590 Clouds 15 1007 54 0 0.89 337 10:56 20.04.2020
4591 Clouds 15 1007 54 0 0.89 337 10:38 20.04.2020
4592 Clouds 14 1007 56 0 0.89 306 10:19 20.04.2020
4593 Clouds 14 1008 62 0 1.79 306 09:55 20.04.2020
4594 Clouds 13 1008 67 0 3.13 53 09:36 20.04.2020
4595 Clouds 12 1011 71 0 1.34 121 09:18 20.04.2020
4596 Clouds 12 1008 74 0 3.23 57 08:41 20.04.2020
4597 Clouds 11 1008 75 0 3.23 57 08:21 20.04.2020
4598 Clouds 11 1008 75 0 3.23 57 07:52 20.04.2020
4599 Clouds 11 1008 74 0 1.79 300 07:29 20.04.2020
4600 Clouds 12 1008 74 0 0.89 357 06:57 20.04.2020
4601 Clouds 12 1008 73 0 0.45 7 06:36 20.04.2020
4602 Clouds 13 1008 73 0 2.46 55 05:41 20.04.2020
4603 Clouds 11 1012 73 0 2.46 55 04:18 20.04.2020
4604 Clouds 11 1012 74 0 2.99 56 02:46 20.04.2020
4605 Clouds 11 1012 74 0 2.99 56 02:46 20.04.2020
4606 Clouds 11 1012 74 0 2.99 56 01:52 20.04.2020
4607 Clouds 11 1012 74 0 2.99 56 01:28 20.04.2020
4608 Clouds 11 1012 74 0 2.99 56 00:37 20.04.2020
4609 Clouds 13 1012 72 0 1.34 148 23:59 19.04.2020
4610 Clouds 13 1012 74 0 3.12 63 23:39 19.04.2020
4611 Clouds 13 1012 74 0 3.12 63 23:20 19.04.2020
4612 Clouds 13 1012 74 0 3.12 63 22:43 19.04.2020
4613 Clouds 13 1012 74 0 3.12 63 22:23 19.04.2020
4614 Clouds 13 1012 74 0 3.12 63 21:59 19.04.2020
4615 Clouds 19 1012 47 0 0.45 292 21:41 19.04.2020
4616 Clouds 19 1012 47 0 0.45 292 21:41 19.04.2020
4617 Rain 18 1010 55 0 3.13 7 21:22 19.04.2020
4618 Rain 19 1010 59 0 1.79 30 20:56 19.04.2020
4619 Rain 19 1011 45 0 3.54 48 20:38 19.04.2020
4620 Rain 20 1008 55 0 3.54 48 20:19 19.04.2020
4621 Rain 21 1008 53 0 0.45 2 19:55 19.04.2020
4622 Rain 21 1008 52 0 0.45 15 19:37 19.04.2020
4623 Rain 21 1007 50 0 3.13 318 19:19 19.04.2020
4624 Rain 21 1007 49 0 3.58 7 18:54 19.04.2020
4625 Rain 22 1007 49 0 4.02 352 18:36 19.04.2020
4626 Rain 21 1007 49 0 4.02 15 18:18 19.04.2020
4627 Rain 22 1008 47 0 4.02 322 17:42 19.04.2020
4628 Rain 22 1008 47 0 4.02 322 17:41 19.04.2020
4629 Rain 21 1012 40 0 2.24 292 17:23 19.04.2020
4630 Rain 22 1012 38 0 2.24 292 17:00 19.04.2020
4631 Rain 22 1012 38 0 2.24 292 16:39 19.04.2020
4632 Rain 22 1012 38 0 2.24 292 16:39 19.04.2020
4633 Rain 23 1010 47 0 3.58 349 16:21 19.04.2020
4634 Rain 23 1010 47 0 3.58 349 16:21 19.04.2020
4635 Rain 23 1011 48 0 2.68 8 15:55 19.04.2020
4636 Rain 23 1013 39 0 1.79 135 15:36 19.04.2020
4637 Rain 21 1008 48 0 0.45 95 15:18 19.04.2020
4638 Rain 22 1013 41 0 1.79 112 14:39 19.04.2020
4639 Rain 21 1013 43 0 1.34 247 14:20 19.04.2020
4640 Rain 20 1010 53 0 1.34 293 13:56 19.04.2020
4641 Rain 20 1010 53 0 1.34 293 13:36 19.04.2020
4642 Rain 19 1010 58 0 0.89 311 13:18 19.04.2020
4643 Rain 19 1010 59 0 0.45 304 12:43 19.04.2020
4644 Clouds 18 1011 61 0 0.89 71 12:24 19.04.2020
4645 Clouds 18 1011 63 0 0.89 282 11:39 19.04.2020
4646 Clouds 17 1011 66 0 0.45 277 11:20 19.04.2020
4647 Clouds 17 1012 64 0 0.45 30 10:59 19.04.2020
4648 Clouds 17 1013 66 0 2.09 11 10:41 19.04.2020
4649 Clouds 17 1013 69 0 0.45 302 10:21 19.04.2020
4650 Clouds 17 1013 69 0 0.45 302 10:21 19.04.2020
4651 Clouds 15 1013 71 0 0.45 357 09:57 19.04.2020
4652 Clouds 14 1013 74 0 2.08 6 09:38 19.04.2020
4653 Clouds 14 1013 76 0 0.71 59 09:18 19.04.2020
4654 Clouds 12 1013 78 0 0.56 79 08:40 19.04.2020
4655 Clouds 11 1013 77 0 0.56 79 08:21 19.04.2020
4656 Clouds 11 1012 78 0 0.71 59 07:48 19.04.2020
4657 Clouds 11 1012 78 0 0.56 79 07:25 19.04.2020
4658 Clouds 11 1012 78 0 0.56 79 07:25 19.04.2020
4659 Clouds 10 1012 79 0 0.56 79 06:57 19.04.2020
4660 Clouds 10 1012 78 0 0.78 101 06:23 19.04.2020
4661 Clouds 11 1013 77 0 0.78 101 05:35 19.04.2020
4662 Clouds 12 1013 70 0 0.69 133 03:54 19.04.2020
4663 Clouds 12 1013 69 0 0.47 103 02:50 19.04.2020
4664 Clouds 12 1013 69 0 0.45 21 02:18 19.04.2020
4665 Clouds 13 1013 68 0 0.54 113 01:26 19.04.2020
4666 Clouds 14 1013 66 0 0.54 113 00:41 19.04.2020
4667 Clouds 14 1013 66 0 0.54 113 00:41 19.04.2020
4668 Rain 14 1014 66 0 0.53 112 00:20 19.04.2020
4669 Rain 14 1014 65 0 0.53 112 23:44 18.04.2020
4670 Rain 14 1014 64 0 0.53 112 23:21 18.04.2020
4671 Rain 15 1014 63 0 0.53 112 22:56 18.04.2020
4672 Rain 15 1014 61 0 0.53 112 22:38 18.04.2020
4673 Rain 15 1014 59 0 0.53 112 22:19 18.04.2020
4674 Rain 16 1016 63 0 1.34 166 21:55 18.04.2020
4675 Rain 16 1015 59 0 0.53 112 21:37 18.04.2020
4676 Rain 18 1015 60 0 0.89 180 21:19 18.04.2020
4677 Rain 18 1016 47 0 0.67 349 20:40 18.04.2020
4678 Rain 20 1013 47 0 0.67 349 20:21 18.04.2020
4679 Rain 20 1014 47 0 0.89 355 19:44 18.04.2020
4680 Rain 21 1012 42 0 0.89 336 19:25 18.04.2020
4681 Rain 21 1012 42 0 0.45 322 18:59 18.04.2020
4682 Rain 23 1012 41 0 0.67 349 18:37 18.04.2020
4683 Rain 23 1012 41 0 0.67 349 18:37 18.04.2020
4684 Rain 22 1012 42 0 1.65 284 18:19 18.04.2020
4685 Rain 22 1012 42 0 1.65 284 18:19 18.04.2020
4686 Rain 22 1013 44 0 1.65 284 17:43 18.04.2020
4687 Rain 22 1013 42 0 1.65 284 17:21 18.04.2020
4688 Rain 22 1013 44 0 2.68 357 16:57 18.04.2020
4689 Rain 22 1013 47 0 0.89 315 16:38 18.04.2020
4690 Rain 22 1013 45 0 2.24 317 16:19 18.04.2020
4691 Rain 21 1011 43 0 0.89 168 15:39 18.04.2020
4692 Clouds 21 1012 46 0 1.34 157 15:21 18.04.2020
4693 Clouds 22 1013 41 0 0.89 223 14:47 18.04.2020
4694 Clouds 22 1015 46 0 3.58 281 14:29 18.04.2020
4695 Clouds 21 1013 51 0 2.87 243 13:59 18.04.2020
4696 Clouds 21 1013 42 0 2.24 215 13:41 18.04.2020
4697 Clouds 20 1013 53 0 2.87 243 13:20 18.04.2020
4698 Clouds 20 1014 45 0 1.34 196 12:42 18.04.2020
4699 Clouds 19 1013 54 0 0.89 245 12:24 18.04.2020
4700 Clouds 19 1016 49 0 3.13 236 11:56 18.04.2020
4701 Clouds 18 1013 56 0 0.89 111 11:37 18.04.2020
4702 Clouds 18 1013 59 0 1.34 129 11:19 18.04.2020
4703 Clouds 17 1013 61 0 1.34 122 10:42 18.04.2020
4704 Clouds 17 1013 61 0 1.34 146 10:21 18.04.2020
4705 Clouds 16 1014 52 0 3.13 97 09:58 18.04.2020
4706 Clouds 16 1014 52 0 3.13 207 09:39 18.04.2020
4707 Clouds 15 1014 55 0 1.79 122 09:20 18.04.2020
4708 Clouds 13 1014 63 0 1.49 185 08:42 18.04.2020
4709 Clouds 12 1014 64 0 1.49 185 08:21 18.04.2020
4710 Clouds 12 1013 66 0 1.49 185 07:47 18.04.2020
4711 Clouds 11 1013 68 0 1.49 185 07:28 18.04.2020
4712 Clouds 11 1013 66 0 1.49 185 06:42 18.04.2020
4713 Clouds 12 1012 64 0 1.13 182 05:49 18.04.2020
4714 Clouds 13 1012 63 0 1.13 182 04:55 18.04.2020
4715 Clouds 13 1012 63 0 1.13 182 04:31 18.04.2020
4716 Clouds 13 1012 60 0 1.36 166 03:33 18.04.2020
4717 Clouds 13 1012 61 0 1.34 165 02:40 18.04.2020
4718 Clouds 14 1012 61 0 1.34 165 02:21 18.04.2020
4719 Clouds 14 1012 61 0 1.34 165 02:21 18.04.2020
4720 Clouds 14 1012 59 0 1.34 165 01:45 18.04.2020
4721 Clouds 15 1012 58 0 1.34 165 01:22 18.04.2020
4722 Rain 16 1012 55 0 1.04 145 00:24 18.04.2020
4723 Rain 16 1012 53 0 1.04 145 23:59 17.04.2020
4724 Rain 16 1014 55 0 0.89 136 23:40 17.04.2020
4725 Rain 16 1015 40 0 1.04 145 23:20 17.04.2020
4726 Rain 14 1016 61 0 1.04 145 22:58 17.04.2020
4727 Rain 14 1016 60 0 1.04 145 22:40 17.04.2020
4728 Rain 14 1016 59 0 1.04 145 22:20 17.04.2020
4729 Rain 18 1013 44 0 2.24 180 21:58 17.04.2020
4730 Rain 21 1013 44 0 2.24 180 21:39 17.04.2020
4731 Rain 18 1015 33 0 0.89 135 21:19 17.04.2020
4732 Rain 21 1015 31 0 0.45 157 20:55 17.04.2020
4733 Rain 17 1014 56 0 0.44 62 20:36 17.04.2020
4734 Rain 19 1011 42 0 0.44 62 20:18 17.04.2020
4735 Rain 21 1011 40 0 0.44 62 19:46 17.04.2020
4736 Rain 23 1011 29 0 0.44 62 19:24 17.04.2020
4737 Rain 23 1013 32 0 0.45 246 18:55 17.04.2020
4738 Rain 23 1011 39 0 0.45 111 18:36 17.04.2020
4739 Clouds 23 1011 39 0 0.89 327 18:18 17.04.2020
4740 Clouds 23 1011 39 0 0.89 327 17:38 17.04.2020
4741 Clouds 23 1015 24 0 2.24 90 17:20 17.04.2020
4742 Clouds 23 1015 24 0 2.24 90 17:20 17.04.2020
4743 Clouds 23 1013 28 0 1.79 188 16:58 17.04.2020
4744 Clouds 23 1011 42 0 0.45 130 16:39 17.04.2020
4745 Clouds 23 1015 25 0 1.79 157 16:21 17.04.2020
4746 Clouds 23 1011 44 0 0.45 269 15:39 17.04.2020
4747 Clouds 23 1014 31 0 1.79 212 15:21 17.04.2020
4748 Clouds 22 1012 49 0 1.29 284 14:54 17.04.2020
4749 Clouds 22 1012 49 0 1.33 295 14:36 17.04.2020
4750 Clouds 22 1013 49 0 0.45 269 14:18 17.04.2020
4751 Clouds 21 1013 50 0 1.34 132 13:40 17.04.2020
4752 Clouds 22 1015 36 10000 1.5 0 13:20 17.04.2020
4753 Clouds 22 1015 35 10000 1 0 12:48 17.04.2020
4754 Clear 21 1015 35 10000 1 0 12:27 17.04.2020
4755 Clear 21 1016 43 10000 1 0 11:59 17.04.2020
4756 Clear 20 1016 48 10000 1 0 11:40 17.04.2020
4757 Clear 20 1016 48 10000 1 0 11:19 17.04.2020
4758 Clear 19 1016 55 10000 1 0 10:40 17.04.2020
4759 Clear 18 1016 55 10000 1 0 10:21 17.04.2020
4760 Clear 16 1016 62 10000 1.5 0 09:57 17.04.2020
4761 Clear 15 1017 67 10000 1.5 0 09:38 17.04.2020
4762 Clouds 13 1017 67 10000 1.5 0 09:19 17.04.2020
4763 Clouds 12 1017 81 10000 0.5 0 08:48 17.04.2020
4764 Clouds 12 1017 81 10000 0.5 0 08:27 17.04.2020
4765 Clouds 10 1017 81 10000 1.59 183 07:58 17.04.2020
4766 Clouds 10 1016 81 10000 0.5 0 07:39 17.04.2020
4767 Clouds 10 1016 81 8000 1.5 170 07:19 17.04.2020
4768 Clouds 10 1016 76 8000 1.5 140 06:44 17.04.2020
4769 Clouds 10 1016 76 8000 2.1 210 05:58 17.04.2020
4770 Clouds 11 1016 76 10000 2.1 160 03:36 17.04.2020
4771 Clouds 12 1016 58 7000 3.1 270 03:18 17.04.2020
4772 Clouds 12 1016 51 7000 2.1 230 01:52 17.04.2020
4773 Clouds 12 1016 62 9000 1 0 01:22 17.04.2020
4774 Clouds 14 1016 51 7000 2.1 240 00:26 17.04.2020
4775 Clouds 14 1016 51 7000 2.1 240 23:56 16.04.2020
4776 Clouds 14 1016 51 8000 0.5 0 23:38 16.04.2020
4777 Clouds 14 1015 45 7000 2.1 300 23:19 16.04.2020
4778 Clouds 14 1016 62 10000 1.5 130 22:55 16.04.2020
4779 Clouds 15 1016 62 10000 1.5 130 22:36 16.04.2020
4780 Clouds 15 1015 51 10000 1.5 80 22:18 16.04.2020
4781 Clouds 16 1015 42 9000 1 0 21:41 16.04.2020
4782 Rain 17 1015 40 10000 3.1 280 21:20 16.04.2020
4783 Rain 18 1015 40 10000 3.1 280 20:57 16.04.2020
4784 Rain 18 1015 37 10000 3.1 280 20:38 16.04.2020
4785 Rain 19 1014 35 10000 2.1 210 20:19 16.04.2020
4786 Rain 20 1014 33 10000 3.1 180 19:54 16.04.2020
4787 Rain 20 1014 33 10000 3.1 180 19:36 16.04.2020
4788 Rain 22 1015 29 10000 4.1 160 19:18 16.04.2020
4789 Rain 23 1015 29 10000 4.1 180 18:41 16.04.2020
4790 Clear 23 1015 27 10000 2.6 160 18:21 16.04.2020
4791 Clear 24 1015 25 10000 4.1 170 17:56 16.04.2020
4792 Clear 24 1015 25 10000 4.1 170 17:38 16.04.2020
4793 Clear 24 1015 27 10000 2.6 0 17:18 16.04.2020
4794 Clouds 24 1015 27 10000 2.6 120 16:42 16.04.2020
4795 Clear 23 1016 31 10000 2.1 200 16:23 16.04.2020
4796 Clear 23 1016 33 10000 1.5 0 15:45 16.04.2020
4797 Clouds 23 1017 31 10000 1.5 0 15:20 16.04.2020
4798 Clouds 23 1017 31 10000 1.5 0 14:59 16.04.2020
4799 Clouds 22 1017 33 10000 2.6 0 14:40 16.04.2020
4800 Clouds 22 1017 35 10000 2.6 120 14:22 16.04.2020
4801 Clouds 22 1017 35 10000 2.6 120 13:58 16.04.2020
4802 Clouds 22 1018 35 10000 1.5 60 13:58 16.04.2020
4803 Clouds 21 1018 35 10000 1.5 60 13:40 16.04.2020
4804 Clouds 21 1018 40 10000 1.5 0 13:21 16.04.2020
4805 Clouds 21 1018 40 10000 1.5 0 13:21 16.04.2020
4806 Clouds 21 1018 39 10000 1 0 12:57 16.04.2020
4807 Clouds 20 1018 39 10000 1 0 12:38 16.04.2020
4808 Clouds 19 1019 45 10000 1 0 12:19 16.04.2020
4809 Clouds 18 1019 45 10000 1 0 11:56 16.04.2020
4810 Clouds 18 1019 48 10000 1 0 11:38 16.04.2020
4811 Clouds 17 1019 47 10000 1 0 11:19 16.04.2020
4812 Clouds 16 1019 54 10000 1.5 0 10:55 16.04.2020
4813 Clouds 15 1019 54 10000 1.5 0 10:36 16.04.2020
4814 Clouds 15 1019 54 10000 2.6 200 10:18 16.04.2020
4815 Clouds 13 1019 61 10000 2.6 210 09:39 16.04.2020
4816 Clouds 10 1019 61 10000 2.6 180 09:20 16.04.2020
4817 Clouds 9 1019 61 10000 2.6 180 08:56 16.04.2020
4818 Clouds 8 1019 70 10000 2.1 200 08:36 16.04.2020
4819 Clouds 7 1020 75 10000 1.5 190 08:18 16.04.2020
4820 Clouds 7 1020 75 10000 1.5 190 08:18 16.04.2020
4821 Clear 6 1019 80 10000 1 0 07:42 16.04.2020
4822 Clouds 6 1019 75 10000 1.5 160 07:21 16.04.2020
4823 Clouds 5 1019 75 10000 1.5 150 06:41 16.04.2020
4824 Clear 6 1019 80 10000 1.91 168 06:23 16.04.2020
4825 Clear 6 1019 65 10000 1.5 220 04:54 16.04.2020
4826 Clouds 7 1020 65 10000 3.1 220 03:29 16.04.2020
4827 Clouds 7 1020 61 10000 4.1 220 02:59 16.04.2020
4828 Clouds 7 1020 48 10000 1.5 260 02:39 16.04.2020
4829 Clear 7 1020 48 10000 1 220 01:58 16.04.2020
4830 Clear 8 1020 65 10000 1 0 00:57 16.04.2020
4831 Clouds 9 1020 53 8000 3.6 270 00:26 16.04.2020
4832 Clouds 9 1020 53 7000 4.1 270 23:56 15.04.2020
4833 Clouds 9 1020 53 7000 4.1 270 23:38 15.04.2020
4834 Clouds 10 1020 46 7000 5.1 270 23:19 15.04.2020
4835 Clouds 10 1020 46 7000 4.6 270 22:40 15.04.2020
4836 Clouds 11 1020 43 9000 4.1 280 22:21 15.04.2020
4837 Clouds 10 1020 50 10000 1.5 0 21:58 15.04.2020
4838 Clouds 11 1020 50 10000 1.5 0 21:40 15.04.2020
4839 Clear 12 1019 41 10000 2.1 320 21:22 15.04.2020
4840 Clear 12 1019 41 10000 2.1 320 20:57 15.04.2020
4841 Clear 14 1019 54 10000 2.1 320 20:39 15.04.2020
4842 Clear 15 1019 33 10000 2.6 340 20:21 15.04.2020
4843 Clear 15 1019 31 10000 2.1 330 19:42 15.04.2020
4844 Clear 17 1019 54 10000 1.5 340 19:21 15.04.2020
4845 Clear 18 1019 54 10000 1.5 360 18:55 15.04.2020
4846 Clear 18 1019 54 10000 1.5 360 18:36 15.04.2020
4847 Clear 19 1020 25 10000 1.5 0 18:18 15.04.2020
4848 Clear 19 1020 25 10000 1 0 17:40 15.04.2020
4849 Clear 19 1020 27 10000 1 0 17:21 15.04.2020
4850 Clear 19 1020 27 10000 1 0 16:58 15.04.2020
4851 Clear 19 1021 29 10000 1.5 0 16:39 15.04.2020
4852 Clear 19 1021 29 10000 1 0 16:20 15.04.2020
4853 Clear 19 1021 29 10000 1 0 15:59 15.04.2020
4854 Clear 18 1022 29 10000 1.5 0 15:40 15.04.2020
4855 Clear 18 1022 30 10000 2.1 330 15:20 15.04.2020
4856 Clear 18 1022 30 10000 2.1 330 15:20 15.04.2020
4857 Clear 17 1022 30 10000 2.1 330 14:59 15.04.2020
4858 Clear 17 1022 27 10000 2.1 0 14:40 15.04.2020
4859 Clear 17 1023 30 10000 1 0 14:22 15.04.2020
4860 Clear 16 1023 28 10000 1.5 0 13:58 15.04.2020
4861 Clear 16 1023 28 10000 1.5 0 13:39 15.04.2020
4862 Clear 15 1023 35 10000 1.5 0 13:21 15.04.2020
4863 Clear 15 1023 37 10000 2.1 60 12:57 15.04.2020
4864 Clear 14 1023 37 10000 2.1 60 12:39 15.04.2020
4865 Clear 12 1024 37 10000 2.1 60 12:21 15.04.2020
4866 Clear 12 1024 37 10000 2.1 80 11:45 15.04.2020
4867 Clear 11 1024 37 10000 2.1 80 11:25 15.04.2020
4868 Clear 10 1024 42 10000 2.1 40 10:59 15.04.2020
4869 Clear 9 1024 42 10000 2.1 40 10:37 15.04.2020
4870 Clear 9 1024 45 10000 2.1 30 10:19 15.04.2020
4871 Clear 7 1024 42 10000 0.5 0 09:56 15.04.2020
4872 Clear 6 1024 42 10000 0.5 0 09:37 15.04.2020
4873 Clear 4 1024 48 10000 1 0 09:19 15.04.2020
4874 Clear 3 1024 59 10000 2.1 290 08:42 15.04.2020
4875 Clear 2 1024 64 10000 3.1 280 08:23 15.04.2020
4876 Clear 1 1023 69 10000 2.1 310 07:59 15.04.2020
4877 Clear 1 1023 69 10000 2.1 310 07:40 15.04.2020
4878 Clear 1 1023 64 10000 3.6 280 07:00 15.04.2020
4879 Clear 1 1023 59 10000 4.1 280 06:24 15.04.2020
4880 Clear 1 1023 64 10000 3.6 270 05:48 15.04.2020
4881 Clear 2 1023 59 10000 3.1 290 04:47 15.04.2020
4882 Clear 2 1023 64 10000 1 0 04:22 15.04.2020
4883 Clear 2 1023 55 10000 2.6 340 03:22 15.04.2020
4884 Clear 2 1023 64 10000 3.1 360 02:49 15.04.2020
4885 Clear 3 1024 60 10000 3.6 360 01:51 15.04.2020
4886 Clear 3 1024 56 10000 4.6 360 01:25 15.04.2020
4887 Clear 4 1024 56 10000 4.1 360 00:48 15.04.2020
4888 Clear 4 1024 52 10000 4.6 360 00:25 15.04.2020
4889 Clear 5 1024 48 10000 4.6 10 23:56 14.04.2020
4890 Clear 5 1024 48 10000 4.6 10 23:38 14.04.2020
4891 Clear 5 1024 52 10000 4.1 360 23:20 14.04.2020
4892 Clear 5 1024 52 10000 4.1 360 22:56 14.04.2020
4893 Clear 5 1024 52 10000 4.1 10 22:38 14.04.2020
4894 Clear 6 1024 48 10000 3.6 360 22:20 14.04.2020
4895 Clear 6 1024 48 10000 3.6 360 22:20 14.04.2020
4896 Clear 6 1024 48 10000 3.6 360 21:56 14.04.2020
4897 Clear 6 1024 48 10000 3.1 360 21:56 14.04.2020
4898 Clear 7 1024 48 10000 3.1 360 21:38 14.04.2020
4899 Clear 8 1023 39 10000 3.1 20 21:19 14.04.2020
4900 Clear 8 1023 39 10000 3.1 20 20:58 14.04.2020
4901 Clear 8 1023 37 10000 5.1 20 20:39 14.04.2020
4902 Clear 9 1023 34 10000 5.1 20 20:20 14.04.2020
4903 Clear 10 1023 34 10000 5.7 20 19:41 14.04.2020
4904 Clear 11 1023 30 10000 6.7 20 19:23 14.04.2020
4905 Clear 11 1022 32 10000 6.7 10 18:59 14.04.2020
4906 Clear 11 1022 32 10000 6.7 10 18:40 14.04.2020
4907 Clear 12 1022 32 10000 6.7 10 18:21 14.04.2020
4908 Clear 12 1022 32 10000 6.7 10 17:58 14.04.2020
4909 Clear 12 1022 32 10000 6.7 10 17:39 14.04.2020
4910 Clear 12 1023 30 10000 7.2 10 17:20 14.04.2020
4911 Clear 12 1023 30 10000 7.2 10 16:57 14.04.2020
4912 Clear 12 1023 34 10000 6.7 10 16:38 14.04.2020
4913 Clear 12 1023 34 10000 6.2 10 16:20 14.04.2020
4914 Clear 12 1023 34 10000 5.7 360 15:56 14.04.2020
4915 Clear 12 1023 34 10000 5.7 360 15:38 14.04.2020
4916 Clear 12 1023 37 10000 6.7 10 15:18 14.04.2020
4917 Clear 12 1023 34 10000 5.7 20 14:56 14.04.2020
4918 Clear 12 1023 34 10000 5.7 20 14:37 14.04.2020
4919 Clear 11 1024 39 10000 5.7 10 14:19 14.04.2020
4920 Clear 11 1024 39 10000 6.2 350 13:43 14.04.2020
4921 Clear 11 1024 42 10000 5.7 350 13:24 14.04.2020
4922 Clear 11 1024 36 10000 5.7 10 12:56 14.04.2020
4923 Clear 10 1024 36 10000 5.7 10 12:38 14.04.2020
4924 Clear 9 1024 42 10000 6.2 360 12:19 14.04.2020
4925 Clear 8 1024 42 10000 6.7 30 11:41 14.04.2020
4926 Clear 8 1024 42 10000 6.7 30 11:41 14.04.2020
4927 Clear 8 1024 48 10000 7.2 10 11:22 14.04.2020
4928 Clear 7 1024 48 10000 7.2 10 10:56 14.04.2020
4929 Clear 7 1024 52 10000 7.2 10 10:38 14.04.2020
4930 Clear 7 1024 52 10000 6.2 20 10:20 14.04.2020
4931 Clear 6 1024 52 10000 6.2 10 09:42 14.04.2020
4932 Clear 5 1023 59 0 3.58 21 09:23 14.04.2020
4933 Clear 4 1023 60 10000 6.2 10 08:57 14.04.2020
4934 Clear 3 1023 59 10000 5.7 10 08:39 14.04.2020
4935 Clear 3 1023 59 10000 4.6 360 08:21 14.04.2020
4936 Clear 2 1023 59 10000 5.7 10 07:51 14.04.2020
4937 Clear 2 1023 59 10000 5.1 10 07:27 14.04.2020
4938 Clear 2 1023 59 10000 4.6 10 06:45 14.04.2020
4939 Clear 3 1022 60 10000 5.1 10 05:54 14.04.2020
4940 Clear 4 1022 56 10000 5.1 10 03:50 14.04.2020
4941 Clouds 5 1021 65 10000 4.6 360 02:40 14.04.2020
4942 Clouds 7 1021 56 9000 5.1 360 01:38 14.04.2020
4943 Clouds 7 1021 70 9000 5.1 10 01:18 14.04.2020
4944 Clouds 8 1020 61 9000 5.1 360 00:32 14.04.2020
4945 Clouds 9 1019 65 10000 7.2 350 23:59 13.04.2020
4946 Clouds 8 1019 65 10000 7.2 350 23:39 13.04.2020
4947 Clouds 9 1019 66 10000 6.7 360 23:21 13.04.2020
4948 Clouds 10 1019 66 10000 6.7 360 22:56 13.04.2020
4949 Clouds 10 1019 66 10000 6.7 360 22:37 13.04.2020
4950 Clouds 10 1018 66 10000 8.2 10 22:19 13.04.2020
4951 Clouds 10 1017 66 8000 8.7 20 21:54 13.04.2020
4952 Clouds 11 1017 66 8000 8.7 20 21:36 13.04.2020
4953 Rain 11 1017 66 10000 8.7 10 21:18 13.04.2020
4954 Rain 12 1016 66 10000 7.7 20 20:41 13.04.2020
4955 Rain 13 1015 66 10000 9.8 10 20:20 13.04.2020
4956 Rain 13 1015 66 10000 9.8 10 20:20 13.04.2020
4957 Rain 14 1015 66 10000 9.8 10 19:59 13.04.2020
4958 Rain 14 1015 62 10000 9.3 10 19:37 13.04.2020
4959 Rain 14 1015 62 10000 9.3 10 19:37 13.04.2020
4960 Rain 14 1015 62 10000 9.3 10 19:37 13.04.2020
4961 Rain 16 1015 67 10000 8.2 10 19:19 13.04.2020
4962 Rain 16 1014 55 10000 7.7 30 18:58 13.04.2020
4963 Rain 16 1014 55 10000 7.7 30 18:38 13.04.2020
4964 Rain 18 1013 48 10000 7.7 30 18:20 13.04.2020
4965 Rain 18 1013 48 10000 7.7 30 18:20 13.04.2020
4966 Rain 18 1013 35 10000 5.1 20 17:58 13.04.2020
4967 Rain 19 1013 35 10000 5.1 20 17:38 13.04.2020
4968 Rain 20 1013 35 10000 5.7 20 17:19 13.04.2020
4969 Rain 20 1013 35 10000 5.7 20 16:58 13.04.2020
4970 Rain 20 1013 35 10000 5.7 20 16:58 13.04.2020
4971 Rain 20 1013 32 10000 5.1 20 16:40 13.04.2020
4972 Rain 20 1013 28 10000 2.6 40 16:20 13.04.2020
4973 Rain 21 1013 30 10000 1.5 0 15:57 13.04.2020
4974 Rain 20 1013 30 10000 1.5 0 15:39 13.04.2020
4975 Clouds 21 1014 30 10000 1.5 0 15:20 13.04.2020
4976 Clouds 20 1014 30 10000 1.5 0 14:54 13.04.2020
4977 Clouds 20 1014 30 10000 1.5 0 14:36 13.04.2020
4978 Clouds 20 1014 37 10000 1.5 0 14:18 13.04.2020
4979 Clouds 20 1015 48 10000 1 0 13:54 13.04.2020
4980 Clear 19 1015 48 10000 1 0 13:36 13.04.2020
4981 Clouds 19 1015 48 10000 0.5 0 13:18 13.04.2020
4982 Clouds 19 1015 48 10000 1 0 12:55 13.04.2020
4983 Clouds 19 1015 48 10000 1 0 12:37 13.04.2020
4984 Clouds 18 1015 45 10000 0.5 0 12:18 13.04.2020
4985 Clouds 18 1015 51 10000 0.5 0 11:41 13.04.2020
4986 Clouds 17 1015 48 10000 1 0 11:18 13.04.2020
4987 Clouds 17 1015 62 10000 1.76 252 10:56 13.04.2020
4988 Clouds 17 1015 62 10000 1.76 252 10:37 13.04.2020
4989 Clouds 16 1015 62 10000 0.5 0 10:19 13.04.2020
4990 Clouds 15 1015 66 10000 1 0 09:46 13.04.2020
4991 Clouds 12 1015 66 10000 1 0 09:26 13.04.2020
4992 Clouds 12 1014 76 10000 1.5 0 08:52 13.04.2020
4993 Clouds 11 1014 76 10000 1.5 0 08:31 13.04.2020
4994 Clouds 10 1014 76 10000 1 0 07:59 13.04.2020
4995 Clouds 10 1014 87 10000 0.5 0 07:41 13.04.2020
4996 Clouds 10 1014 87 10000 1 0 07:20 13.04.2020
4997 Clouds 10 1014 81 10000 1 0 06:47 13.04.2020
4998 Clouds 10 1014 81 8000 2.33 193 06:25 13.04.2020
4999 Clouds 10 1014 76 7000 1 0 05:32 13.04.2020
5000 Clouds 10 1014 66 7000 1 150 04:53 13.04.2020
5001 Clouds 11 1014 66 7000 1.5 0 04:24 13.04.2020
5002 Clouds 11 1014 58 7000 1.5 150 03:48 13.04.2020
5003 Rain 11 1014 62 6000 3.6 200 02:59 13.04.2020
5004 Rain 12 1014 47 7000 2.6 280 02:38 13.04.2020
5005 Rain 11 1014 58 7000 1.5 250 01:44 13.04.2020
5006 Rain 12 1014 50 7000 2.6 270 01:25 13.04.2020
5007 Rain 12 1014 47 7000 3.6 270 00:43 13.04.2020
5008 Rain 13 1014 47 7000 4.1 280 00:22 13.04.2020
5009 Rain 13 1014 47 7000 3.6 280 23:49 12.04.2020
5010 Rain 13 1013 44 7000 4.1 270 23:23 12.04.2020
5011 Rain 14 1013 44 7000 4.1 270 22:59 12.04.2020
5012 Rain 14 1013 48 6000 4.1 270 22:38 12.04.2020
5013 Rain 14 1014 48 7000 2.6 280 22:19 12.04.2020
5014 Rain 15 1014 48 7000 2.6 280 21:55 12.04.2020
5015 Clouds 15 1013 48 7000 3.1 330 21:36 12.04.2020
5016 Rain 16 1013 39 8000 2.1 20 21:18 12.04.2020
5017 Rain 17 1013 39 10000 3.1 20 20:42 12.04.2020
5018 Rain 18 1013 35 10000 2.6 40 20:23 12.04.2020
5019 Rain 19 1013 40 10000 5.7 350 19:57 12.04.2020
5020 Rain 19 1013 40 10000 5.7 350 19:39 12.04.2020
5021 Rain 20 1013 33 10000 2.6 10 19:19 12.04.2020
5022 Rain 21 1013 33 10000 2.6 50 18:56 12.04.2020
5023 Rain 21 1013 33 10000 2.6 50 18:37 12.04.2020
5024 Clouds 22 1013 35 10000 4.1 50 18:18 12.04.2020
5025 Clouds 22 1013 27 10000 2.6 30 17:41 12.04.2020
5026 Clouds 22 1013 27 10000 2.1 60 17:23 12.04.2020
5027 Clouds 22 1013 27 10000 2.1 60 16:59 12.04.2020
5028 Clouds 22 1014 30 10000 3.6 20 16:40 12.04.2020
5029 Clouds 22 1015 35 10000 4.6 360 16:20 12.04.2020
5030 Clouds 21 1015 35 10000 4.6 320 15:50 12.04.2020
5031 Clouds 21 1015 35 10000 4.6 320 15:31 12.04.2020
5032 Thunderstorm 22 1015 29 10000 5.1 180 14:57 12.04.2020
5033 Rain 22 1015 23 10000 3.6 160 14:39 12.04.2020
5034 Rain 22 1015 33 10000 1.5 0 14:20 12.04.2020
5035 Rain 21 1015 33 10000 1.5 0 13:55 12.04.2020
5036 Rain 21 1016 43 10000 2.1 320 13:36 12.04.2020
5037 Rain 21 1016 40 10000 1.5 0 13:18 12.04.2020
5038 Rain 21 1017 40 10000 2.1 0 12:45 12.04.2020
5039 Rain 18 1017 45 10000 2.1 0 12:21 12.04.2020
5040 Rain 18 1017 45 10000 2.1 0 11:57 12.04.2020
5041 Rain 19 1018 45 10000 2.6 190 11:37 12.04.2020
5042 Rain 19 1018 45 10000 2.6 190 11:37 12.04.2020
5043 Rain 19 1018 48 10000 1 0 11:18 12.04.2020
5044 Rain 18 1018 48 10000 1 0 10:55 12.04.2020
5045 Rain 18 1018 55 10000 1.5 0 10:37 12.04.2020
5046 Rain 16 1018 55 10000 0.5 0 10:19 12.04.2020
5047 Rain 15 1018 55 10000 0.5 0 09:56 12.04.2020
5048 Rain 14 1019 59 10000 1 0 09:37 12.04.2020
5049 Clear 13 1019 62 10000 1 160 09:19 12.04.2020
5050 Clear 12 1019 66 10000 1 0 08:47 12.04.2020
5051 Clear 11 1019 71 10000 1 0 08:29 12.04.2020
5052 Clear 11 1019 71 9000 1 0 07:47 12.04.2020
5053 Clear 11 1019 66 6000 1.5 200 07:19 12.04.2020
5054 Clear 11 1019 66 7000 2.1 200 06:53 12.04.2020
5055 Clear 11 1019 66 6000 2.1 200 06:26 12.04.2020
5056 Clear 11 1019 62 6000 2.6 200 05:42 12.04.2020
5057 Clear 12 1020 54 6000 3.1 270 04:26 12.04.2020
5058 Clouds 12 1020 54 7000 2.6 270 03:29 12.04.2020
5059 Clouds 11 1021 66 10000 1 150 02:48 12.04.2020
5060 Clouds 12 1021 66 10000 1 150 02:27 12.04.2020
5061 Clouds 12 1020 51 7000 4.6 270 01:22 12.04.2020
5062 Clouds 12 1021 51 6000 4.1 270 00:43 12.04.2020
5063 Clouds 13 1021 54 7000 4.1 270 00:21 12.04.2020
5064 Clouds 13 1021 54 7000 4.1 270 23:58 11.04.2020
5065 Clouds 13 1020 51 6000 4.1 270 23:40 11.04.2020
5066 Clouds 13 1021 51 7000 3.6 270 23:22 11.04.2020
5067 Clouds 14 1021 54 7000 2.1 290 22:38 11.04.2020
5068 Clouds 14 1020 42 7000 1.5 290 22:20 11.04.2020
5069 Clouds 15 1020 39 7000 1.5 320 21:56 11.04.2020
5070 Clouds 16 1020 39 7000 1.5 320 21:36 11.04.2020
5071 Rain 16 1020 42 7000 2.1 350 21:18 11.04.2020
5072 Rain 17 1020 42 7000 2.1 350 20:56 11.04.2020
5073 Rain 17 1020 40 10000 1.5 360 20:38 11.04.2020
5074 Rain 19 1020 35 10000 2.6 20 20:19 11.04.2020
5075 Rain 20 1020 35 10000 2.6 20 19:57 11.04.2020
5076 Rain 20 1020 33 10000 2.6 30 19:38 11.04.2020
5077 Rain 20 1020 33 10000 2.6 30 19:38 11.04.2020
5078 Rain 21 1020 27 10000 1 0 19:18 11.04.2020
5079 Rain 21 1020 27 10000 1 0 19:18 11.04.2020
5080 Rain 21 1020 27 10000 1.5 80 18:55 11.04.2020
5081 Rain 21 1020 27 10000 1.5 80 18:37 11.04.2020
5082 Rain 22 1020 27 10000 1 0 18:18 11.04.2020
5083 Rain 22 1020 27 10000 1 0 17:58 11.04.2020
5084 Rain 22 1020 29 10000 1 0 17:38 11.04.2020
5085 Rain 22 1020 27 10000 1.5 0 17:19 11.04.2020
5086 Rain 22 1021 31 10000 1 0 16:43 11.04.2020
5087 Rain 22 1021 28 10000 2.1 360 16:22 11.04.2020
5088 Rain 22 1021 28 10000 2.1 360 16:22 11.04.2020
5089 Rain 22 1021 33 10000 2.1 70 15:54 11.04.2020
5090 Clouds 21 1021 35 10000 2.1 80 15:36 11.04.2020
5091 Clouds 21 1021 35 10000 2.1 80 15:18 11.04.2020
5092 Clouds 21 1022 37 10000 2.1 70 14:41 11.04.2020
5093 Clouds 20 1022 37 10000 1.5 0 14:23 11.04.2020
5094 Clouds 21 1022 37 10000 1.5 0 13:58 11.04.2020
5095 Clouds 21 1023 43 10000 1 0 13:38 11.04.2020
5096 Clouds 21 1023 42 10000 1.5 0 13:18 11.04.2020
5097 Clouds 20 1023 45 10000 1.5 0 12:41 11.04.2020
5098 Clear 18 1023 48 10000 1.5 0 12:18 11.04.2020
5099 Clear 18 1023 48 10000 1.5 0 11:56 11.04.2020
5100 Clear 18 1024 48 10000 2.6 50 11:38 11.04.2020
5101 Clear 17 1023 51 10000 1.5 30 11:19 11.04.2020
5102 Clear 16 1023 54 10000 2.1 40 10:43 11.04.2020
5103 Clear 14 1023 54 10000 2.6 20 10:22 11.04.2020
5104 Clear 13 1023 54 10000 2.6 20 09:59 11.04.2020
5105 Clear 13 1023 58 10000 1.5 20 09:39 11.04.2020
5106 Clear 11 1023 66 10000 1 0 09:21 11.04.2020
5107 Clear 10 1023 81 10000 1 0 08:49 11.04.2020
5108 Clear 9 1023 75 10000 1 0 08:28 11.04.2020
5109 Clear 8 1023 75 10000 1 0 07:53 11.04.2020
5110 Clear 8 1023 75 10000 1 0 07:34 11.04.2020
5111 Clear 8 1023 76 8000 1 0 06:55 11.04.2020
5112 Clear 8 1023 76 8000 1 0 06:34 11.04.2020
5113 Clear 8 1023 66 10000 2.1 330 05:55 11.04.2020
5114 Clear 10 1022 75 10000 1 0 03:42 11.04.2020
5115 Clear 11 1022 54 7000 5.1 270 02:49 11.04.2020
5116 Clouds 12 1022 54 8000 2.1 280 01:25 11.04.2020
5117 Clouds 12 1022 51 7000 2.1 310 00:44 11.04.2020
5118 Clear 12 1022 66 10000 1.5 300 00:20 11.04.2020
5119 Clear 12 1022 48 7000 2.1 350 23:59 10.04.2020
5120 Clear 13 1022 51 7000 2.1 310 23:40 10.04.2020
5121 Clear 14 1022 51 7000 2.1 290 23:19 10.04.2020
5122 Clear 14 1022 51 7000 2.1 290 22:55 10.04.2020
5123 Clear 14 1022 48 7000 1.5 290 22:37 10.04.2020
5124 Clear 14 1021 51 7000 1.5 320 22:18 10.04.2020
5125 Clear 14 1021 51 7000 1.5 320 22:18 10.04.2020
5126 Clear 15 1021 51 6000 2.6 340 21:41 10.04.2020
5127 Clouds 16 1021 42 7000 1.5 10 21:21 10.04.2020
5128 Clouds 16 1021 42 7000 1.5 10 20:57 10.04.2020
5129 Clouds 17 1021 40 10000 2.6 360 20:38 10.04.2020
5130 Clouds 19 1021 37 10000 3.1 360 20:19 10.04.2020
5131 Clouds 19 1021 33 10000 3.1 20 19:55 10.04.2020
5132 Clouds 20 1021 33 10000 3.1 20 19:37 10.04.2020
5133 Clouds 21 1021 35 10000 2.6 360 19:18 10.04.2020
5134 Clouds 21 1021 31 10000 2.6 40 18:55 10.04.2020
5135 Clouds 22 1021 31 10000 2.6 40 18:37 10.04.2020
5136 Clear 22 1021 33 10000 2.6 10 18:18 10.04.2020
5137 Clear 22 1021 28 10000 4.1 360 17:56 10.04.2020
5138 Clear 22 1021 28 10000 4.1 360 17:38 10.04.2020
5139 Clear 22 1021 25 10000 3.6 10 17:18 10.04.2020
5140 Clear 23 1021 28 10000 3.6 360 16:44 10.04.2020
5141 Clear 23 1021 27 10000 4.1 20 16:23 10.04.2020
5142 Clear 23 1021 27 10000 4.1 20 16:23 10.04.2020
5143 Clear 22 1021 27 10000 4.1 20 15:59 10.04.2020
5144 Clear 22 1022 31 10000 4.1 350 15:39 10.04.2020
5145 Clear 22 1022 33 10000 3.6 350 15:21 10.04.2020
5146 Clear 22 1022 33 10000 3.6 350 14:59 10.04.2020
5147 Clear 22 1022 27 10000 3.6 340 14:40 10.04.2020
5148 Clear 22 1023 37 10000 3.1 30 14:22 10.04.2020
5149 Clear 21 1023 43 10000 2.6 360 13:56 10.04.2020
5150 Clear 21 1023 43 10000 2.6 360 13:38 10.04.2020
5151 Clear 21 1023 49 10000 2.6 10 13:19 10.04.2020
5152 Clear 20 1024 45 10000 2.6 40 12:42 10.04.2020
5153 Clear 18 1024 52 10000 2.6 40 12:21 10.04.2020
5154 Clear 18 1024 51 10000 1.5 60 11:54 10.04.2020
5155 Clear 17 1024 51 10000 1.5 60 11:36 10.04.2020
5156 Clear 17 1024 51 10000 3.6 10 11:18 10.04.2020
5157 Clear 15 1024 55 10000 3.1 30 10:41 10.04.2020
5158 Clear 14 1024 54 10000 1 0 10:22 10.04.2020
5159 Clear 13 1024 51 10000 1.38 45 09:45 10.04.2020
5160 Clear 11 1024 51 10000 1.4 91 09:25 10.04.2020
5161 Clear 10 1024 54 10000 0.5 0 08:56 10.04.2020
5162 Clear 9 1024 57 10000 1 0 08:38 10.04.2020
5163 Clear 9 1024 57 10000 1 0 08:38 10.04.2020
5164 Clear 8 1024 61 10000 1.5 0 08:20 10.04.2020
5165 Clear 7 1023 61 10000 1.5 0 07:45 10.04.2020
5166 Clear 7 1023 61 8000 1.5 0 07:23 10.04.2020
5167 Clear 7 1023 61 8000 1.5 0 06:48 10.04.2020
5168 Clear 8 1023 61 8000 1.5 0 06:27 10.04.2020
5169 Clouds 8 1023 57 8000 1.5 300 05:40 10.04.2020
5170 Clear 9 1023 50 8000 4.1 270 04:57 10.04.2020
5171 Clear 10 1023 47 7000 4.6 270 03:49 10.04.2020
5172 Clear 10 1023 47 7000 4.6 270 03:30 10.04.2020
5173 Clear 11 1023 44 9000 4.6 270 02:48 10.04.2020
5174 Clear 11 1023 44 9000 4.6 270 02:28 10.04.2020
5175 Clear 11 1023 50 8000 5.1 270 01:30 10.04.2020
5176 Clear 11 1023 50 8000 3.1 270 00:50 10.04.2020
5177 Clear 12 1023 47 9000 1.5 0 00:24 10.04.2020
5178 Clear 12 1023 47 8000 1.5 0 23:56 09.04.2020
5179 Clear 12 1023 47 8000 1.5 0 23:38 09.04.2020
5180 Clear 13 1023 47 8000 2.1 320 23:19 09.04.2020
5181 Clear 13 1023 41 8000 1.5 270 22:41 09.04.2020
5182 Clear 14 1022 44 9000 1.5 320 22:23 09.04.2020
5183 Clear 15 1022 41 9000 2.6 330 21:55 09.04.2020
5184 Clear 14 1022 41 9000 2.6 330 21:37 09.04.2020
5185 Clouds 16 1022 36 9000 2.1 330 21:18 09.04.2020
5186 Clouds 17 1021 34 10000 2.6 360 20:41 09.04.2020
5187 Clouds 18 1021 30 10000 3.1 10 20:21 09.04.2020
5188 Clouds 19 1021 32 10000 4.1 10 19:57 09.04.2020
5189 Clouds 19 1021 32 10000 4.1 10 19:36 09.04.2020
5190 Clouds 21 1021 27 10000 3.1 10 19:18 09.04.2020
5191 Clouds 21 1021 23 10000 3.1 360 18:41 09.04.2020
5192 Clouds 22 1021 27 10000 2.6 0 18:19 09.04.2020
5193 Clouds 22 1021 27 10000 3.6 20 17:41 09.04.2020
5194 Clouds 22 1022 22 10000 3.1 40 17:23 09.04.2020
5195 Clouds 23 1022 22 10000 3.1 40 16:56 09.04.2020
5196 Clouds 23 1022 27 10000 4.6 340 16:38 09.04.2020
5197 Clouds 23 1022 27 10000 4.6 340 16:38 09.04.2020
5198 Clouds 22 1022 25 10000 4.1 10 16:18 09.04.2020
5199 Clouds 23 1022 27 10000 1.5 0 15:55 09.04.2020
5200 Clouds 22 1022 27 10000 1.5 0 15:36 09.04.2020
5201 Clouds 22 1023 25 10000 2.6 0 15:18 09.04.2020
5202 Clouds 21 1023 25 10000 3.6 60 14:40 09.04.2020
5203 Clouds 20 1023 28 10000 5.7 10 14:21 09.04.2020
5204 Clouds 21 1023 33 10000 2.1 0 13:54 09.04.2020
5205 Clouds 21 1023 33 10000 2.1 0 13:36 09.04.2020
5206 Clouds 21 1023 37 10000 1.5 0 13:18 09.04.2020
5207 Clouds 20 1024 34 10000 1.5 0 12:42 09.04.2020
5208 Clear 19 1024 42 10000 0.5 0 12:23 09.04.2020
5209 Clear 19 1024 45 10000 0.5 0 11:58 09.04.2020
5210 Clear 18 1024 45 10000 0.5 0 11:38 09.04.2020
5211 Clear 17 1024 48 10000 1 0 11:20 09.04.2020
5212 Clear 16 1024 54 10000 1 0 10:57 09.04.2020
5213 Clear 16 1024 54 10000 1 0 10:38 09.04.2020
5214 Clear 15 1024 58 10000 0.91 355 10:19 09.04.2020
5215 Clear 13 1024 58 10000 0.5 0 09:55 09.04.2020
5216 Clear 13 1024 58 10000 0.5 0 09:37 09.04.2020
5217 Clear 11 1024 76 10000 1 0 09:19 09.04.2020
5218 Clear 9 1024 81 10000 0.5 0 08:43 09.04.2020
5219 Clear 9 1023 81 10000 1 0 08:23 09.04.2020
5220 Clear 8 1023 75 10000 1 0 07:55 09.04.2020
5221 Clear 8 1023 75 10000 1 0 07:27 09.04.2020
5222 Clear 8 1023 61 8000 1 220 06:55 09.04.2020
5223 Clouds 8 1023 62 7000 4.1 230 05:59 09.04.2020
5224 Clouds 8 1023 62 7000 4.1 230 05:39 09.04.2020
5225 Clouds 9 1023 70 10000 1 0 03:50 09.04.2020
5226 Clear 10 1023 65 10000 2.1 190 02:27 09.04.2020
5227 Clear 10 1023 65 10000 1 160 01:40 09.04.2020
5228 Clear 11 1023 61 10000 1 0 01:20 09.04.2020
5229 Clear 11 1023 47 8000 4.6 280 00:41 09.04.2020
5230 Clear 12 1023 51 8000 5.7 270 00:20 09.04.2020
5231 Clear 12 1023 51 8000 5.7 270 23:58 08.04.2020
5232 Clear 12 1023 51 8000 5.1 280 23:40 08.04.2020
5233 Clear 12 1023 51 8000 5.1 280 23:40 08.04.2020
5234 Clear 13 1023 48 8000 4.6 270 23:21 08.04.2020
5235 Clear 13 1023 51 9000 4.6 280 22:43 08.04.2020
5236 Clear 14 1023 51 9000 2.1 300 22:24 08.04.2020
5237 Clear 14 1023 51 9000 2.1 300 22:24 08.04.2020
5238 Clear 15 1022 48 9000 2.1 330 21:56 08.04.2020
5239 Clear 14 1022 48 9000 2.1 330 21:38 08.04.2020
5240 Clear 15 1022 42 10000 2.6 330 21:19 08.04.2020
5241 Clear 16 1022 42 10000 2.6 330 20:57 08.04.2020
5242 Clear 17 1022 32 10000 2.6 20 20:38 08.04.2020
5243 Clear 17 1022 32 10000 2.6 20 20:20 08.04.2020
5244 Clear 19 1022 32 10000 2.6 20 19:55 08.04.2020
5245 Clear 19 1022 32 10000 2.6 20 19:36 08.04.2020
5246 Clear 20 1022 37 10000 1.5 30 19:18 08.04.2020
5247 Clear 21 1022 31 10000 2.1 20 18:41 08.04.2020
5248 Clear 21 1022 31 10000 1.5 0 18:23 08.04.2020
5249 Clear 21 1022 28 10000 1.41 297 17:54 08.04.2020
5250 Clear 21 1022 28 10000 1.41 297 17:54 08.04.2020
5251 Clear 22 1022 29 10000 1.5 0 17:36 08.04.2020
5252 Clear 22 1022 29 10000 1.5 0 17:18 08.04.2020
5253 Clear 21 1022 27 10000 1 0 16:42 08.04.2020
5254 Clear 21 1022 27 10000 1 0 16:42 08.04.2020
5255 Clear 22 1022 28 10000 2.6 90 16:23 08.04.2020
5256 Clear 22 1023 27 10000 1.5 0 15:55 08.04.2020
5257 Clear 22 1023 28 10000 1 0 15:37 08.04.2020
5258 Clear 22 1023 28 10000 1 0 15:18 08.04.2020
5259 Clear 21 1024 28 10000 1.5 0 14:43 08.04.2020
5260 Clear 22 1024 35 10000 2.1 110 14:24 08.04.2020
5261 Clear 21 1024 35 10000 1.5 0 13:55 08.04.2020
5262 Clear 21 1024 35 10000 1.5 0 13:37 08.04.2020
5263 Clear 20 1025 34 10000 1.5 170 13:18 08.04.2020
5264 Clear 20 1025 39 10000 1.5 0 12:41 08.04.2020
5265 Clear 18 1026 39 10000 2.1 170 12:18 08.04.2020
5266 Clear 18 1026 42 10000 0.5 0 11:57 08.04.2020
5267 Clear 18 1026 42 10000 0.5 0 11:39 08.04.2020
5268 Clear 17 1026 51 10000 1 0 11:21 08.04.2020
5269 Clear 16 1026 47 10000 0.5 0 10:55 08.04.2020
5270 Clear 16 1026 47 10000 0.5 0 10:37 08.04.2020
5271 Clear 15 1026 54 10000 0.5 0 10:18 08.04.2020
5272 Clear 15 1026 54 10000 0.5 0 10:18 08.04.2020
5273 Clear 12 1026 58 10000 1 0 09:42 08.04.2020
5274 Clear 10 1026 62 10000 1 0 09:21 08.04.2020
5275 Clear 9 1026 62 10000 1 0 08:59 08.04.2020
5276 Clear 8 1026 61 10000 1 0 08:41 08.04.2020
5277 Clear 8 1026 65 10000 1.21 177 08:22 08.04.2020
5278 Clear 7 1026 70 10000 1 0 07:44 08.04.2020
5279 Clear 7 1026 65 10000 1 0 07:25 08.04.2020
5280 Clear 7 1026 61 10000 1.5 220 06:55 08.04.2020
5281 Clear 7 1026 61 10000 3.6 230 05:56 08.04.2020
5282 Clear 8 1026 70 10000 1 210 03:49 08.04.2020
5283 Clear 9 1026 81 10000 1 0 02:49 08.04.2020
5284 Clear 10 1026 47 9000 5.1 270 02:19 08.04.2020
5285 Clear 10 1026 47 9000 4.6 270 01:43 08.04.2020
5286 Clear 10 1026 47 8000 5.1 270 01:22 08.04.2020
5287 Clear 10 1026 47 10000 4.1 270 00:41 08.04.2020
5288 Clear 12 1026 47 8000 4.1 280 00:21 08.04.2020
5289 Clear 12 1026 47 8000 3.6 290 23:39 07.04.2020
5290 Clear 12 1026 47 8000 4.1 280 23:21 07.04.2020
5291 Clear 13 1025 47 8000 1 0 22:57 07.04.2020
5292 Clear 13 1025 47 8000 1 0 22:39 07.04.2020
5293 Clear 14 1025 54 10000 2.6 340 22:19 07.04.2020
5294 Clear 14 1025 34 10000 1 360 21:56 07.04.2020
5295 Clear 14 1025 34 10000 1 360 21:56 07.04.2020
5296 Clear 14 1025 34 10000 1 360 21:38 07.04.2020
5297 Clear 16 1025 32 9000 3.1 10 21:20 07.04.2020
5298 Clear 16 1024 34 10000 3.6 10 20:56 07.04.2020
5299 Clear 17 1024 34 10000 3.6 10 20:38 07.04.2020
5300 Clear 19 1024 30 10000 4.6 360 20:20 07.04.2020
5301 Clear 19 1024 30 10000 4.6 360 19:56 07.04.2020
5302 Clear 20 1024 27 10000 5.7 20 19:36 07.04.2020
5303 Clear 21 1024 27 10000 5.7 20 19:18 07.04.2020
5304 Clear 22 1024 27 10000 5.7 20 18:56 07.04.2020
5305 Clear 21 1024 27 10000 5.7 20 18:38 07.04.2020
5306 Clear 22 1024 25 10000 5.1 20 18:19 07.04.2020
5307 Clear 22 1025 25 10000 3.6 30 17:44 07.04.2020
5308 Clear 22 1025 28 10000 4.1 10 17:21 07.04.2020
5309 Clear 22 1025 28 10000 4.1 10 16:47 07.04.2020
5310 Clear 22 1026 28 10000 4.1 20 16:28 07.04.2020
5311 Clear 22 1026 27 10000 3.6 20 15:57 07.04.2020
5312 Clear 22 1026 27 10000 3.6 20 15:38 07.04.2020
5313 Clear 21 1027 30 10000 4.6 10 15:20 07.04.2020
5314 Clear 22 1027 30 10000 5.1 20 14:41 07.04.2020
5315 Clear 20 1027 32 10000 3.6 360 14:22 07.04.2020
5316 Clear 20 1027 32 10000 3.6 360 13:57 07.04.2020
5317 Clear 20 1028 35 10000 3.1 10 13:38 07.04.2020
5318 Clear 20 1028 37 10000 2.6 10 13:18 07.04.2020
5319 Clear 20 1028 37 10000 2.6 10 13:18 07.04.2020
5320 Clear 20 1028 39 10000 3.1 20 12:55 07.04.2020
5321 Clear 19 1028 39 10000 3.1 20 12:36 07.04.2020
5322 Clear 18 1029 39 10000 3.6 30 12:18 07.04.2020
5323 Clear 17 1029 44 10000 1 0 11:44 07.04.2020
5324 Clear 16 1029 44 10000 1 0 11:25 07.04.2020
5325 Clear 15 1029 44 10000 1 0 10:59 07.04.2020
5326 Clear 15 1029 54 10000 1.5 90 10:38 07.04.2020
5327 Clear 14 1029 57 10000 1 0 10:19 07.04.2020
5328 Clear 12 1029 66 10000 2.1 360 09:45 07.04.2020
5329 Clear 9 1029 66 10000 1 0 09:20 07.04.2020
5330 Clear 9 1028 57 10000 1 0 08:57 07.04.2020
5331 Clear 8 1028 57 10000 1 0 08:38 07.04.2020
5332 Clear 7 1028 53 10000 3.6 240 08:19 07.04.2020
5333 Clear 6 1028 57 10000 3.6 230 07:43 07.04.2020
5334 Clear 6 1028 61 10000 2.1 240 07:25 07.04.2020
5335 Clear 6 1028 65 10000 2.6 230 06:51 07.04.2020
5336 Clear 6 1028 65 10000 3.1 230 06:25 07.04.2020
5337 Clear 6 1027 80 10000 1.5 170 05:48 07.04.2020
5338 Clear 7 1027 68 10000 2.6 240 05:23 07.04.2020
5339 Clear 7 1027 80 10000 1.5 190 03:34 07.04.2020
5340 Clear 8 1027 75 10000 0.5 210 02:59 07.04.2020
5341 Clear 8 1027 50 10000 0.5 0 02:33 07.04.2020
5342 Clear 9 1026 46 10000 3.1 270 01:33 07.04.2020
5343 Clear 9 1026 61 10000 0.5 0 00:52 07.04.2020
5344 Clear 10 1026 57 10000 1 0 00:25 07.04.2020
5345 Clear 10 1025 57 10000 0.5 0 23:40 06.04.2020
5346 Clear 11 1025 61 10000 3.1 260 23:21 06.04.2020
5347 Clear 12 1025 61 10000 1.5 0 22:42 06.04.2020
5348 Clear 12 1024 61 10000 2.6 310 22:23 06.04.2020
5349 Clear 13 1024 36 10000 2.6 270 21:59 06.04.2020
5350 Clear 13 1024 36 10000 2.6 270 21:41 06.04.2020
5351 Clouds 14 1023 36 10000 3.1 270 21:20 06.04.2020
5352 Clouds 14 1023 36 10000 3.1 270 20:57 06.04.2020
5353 Clouds 15 1023 29 10000 1.5 0 20:38 06.04.2020
5354 Clouds 16 1022 57 10000 2.6 200 20:20 06.04.2020
5355 Clouds 17 1022 57 10000 2.6 200 19:57 06.04.2020
5356 Clouds 18 1022 19 10000 2.1 160 19:38 06.04.2020
5357 Clouds 20 1022 17 10000 4.1 160 19:20 06.04.2020
5358 Clouds 21 1022 19 10000 4.6 180 18:42 06.04.2020
5359 Clouds 22 1022 20 10000 4.1 180 18:23 06.04.2020
5360 Clouds 22 1022 23 10000 5.1 180 17:58 06.04.2020
5361 Clouds 21 1022 23 10000 5.1 180 17:39 06.04.2020
5362 Clouds 22 1022 25 10000 4.1 160 17:18 06.04.2020
5363 Clouds 22 1022 25 10000 4.6 150 16:49 06.04.2020
5364 Clouds 21 1022 25 10000 4.6 150 16:30 06.04.2020
5365 Clear 21 1022 33 10000 4.1 180 14:57 06.04.2020
5366 Clear 21 1022 33 10000 4.1 180 14:57 06.04.2020
5367 Clear 21 1022 33 10000 4.1 180 14:57 06.04.2020
5368 Clear 21 1022 33 10000 4.1 180 14:57 06.04.2020
5369 Clear 20 1023 30 10000 1.5 100 13:45 06.04.2020
5370 Clear 20 1023 30 10000 1.5 100 13:22 06.04.2020
5371 Clear 19 1023 32 10000 2.1 0 12:47 06.04.2020
5372 -273 0 0 0 0 0 12:20 06.04.2020
5373 Clear 17 1023 42 10000 2.6 140 11:45 06.04.2020
5374 Clear 16 1023 42 10000 2.6 140 11:26 06.04.2020
5375 Clear 16 1023 42 10000 2.6 140 11:26 06.04.2020
5376 Clear 15 1023 50 10000 1.5 180 10:43 06.04.2020
5377 Clear 15 1023 50 10000 1.5 180 10:43 06.04.2020
5378 Clear 15 1023 50 10000 1.5 180 10:43 06.04.2020
5379 Clear 15 1023 50 10000 1.5 180 10:43 06.04.2020
5380 Clear 14 1023 50 10000 1.5 180 10:21 06.04.2020
5381 Clear 14 1023 50 10000 1.5 180 10:21 06.04.2020
5382 Clear 14 1023 50 10000 1.5 180 10:21 06.04.2020
5383 Clear 14 1023 50 10000 1.5 180 10:21 06.04.2020
5384 Clear 14 1023 50 10000 1.5 180 10:21 06.04.2020
5385 Clear 13 1023 61 10000 1 0 09:41 06.04.2020
5386 Clear 13 1023 61 10000 1 0 09:41 06.04.2020
5387 Clear 13 1023 61 10000 1 0 09:41 06.04.2020
5388 Clear 13 1023 61 10000 1 0 09:41 06.04.2020
5389 Clear 8 1022 70 10000 1 0 09:20 06.04.2020
5390 Clear 7 1022 70 10000 1 0 08:49 06.04.2020
5391 Clear 7 1022 80 10000 1.89 184 08:29 06.04.2020
5392 Clear 7 1022 80 10000 1.89 184 08:29 06.04.2020
5393 Clear 7 1022 80 10000 1.89 184 08:29 06.04.2020
5394 Clear 5 1021 75 10000 1.5 0 07:24 06.04.2020
5395 Clear 5 1021 75 10000 1.5 0 07:24 06.04.2020
5396 Clear 5 1021 75 10000 1.5 0 07:24 06.04.2020
5397 Clear 5 1021 80 10000 0.5 0 06:28 06.04.2020
5398 Clear 6 1021 80 10000 0.5 0 06:01 06.04.2020
5399 Clear 5 1021 80 10000 0.5 0 06:01 06.04.2020
5400 Clear 5 1021 80 10000 0.5 0 06:01 06.04.2020
5401 Clear 6 1020 65 10000 0.5 0 04:18 06.04.2020
5402 Clear 7 1019 65 10000 2.1 230 02:56 06.04.2020
5403 Clear 7 1019 63 10000 2.1 200 01:57 06.04.2020
5404 Clear 7 1019 63 10000 1 230 00:59 06.04.2020
5405 Clear 8 1019 50 9000 3.1 270 00:29 06.04.2020
5406 Clear 8 1019 50 9000 3.1 270 00:29 06.04.2020
5407 Clear 9 1018 50 10000 3.6 280 23:59 05.04.2020
5408 Clear 9 1018 50 10000 3.6 270 23:40 05.04.2020
5409 Clear 9 1018 50 10000 3.6 270 23:21 05.04.2020
5410 Clear 9 1018 50 10000 3.6 270 23:21 05.04.2020
5411 Clear 10 1018 47 9000 3.6 270 22:54 05.04.2020
5412 Clear 10 1018 50 9000 4.1 270 22:36 05.04.2020
5413 Clear 11 1018 50 10000 4.1 270 22:18 05.04.2020
5414 Clear 11 1018 50 10000 2.6 290 21:43 05.04.2020
5415 Clear 11 1018 50 10000 2.6 290 21:23 05.04.2020
5416 Clear 14 1018 36 10000 2.1 10 20:25 05.04.2020
5417 Clear 16 1018 37 10000 2.6 360 19:44 05.04.2020
5418 Clear 17 1018 37 10000 2.6 360 19:25 05.04.2020
5419 Clear 18 1018 30 10000 1.5 0 18:50 05.04.2020
5420 Clear 18 1018 30 10000 1.5 0 18:50 05.04.2020
5421 Clear 18 1018 30 10000 1.5 0 18:50 05.04.2020
5422 Clear 18 1018 30 10000 1.5 0 18:50 05.04.2020
5423 Clear 20 1018 30 10000 1.5 0 18:27 05.04.2020
5424 Clear 20 1018 30 10000 1.5 0 18:27 05.04.2020
5425 Clear 20 1018 30 10000 1.5 0 18:27 05.04.2020
5426 Clear 20 1018 30 10000 1.5 0 18:27 05.04.2020
5427 Clear 20 1018 30 10000 1.5 0 18:27 05.04.2020
5428 Clear 19 1018 30 10000 1.5 0 17:49 05.04.2020
5429 Clear 19 1018 30 10000 1.5 0 17:49 05.04.2020
5430 Clear 19 1018 30 10000 1.5 0 17:49 05.04.2020
5431 Clear 19 1018 30 10000 1.5 0 17:49 05.04.2020
5432 Clear 19 1018 30 10000 1.5 0 17:49 05.04.2020
5433 Clear 20 1019 39 10000 1 0 17:23 05.04.2020
5434 Clear 20 1019 24 10000 1.5 0 16:47 05.04.2020
5435 Clear 20 1019 24 10000 1.5 0 16:19 05.04.2020
5436 Clear 19 1020 32 10000 0.5 90 15:46 05.04.2020
5437 Clear 19 1020 32 10000 0.5 90 15:46 05.04.2020
5438 Clear 19 1020 32 10000 0.5 90 15:28 05.04.2020
5439 Clear 19 1021 34 10000 1.5 360 14:48 05.04.2020
5440 Clear 19 1021 34 10000 1.5 360 14:48 05.04.2020
5441 Clear 19 1021 34 10000 1.5 360 14:48 05.04.2020
5442 Clear 19 1021 34 10000 1.5 360 14:48 05.04.2020
5443 Clear 19 1021 34 10000 1.5 360 14:48 05.04.2020
5444 Clear 19 1021 34 10000 1.5 0 14:23 05.04.2020
5445 Clear 19 1021 34 10000 1.5 0 14:23 05.04.2020
5446 Clear 19 1021 34 10000 1.5 0 14:23 05.04.2020
5447 Clear 19 1021 34 10000 1.5 0 14:23 05.04.2020
5448 Clear 19 1021 34 10000 1.5 0 14:23 05.04.2020
5449 Clear 18 1022 41 10000 1 0 13:40 05.04.2020
5450 Clear 16 1022 44 10000 1 0 12:24 05.04.2020
5451 Clear 16 1022 44 10000 1 0 12:22 05.04.2020
5452 Clear 14 1023 54 10000 1 0 11:40 05.04.2020
5453 Clear 13 1023 54 10000 1 0 11:20 05.04.2020
5454 Clear 13 1023 54 10000 1 0 11:20 05.04.2020
5455 Clear 12 1023 53 10000 0.5 0 10:48 05.04.2020
5456 Clear 12 1023 53 10000 0.5 0 10:24 05.04.2020
5457 Clear 12 1023 53 10000 0.5 0 10:24 05.04.2020
5458 Clear 12 1023 53 10000 0.5 0 10:24 05.04.2020
5459 Clear 12 1023 53 10000 0.5 0 10:24 05.04.2020
5460 Clear 12 1023 53 10000 0.5 0 10:24 05.04.2020
5461 Clear 10 1023 57 10000 0.5 0 09:56 05.04.2020
5462 Clear 10 1023 57 10000 0.5 0 09:56 05.04.2020
5463 Clear 7 1023 61 10000 0.24 261 09:31 05.04.2020
5464 Clear 7 1023 61 10000 0.24 261 09:31 05.04.2020
5465 Clear 4 1023 75 10000 1.25 128 08:36 05.04.2020
5466 Clear 2 1022 67 10000 1.25 128 07:21 05.04.2020
5467 Clear 3 1022 80 10000 1.65 118 04:33 05.04.2020
5468 Clear 4 1022 80 10000 1.5 220 03:29 05.04.2020
5469 Clear 5 1022 61 10000 4.6 270 02:49 05.04.2020
5470 Clear 5 1022 61 10000 4.6 270 01:46 05.04.2020
5471 Clear 5 1022 61 10000 5.1 270 01:25 05.04.2020
5472 Clear 6 1022 65 10000 4.6 270 00:43 05.04.2020
5473 Clear 6 1022 65 10000 4.6 270 00:21 05.04.2020
5474 Clear 7 1022 61 10000 4.6 270 23:43 04.04.2020
5475 Clear 8 1022 61 10000 4.6 270 23:23 04.04.2020
5476 Clear 8 1022 61 10000 4.6 270 22:59 04.04.2020
5477 Clear 8 1022 61 10000 3.6 270 22:40 04.04.2020
5478 Clear 8 1022 61 10000 3.6 270 22:21 04.04.2020
5479 Clear 8 1022 61 10000 3.6 270 22:21 04.04.2020
5480 Clear 9 1022 53 10000 1.5 290 21:58 04.04.2020
5481 Clear 9 1022 57 10000 2.6 360 21:39 04.04.2020
5482 Clear 10 1022 57 10000 2.6 360 21:19 04.04.2020
5483 Clear 10 1021 53 10000 3.1 360 20:58 04.04.2020
5484 Clear 10 1021 47 10000 2.6 360 20:39 04.04.2020
5485 Clear 11 1021 47 10000 2.6 360 20:21 04.04.2020
5486 Clear 12 1021 44 10000 3.1 10 19:57 04.04.2020
5487 Clear 13 1021 44 10000 3.6 10 19:37 04.04.2020
5488 Clear 14 1021 44 10000 3.6 10 19:19 04.04.2020
5489 Clear 14 1021 38 10000 2.1 40 18:56 04.04.2020
5490 Clear 15 1021 38 10000 2.1 0 18:37 04.04.2020
5491 Clear 15 1021 38 10000 3.1 360 18:19 04.04.2020
5492 Clear 16 1021 38 10000 2.6 360 17:41 04.04.2020
5493 Clear 16 1021 38 10000 2.6 360 17:41 04.04.2020
5494 Clear 16 1021 38 10000 2.6 360 17:21 04.04.2020
5495 Clear 16 1021 36 10000 2.1 0 16:59 04.04.2020
5496 Clear 16 1022 41 10000 2.1 40 16:41 04.04.2020
5497 Clear 16 1022 41 10000 2.1 40 16:22 04.04.2020
5498 Clear 15 1022 41 10000 2.1 40 15:55 04.04.2020
5499 Clear 15 1022 44 10000 2.1 0 15:36 04.04.2020
5500 Clouds 15 1022 38 10000 2.6 340 15:18 04.04.2020
5501 Clouds 15 1022 44 10000 3.6 360 14:43 04.04.2020
5502 Clouds 15 1022 44 10000 3.6 360 14:23 04.04.2020
5503 Clouds 15 1023 47 10000 3.1 360 13:56 04.04.2020
5504 Clouds 14 1023 43 10000 3.1 20 13:38 04.04.2020
5505 Clouds 14 1023 43 10000 3.1 20 13:19 04.04.2020
5506 Clouds 14 1023 43 10000 3.1 20 13:19 04.04.2020
5507 Clouds 14 1023 43 10000 3.1 20 13:19 04.04.2020
5508 Clouds 13 1023 50 10000 3.6 30 12:45 04.04.2020
5509 Clouds 13 1023 50 10000 3.6 30 12:27 04.04.2020
5510 Clouds 11 1023 53 10000 3.1 30 11:59 04.04.2020
5511 Clouds 11 1023 57 10000 3.6 10 11:40 04.04.2020
5512 Clouds 10 1023 57 10000 3.6 10 11:21 04.04.2020
5513 Clouds 10 1023 57 10000 4.6 10 10:57 04.04.2020
5514 Clouds 9 1023 57 10000 4.1 30 10:39 04.04.2020
5515 Clouds 8 1023 57 10000 4.1 30 10:21 04.04.2020
5516 Clouds 7 1023 65 10000 2.1 30 09:55 04.04.2020
5517 Clouds 6 1023 65 10000 1.46 41 09:37 04.04.2020
5518 Clouds 5 1023 65 10000 1.36 82 09:19 04.04.2020
5519 Clouds 3 1022 70 10000 1.5 0 08:42 04.04.2020
5520 Clouds 2 1022 70 10000 1.5 0 08:23 04.04.2020
5521 Clouds 1 1022 70 10000 1.5 0 07:47 04.04.2020
5522 Clouds 1 1022 70 10000 1.5 0 07:29 04.04.2020
5523 Clouds 1 1021 86 10000 0.5 0 06:58 04.04.2020
5524 Clouds 1 1021 86 10000 1.5 220 06:22 04.04.2020
5525 Clouds 1 1021 92 10000 1 250 05:51 04.04.2020
5526 Clouds 1 1021 92 10000 1 250 05:32 04.04.2020
5527 Clouds 2 1021 92 10000 1.22 72 04:34 04.04.2020
5528 Clouds 2 1021 86 10000 0.5 340 03:55 04.04.2020
5529 Clouds 2 1021 71 10000 1.22 72 03:29 04.04.2020
5530 Clear 3 1021 74 10000 1.5 210 02:45 04.04.2020
5531 Clear 3 1021 74 10000 1.5 210 02:25 04.04.2020
5532 Clear 3 1020 80 10000 1 0 01:27 04.04.2020
5533 Clear 3 1020 69 10000 1 220 00:58 04.04.2020
5534 Clear 4 1020 74 10000 1.12 83 00:35 04.04.2020
5535 Clouds 5 1020 57 10000 2.6 280 23:57 03.04.2020
5536 Clouds 5 1020 61 10000 1.5 10 23:38 03.04.2020
5537 Clouds 5 1020 61 10000 1.5 10 23:19 03.04.2020
5538 Clouds 5 1020 61 10000 1.5 10 23:19 03.04.2020
5539 Clouds 6 1020 53 10000 2.1 270 22:41 03.04.2020
5540 Clouds 6 1020 53 10000 2.1 270 22:19 03.04.2020
5541 Clouds 7 1020 53 10000 1.5 350 21:57 03.04.2020
5542 Clouds 7 1019 70 10000 1.5 50 21:38 03.04.2020
5543 Clouds 7 1019 69 10000 1.5 50 21:20 03.04.2020
5544 Clouds 8 1019 66 10000 1.5 320 20:55 03.04.2020
5545 Clouds 8 1018 40 10000 2.1 310 20:36 03.04.2020
5546 Clouds 10 1018 66 10000 3.1 340 20:18 03.04.2020
5547 Clouds 10 1018 66 10000 3.1 340 19:55 03.04.2020
5548 Clouds 11 1018 66 10000 2.6 340 19:36 03.04.2020
5549 Clouds 11 1018 66 10000 2.6 310 19:18 03.04.2020
5550 Clouds 12 1018 66 10000 2.6 310 18:57 03.04.2020
5551 Clouds 12 1018 66 10000 3.1 340 18:39 03.04.2020
5552 Clouds 12 1018 66 10000 3.1 340 18:21 03.04.2020
5553 Clouds 12 1017 37 10000 2.6 340 17:42 03.04.2020
5554 Clouds 12 1017 37 10000 2.6 340 17:20 03.04.2020
5555 Clouds 13 1017 43 10000 3.1 360 16:56 03.04.2020
5556 Clouds 12 1017 43 10000 3.6 10 16:38 03.04.2020
5557 Clouds 12 1017 37 10000 2.6 340 16:20 03.04.2020
5558 Clouds 12 1017 37 10000 2.6 340 15:56 03.04.2020
5559 Clouds 13 1017 43 10000 2.1 340 15:37 03.04.2020
5560 Clear 12 1017 44 10000 2.1 340 15:19 03.04.2020
5561 Clear 12 1013 48 0 1.79 89 14:41 03.04.2020
5562 Clouds 11 1018 44 10000 1.5 0 14:22 03.04.2020
5563 Clouds 12 1018 44 10000 1.5 0 13:57 03.04.2020
5564 Clouds 11 1018 44 10000 1.5 0 13:38 03.04.2020
5565 Clouds 11 1018 44 10000 1.5 0 13:20 03.04.2020
5566 Clouds 11 1018 44 10000 1.5 180 12:43 03.04.2020
5567 Clouds 9 1018 51 10000 1.5 170 12:20 03.04.2020
5568 Clouds 9 1018 51 10000 1.5 170 11:57 03.04.2020
5569 Clouds 8 1018 51 10000 1.5 140 11:38 03.04.2020
5570 Clouds 8 1018 51 10000 1.5 140 11:38 03.04.2020
5571 Clouds 8 1018 51 10000 1.5 140 11:20 03.04.2020
5572 Clouds 8 1018 51 10000 1.5 130 10:58 03.04.2020
5573 Clouds 8 1017 56 10000 2.1 170 10:38 03.04.2020
5574 Clouds 7 1017 56 10000 2.1 170 10:20 03.04.2020
5575 Clouds 6 1017 60 10000 2.1 170 09:59 03.04.2020
5576 Clouds 6 1017 65 10000 3.1 200 09:40 03.04.2020
5577 Clouds 4 1017 65 10000 3.1 200 09:21 03.04.2020
5578 Clouds 3 1017 65 10000 1.5 250 08:55 03.04.2020
5579 Clouds 2 1016 69 10000 1.5 0 08:37 03.04.2020
5580 Clouds 2 1016 69 10000 1.5 0 08:18 03.04.2020
5581 Clouds 1 1016 69 10000 2.6 250 07:46 03.04.2020
5582 Clouds 1 1016 69 10000 2.6 250 07:27 03.04.2020
5583 Clouds 1 1015 69 10000 1 110 06:40 03.04.2020
5584 Clouds 1 1015 71 10000 1 240 06:21 03.04.2020
5585 Clouds 1 1015 69 10000 3.1 280 05:34 03.04.2020
5586 Clouds 2 1015 64 10000 3.6 290 03:40 03.04.2020
5587 Clouds 3 1015 60 10000 1 0 02:55 03.04.2020
5588 Clouds 3 1015 56 10000 1.5 0 02:18 03.04.2020
5589 Clouds 4 1014 52 10000 1.5 0 01:20 03.04.2020
5590 Clouds 5 1013 45 10000 2.6 300 00:34 03.04.2020
5591 Clouds 5 1013 42 10000 2.6 290 23:58 02.04.2020
5592 Clouds 6 1013 42 10000 4.1 290 23:39 02.04.2020
5593 Clouds 6 1013 42 10000 4.1 290 23:39 02.04.2020
5594 Clouds 6 1013 42 10000 4.1 290 23:21 02.04.2020
5595 Clouds 6 1012 42 10000 1.5 310 22:43 02.04.2020
5596 Clouds 6 1012 42 10000 1.5 310 22:25 02.04.2020
5597 Clouds 7 1012 34 10000 1.5 0 21:59 02.04.2020
5598 Clouds 8 1012 39 10000 0.42 354 21:38 02.04.2020
5599 Clouds 9 1011 30 10000 2.1 330 21:19 02.04.2020
5600 Clouds 8 1012 39 10000 1.27 327 21:19 02.04.2020
5601 Clouds 9 1011 30 10000 2.1 330 20:57 02.04.2020
5602 Clouds 9 1011 34 10000 2.6 330 20:39 02.04.2020
5603 Clouds 10 1011 30 10000 3.6 340 20:19 02.04.2020
5604 Clouds 11 1011 30 10000 3.1 340 19:44 02.04.2020
5605 Clouds 12 1011 30 10000 3.1 340 19:21 02.04.2020
5606 Clouds 12 1010 28 10000 1 0 18:58 02.04.2020
5607 Clouds 12 1010 30 10000 1.5 0 18:39 02.04.2020
5608 Clear 13 1010 30 10000 1.5 0 18:20 02.04.2020
5609 Clear 13 1010 28 10000 1.5 0 17:56 02.04.2020
5610 Clear 13 1011 28 10000 1.5 80 17:38 02.04.2020
5611 Clear 13 1011 30 10000 1.5 70 17:18 02.04.2020
5612 Clear 13 1011 28 10000 2.1 0 16:55 02.04.2020
5613 Clear 13 1011 30 10000 2.1 350 16:37 02.04.2020
5614 Clear 13 1011 30 10000 2.1 50 16:18 02.04.2020
5615 Clear 13 1012 30 10000 2.1 0 15:44 02.04.2020
5616 Clear 13 1012 33 10000 1.5 0 15:21 02.04.2020
5617 Clear 13 1012 30 10000 1.5 0 14:59 02.04.2020
5618 Clear 13 1013 32 10000 1 0 14:40 02.04.2020
5619 Clear 12 1012 32 10000 1.5 0 14:20 02.04.2020
5620 Clear 12 1013 32 10000 1 0 13:57 02.04.2020
5621 Clear 12 1013 40 10000 1.5 0 13:38 02.04.2020
5622 Clear 12 1013 40 10000 1.5 0 13:38 02.04.2020
5623 Clear 12 1013 37 10000 1.5 30 13:20 02.04.2020
5624 Clear 12 1013 37 10000 1 0 12:56 02.04.2020
5625 Clear 12 1013 37 10000 1 0 12:56 02.04.2020
5626 Clear 11 1014 39 10000 1.5 0 12:37 02.04.2020
5627 Clear 10 1014 37 10000 1 0 12:19 02.04.2020
5628 Clear 10 1014 39 10000 1 0 11:57 02.04.2020
5629 Clear 9 1014 45 10000 1.5 0 11:38 02.04.2020
5630 Clear 9 1014 45 10000 1 0 11:19 02.04.2020
5631 Clear 9 1014 45 10000 1 0 11:19 02.04.2020
5632 Clear 8 1014 48 10000 1 0 10:55 02.04.2020
5633 Clear 7 1014 48 10000 1.5 260 10:37 02.04.2020
5634 Clear 5 1014 56 10000 1.44 266 10:18 02.04.2020
5635 Clear 4 1015 69 10000 1 0 09:43 02.04.2020
5636 Clear 3 1015 69 10000 1 0 09:25 02.04.2020
5637 Clear 2 1015 86 10000 0.83 176 08:59 02.04.2020
5638 Clear 1 1014 67 10000 0.83 176 08:40 02.04.2020
5639 Clear 0 1014 67 10000 0.83 176 08:22 02.04.2020
5640 Clear -1 1014 67 10000 2.6 240 07:45 02.04.2020
5641 Clear -1 1014 69 10000 2.1 220 07:20 02.04.2020
5642 Clear -1 1014 69 10000 2.1 220 06:58 02.04.2020
5643 Clear -1 1014 73 10000 2.6 230 06:21 02.04.2020
5644 Clear -1 1014 73 10000 2.1 190 05:45 02.04.2020
5645 Clear 0 1014 86 10000 1.01 150 04:35 02.04.2020
5646 Clear 0 1015 80 10000 0.5 230 01:51 02.04.2020
5647 Clear 1 1016 55 10000 5.1 270 00:48 02.04.2020
5648 Clear 2 1016 55 10000 5.1 270 00:27 02.04.2020
5649 Clear 2 1016 55 10000 4.1 270 23:57 01.04.2020
5650 Clear 2 1016 52 10000 4.6 270 23:37 01.04.2020
5651 Clear 2 1016 52 10000 4.6 270 23:18 01.04.2020
5652 Clear 3 1016 52 10000 3.6 270 22:41 01.04.2020
5653 Clear 4 1016 52 10000 3.6 270 22:22 01.04.2020
5654 Clear 4 1016 52 10000 3.6 270 21:57 01.04.2020
5655 Clear 4 1016 52 10000 2.1 300 21:39 01.04.2020
5656 Clear 5 1016 52 10000 2.1 300 21:18 01.04.2020
5657 Clear 5 1016 45 10000 2.1 340 20:55 01.04.2020
5658 Clear 6 1016 45 10000 2.1 340 20:55 01.04.2020
5659 Clear 7 1015 37 10000 1.5 10 20:37 01.04.2020
5660 Clear 7 1015 37 10000 1.5 10 20:18 01.04.2020
5661 Clear 7 1015 37 10000 1.5 10 20:18 01.04.2020
5662 Clear 9 1016 32 10000 2.1 20 19:43 01.04.2020
5663 Clear 10 1016 32 10000 2.1 20 19:22 01.04.2020
5664 Clear 10 1016 30 10000 1 0 18:59 01.04.2020
5665 Clear 10 1016 27 10000 1.5 0 18:41 01.04.2020
5666 Clear 11 1016 27 10000 1.5 0 18:21 01.04.2020
5667 Clear 11 1016 27 10000 1 0 17:56 01.04.2020
5668 Clear 12 1016 27 10000 1 0 17:37 01.04.2020
5669 Clear 12 1016 27 10000 1 0 17:18 01.04.2020
5670 Clear 12 1017 34 10000 4.1 20 16:55 01.04.2020
5671 Clear 12 1017 34 10000 3.6 20 16:36 01.04.2020
5672 Clear 12 1017 27 10000 1.5 0 16:18 01.04.2020
5673 Clear 11 1018 34 10000 3.6 340 15:42 01.04.2020
5674 Clear 11 1018 34 10000 3.6 340 15:22 01.04.2020
5675 Clear 11 1018 37 10000 3.6 330 14:59 01.04.2020
5676 Clear 11 1018 43 10000 3.6 340 14:39 01.04.2020
5677 Clear 10 1019 36 10000 1.5 90 14:21 01.04.2020
5678 Clear 10 1019 43 10000 4.1 350 13:59 01.04.2020
5679 Clear 10 1020 39 10000 3.6 10 13:39 01.04.2020
5680 Clear 9 1020 39 10000 2.1 70 13:20 01.04.2020
5681 Clear 9 1020 45 10000 3.1 350 12:57 01.04.2020
5682 Clear 9 1020 45 10000 2.1 360 12:37 01.04.2020
5683 Clear 7 1021 45 10000 3.6 360 12:18 01.04.2020
5684 Clear 6 1021 45 10000 3.6 360 11:56 01.04.2020
5685 Clear 6 1021 48 10000 3.1 350 11:37 01.04.2020
5686 Clear 6 1021 48 10000 3.1 350 11:37 01.04.2020
5687 Clear 6 1021 48 10000 3.1 350 11:37 01.04.2020
5688 Clear 6 1021 60 10000 2.6 340 11:18 01.04.2020
5689 Clear 5 1022 60 10000 2.6 10 10:38 01.04.2020
5690 Clear 4 1021 55 10000 3.1 360 10:20 01.04.2020
5691 Clear 3 1022 64 10000 3.1 10 09:58 01.04.2020
5692 Clear 2 1022 69 10000 2.1 10 09:40 01.04.2020
5693 Clear 0 1022 59 10000 2.6 10 09:19 01.04.2020
5694 Clear -1 1022 68 10000 1.5 0 08:44 01.04.2020
5695 Clear -2 1022 68 10000 1.5 0 08:19 01.04.2020
5696 Clear -2 1022 79 10000 1.5 0 07:58 01.04.2020
5697 Clear -2 1022 74 10000 1.5 310 07:40 01.04.2020
5698 Clear -2 1022 74 10000 1.5 310 07:19 01.04.2020
5699 Clear -2 1022 68 10000 1.5 300 06:41 01.04.2020
5700 Clear -2 1022 87 10000 2.6 310 06:20 01.04.2020
5701 Clear -2 1022 74 10000 1.5 310 05:28 01.04.2020
5702 Clear -1 1022 87 10000 2.1 350 03:40 01.04.2020
5703 Clear -1 1023 84 10000 2.6 340 02:59 01.04.2020
5704 Clear -1 1023 51 10000 2.6 320 02:36 01.04.2020
5705 Clear 0 1023 59 10000 3.1 350 01:50 01.04.2020
5706 Clear 0 1023 59 10000 3.1 360 01:25 01.04.2020
5707 Clear 1 1024 55 10000 3.6 360 00:47 01.04.2020
5708 Clear 1 1024 55 10000 3.6 360 00:22 01.04.2020
5709 Clear 1 1024 55 10000 4.1 10 23:57 31.03.2020
5710 Clear 1 1024 55 10000 4.1 10 23:57 31.03.2020
5711 Clear 1 1024 55 10000 4.6 10 23:38 31.03.2020
5712 Clear 2 1024 55 10000 4.6 10 23:19 31.03.2020
5713 Clear 2 1024 51 10000 4.1 360 22:41 31.03.2020
5714 Clear 2 1024 51 10000 4.1 360 22:21 31.03.2020
5715 Clear 3 1024 48 10000 5.1 360 21:58 31.03.2020
5716 Clear 3 1024 44 10000 4.6 360 21:40 31.03.2020
5717 Clear 4 1024 44 10000 4.6 360 21:21 31.03.2020
5718 Clear 5 1024 41 10000 4.6 10 20:57 31.03.2020
5719 Clear 5 1024 41 10000 4.6 10 20:37 31.03.2020
5720 Clear 6 1024 36 10000 6.7 20 20:19 31.03.2020
5721 Clear 7 1024 36 10000 6.7 20 19:57 31.03.2020
5722 Clear 7 1023 34 10000 6.2 20 19:38 31.03.2020
5723 Clear 8 1023 34 10000 7.7 10 19:19 31.03.2020
5724 Clear 9 1023 34 10000 6.2 20 18:44 31.03.2020
5725 Clear 9 1023 34 10000 6.2 20 18:21 31.03.2020
5726 Clear 9 1023 34 10000 6.2 10 17:58 31.03.2020
5727 Clear 9 1024 34 10000 5.7 20 17:39 31.03.2020
5728 Clear 10 1024 34 10000 5.7 20 17:21 31.03.2020
5729 Clear 10 1024 37 10000 6.2 10 16:57 31.03.2020
5730 Clear 10 1024 37 10000 8.7 10 16:37 31.03.2020
5731 Clear 10 1024 37 10000 6.7 20 16:18 31.03.2020
5732 Clear 10 1024 37 10000 6.7 20 15:56 31.03.2020
5733 Clear 10 1024 34 10000 5.7 30 15:37 31.03.2020
5734 Clear 10 1024 34 10000 5.7 30 15:37 31.03.2020
5735 Clear 10 1024 37 10000 5.7 30 15:18 31.03.2020
5736 Clear 10 1024 29 10000 4.1 40 14:56 31.03.2020
5737 Clear 10 1025 37 10000 5.7 360 14:37 31.03.2020
5738 Clear 10 1025 37 10000 5.7 10 14:18 31.03.2020
5739 Clear 9 1025 39 10000 4.6 30 13:41 31.03.2020
5740 Clear 9 1025 33 10000 5.1 50 13:19 31.03.2020
5741 Clear 8 1025 33 10000 5.7 30 12:55 31.03.2020
5742 Clear 8 1025 42 10000 5.1 10 12:37 31.03.2020
5743 Clear 7 1025 33 10000 5.1 40 12:18 31.03.2020
5744 Clear 6 1026 39 10000 3.6 360 11:38 31.03.2020
5745 Clear 5 1026 36 10000 4.1 30 11:19 31.03.2020
5746 Clear 5 1026 44 10000 3.6 10 10:58 31.03.2020
5747 Clear 5 1026 51 10000 3.6 360 10:39 31.03.2020
5748 Clear 3 1025 48 10000 5.7 360 10:21 31.03.2020
5749 Clear 2 1026 64 10000 3.1 10 09:56 31.03.2020
5750 Clear 1 1026 53 10000 1.5 0 09:37 31.03.2020
5751 Clear 1 1026 53 10000 1.5 0 09:37 31.03.2020
5752 Clear 0 1025 59 10000 6.2 360 09:19 31.03.2020
5753 Clear 0 1025 69 10000 5.1 360 08:56 31.03.2020
5754 Clear -1 1025 77 10000 4.6 350 08:37 31.03.2020
5755 Clear -2 1024 77 10000 2.6 340 08:18 31.03.2020
5756 Clear -3 1024 77 10000 3.6 360 07:54 31.03.2020
5757 Clear -2 1024 77 10000 3.6 360 07:36 31.03.2020
5758 Clear -3 1024 77 10000 3.1 10 07:18 31.03.2020
5759 Clear -2 1024 68 10000 3.6 360 06:42 31.03.2020
5760 Clear -2 1024 58 10000 2.1 340 05:53 31.03.2020
5761 Clear -2 1024 63 10000 2.1 350 05:26 31.03.2020
5762 Clear -2 1024 63 7000 2.1 320 03:27 31.03.2020
5763 Clear -1 1024 58 10000 2.1 340 01:52 31.03.2020
5764 Clear -1 1024 81 10000 3.1 350 01:33 31.03.2020
5765 Clear -1 1025 47 10000 2.6 10 00:46 31.03.2020
5766 Clear -1 1025 47 10000 2.6 10 00:24 31.03.2020
5767 Clear 0 1025 50 10000 4.1 10 23:41 30.03.2020
5768 Clear 0 1025 50 10000 4.1 10 23:20 30.03.2020
5769 Clear 0 1025 50 10000 4.1 10 23:20 30.03.2020
5770 Clear 1 1025 43 10000 3.6 10 22:58 30.03.2020
5771 Clear 1 1025 43 10000 3.6 10 22:58 30.03.2020
5772 Clear 1 1024 40 10000 4.1 10 22:39 30.03.2020
5773 Clear 1 1024 43 10000 3.6 10 22:20 30.03.2020
5774 Clear 1 1024 43 10000 3.6 10 21:58 30.03.2020
5775 Clear 1 1024 40 10000 3.1 10 21:39 30.03.2020
5776 Clear 2 1024 40 10000 3.1 10 21:39 30.03.2020
5777 Clear 3 1024 40 10000 4.1 360 21:20 30.03.2020
5778 Clear 3 1024 40 10000 4.1 360 20:59 30.03.2020
5779 Clear 3 1024 38 10000 4.1 10 20:39 30.03.2020
5780 Clear 3 1024 38 10000 4.1 10 20:39 30.03.2020
5781 Clear 4 1024 38 10000 4.1 10 20:20 30.03.2020
5782 Clear 4 1024 38 10000 4.1 10 20:20 30.03.2020
5783 Clear 5 1023 30 10000 5.1 20 19:56 30.03.2020
5784 Clear 5 1023 28 10000 6.7 20 19:38 30.03.2020
5785 Clear 5 1023 28 10000 6.7 20 19:38 30.03.2020
5786 Clear 6 1023 28 10000 5.7 20 19:20 30.03.2020
5787 Clear 6 1023 30 10000 7.2 20 18:43 30.03.2020
5788 Clear 7 1023 36 10000 6.2 10 18:25 30.03.2020
5789 Clear 6 1023 36 10000 6.2 10 17:58 30.03.2020
5790 Clear 6 1023 36 10000 6.7 20 17:39 30.03.2020
5791 Clear 7 1023 36 10000 6.7 20 17:21 30.03.2020
5792 Clear 7 1023 33 10000 7.2 10 16:59 30.03.2020
5793 Clear 7 1024 39 10000 7.2 20 16:40 30.03.2020
5794 Clear 6 1024 39 10000 7.2 20 16:21 30.03.2020
5795 Clear 6 1024 42 10000 7.2 20 15:56 30.03.2020
5796 Clear 6 1024 42 10000 7.2 20 15:56 30.03.2020
5797 Clear 6 1024 45 10000 6.7 20 15:38 30.03.2020
5798 Clouds 6 1024 45 10000 6.7 20 15:20 30.03.2020
5799 Clouds 6 1024 48 10000 6.7 360 14:56 30.03.2020
5800 Clouds 6 1024 48 10000 6.2 20 14:37 30.03.2020
5801 Clouds 5 1024 48 10000 6.2 20 14:18 30.03.2020
5802 Clouds 5 1025 56 10000 6.7 20 13:56 30.03.2020
5803 Clouds 5 1025 56 10000 6.7 10 13:37 30.03.2020
5804 Clouds 4 1025 55 10000 7.2 10 13:19 30.03.2020
5805 Clouds 4 1026 55 10000 6.7 20 12:44 30.03.2020
5806 Clouds 3 1026 55 10000 6.7 20 12:21 30.03.2020
5807 Clouds 3 1026 59 10000 7.7 10 11:58 30.03.2020
5808 Clouds 3 1026 64 10000 9.3 10 11:40 30.03.2020
5809 Clouds 3 1026 64 10000 9.3 10 11:21 30.03.2020
5810 Clouds 2 1026 69 10000 9.3 360 10:55 30.03.2020
5811 Clouds 2 1026 69 10000 9.8 360 10:37 30.03.2020
5812 Clouds 2 1025 69 10000 8.7 10 10:18 30.03.2020
5813 Clouds 2 1025 74 10000 7.7 10 09:40 30.03.2020
5814 Clouds 1 1025 69 10000 8.7 10 09:19 30.03.2020
5815 Clouds 1 1025 69 10000 8.7 10 08:56 30.03.2020
5816 Clouds 1 1025 64 10000 8.2 10 08:36 30.03.2020
5817 Clouds 1 1025 64 10000 8.7 10 08:18 30.03.2020
5818 Clouds 1 1024 69 10000 7.7 10 07:42 30.03.2020
5819 Clouds 1 1024 69 10000 8.2 10 07:21 30.03.2020
5820 Clouds 1 1024 69 10000 7.7 20 06:43 30.03.2020
5821 Clouds 1 1024 69 10000 7.7 20 06:25 30.03.2020
5822 Clouds 1 1024 74 10000 7.2 20 05:44 30.03.2020
5823 Clouds 2 1024 80 10000 6.7 10 04:31 30.03.2020
5824 Rain 2 1025 82 10000 7.7 10 03:57 30.03.2020
5825 Drizzle 2 1025 86 10000 7.7 10 02:45 30.03.2020
5826 Drizzle 2 1024 86 8000 7.7 10 01:57 30.03.2020
5827 Rain 2 1024 93 7000 7.2 10 01:18 30.03.2020
5828 Drizzle 2 1024 86 9000 7.7 10 00:29 30.03.2020
5829 Rain 2 1024 93 10000 6.2 10 23:56 29.03.2020
5830 Rain 2 1024 93 9000 5.7 360 23:37 29.03.2020
5831 Rain 2 1024 93 7000 6.7 10 23:19 29.03.2020
5832 Rain 2 1024 93 6000 7.2 10 22:41 29.03.2020
5833 Rain 2 1024 93 6000 7.2 10 22:20 29.03.2020
5834 Rain 2 1023 93 7000 6.7 10 21:59 29.03.2020
5835 Rain 2 1023 93 6000 7.7 10 21:38 29.03.2020
5836 Rain 2 1023 93 9000 5.7 10 21:20 29.03.2020
5837 Rain 2 1023 93 9000 5.7 10 20:56 29.03.2020
5838 Rain 3 1023 93 7000 6.2 10 20:37 29.03.2020
5839 Rain 3 1023 93 7000 6.2 10 20:37 29.03.2020
5840 Rain 3 1023 93 7000 6.2 10 20:37 29.03.2020
5841 Rain 3 1022 86 7000 7.2 20 20:19 29.03.2020
5842 Rain 3 1022 86 7000 7.2 20 20:19 29.03.2020
5843 Rain 3 1022 86 9000 6.2 10 19:57 29.03.2020
5844 Rain 3 1022 86 9000 6.2 10 19:39 29.03.2020
5845 Rain 3 1022 86 10000 6.7 10 19:21 29.03.2020
5846 Rain 3 1022 86 10000 6.7 10 18:57 29.03.2020
5847 Rain 3 1022 86 10000 5.1 20 18:38 29.03.2020
5848 Rain 3 1021 86 10000 4.6 10 18:19 29.03.2020
5849 Rain 3 1021 86 10000 4.6 10 18:19 29.03.2020
5850 Rain 3 1021 86 10000 4.6 10 17:56 29.03.2020
5851 Rain 3 1022 86 10000 3.6 10 17:38 29.03.2020
5852 Rain 3 1022 86 10000 3.6 10 17:19 29.03.2020
5853 Rain 3 1022 86 10000 5.1 10 16:56 29.03.2020
5854 Rain 3 1022 86 10000 4.6 20 16:38 29.03.2020
5855 Rain 3 1022 86 10000 4.6 20 16:38 29.03.2020
5856 Rain 3 1022 86 10000 6.2 30 16:19 29.03.2020
5857 Rain 3 1022 80 10000 5.7 40 15:42 29.03.2020
5858 Rain 3 1022 80 10000 5.7 40 15:42 29.03.2020
5859 Rain 3 1022 86 10000 7.2 20 15:24 29.03.2020
5860 Rain 3 1022 86 10000 7.2 20 14:59 29.03.2020
5861 Rain 3 1021 80 10000 7.2 10 14:40 29.03.2020
5862 Rain 3 1021 80 10000 7.2 10 14:40 29.03.2020
5863 Rain 3 1021 80 10000 7.2 10 14:20 29.03.2020
5864 Rain 4 1021 80 10000 7.2 10 13:58 29.03.2020
5865 Rain 4 1021 80 10000 7.2 20 13:40 29.03.2020
5866 Clouds 4 1021 77 10000 7.7 30 13:21 29.03.2020
5867 Clouds 4 1021 77 10000 7.7 30 12:57 29.03.2020
5868 Clouds 5 1021 77 10000 7.2 20 12:38 29.03.2020
5869 Clouds 5 1021 73 10000 8.7 10 12:19 29.03.2020
5870 Clouds 5 1021 73 10000 8.7 10 11:55 29.03.2020
5871 Clouds 5 1021 73 10000 7.2 20 11:37 29.03.2020
5872 Clouds 6 1021 73 10000 7.2 20 11:19 29.03.2020
5873 Clouds 6 1020 65 10000 6.7 10 10:38 29.03.2020
5874 Clouds 6 1020 65 10000 6.7 10 10:19 29.03.2020
5875 Clouds 6 1020 70 10000 8.2 10 09:54 29.03.2020
5876 Clouds 5 1020 70 10000 7.7 10 09:36 29.03.2020
5877 Clouds 6 1020 70 10000 7.2 20 09:18 29.03.2020
5878 Clouds 5 1019 75 10000 6.2 10 08:41 29.03.2020
5879 Clouds 5 1019 75 10000 6.2 10 08:22 29.03.2020
5880 Clouds 5 1019 73 10000 6.2 360 07:45 29.03.2020
5881 Clouds 6 1019 73 10000 5.1 360 07:22 29.03.2020
5882 Clouds 6 1019 70 10000 5.1 10 05:59 29.03.2020
5883 Clouds 7 1018 70 10000 5.7 10 04:56 29.03.2020
5884 Clouds 7 1018 70 10000 6.2 10 03:41 29.03.2020
5885 Clouds 8 1018 46 10000 6.2 10 03:20 29.03.2020
5886 Clouds 8 1018 43 10000 5.7 10 01:40 29.03.2020
5887 Clear 8 1018 43 10000 5.7 10 01:21 29.03.2020
5888 Clear 8 1018 70 10000 6.2 10 00:40 29.03.2020
5889 Clear 8 1017 46 10000 5.7 10 00:19 29.03.2020
5890 Clear 8 1017 53 10000 2.6 350 23:41 28.03.2020
5891 Clear 9 1017 57 10000 2.6 340 23:22 28.03.2020
5892 Clear 9 1017 57 10000 2.1 330 22:44 28.03.2020
5893 Clear 9 1017 57 10000 2.1 330 22:23 28.03.2020
5894 Clear 9 1017 57 10000 2.1 290 21:59 28.03.2020
5895 Clear 9 1017 53 10000 2.6 290 21:40 28.03.2020
5896 Clear 10 1017 50 10000 3.6 280 21:21 28.03.2020
5897 Clear 10 1017 50 10000 3.6 280 20:57 28.03.2020
5898 Clear 10 1016 50 10000 1.5 0 20:38 28.03.2020
5899 Rain 11 1016 50 10000 1.5 0 20:20 28.03.2020
5900 Clouds 11 1016 43 10000 2.1 320 19:55 28.03.2020
5901 Clouds 11 1016 47 10000 3.1 360 19:36 28.03.2020
5902 Clouds 11 1016 47 10000 3.1 360 19:36 28.03.2020
5903 Clouds 12 1016 41 10000 4.1 360 19:18 28.03.2020
5904 Clouds 14 1015 36 10000 4.6 10 18:42 28.03.2020
5905 Clouds 15 1015 36 10000 4.6 10 18:21 28.03.2020
5906 Clouds 15 1015 36 10000 5.7 360 17:56 28.03.2020
5907 Clouds 15 1015 33 10000 4.6 20 17:36 28.03.2020
5908 Rain 16 1015 39 10000 4.6 10 17:18 28.03.2020
5909 Rain 16 1015 36 10000 4.1 360 16:42 28.03.2020
5910 Rain 16 1015 36 10000 4.1 360 16:20 28.03.2020
5911 Rain 16 1016 39 10000 4.1 20 15:55 28.03.2020
5912 Rain 16 1016 39 10000 4.1 10 15:37 28.03.2020
5913 Rain 16 1016 39 10000 4.6 30 15:18 28.03.2020
5914 Rain 16 1016 44 10000 4.6 20 14:42 28.03.2020
5915 Rain 16 1016 44 10000 4.6 20 14:22 28.03.2020
5916 Clouds 15 1016 44 10000 5.1 20 13:56 28.03.2020
5917 Clouds 16 1017 47 10000 4.1 30 13:37 28.03.2020
5918 Clouds 15 1017 47 10000 3.6 20 13:18 28.03.2020
5919 Clouds 15 1017 47 10000 4.1 30 13:18 28.03.2020
5920 Clouds 15 1017 50 10000 3.6 30 12:38 28.03.2020
5921 Clouds 14 1017 54 10000 3.1 360 12:19 28.03.2020
5922 Clouds 13 1018 58 10000 1.5 360 11:42 28.03.2020
5923 Clouds 13 1018 58 10000 1.5 360 11:42 28.03.2020
5924 Clouds 12 1018 62 10000 1.5 10 11:21 28.03.2020
5925 Clouds 11 1018 62 10000 1.5 10 10:55 28.03.2020
5926 Clouds 11 1018 66 10000 1.5 0 10:36 28.03.2020
5927 Clouds 10 1018 66 10000 1 0 10:18 28.03.2020
5928 Clouds 9 1018 65 10000 0.5 0 09:40 28.03.2020
5929 Clouds 8 1018 65 10000 0.5 0 09:22 28.03.2020
5930 Clouds 6 1017 80 10000 1 0 08:45 28.03.2020
5931 Clouds 6 1017 80 10000 1 0 08:25 28.03.2020
5932 Clouds 4 1017 86 10000 1 120 07:58 28.03.2020
5933 Clouds 3 1017 86 10000 0.66 173 07:40 28.03.2020
5934 Clouds 2 1017 75 10000 1 0 06:54 28.03.2020
5935 Clouds 2 1017 75 8000 0.66 173 06:29 28.03.2020
5936 Clouds 2 1016 93 10000 1 0 05:38 28.03.2020
5937 Clouds 2 1016 76 10000 0.5 0 05:19 28.03.2020
5938 Clouds 3 1016 86 10000 1 0 04:39 28.03.2020
5939 Clouds 3 1016 75 10000 4.6 210 02:55 28.03.2020
5940 Clouds 4 1016 75 9000 0.5 150 01:48 28.03.2020
5941 Clouds 4 1016 75 9000 0.5 150 01:24 28.03.2020
5942 Clouds 4 1016 74 9000 1.5 210 00:54 28.03.2020
5943 Clouds 4 1016 73 9000 1 230 00:33 28.03.2020
5944 Clouds 4 1016 74 10000 1 190 23:45 27.03.2020
5945 Clouds 4 1016 74 10000 1 190 23:26 27.03.2020
5946 Clouds 4 1016 74 10000 1 190 23:26 27.03.2020
5947 Clouds 5 1016 71 10000 0.5 260 22:58 27.03.2020
5948 Clouds 5 1016 80 10000 1 0 22:39 27.03.2020
5949 Clouds 5 1016 61 10000 3.1 260 22:21 27.03.2020
5950 Clouds 5 1016 71 10000 1 250 21:59 27.03.2020
5951 Clouds 6 1016 57 10000 3.6 260 21:41 27.03.2020
5952 Clouds 6 1016 57 10000 3.6 260 21:23 27.03.2020
5953 Clouds 7 1016 57 10000 3.6 270 20:57 27.03.2020
5954 Clouds 7 1016 57 10000 4.1 280 20:39 27.03.2020
5955 Clouds 8 1016 57 10000 4.1 280 20:19 27.03.2020
5956 Clouds 8 1016 57 10000 4.1 280 20:19 27.03.2020
5957 Clouds 8 1016 61 10000 3.1 270 19:56 27.03.2020
5958 Clouds 8 1015 50 10000 1.5 330 19:38 27.03.2020
5959 Clouds 9 1015 50 10000 2.1 10 19:19 27.03.2020
5960 Clouds 10 1015 46 10000 3.6 10 18:43 27.03.2020
5961 Clouds 11 1015 46 10000 3.6 10 18:23 27.03.2020
5962 Clouds 12 1015 47 10000 2.6 10 17:55 27.03.2020
5963 Clouds 12 1014 43 10000 3.1 20 17:37 27.03.2020
5964 Clouds 12 1014 53 10000 3.6 10 17:19 27.03.2020
5965 Clouds 13 1014 43 10000 3.6 20 16:44 27.03.2020
5966 Clouds 13 1014 43 10000 3.6 20 16:25 27.03.2020
5967 Clouds 13 1014 43 10000 3.6 20 16:25 27.03.2020
5968 Clouds 13 1014 43 10000 3.6 20 16:25 27.03.2020
5969 Clouds 13 1015 53 10000 2.1 20 15:45 27.03.2020
5970 Clouds 12 1010 51 0 0.45 355 15:27 27.03.2020
5971 Clouds 12 1013 54 0 1.79 265 14:59 27.03.2020
5972 Clouds 11 1013 54 0 2.68 261 14:40 27.03.2020
5973 Clouds 11 1013 51 0 3.58 245 14:22 27.03.2020
5974 Clear 11 1013 53 0 0.45 228 13:54 27.03.2020
5975 Clear 11 1013 55 0 1.79 267 13:36 27.03.2020
5976 Clear 10 1013 56 0 3.58 263 13:18 27.03.2020
5977 Clear 10 1013 46 0 0.45 315 12:42 27.03.2020
5978 Clear 10 1013 50 0 2.21 339 12:19 27.03.2020
5979 Clear 10 1014 47 0 2.21 339 11:55 27.03.2020
5980 Clear 9 1014 48 0 2.21 339 11:36 27.03.2020
5981 Clear 7 1013 59 0 2.68 274 11:18 27.03.2020
5982 Clear 7 1014 55 0 0.45 225 10:42 27.03.2020
5983 Clear 7 1014 57 0 0.93 329 10:22 27.03.2020
5984 Clear 7 1014 57 0 0.93 329 10:22 27.03.2020
5985 Clear 6 1014 60 0 0.93 329 09:59 27.03.2020
5986 Clear 5 1014 61 0 0.93 329 09:41 27.03.2020
5987 Clear 5 1015 65 0 0.93 329 09:22 27.03.2020
5988 Clear 4 1014 67 0 0.93 329 08:59 27.03.2020
5989 Clear 3 1014 69 0 0.93 329 08:40 27.03.2020
5990 Clouds 1 1014 77 0 0.97 94 08:22 27.03.2020
5991 Clouds 1 1014 78 0 0.54 104 07:59 27.03.2020
5992 Clouds 1 1014 81 0 0.54 104 07:41 27.03.2020
5993 Clouds 0 1014 82 0 0.54 104 07:21 27.03.2020
5994 Clouds -1 1014 81 0 0.54 104 06:40 27.03.2020
5995 Clouds 0 1014 80 0 0.54 104 05:51 27.03.2020
5996 Clouds 1 1013 76 0 0.98 94 03:34 27.03.2020
5997 Clouds 1 1012 74 0 1.25 91 01:56 27.03.2020
5998 Clouds 1 1012 74 0 1.24 87 01:19 27.03.2020
5999 Clouds 0 1012 72 0 1.24 87 00:43 27.03.2020
6000 Clouds 1 1013 69 0 1.24 87 00:19 27.03.2020
6001 Clouds 0 1010 59 0 0.45 111 23:42 26.03.2020
6002 Clouds 1 1010 59 0 0.89 111 23:19 26.03.2020
6003 Clouds 1 1010 59 0 0.89 111 22:57 26.03.2020
6004 Clouds 0 1010 59 0 1.65 68 22:36 26.03.2020
6005 Clouds 1 1010 58 0 0.89 111 22:18 26.03.2020
6006 Clouds 1 1010 57 0 0.45 111 21:40 26.03.2020
6007 Clouds 1 1010 57 0 0.89 92 21:22 26.03.2020
6008 Clouds 1 1010 57 0 0.89 92 20:59 26.03.2020
6009 Clouds 2 1011 54 0 0.89 111 20:39 26.03.2020
6010 Clouds 4 1014 53 0 0.45 0 20:21 26.03.2020
6011 Clouds 2 1010 52 0 2.46 38 19:58 26.03.2020
6012 Clouds 2 1010 52 0 2.46 38 19:40 26.03.2020
6013 Clouds 6 1014 47 0 1.34 17 19:21 26.03.2020
6014 Clouds 6 1014 45 0 1.34 335 18:58 26.03.2020
6015 Clouds 7 1014 43 0 2.68 49 18:40 26.03.2020
6016 Clouds 8 1014 40 0 1.79 342 18:22 26.03.2020
6017 Clouds 8 1014 38 0 0.89 20 17:45 26.03.2020
6018 Clouds 8 1013 35 0 3.13 24 17:20 26.03.2020
6019 Clouds 8 1013 38 0 3.58 11 16:59 26.03.2020
6020 Clouds 8 1013 45 0 3.58 351 16:38 26.03.2020
6021 Clouds 8 1013 44 0 2.68 338 16:20 26.03.2020
6022 Clouds 9 1013 37 0 2.68 2 15:56 26.03.2020
6023 Clouds 9 1013 37 0 2.24 357 15:38 26.03.2020
6024 Clouds 9 1013 38 0 3.13 14 15:19 26.03.2020
6025 Clouds 9 1014 44 0 1.79 40 14:43 26.03.2020
6026 Clouds 8 1014 45 0 3.13 326 14:25 26.03.2020
6027 Clear 8 1014 45 0 3.13 335 13:56 26.03.2020
6028 Clear 8 1014 45 0 4.02 321 13:38 26.03.2020
6029 Clear 8 1015 43 0 0.89 347 13:20 26.03.2020
6030 Clear 8 1015 42 0 0.89 35 12:39 26.03.2020
6031 Clear 8 1015 41 0 2.24 325 12:21 26.03.2020
6032 Clear 8 1015 41 0 0.89 311 11:56 26.03.2020
6033 Clear 7 1014 42 0 0.89 315 11:56 26.03.2020
6034 Clear 7 1015 44 0 2.24 317 11:37 26.03.2020
6035 Clear 3 1011 55 0 0.89 36 11:19 26.03.2020
6036 Clear 2 1012 55 0 1.34 341 10:42 26.03.2020
6037 Clear 4 1015 47 0 0.45 67 10:20 26.03.2020
6038 Clear 1 1010 57 0 0.89 18 09:55 26.03.2020
6039 Clear 1 1010 57 0 0.89 18 09:55 26.03.2020
6040 Clear 3 1014 49 0 1.79 33 09:37 26.03.2020
6041 Clear 2 1014 51 0 0.45 112 09:19 26.03.2020
6042 Clear 2 1015 54 0 0.89 64 08:42 26.03.2020
6043 Clear -2 1011 57 0 0.89 352 08:24 26.03.2020
6044 Clear -2 1011 57 0 0.89 352 07:57 26.03.2020
6045 Clear -3 1010 58 0 1.34 24 07:38 26.03.2020
6046 Clear -4 1010 59 0 0.45 99 07:19 26.03.2020
6047 Clear -4 1010 58 0 0.45 31 06:33 26.03.2020
6048 Clear -4 1009 57 0 0.89 350 05:51 26.03.2020
6049 Clear -2 1009 53 0 0.89 356 03:47 26.03.2020
6050 Clear -2 1009 52 0 1.34 74 03:18 26.03.2020
6051 Clear -2 1017 89 0 2.13 65 02:50 26.03.2020
6052 Clear -1 1011 49 0 0.89 349 01:19 26.03.2020
6053 Clear -1 1011 49 0 0.89 326 00:33 26.03.2020
6054 Clear -1 1011 47 0 2.62 64 23:44 25.03.2020
6055 Clear -1 1011 47 0 2.62 64 23:26 25.03.2020
6056 Clear 0 1011 47 0 0.89 333 22:56 25.03.2020
6057 Clear -1 1014 58 0 1.34 5 22:37 25.03.2020
6058 Clear 0 1011 46 0 1.34 23 22:19 25.03.2020
6059 Clear 0 1013 45 0 0.89 65 21:54 25.03.2020
6060 Clear 0 1013 45 0 0.89 65 21:36 25.03.2020
6061 Clear 1 1012 45 0 1.34 4 21:18 25.03.2020
6062 Clear 1 1013 45 0 1.34 61 20:39 25.03.2020
6063 Clear 1 1012 45 0 2.24 343 20:19 25.03.2020
6064 Clear 1 1012 45 0 2.24 343 19:56 25.03.2020
6065 Clear 1 1013 45 0 1.79 342 19:38 25.03.2020
6066 Clear 5 1016 37 0 1.79 25 19:19 25.03.2020
6067 Clear 5 1016 37 0 1.34 2 18:54 25.03.2020
6068 Clear 5 1015 36 0 3.13 67 18:36 25.03.2020
6069 Clear 7 1016 34 0 3.58 31 18:18 25.03.2020
6070 Clear 6 1015 33 0 2.24 67 17:41 25.03.2020
6071 Clear 6 1015 33 0 2.68 67 17:22 25.03.2020
6072 Clear 7 1015 31 0 3.58 45 16:58 25.03.2020
6073 Clear 7 1015 29 0 3.58 67 16:39 25.03.2020
6074 Clear 7 1015 28 0 2.24 45 16:21 25.03.2020
6075 Clear 9 1015 28 0 3.13 45 15:43 25.03.2020
6076 Clear 9 1015 26 0 3.13 45 15:21 25.03.2020
6077 Clear 10 1016 28 0 2.68 22 14:59 25.03.2020
6078 Clear 10 1016 29 0 2.68 45 14:40 25.03.2020
6079 Clear 10 1016 29 0 3.13 22 14:20 25.03.2020
6080 Clear 10 1016 29 0 2.24 45 13:45 25.03.2020
6081 Clear 10 1016 28 0 3.58 337 13:25 25.03.2020
6082 Clear 9 1017 29 0 2.68 22 12:54 25.03.2020
6083 Clear 6 1016 35 0 0.89 182 12:36 25.03.2020
6084 Clear 6 1016 37 0 2.24 190 12:18 25.03.2020
6085 Clear 5 1017 36 0 2.68 147 11:41 25.03.2020
6086 Clear 5 1017 39 0 2.68 161 11:21 25.03.2020
6087 Clear 4 1018 39 0 2.24 178 10:59 25.03.2020
6088 Clear 4 1018 39 0 2.24 178 10:59 25.03.2020
6089 Clear 6 1020 38 0 3.13 336 10:40 25.03.2020
6090 Clear 1 1016 56 0 1.79 19 10:19 25.03.2020
6091 Clear 1 1016 56 0 1.79 19 09:59 25.03.2020
6092 Clear 1 1017 56 0 1.34 4 09:40 25.03.2020
6093 Clear 3 1021 51 0 1.34 19 09:21 25.03.2020
6094 Clear 2 1021 56 0 0.89 357 08:43 25.03.2020
6095 Clear 1 1021 57 0 0.89 22 08:25 25.03.2020
6096 Clear 0 1022 61 0 2.24 333 07:59 25.03.2020
6097 Clear 0 1022 60 0 2.68 350 07:39 25.03.2020
6098 Clear -1 1022 58 0 1.34 350 07:19 25.03.2020
6099 Clear -1 1022 59 0 1.79 345 06:45 25.03.2020
6100 Clear -1 1022 58 0 0.45 329 06:25 25.03.2020
6101 Clear -1 1022 59 0 2.19 69 05:48 25.03.2020
6102 Clear -1 1022 58 0 2.05 64 04:59 25.03.2020
6103 Clear -1 1022 58 0 2.05 64 04:36 25.03.2020
6104 Clear 0 1023 55 0 2.05 64 03:34 25.03.2020
6105 Clear -1 1019 56 0 0.89 64 01:55 25.03.2020
6106 Clear -1 1019 56 0 0.89 48 01:20 25.03.2020
6107 Clear -1 1019 56 0 1.34 338 00:43 25.03.2020
6108 Clear -1 1019 56 0 1.34 4 00:19 25.03.2020
6109 Clear -1 1019 56 0 0.89 347 23:42 24.03.2020
6110 Clear -1 1019 56 0 1.34 335 23:22 24.03.2020
6111 Clear -1 1019 56 0 1.34 1 22:55 24.03.2020
6112 Clear -1 1019 56 0 1.34 1 22:37 24.03.2020
6113 Clear -1 1019 56 0 1.34 1 22:37 24.03.2020
6114 Clear -1 1019 56 0 1.34 1 22:37 24.03.2020
6115 Clear -1 1019 56 0 1.34 346 22:19 24.03.2020
6116 Clear -1 1019 56 0 1.34 346 21:55 24.03.2020
6117 Clear -1 1019 56 0 1.34 351 21:36 24.03.2020
6118 Clear 0 1019 56 0 1.34 336 21:18 24.03.2020
6119 Clear 0 1019 56 0 1.34 345 20:42 24.03.2020
6120 Clear 0 1019 56 0 1.34 345 20:23 24.03.2020
6121 Clear 0 1019 56 0 1.34 15 19:57 24.03.2020
6122 Clear 0 1019 56 0 1.34 15 19:39 24.03.2020
6123 Clear 5 1023 33 0 2.24 36 19:18 24.03.2020
6124 Clear 0 1019 56 0 2.24 14 18:55 24.03.2020
6125 Clear 0 1019 56 0 2.24 14 18:36 24.03.2020
6126 Clear 6 1023 28 0 1.79 13 18:18 24.03.2020
6127 Clear 5 1022 25 0 2.24 67 17:42 24.03.2020
6128 Clear 9 1022 24 0 1.79 45 17:22 24.03.2020
6129 Clear 9 1024 21 10000 7.2 40 16:58 24.03.2020
6130 Clear 9 1024 23 10000 7.7 30 16:39 24.03.2020
6131 Clear 10 1024 23 10000 7.7 30 16:21 24.03.2020
6132 Clear 10 1024 21 10000 7.2 30 15:58 24.03.2020
6133 Clear 9 1025 23 10000 7.2 30 15:37 24.03.2020
6134 Clear 10 1025 23 10000 7.2 30 15:19 24.03.2020
6135 Clear 10 1026 25 10000 7.7 30 14:43 24.03.2020
6136 Clear 8 1023 25 0 1.34 167 14:19 24.03.2020
6137 Clear 7 1023 24 0 1.79 179 13:44 24.03.2020
6138 Clear 8 1023 26 0 0.89 204 13:24 24.03.2020
6139 Clear 7 1023 28 0 0.89 219 12:58 24.03.2020
6140 Clear 6 1023 26 0 2.24 255 12:38 24.03.2020
6141 Clear 7 1024 28 0 0.45 234 12:20 24.03.2020
6142 Clear 8 1025 26 0 0.89 292 11:40 24.03.2020
6143 Clear 5 1028 44 10000 6.2 360 11:20 24.03.2020
6144 Clear 5 1028 44 10000 6.2 360 10:54 24.03.2020
6145 Clear 5 1028 38 10000 5.1 20 10:36 24.03.2020
6146 Clear 4 1028 38 10000 5.1 20 10:18 24.03.2020
6147 Clear 3 1029 44 10000 5.1 20 09:42 24.03.2020
6148 Clear 2 1029 44 10000 5.1 20 09:24 24.03.2020
6149 Clear 1 1029 50 10000 4.1 360 08:40 24.03.2020
6150 Clear -1 1029 50 10000 4.1 360 08:21 24.03.2020
6151 Clear -2 1029 48 10000 4.1 360 07:51 24.03.2020
6152 Clear -2 1029 54 10000 4.6 360 07:25 24.03.2020
6153 Clear -2 1029 50 10000 4.6 350 06:59 24.03.2020
6154 Clear -3 1029 54 10000 4.1 350 06:33 24.03.2020
6155 Clear -3 1028 58 10000 4.6 360 05:30 24.03.2020
6156 Clear -3 1029 54 10000 4.1 360 04:49 24.03.2020
6157 Clear -1 1029 54 10000 3.6 350 03:19 24.03.2020
6158 Clear -1 1029 54 10000 3.1 360 02:25 24.03.2020
6159 Clear 0 1029 58 10000 3.1 350 00:53 24.03.2020
6160 Clear 0 1029 47 10000 3.1 350 00:26 24.03.2020
6161 Clear 0 1029 47 10000 2.6 340 23:55 23.03.2020
6162 Clouds 0 1029 37 10000 4.6 110 23:36 23.03.2020
6163 Clear 1 1030 43 10000 3.6 360 23:18 23.03.2020
6164 Clear 1 1029 43 10000 3.6 10 22:42 23.03.2020
6165 Clear 1 1029 35 10000 5.1 20 22:22 23.03.2020
6166 Clear 1 1029 43 10000 3.6 10 22:22 23.03.2020
6167 Clear 1 1029 35 10000 5.1 20 21:55 23.03.2020
6168 Clear 2 1029 38 10000 4.1 10 21:37 23.03.2020
6169 Clear 2 1029 35 10000 4.6 20 21:18 23.03.2020
6170 Clear 2 1028 28 10000 5.1 30 20:42 23.03.2020
6171 Clear 3 1028 28 10000 5.1 30 20:24 23.03.2020
6172 Clear 4 1028 28 10000 4.6 30 19:56 23.03.2020
6173 Clear 4 1027 26 10000 5.1 30 19:37 23.03.2020
6174 Clear 5 1027 24 10000 5.7 30 19:19 23.03.2020
6175 Clear 6 1026 22 10000 7.2 110 18:44 23.03.2020
6176 Clear 6 1027 19 10000 6.2 40 18:25 23.03.2020
6177 Clear 7 1027 19 10000 6.2 40 17:59 23.03.2020
6178 Clear 8 1027 19 10000 6.2 40 17:41 23.03.2020
6179 Clear 9 1026 18 10000 6.2 30 17:19 23.03.2020
6180 Clear 9 1027 20 10000 6.7 30 16:44 23.03.2020
6181 Clear 10 1027 20 10000 6.7 30 16:25 23.03.2020
6182 Clear 10 1027 21 10000 6.2 30 15:59 23.03.2020
6183 Clear 10 1027 21 10000 5.7 20 15:39 23.03.2020
6184 Clear 10 1027 25 10000 6.2 10 15:18 23.03.2020
6185 Clear 10 1027 25 10000 6.7 10 14:37 23.03.2020
6186 Clear 9 1027 25 10000 6.7 10 14:19 23.03.2020
6187 Clear 9 1028 26 10000 6.2 10 13:57 23.03.2020
6188 Clear 9 1028 36 10000 6.2 20 13:38 23.03.2020
6189 Clear 8 1028 33 10000 5.7 10 13:20 23.03.2020
6190 Clear 8 1029 33 10000 5.1 30 12:43 23.03.2020
6191 Clear 8 1029 33 10000 5.1 30 12:43 23.03.2020
6192 Clear 7 1029 38 10000 5.1 30 12:23 23.03.2020
6193 Clear 7 1029 38 10000 5.1 30 11:56 23.03.2020
6194 Clear 6 1029 35 10000 6.2 10 11:37 23.03.2020
6195 Clear 4 1028 44 10000 3.6 0 11:19 23.03.2020
6196 Clear 4 1028 44 10000 3.6 0 10:56 23.03.2020
6197 Clear 4 1029 40 10000 5.7 10 10:36 23.03.2020
6198 Clear 4 1029 44 10000 5.1 30 10:18 23.03.2020
6199 Clear 3 1029 51 10000 4.6 10 09:42 23.03.2020
6200 Clear 2 1029 51 10000 4.6 10 09:20 23.03.2020
6201 Clear 1 1029 55 10000 4.6 360 08:40 23.03.2020
6202 Clear -1 1029 52 10000 4.6 360 08:20 23.03.2020
6203 Clear -1 1029 55 10000 4.6 360 08:20 23.03.2020
6204 Clear -1 1029 52 10000 4.6 360 07:59 23.03.2020
6205 Clear -2 1029 63 10000 4.1 360 07:40 23.03.2020
6206 Clear -2 1029 63 10000 4.1 350 07:19 23.03.2020
6207 Clear -2 1029 68 10000 3.6 340 06:48 23.03.2020
6208 Clear -2 1028 63 10000 4.1 360 05:50 23.03.2020
6209 Clear -2 1028 63 10000 5.1 360 04:57 23.03.2020
6210 Clear -1 1028 57 10000 4.6 360 03:26 23.03.2020
6211 Clear 0 1028 55 10000 5.1 20 01:50 23.03.2020
6212 Clear 0 1027 55 10000 4.6 20 00:58 23.03.2020
6213 Clear 0 1027 55 10000 5.1 20 00:36 23.03.2020
6214 Clear 1 1027 51 10000 4.6 20 23:47 22.03.2020
6215 Clear 1 1027 51 10000 4.6 20 23:26 22.03.2020
6216 Clear 2 1027 51 10000 5.7 20 22:45 22.03.2020
6217 Clear 2 1027 51 10000 5.7 20 22:24 22.03.2020
6218 Clear 2 1027 48 10000 5.1 20 21:56 22.03.2020
6219 Clear 2 1027 48 10000 5.7 10 21:37 22.03.2020
6220 Clear 3 1026 48 10000 6.2 20 21:19 22.03.2020
6221 Clear 4 1026 45 10000 5.7 30 20:46 22.03.2020
6222 Clear 4 1026 45 10000 5.7 30 20:25 22.03.2020
6223 Clear 5 1026 45 10000 5.7 30 19:58 22.03.2020
6224 Clear 5 1025 45 10000 6.2 30 19:40 22.03.2020
6225 Clear 6 1025 45 10000 6.2 30 19:20 22.03.2020
6226 Clear 6 1025 45 10000 6.2 30 19:20 22.03.2020
6227 Clear 6 1024 45 10000 5.1 40 18:59 22.03.2020
6228 Clear 7 1025 39 10000 6.2 70 18:41 22.03.2020
6229 Clear 7 1025 39 10000 6.2 70 18:41 22.03.2020
6230 Clear 8 1024 39 10000 7.7 30 18:22 22.03.2020
6231 Clear 8 1023 37 10000 8.7 30 17:59 22.03.2020
6232 Clear 8 1024 39 10000 6.2 70 17:39 22.03.2020
6233 Clear 8 1024 39 10000 6.2 70 17:39 22.03.2020
6234 Clear 9 1024 37 10000 5.7 50 17:21 22.03.2020
6235 Clear 9 1023 34 10000 7.2 30 16:59 22.03.2020
6236 Clear 10 1023 37 10000 6.7 20 16:41 22.03.2020
6237 Clear 10 1023 39 10000 8.2 20 16:21 22.03.2020
6238 Clear 10 1023 39 10000 8.2 20 15:57 22.03.2020
6239 Clear 10 1023 39 10000 7.7 30 15:39 22.03.2020
6240 Clear 10 1023 39 10000 7.2 20 14:47 22.03.2020
6241 Clouds 9 1023 45 10000 6.7 30 14:19 22.03.2020
6242 Clouds 8 1023 45 10000 6.7 30 13:57 22.03.2020
6243 Clouds 8 1023 45 10000 6.7 20 13:39 22.03.2020
6244 Clouds 8 1024 52 10000 7.2 30 13:19 22.03.2020
6245 Clouds 8 1024 42 10000 7.2 40 12:44 22.03.2020
6246 Clouds 7 1024 42 10000 7.2 40 12:21 22.03.2020
6247 Clouds 7 1024 42 10000 6.7 30 11:57 22.03.2020
6248 Clouds 6 1024 42 10000 7.2 30 11:39 22.03.2020
6249 Clouds 6 1024 78 10000 7.2 30 11:20 22.03.2020
6250 Clouds 5 1023 75 10000 6.7 10 10:43 22.03.2020
6251 Clouds 5 1023 75 10000 6.7 10 10:24 22.03.2020
6252 Clouds 5 1023 78 10000 6.7 10 09:55 22.03.2020
6253 Clouds 4 1023 78 10000 6.7 20 09:36 22.03.2020
6254 Rain 4 1023 78 10000 6.7 20 09:18 22.03.2020
6255 Rain 4 1022 86 10000 5.7 10 08:41 22.03.2020
6256 Clouds 3 1022 86 10000 5.7 10 08:21 22.03.2020
6257 Clouds 3 1022 88 10000 6.7 10 07:50 22.03.2020
6258 Clouds 3 1022 86 10000 5.7 10 07:19 22.03.2020
6259 Rain 3 1021 93 6000 5.1 360 05:57 22.03.2020
6260 Rain 4 1021 93 6000 5.1 360 05:21 22.03.2020
6261 Rain 4 1021 93 6000 5.7 360 02:58 22.03.2020
6262 Rain 4 1020 86 10000 6.7 360 01:26 22.03.2020
6263 Clouds 4 1020 93 10000 6.7 360 00:41 22.03.2020
6264 Clouds 4 1020 93 10000 6.7 360 00:23 22.03.2020
6265 Drizzle 5 1020 93 10000 6.2 10 23:42 21.03.2020
6266 Drizzle 5 1020 93 10000 5.7 360 23:19 21.03.2020
6267 Drizzle 5 1020 93 10000 5.7 360 22:55 21.03.2020
6268 Rain 5 1020 93 10000 6.2 10 22:36 21.03.2020
6269 Rain 5 1020 86 9000 6.7 10 22:18 21.03.2020
6270 Rain 5 1020 86 10000 6.7 10 21:41 21.03.2020
6271 Rain 5 1020 86 10000 6.7 10 21:22 21.03.2020
6272 Rain 5 1020 86 8000 6.2 10 20:56 21.03.2020
6273 Clouds 5 1020 86 10000 6.2 10 20:38 21.03.2020
6274 Clouds 5 1020 86 10000 7.7 10 20:19 21.03.2020
6275 Clouds 5 1020 86 10000 7.2 360 19:43 21.03.2020
6276 Clouds 5 1020 86 10000 7.2 360 19:25 21.03.2020
6277 Clouds 5 1020 86 10000 7.2 360 19:25 21.03.2020
6278 Clouds 5 1019 93 10000 7.7 360 18:57 21.03.2020
6279 Clouds 5 1019 93 10000 7.7 360 18:38 21.03.2020
6280 Clouds 5 1019 93 10000 8.2 360 18:20 21.03.2020
6281 Clouds 5 1019 93 10000 8.2 360 18:20 21.03.2020
6282 Clouds 5 1019 93 10000 8.2 360 17:55 21.03.2020
6283 Clouds 5 1018 93 6000 5.7 350 17:37 21.03.2020
6284 Clouds 5 1019 93 10000 8.2 360 17:18 21.03.2020
6285 Clouds 5 1019 93 10000 8.2 360 17:18 21.03.2020
6286 Clouds 5 1019 93 10000 8.7 360 16:41 21.03.2020
6287 Clouds 5 1019 93 10000 8.2 360 16:20 21.03.2020
6288 Clouds 5 1019 93 10000 8.7 360 16:20 21.03.2020
6289 Clouds 5 1019 93 10000 8.2 360 15:56 21.03.2020
6290 Clouds 5 1019 86 10000 8.7 10 15:37 21.03.2020
6291 Clouds 5 1019 86 10000 8.7 10 15:19 21.03.2020
6292 Clouds 5 1019 86 10000 8.2 10 14:54 21.03.2020
6293 Clouds 5 1019 93 10000 7.7 10 14:36 21.03.2020
6294 Rain 6 1019 86 10000 7.2 360 14:18 21.03.2020
6295 Rain 6 1019 86 10000 7.2 360 13:57 21.03.2020
6296 Rain 6 1019 86 10000 7.7 10 13:38 21.03.2020
6297 Rain 6 1019 86 10000 7.7 10 13:19 21.03.2020
6298 Clouds 6 1018 81 10000 6.2 350 12:40 21.03.2020
6299 Drizzle 6 1019 93 8000 8.7 360 12:20 21.03.2020
6300 Drizzle 7 1019 93 8000 8.7 360 11:59 21.03.2020
6301 Clouds 7 1019 93 10000 6.7 10 11:39 21.03.2020
6302 Clouds 7 1019 93 10000 6.7 10 11:39 21.03.2020
6303 Rain 7 1019 93 10000 7.2 10 11:19 21.03.2020
6304 Rain 7 1019 93 10000 7.2 10 10:58 21.03.2020
6305 Clouds 7 1019 81 10000 8.2 10 10:39 21.03.2020
6306 Clouds 7 1019 81 10000 8.2 10 10:21 21.03.2020
6307 Clouds 7 1019 81 10000 6.7 10 09:58 21.03.2020
6308 Clouds 7 1019 81 10000 4.1 10 09:39 21.03.2020
6309 Clouds 7 1019 75 10000 6.7 10 09:20 21.03.2020
6310 Clouds 7 1019 70 10000 7.2 20 08:55 21.03.2020
6311 Clouds 7 1019 75 10000 3.1 350 08:37 21.03.2020
6312 Clouds 7 1019 75 10000 6.7 20 08:18 21.03.2020
6313 Clouds 7 1019 75 10000 7.2 10 07:37 21.03.2020
6314 Clouds 7 1019 75 10000 7.7 10 07:19 21.03.2020
6315 Clouds 7 1018 75 10000 6.7 20 06:44 21.03.2020
6316 Clouds 7 1018 75 10000 6.7 20 06:24 21.03.2020
6317 Clouds 7 1018 81 10000 5.7 20 05:40 21.03.2020
6318 Clouds 8 1019 81 10000 4.6 10 03:49 21.03.2020
6319 Clouds 8 1019 81 9000 5.7 20 02:37 21.03.2020
6320 Clouds 8 1019 81 8000 5.1 10 01:45 21.03.2020
6321 Clouds 9 1019 81 8000 5.1 10 01:25 21.03.2020
6322 Clouds 9 1020 76 9000 5.1 10 00:39 21.03.2020
6323 Clouds 9 1020 76 9000 5.1 10 00:21 21.03.2020
6324 Clouds 9 1020 71 8000 5.7 10 23:43 20.03.2020
6325 Rain 10 1020 71 9000 4.6 10 23:22 20.03.2020
6326 Rain 10 1019 62 10000 5.1 360 22:44 20.03.2020
6327 Rain 10 1019 62 10000 5.1 360 22:25 20.03.2020
6328 Rain 11 1019 62 10000 3.6 350 21:59 20.03.2020
6329 Rain 11 1019 66 9000 2.6 350 21:40 20.03.2020
6330 Rain 11 1019 66 9000 3.1 350 21:20 20.03.2020
6331 Rain 11 1019 66 9000 3.1 350 20:59 20.03.2020
6332 Rain 12 1019 71 10000 3.1 350 20:41 20.03.2020
6333 Rain 12 1019 71 10000 3.1 350 20:20 20.03.2020
6334 Rain 13 1019 67 9000 2.6 350 19:49 20.03.2020
6335 Rain 13 1018 58 10000 1.5 320 19:22 20.03.2020
6336 Rain 14 1018 62 10000 2.1 320 18:59 20.03.2020
6337 Rain 14 1018 59 10000 1.5 0 18:39 20.03.2020
6338 Rain 15 1018 51 10000 3.6 20 18:20 20.03.2020
6339 Rain 16 1018 51 10000 3.6 20 17:56 20.03.2020
6340 Rain 16 1018 52 10000 3.1 20 17:38 20.03.2020
6341 Rain 17 1018 52 10000 3.1 20 17:19 20.03.2020
6342 Rain 17 1018 52 10000 3.1 20 17:19 20.03.2020
6343 Rain 17 1018 48 10000 2.6 30 16:43 20.03.2020
6344 Rain 18 1018 48 10000 2.6 30 16:21 20.03.2020
6345 Rain 18 1018 52 10000 2.1 0 15:59 20.03.2020
6346 Clouds 17 1019 48 10000 2.1 60 15:41 20.03.2020
6347 Clouds 17 1019 48 10000 2.1 60 15:20 20.03.2020
6348 Rain 18 1019 55 10000 3.1 10 14:42 20.03.2020
6349 Rain 17 1019 55 10000 3.1 10 14:21 20.03.2020
6350 Rain 18 1020 52 10000 2.6 50 13:55 20.03.2020
6351 Rain 17 1020 59 10000 2.1 360 13:36 20.03.2020
6352 Rain 17 1020 55 10000 2.1 360 13:18 20.03.2020
6353 Rain 17 1020 59 10000 2.1 30 12:39 20.03.2020
6354 Rain 16 1021 59 10000 1.5 0 12:20 20.03.2020
6355 Rain 16 1021 59 10000 1.5 0 12:20 20.03.2020
6356 Rain 16 1021 59 10000 1.5 0 11:54 20.03.2020
6357 Rain 15 1021 62 10000 1.5 70 11:36 20.03.2020
6358 Rain 15 1021 67 10000 2.6 30 11:18 20.03.2020
6359 Rain 14 1021 67 10000 1.5 60 10:41 20.03.2020
6360 Rain 14 1021 67 10000 1.5 60 10:21 20.03.2020
6361 Rain 12 1021 76 10000 1 0 09:55 20.03.2020
6362 Rain 12 1021 76 10000 1 0 09:55 20.03.2020
6363 Rain 12 1021 76 10000 1 0 09:37 20.03.2020
6364 Rain 11 1021 76 10000 1 10 09:18 20.03.2020
6365 Rain 9 1021 81 10000 1.47 312 08:41 20.03.2020
6366 Clear 9 1021 81 10000 1.6 311 08:22 20.03.2020
6367 Clear 7 1021 87 10000 0.5 0 07:48 20.03.2020
6368 Clear 7 1021 93 10000 0.5 0 07:30 20.03.2020
6369 Clear 7 1021 87 10000 0.5 0 06:58 20.03.2020
6370 Clear 7 1021 93 10000 1 0 06:40 20.03.2020
6371 Clear 8 1021 81 10000 1 0 04:51 20.03.2020
6372 Clear 8 1021 93 6000 1.13 152 03:21 20.03.2020
6373 Clear 9 1021 76 10000 4.6 270 01:58 20.03.2020
6374 Clouds 9 1021 81 9000 5.1 270 00:59 20.03.2020
6375 Clouds 9 1021 81 10000 5.1 270 00:30 20.03.2020
6376 Clouds 10 1022 76 9000 4.6 270 23:47 19.03.2020
6377 Clouds 10 1022 76 9000 4.6 270 23:28 19.03.2020
6378 Clear 11 1022 76 9000 4.6 270 22:57 19.03.2020
6379 Clear 11 1022 76 10000 3.6 270 22:38 19.03.2020
6380 Clear 11 1022 76 10000 3.6 270 22:19 19.03.2020
6381 Clear 11 1022 76 10000 3.6 270 21:42 19.03.2020
6382 Clear 12 1022 76 10000 3.6 270 21:20 19.03.2020
6383 Clear 12 1021 76 10000 3.1 280 20:59 19.03.2020
6384 Clear 12 1021 71 10000 3.1 290 20:41 19.03.2020
6385 Clear 13 1021 71 10000 3.1 290 20:23 19.03.2020
6386 Rain 13 1021 67 10000 1 70 19:56 19.03.2020
6387 Rain 14 1021 67 10000 1.5 350 19:38 19.03.2020
6388 Rain 15 1021 59 10000 2.1 350 19:19 19.03.2020
6389 Rain 15 1021 63 10000 2.6 350 18:56 19.03.2020
6390 Rain 16 1021 63 10000 2.6 360 18:38 19.03.2020
6391 Rain 17 1021 52 10000 2.1 310 18:19 19.03.2020
6392 Clouds 17 1021 52 10000 2.1 290 17:41 19.03.2020
6393 Rain 18 1021 45 10000 2.6 270 17:19 19.03.2020
6394 Rain 19 1021 52 10000 2.6 350 16:45 19.03.2020
6395 Rain 19 1021 52 10000 1 0 16:25 19.03.2020
6396 Rain 19 1022 52 10000 1 0 15:55 19.03.2020
6397 Rain 18 1022 59 10000 2.6 20 15:36 19.03.2020
6398 Rain 18 1022 59 10000 2.1 360 15:18 19.03.2020
6399 Rain 18 1023 55 10000 2.1 350 14:43 19.03.2020
6400 Clouds 18 1023 59 10000 2.6 350 14:21 19.03.2020
6401 Clouds 18 1023 59 10000 2.6 350 13:41 19.03.2020
6402 Rain 18 1023 59 10000 2.1 70 13:21 19.03.2020
6403 Rain 17 1024 59 10000 1.5 70 12:58 19.03.2020
6404 Rain 17 1024 63 10000 2.1 320 12:40 19.03.2020
6405 Rain 17 1024 55 10000 1.5 0 12:21 19.03.2020
6406 Rain 16 1025 62 10000 1.5 0 11:43 19.03.2020
6407 Clear 15 1025 58 10000 1 0 11:24 19.03.2020
6408 Clear 14 1025 58 10000 1 0 10:58 19.03.2020
6409 Clear 14 1025 71 10000 1 0 10:38 19.03.2020
6410 Clear 13 1025 81 10000 1.5 0 10:19 19.03.2020
6411 Clear 13 1025 81 10000 1.5 0 09:57 19.03.2020
6412 Clear 11 1025 87 10000 1 0 09:37 19.03.2020
6413 Clear 10 1025 87 10000 1 0 09:18 19.03.2020
6414 Clear 8 1025 87 10000 1 0 08:42 19.03.2020
6415 Clear 7 1025 81 10000 1 190 08:21 19.03.2020
6416 Clear 6 1025 81 10000 1.5 310 07:46 19.03.2020
6417 Clear 6 1024 87 10000 3.6 260 07:28 19.03.2020
6418 Clear 6 1025 100 9000 1 139 06:43 19.03.2020
6419 Clear 6 1025 81 10000 3.6 270 05:48 19.03.2020
6420 Clear 7 1025 81 10000 3.1 270 04:57 19.03.2020
6421 Clear 7 1025 81 10000 1.5 0 04:39 19.03.2020
6422 Clear 7 1025 76 10000 4.6 270 02:50 19.03.2020
6423 Clear 8 1025 81 10000 4.1 270 01:21 19.03.2020
6424 Clear 9 1025 76 10000 3.6 270 00:32 19.03.2020
6425 Clear 9 1025 76 10000 3.6 270 23:57 18.03.2020
6426 Clear 9 1025 76 10000 4.1 270 23:30 18.03.2020
6427 Clear 9 1025 76 10000 4.1 270 23:30 18.03.2020
6428 Clear 9 1025 76 10000 4.1 270 23:30 18.03.2020
6429 Clear 10 1026 71 10000 3.6 270 22:58 18.03.2020
6430 Clear 10 1026 76 10000 4.1 270 22:39 18.03.2020
6431 Clear 10 1026 76 10000 4.1 270 22:21 18.03.2020
6432 Clear 11 1026 76 10000 0.5 0 21:42 18.03.2020
6433 Clear 11 1026 76 10000 0.5 0 21:22 18.03.2020
6434 Clear 11 1026 76 10000 1 320 20:59 18.03.2020
6435 Clear 12 1025 71 10000 1.5 350 20:41 18.03.2020
6436 Rain 12 1025 67 10000 1 0 20:21 18.03.2020
6437 Clouds 13 1025 67 10000 1 0 19:58 18.03.2020
6438 Clouds 13 1025 58 10000 2.1 340 19:40 18.03.2020
6439 Clouds 14 1025 58 10000 2.6 330 19:21 18.03.2020
6440 Clouds 15 1025 59 10000 2.6 360 18:42 18.03.2020
6441 Clouds 16 1024 51 10000 2.6 360 18:21 18.03.2020
6442 Clouds 16 1024 51 10000 2.6 360 17:59 18.03.2020
6443 Clouds 16 1024 51 10000 2.6 360 17:59 18.03.2020
6444 Clouds 17 1025 52 10000 3.1 350 17:41 18.03.2020
6445 Rain 17 1025 52 10000 3.1 10 17:22 18.03.2020
6446 Rain 18 1025 48 10000 2.6 20 16:59 18.03.2020
6447 Rain 18 1025 45 10000 3.1 20 16:40 18.03.2020
6448 Rain 18 1025 52 10000 2.6 10 16:20 18.03.2020
6449 Rain 18 1026 48 10000 2.6 20 15:56 18.03.2020
6450 Rain 19 1026 52 10000 2.6 340 15:37 18.03.2020
6451 Rain 18 1026 48 10000 1.5 0 15:18 18.03.2020
6452 Rain 18 1027 52 10000 2.1 340 14:42 18.03.2020
6453 Clouds 18 1027 55 10000 1.5 10 14:21 18.03.2020
6454 Clouds 18 1027 63 10000 2.1 360 13:40 18.03.2020
6455 Clouds 17 1028 59 10000 1.5 10 13:19 18.03.2020
6456 Clouds 17 1028 55 10000 2.6 340 12:43 18.03.2020
6457 Clouds 16 1028 59 10000 1.5 10 12:21 18.03.2020
6458 Clouds 16 1029 62 10000 1 0 11:59 18.03.2020
6459 Clouds 15 1029 71 10000 1.5 0 11:37 18.03.2020
6460 Clear 15 1029 58 10000 1.5 0 11:18 18.03.2020
6461 Clear 14 1029 71 10000 1 0 10:56 18.03.2020
6462 Clear 14 1029 71 10000 1 0 10:36 18.03.2020
6463 Clear 13 1029 76 10000 1 0 10:18 18.03.2020
6464 Clear 11 1030 81 10000 0.5 0 09:42 18.03.2020
6465 Clear 11 1030 81 10000 0.5 0 09:23 18.03.2020
6466 Clear 9 1029 81 10000 2.1 190 08:54 18.03.2020
6467 Clear 8 1030 93 10000 0.4 331 08:36 18.03.2020
6468 Clouds 7 1030 93 10000 1.1 119 08:18 18.03.2020
6469 Clouds 6 1029 87 10000 2.6 230 07:39 18.03.2020
6470 Clouds 6 1029 93 10000 1 0 07:21 18.03.2020
6471 Clouds 5 1029 93 10000 1.1 119 06:42 18.03.2020
6472 Clouds 6 1029 93 10000 1.1 119 05:43 18.03.2020
6473 Clear 6 1029 93 10000 1 150 05:18 18.03.2020
6474 Clear 6 1029 93 10000 1.37 143 03:21 18.03.2020
6475 Clear 7 1030 93 10000 2.1 220 02:37 18.03.2020
6476 Clear 7 1030 93 10000 2.1 220 02:37 18.03.2020
6477 Clear 7 1030 93 10000 1.5 220 01:46 18.03.2020
6478 Clouds 8 1030 93 10000 2.11 129 01:20 18.03.2020
6479 Clear 8 1030 93 10000 1.98 132 00:23 18.03.2020
6480 Clear 8 1030 76 10000 4.1 270 23:43 17.03.2020
6481 Clouds 9 1030 76 10000 4.1 270 23:23 17.03.2020
6482 Clear 9 1030 76 10000 3.6 270 22:47 17.03.2020
6483 Clear 9 1030 76 10000 3.6 270 22:28 17.03.2020
6484 Clouds 10 1030 76 10000 3.1 280 21:59 17.03.2020
6485 Clear 10 1030 71 10000 2.6 280 21:37 17.03.2020
6486 Clear 10 1030 76 10000 1.5 0 21:19 17.03.2020
6487 Clouds 11 1030 71 10000 2.1 340 20:38 17.03.2020
6488 Clouds 11 1030 71 10000 2.1 340 20:20 17.03.2020
6489 Clouds 12 1030 71 10000 2.1 100 19:54 17.03.2020
6490 Clouds 12 1030 67 10000 1.5 100 19:36 17.03.2020
6491 Clouds 13 1029 66 10000 2.1 350 19:18 17.03.2020
6492 Clouds 13 1029 67 10000 2.6 350 18:54 17.03.2020
6493 Clouds 13 1029 55 10000 0.5 340 18:36 17.03.2020
6494 Clouds 15 1029 55 10000 0.5 340 18:18 17.03.2020
6495 Clouds 15 1029 55 10000 0.5 340 18:18 17.03.2020
6496 Clouds 16 1029 55 10000 0.87 79 17:40 17.03.2020
6497 Clouds 16 1029 55 10000 2.1 340 17:20 17.03.2020
6498 Clouds 16 1029 55 10000 1 0 16:44 17.03.2020
6499 Clouds 17 1030 51 10000 1.5 360 16:20 17.03.2020
6500 Clouds 17 1029 51 10000 1 0 15:56 17.03.2020
6501 Clouds 17 1029 51 10000 1 0 15:56 17.03.2020
6502 Clouds 17 1030 51 10000 1.5 0 15:38 17.03.2020
6503 Clouds 17 1029 48 10000 1 0 15:18 17.03.2020
6504 Clouds 17 1030 55 10000 1.5 0 14:41 17.03.2020
6505 Clouds 17 1030 55 10000 2.1 260 14:21 17.03.2020
6506 Clouds 16 1030 55 10000 2.1 250 13:43 17.03.2020
6507 Clouds 16 1030 51 10000 1 0 13:25 17.03.2020
6508 Clouds 16 1031 55 10000 2.6 220 12:58 17.03.2020
6509 Clouds 15 1031 58 10000 2.6 210 12:39 17.03.2020
6510 Clouds 15 1031 54 10000 2.1 210 12:21 17.03.2020
6511 Clouds 14 1031 54 10000 2.6 200 11:45 17.03.2020
6512 Clouds 13 1031 54 10000 1 0 11:27 17.03.2020
6513 Clouds 12 1031 71 10000 1 0 10:57 17.03.2020
6514 Clouds 12 1031 66 10000 2.6 210 10:57 17.03.2020
6515 Clouds 12 1031 66 10000 2.6 210 10:37 17.03.2020
6516 Clouds 12 1031 76 10000 1 0 10:19 17.03.2020
6517 Clouds 11 1030 66 10000 1.43 294 09:55 17.03.2020
6518 Clouds 11 1030 66 10000 1.43 294 09:36 17.03.2020
6519 Clouds 10 1030 81 10000 1.36 290 09:18 17.03.2020
6520 Clouds 9 1030 76 10000 0.5 140 08:42 17.03.2020
6521 Clouds 9 1029 76 10000 0.5 130 08:21 17.03.2020
6522 Clouds 8 1029 81 10000 1.56 156 07:49 17.03.2020
6523 Clouds 8 1029 87 10000 1 0 07:24 17.03.2020
6524 Clouds 8 1029 87 10000 1 0 06:56 17.03.2020
6525 Rain 8 1029 81 10000 2.1 170 06:33 17.03.2020
6526 Clouds 8 1028 75 10000 1.5 120 05:41 17.03.2020
6527 Clouds 8 1027 71 9000 2.1 180 03:36 17.03.2020
6528 Clouds 8 1026 76 10000 1.27 176 02:45 17.03.2020
6529 Clouds 9 1026 62 10000 0.5 0 01:41 17.03.2020
6530 Clouds 9 1026 58 10000 0.5 0 01:19 17.03.2020
6531 Clouds 9 1026 66 10000 1 0 00:19 17.03.2020
6532 Clouds 9 1026 54 10000 2.1 150 23:45 16.03.2020
6533 Clouds 9 1025 58 10000 1 0 23:23 16.03.2020
6534 Clouds 10 1025 54 10000 2.1 220 22:40 16.03.2020
6535 Clouds 10 1025 62 10000 1.5 170 22:22 16.03.2020
6536 Clouds 10 1025 62 10000 1.5 170 21:57 16.03.2020
6537 Clouds 10 1025 62 10000 1.5 170 21:57 16.03.2020
6538 Clouds 11 1024 47 10000 3.1 230 21:38 16.03.2020
6539 Clouds 11 1024 47 10000 3.1 230 21:20 16.03.2020
6540 Clouds 11 1024 44 10000 1.5 250 20:55 16.03.2020
6541 Clouds 12 1023 44 10000 3.1 250 20:37 16.03.2020
6542 Clouds 12 1023 44 10000 3.1 250 20:18 16.03.2020
6543 Clouds 13 1023 47 10000 1 210 19:40 16.03.2020
6544 Clouds 13 1023 44 10000 3.1 250 19:20 16.03.2020
6545 Clouds 14 1022 39 10000 1.38 159 18:43 16.03.2020
6546 Clouds 16 1021 42 10000 2.6 320 18:21 16.03.2020
6547 Clouds 16 1021 39 10000 3.6 240 17:55 16.03.2020
6548 Clouds 16 1021 42 10000 3.6 290 17:37 16.03.2020
6549 Clouds 16 1021 34 10000 2.6 260 17:18 16.03.2020
6550 Clouds 17 1021 37 10000 1 0 16:44 16.03.2020
6551 Clouds 17 1021 34 10000 2.6 260 16:24 16.03.2020
6552 Clouds 17 1020 39 10000 2.6 190 15:45 16.03.2020
6553 Clouds 18 1020 39 10000 2.6 190 15:27 16.03.2020
6554 Clouds 17 1020 34 10000 3.1 210 14:49 16.03.2020
6555 Clouds 17 1020 39 10000 3.6 220 14:28 16.03.2020
6556 Clouds 17 1020 39 10000 3.6 220 13:59 16.03.2020
6557 Clouds 17 1020 39 10000 4.6 210 13:41 16.03.2020
6558 Clouds 17 1020 42 10000 2.1 110 13:22 16.03.2020
6559 Clouds 16 1020 36 10000 5.1 190 12:45 16.03.2020
6560 Clouds 16 1020 51 10000 2.6 150 12:24 16.03.2020
6561 Clouds 16 1020 54 10000 3.1 140 11:56 16.03.2020
6562 Clouds 15 1020 48 10000 2.6 180 11:37 16.03.2020
6563 Clouds 13 1020 58 10000 1.28 346 11:18 16.03.2020
6564 Clouds 13 1020 62 10000 1 0 10:40 16.03.2020
6565 Clouds 12 1020 58 10000 4.1 190 10:19 16.03.2020
6566 Clouds 10 1020 70 10000 2.1 200 09:42 16.03.2020
6567 Clouds 9 1020 71 10000 2.1 160 09:24 16.03.2020
6568 Clouds 7 1019 75 10000 1 0 08:53 16.03.2020
6569 Clear 6 1019 86 10000 3.6 240 08:25 16.03.2020
6570 Clear 5 1018 93 10000 1 0 07:49 16.03.2020
6571 Clear 4 1018 93 10000 1 0 07:27 16.03.2020
6572 Clear 4 1018 93 10000 0.5 0 06:54 16.03.2020
6573 Clear 4 1017 93 10000 1 0 06:25 16.03.2020
6574 Clear 4 1017 93 10000 1 0 05:42 16.03.2020
6575 Clear 5 1016 75 10000 1.5 240 02:45 16.03.2020
6576 Clouds 5 1015 81 10000 1.97 152 01:20 16.03.2020
6577 Clouds 6 1015 75 10000 2.6 250 00:40 16.03.2020
6578 Clouds 6 1015 75 10000 1 0 23:49 15.03.2020
6579 Clouds 7 1015 66 10000 2.6 260 23:21 15.03.2020
6580 Clouds 6 1015 66 10000 3.6 270 22:56 15.03.2020
6581 Clouds 6 1015 66 10000 3.1 270 22:37 15.03.2020
6582 Clouds 6 1015 75 10000 1 0 22:19 15.03.2020
6583 Clouds 7 1014 61 10000 3.1 260 21:39 15.03.2020
6584 Clouds 7 1014 61 10000 3.1 260 21:19 15.03.2020
6585 Clouds 8 1014 57 10000 3.1 270 20:43 15.03.2020
6586 Clouds 8 1014 57 10000 3.1 270 20:22 15.03.2020
6587 Clouds 9 1014 62 10000 3.1 280 19:59 15.03.2020
6588 Clouds 9 1014 50 10000 2.1 260 19:40 15.03.2020
6589 Clouds 10 1014 47 10000 2.1 270 19:22 15.03.2020
6590 Clouds 11 1014 47 10000 2.1 270 18:57 15.03.2020
6591 Clouds 11 1014 44 10000 2.1 180 18:38 15.03.2020
6592 Clouds 12 1014 44 10000 2.1 180 18:20 15.03.2020
6593 Clouds 13 1014 44 10000 3.6 180 17:54 15.03.2020
6594 Clouds 13 1014 41 10000 3.1 180 17:36 15.03.2020
6595 Clouds 14 1015 36 10000 3.1 180 17:18 15.03.2020
6596 Clouds 15 1015 36 10000 2.1 160 16:42 15.03.2020
6597 Clouds 15 1015 36 10000 2.1 160 16:23 15.03.2020
6598 Clouds 15 1015 36 10000 2.1 0 15:57 15.03.2020
6599 Clouds 15 1015 53 10000 3.1 180 15:38 15.03.2020
6600 Clouds 15 1015 53 10000 3.1 180 15:19 15.03.2020
6601 Clouds 15 1016 53 10000 3.6 170 14:46 15.03.2020
6602 Clouds 15 1016 49 10000 3.6 170 14:24 15.03.2020
6603 Clouds 14 1016 41 10000 4.1 180 13:57 15.03.2020
6604 Clouds 14 1017 41 10000 3.6 160 13:38 15.03.2020
6605 Clouds 14 1017 41 10000 3.6 160 13:38 15.03.2020
6606 Clouds 14 1017 47 10000 1.5 160 13:19 15.03.2020
6607 Clouds 14 1018 46 10000 2.6 180 12:43 15.03.2020
6608 Clouds 13 1018 46 10000 2.6 180 12:25 15.03.2020
6609 Clouds 12 1018 57 10000 0.5 0 11:54 15.03.2020
6610 Clouds 12 1018 57 10000 0.5 0 11:36 15.03.2020
6611 Clouds 9 1019 57 10000 1.5 0 11:18 15.03.2020
6612 Clouds 9 1019 57 10000 1.5 0 10:55 15.03.2020
6613 Clouds 9 1019 65 10000 2.6 190 10:36 15.03.2020
6614 Clouds 9 1019 65 10000 2.6 190 10:18 15.03.2020
6615 Clouds 7 1020 70 10000 0.5 0 09:39 15.03.2020
6616 Clouds 6 1019 80 10000 1.5 150 09:20 15.03.2020
6617 Clouds 6 1020 70 10000 0.5 0 09:20 15.03.2020
6618 Clouds 4 1019 58 10000 0.5 0 08:42 15.03.2020
6619 Clouds 3 1019 83 10000 0.5 0 08:20 15.03.2020
6620 Clouds 2 1019 80 10000 1 170 07:51 15.03.2020
6621 Clouds 1 1020 86 10000 1.5 180 07:29 15.03.2020
6622 Clouds 1 1020 86 10000 1.5 200 06:49 15.03.2020
6623 Clouds 1 1020 80 10000 2.1 200 05:50 15.03.2020
6624 Clear 1 1020 80 10000 1.5 210 05:18 15.03.2020
6625 Clear 1 1020 80 10000 1.5 220 04:43 15.03.2020
6626 Clear 1 1020 80 10000 1.5 220 04:24 15.03.2020
6627 Clear 2 1021 80 10000 2.1 220 03:48 15.03.2020
6628 Clear 2 1021 85 10000 2.6 230 02:38 15.03.2020
6629 Clear 2 1022 81 10000 2.1 240 01:35 15.03.2020
6630 Clear 3 1022 81 10000 3.6 270 00:46 15.03.2020
6631 Clear 3 1022 81 10000 3.6 270 00:27 15.03.2020
6632 Clear 3 1022 81 10000 4.1 260 23:55 14.03.2020
6633 Clear 3 1022 70 10000 3.6 280 23:37 14.03.2020
6634 Clouds 4 1022 70 10000 3.1 280 23:18 14.03.2020
6635 Clouds 4 1022 70 10000 3.1 280 22:44 14.03.2020
6636 Clouds 4 1022 70 10000 3.1 280 22:26 14.03.2020
6637 Clouds 4 1022 65 10000 3.6 270 21:57 14.03.2020
6638 Clouds 5 1022 70 10000 3.6 280 21:36 14.03.2020
6639 Clouds 5 1022 65 10000 3.6 270 21:18 14.03.2020
6640 Clouds 5 1022 65 10000 3.6 270 20:59 14.03.2020
6641 Clouds 5 1022 70 10000 3.6 270 20:40 14.03.2020
6642 Rain 6 1022 70 10000 2.6 290 20:19 14.03.2020
6643 Rain 6 1022 70 10000 3.6 270 20:19 14.03.2020
6644 Rain 7 1022 70 10000 2.6 290 19:56 14.03.2020
6645 Rain 7 1022 61 10000 2.1 290 19:38 14.03.2020
6646 Rain 8 1022 61 10000 2.1 290 19:19 14.03.2020
6647 Rain 9 1021 43 10000 0.5 0 18:37 14.03.2020
6648 Rain 10 1021 53 10000 1.5 240 18:19 14.03.2020
6649 Rain 10 1021 43 10000 1 0 17:39 14.03.2020
6650 Rain 11 1021 57 10000 1.5 350 17:21 14.03.2020
6651 Rain 11 1021 60 10000 1.5 340 16:41 14.03.2020
6652 Rain 11 1021 60 10000 1.5 340 16:23 14.03.2020
6653 Rain 11 1021 50 10000 1.5 0 15:59 14.03.2020
6654 Rain 11 1021 60 10000 1 0 15:27 14.03.2020
6655 Rain 11 1021 60 10000 1.5 0 14:59 14.03.2020
6656 Rain 11 1021 60 10000 1.5 0 14:37 14.03.2020
6657 Clouds 11 1021 50 10000 1.5 70 14:19 14.03.2020
6658 Clouds 11 1021 50 10000 1.5 70 13:56 14.03.2020
6659 Clouds 11 1021 55 10000 1.5 40 13:38 14.03.2020
6660 Rain 11 1022 57 10000 2.1 30 13:18 14.03.2020
6661 Clouds 10 1021 53 10000 2.1 360 12:43 14.03.2020
6662 Rain 9 1022 57 10000 2.1 70 12:24 14.03.2020
6663 Clouds 9 1021 57 10000 2.1 350 11:43 14.03.2020
6664 Clouds 9 1021 57 10000 2.1 350 11:43 14.03.2020
6665 Clouds 9 1022 57 10000 1.5 310 11:25 14.03.2020
6666 Clouds 8 1022 65 10000 1.5 0 10:47 14.03.2020
6667 Clouds 8 1022 65 10000 1.5 0 10:47 14.03.2020
6668 Clouds 7 1022 65 10000 1.5 0 10:28 14.03.2020
6669 Clouds 6 1022 70 10000 1.5 200 09:59 14.03.2020
6670 Clouds 5 1022 75 10000 1 0 09:40 14.03.2020
6671 Clouds 5 1021 80 10000 0.5 0 09:21 14.03.2020
6672 Clouds 4 1021 86 10000 1 330 08:46 14.03.2020
6673 Clouds 4 1021 86 10000 1 330 08:46 14.03.2020
6674 Snow 3 1021 86 10000 1 330 08:27 14.03.2020
6675 Clouds 2 1021 80 10000 2.6 220 07:41 14.03.2020
6676 Clouds 2 1021 80 10000 2.6 220 07:22 14.03.2020
6677 Clouds 2 1021 80 10000 2.1 200 06:55 14.03.2020
6678 Clouds 2 1021 69 10000 3.1 260 06:36 14.03.2020
6679 Clouds 2 1021 69 10000 3.1 270 04:56 14.03.2020
6680 Clouds 2 1021 69 10000 4.1 270 03:40 14.03.2020
6681 Clouds 2 1021 65 10000 3.6 270 02:53 14.03.2020
6682 Clouds 2 1022 69 10000 3.1 280 01:50 14.03.2020
6683 Clouds 3 1022 69 10000 1 0 00:36 14.03.2020
6684 Clouds 3 1022 60 10000 2.6 260 23:44 13.03.2020
6685 Clouds 3 1022 60 10000 2.6 260 23:25 13.03.2020
6686 Clouds 4 1022 65 10000 0.5 0 22:46 13.03.2020
6687 Clouds 4 1022 60 10000 3.6 270 22:25 13.03.2020
6688 Clouds 5 1022 56 10000 3.1 270 21:42 13.03.2020
6689 Clouds 5 1022 56 10000 3.1 270 21:21 13.03.2020
6690 Clouds 5 1022 56 10000 2.1 280 20:57 13.03.2020
6691 Clouds 5 1022 49 10000 3.6 300 20:38 13.03.2020
6692 Clouds 6 1022 56 10000 0.46 35 20:19 13.03.2020
6693 Clouds 6 1022 49 10000 0.5 340 19:42 13.03.2020
6694 Clouds 7 1021 45 10000 3.1 310 19:23 13.03.2020
6695 Clouds 8 1021 45 10000 3.1 310 19:23 13.03.2020
6696 Clouds 8 1021 46 10000 2.6 290 18:44 13.03.2020
6697 Clouds 9 1021 43 10000 4.6 300 18:25 13.03.2020
6698 Clouds 10 1021 43 10000 5.1 300 17:57 13.03.2020
6699 Clouds 10 1021 43 10000 3.1 320 17:37 13.03.2020
6700 Clear 11 1021 40 10000 3.6 330 17:18 13.03.2020
6701 Clear 11 1022 48 10000 2.1 320 16:41 13.03.2020
6702 Clear 11 1021 37 10000 3.6 320 16:23 13.03.2020
6703 Clear 10 1022 43 10000 4.1 260 15:56 13.03.2020
6704 Clear 11 1022 43 10000 4.1 260 15:37 13.03.2020
6705 Clear 11 1022 40 10000 3.6 260 15:19 13.03.2020
6706 Clear 11 1022 40 10000 4.1 250 14:41 13.03.2020
6707 Clear 11 1022 40 10000 1.5 240 14:22 13.03.2020
6708 Clouds 11 1022 49 10000 6.2 250 13:56 13.03.2020
6709 Clouds 11 1023 49 10000 4.6 270 13:38 13.03.2020
6710 Clear 11 1023 43 10000 5.7 280 13:19 13.03.2020
6711 Clear 10 1023 51 10000 5.7 230 12:40 13.03.2020
6712 Clear 10 1023 51 10000 5.1 240 12:22 13.03.2020
6713 Clear 10 1023 40 10000 5.1 280 11:59 13.03.2020
6714 Clear 10 1023 46 10000 6.7 250 11:41 13.03.2020
6715 Clear 10 1023 46 10000 6.7 250 11:41 13.03.2020
6716 Clear 9 1023 51 10000 6.2 260 11:22 13.03.2020
6717 Clear 8 1023 72 10000 7.2 260 10:48 13.03.2020
6718 Clear 8 1023 72 10000 7.2 260 10:28 13.03.2020
6719 Clear 8 1023 72 10000 7.2 260 10:28 13.03.2020
6720 Clear 8 1023 52 10000 6.7 240 09:59 13.03.2020
6721 Clear 8 1023 72 10000 5.7 230 09:41 13.03.2020
6722 Clear 8 1023 49 10000 3.6 240 09:22 13.03.2020
6723 Clear 7 1023 72 10000 5.7 250 08:46 13.03.2020
6724 Snow 6 1023 56 10000 1.5 190 08:23 13.03.2020
6725 Snow 6 1022 56 10000 2.6 210 07:52 13.03.2020
6726 Snow 6 1022 56 10000 2.1 0 07:28 13.03.2020
6727 Snow 6 1021 52 10000 5.1 250 06:53 13.03.2020
6728 Snow 6 1021 52 10000 3.1 260 06:32 13.03.2020
6729 Snow 7 1020 45 10000 6.2 260 05:55 13.03.2020
6730 Rain 7 1020 75 10000 4.6 260 05:24 13.03.2020
6731 Clouds 7 1019 65 10000 3.1 240 04:38 13.03.2020
6732 Clouds 8 1019 61 10000 3.6 220 03:43 13.03.2020
6733 Clouds 8 1018 65 10000 1 0 01:47 13.03.2020
6734 Clouds 8 1018 65 10000 1 0 01:19 13.03.2020
6735 Clouds 8 1018 65 10000 1.5 190 00:54 13.03.2020
6736 Clouds 8 1018 65 10000 1.5 190 00:28 13.03.2020
6737 Clouds 9 1018 57 10000 3.1 0 23:59 12.03.2020
6738 Rain 8 1019 81 10000 3.6 240 23:28 12.03.2020
6739 Rain 9 1018 53 10000 5.1 260 22:57 12.03.2020
6740 Rain 9 1017 61 10000 3.1 210 22:39 12.03.2020
6741 Rain 9 1017 71 10000 3.6 190 22:21 12.03.2020
6742 Rain 10 1017 62 10000 7.7 270 21:46 12.03.2020
6743 Rain 10 1017 62 10000 7.7 270 21:28 12.03.2020
6744 Rain 10 1017 66 10000 4.1 270 20:57 12.03.2020
6745 Rain 11 1017 71 10000 6.7 300 20:38 12.03.2020
6746 Rain 11 1017 71 10000 6.7 300 20:19 12.03.2020
6747 Rain 11 1016 76 10000 4.1 230 19:42 12.03.2020
6748 Rain 12 1016 87 10000 1 0 19:20 12.03.2020
6749 Rain 12 1015 81 10000 2.1 180 18:45 12.03.2020
6750 Rain 12 1015 81 10000 2.1 180 18:45 12.03.2020
6751 Rain 12 1015 62 10000 4.1 220 18:25 12.03.2020
6752 Clouds 13 1015 93 10000 1.5 100 17:57 12.03.2020
6753 Clouds 13 1015 93 10000 1.5 100 17:39 12.03.2020
6754 Clouds 13 1015 93 10000 1.5 70 17:20 12.03.2020
6755 Clouds 13 1015 62 10000 4.1 230 16:58 12.03.2020
6756 Rain 13 1015 93 7000 0.5 0 16:38 12.03.2020
6757 Clouds 14 1015 93 10000 2.1 70 16:19 12.03.2020
6758 Drizzle 14 1015 93 9000 4.6 340 15:45 12.03.2020
6759 Drizzle 14 1015 93 9000 4.6 340 15:27 12.03.2020
6760 Drizzle 14 1015 67 10000 6.7 200 14:43 12.03.2020
6761 Drizzle 15 1015 67 10000 6.7 200 14:24 12.03.2020
6762 Rain 15 1015 67 10000 5.7 200 13:57 12.03.2020
6763 Rain 15 1016 71 10000 6.7 210 13:37 12.03.2020
6764 Clouds 14 1016 71 10000 7.7 200 13:19 12.03.2020
6765 Clouds 14 1016 71 10000 8.7 200 12:43 12.03.2020
6766 Rain 14 1016 62 10000 6.7 200 12:23 12.03.2020
6767 Clouds 14 1016 67 10000 8.7 200 11:59 12.03.2020
6768 Clouds 14 1016 67 10000 9.8 190 11:39 12.03.2020
6769 Clouds 13 1016 67 10000 8.2 200 11:21 12.03.2020
6770 Clouds 13 1016 67 10000 8.2 200 11:21 12.03.2020
6771 Clouds 13 1017 62 10000 6.2 200 10:59 12.03.2020
6772 Clouds 13 1016 71 10000 7.7 190 10:41 12.03.2020
6773 Clouds 13 1016 62 10000 6.2 190 10:22 12.03.2020
6774 Clouds 13 1016 71 10000 6.7 180 09:49 12.03.2020
6775 Clouds 13 1016 71 10000 6.7 180 09:29 12.03.2020
6776 Clouds 12 1016 76 10000 5.7 170 08:55 12.03.2020
6777 Clouds 12 1016 76 10000 4.1 190 08:37 12.03.2020
6778 Clouds 11 1016 76 10000 2.1 210 08:18 12.03.2020
6779 Clouds 11 1016 67 10000 4.1 220 07:47 12.03.2020
6780 Clouds 11 1016 67 10000 4.1 220 07:21 12.03.2020
6781 Clouds 11 1015 76 10000 4.6 170 06:20 12.03.2020
6782 Clouds 11 1017 76 10000 2.1 210 05:34 12.03.2020
6783 Clouds 10 1016 76 10000 6.7 170 03:44 12.03.2020
6784 Clouds 9 1016 76 10000 4.1 160 01:58 12.03.2020
6785 Clouds 9 1017 81 10000 1.5 110 01:23 12.03.2020
6786 Clouds 9 1017 82 10000 3.1 170 00:42 12.03.2020
6787 Clouds 9 1018 82 10000 2.6 170 23:58 11.03.2020
6788 Clouds 9 1018 81 10000 2.1 170 23:37 11.03.2020
6789 Clouds 9 1019 93 10000 1 0 23:18 11.03.2020
6790 Clouds 9 1018 81 10000 2.1 200 22:41 11.03.2020